TK32 / TC-LLE 7700 Squawk Report (18th of November, 2021)

Aircraft B789 Reg No. TC-LLE Age 2 years old
Model 787 Jet engines 2 First flight 02-09-19
Registered 14-09-19 Rollout N/A Delivered 14-09-19
Construction No. 65805 Line No. 0899 Series 9
ADSHEX 4BB185 Airline name Turkish Airlines Owner N/A
Airfield based Istanbul International~Arnauvtkoy~TC First tracked N/A

Flight history for TC-LLE

Route Flight No Date Playback
Chicago Ohare Intl (ORD) - Istanbul Airport (IST) TK6 2022-01-20 13:17:00
Istanbul Airport (IST) - Chicago Ohare Intl (ORD) TK5 2022-01-20 03:19:00
San Francisco Intl (SFO) - Istanbul Airport (IST) TK290 2022-01-19 12:43:00
Istanbul Airport (IST) - San Francisco Intl (SFO) TK289 2022-01-18 18:58:00
Miami Intl (MIA) - Istanbul Airport (IST) TK158 2022-01-18 02:50:00
Istanbul Airport (IST) - Miami Intl (MIA) TK157 2022-01-17 12:04:00
Ben Gurion (TLV) - Istanbul Airport (IST) TK789 2022-01-16 23:14:00
Istanbul Airport (IST) - Ben Gurion (TLV) TK788 2022-01-16 19:31:00
Los Angeles Intl (LAX) - Istanbul Airport (IST) TK180 2022-01-16 16:18:00
Istanbul Airport (IST) - Los Angeles Intl (LAX) TK179 2022-01-15 19:34:00
Changi Intl (SIN) - Istanbul Airport (IST) TK55 2022-01-15 05:43:00
Istanbul Airport (IST) - Changi Intl (SIN) TK54 2022-01-14 15:46:00
Hartsfield Jackson Atlanta Intl (ATL) - Istanbul Airport (IST) TK32 2022-01-13 13:24:00
Istanbul Airport (IST) - Hartsfield Jackson Atlanta Intl (ATL) TK31 2022-01-13 01:17:00
Istanbul Airport (IST) - Licenciado Benito Juarez (MEX) - Cancun Intl (CUN) - Istanbul Airport (IST) TK182 2022-01-12 07:13:00
Istanbul Airport (IST) - Licenciado Benito Juarez (MEX) - Cancun Intl (CUN) - Istanbul Airport (IST) TK182 2022-01-12 00:13:00
Boryspil Intl (KBP) - Istanbul Airport (IST) TK460 2022-01-10 21:58:00
Istanbul Airport (IST) - Boryspil Intl (KBP) TK459 2022-01-10 18:34:00
Vancouver International (YVR) - Istanbul Airport (IST) TK76 2022-01-10 14:42:00
Istanbul Airport (IST) - Vancouver International (YVR) TK75 2022-01-10 02:59:00
Time Lat Lon Altitude Heading Speed Vertical Rate
2021-11-18 17:37:21 GMT 41.208645 28.728811 1,100 0 147 -832
2021-11-18 17:37:11 GMT 41.201797 28.728943 1,225 0 147 -832
2021-11-18 17:36:59 GMT 41.194427 28.729126 1,375 0 148 -832
2021-11-18 17:36:45 GMT 41.183762 28.729309 1,600 0 153 -896
2021-11-18 17:36:38 GMT 41.179459 28.729374 1,675 359 159 -832
2021-11-18 17:36:27 GMT 41.170898 28.729553 1,850 0 164 -896
2021-11-18 17:36:15 GMT 41.161255 28.729748 2,025 0 169 -1024
2021-11-18 17:34:07 GMT 41.048740 28.731745 3,700 2 212 -64
2021-11-18 17:33:57 GMT 41.038879 28.729919 3,725 20 216 -128
2021-11-18 17:33:47 GMT 41.030350 28.723068 3,725 45 222 128
2021-11-18 17:33:37 GMT 41.024643 28.710999 3,700 70 225 -64
2021-11-18 17:33:26 GMT 41.021805 28.697205 3,700 75 226 0
2021-11-18 17:33:12 GMT 41.018246 28.678436 3,700 75 230 64
2021-11-18 17:33:03 GMT 41.015717 28.665344 3,675 75 240 64
2021-11-18 17:32:55 GMT 41.013657 28.654602 3,700 75 244 -64
2021-11-18 17:32:43 GMT 41.010223 28.636353 3,700 75 243 0
2021-11-18 17:32:35 GMT 41.007980 28.624817 3,700 75 244 -128
2021-11-18 17:32:24 GMT 41.004913 28.608887 3,700 75 243 64
2021-11-18 17:32:15 GMT 41.002350 28.595642 3,700 75 243 0
2021-11-18 17:32:05 GMT 40.999603 28.581482 3,700 75 243 64
2021-11-18 17:31:55 GMT 40.996788 28.566889 3,700 75 243 0
2021-11-18 17:31:44 GMT 40.993900 28.551594 3,700 75 242 128
2021-11-18 17:31:35 GMT 40.991180 28.537659 3,700 75 242 64
2021-11-18 17:31:25 GMT 40.988407 28.523191 3,700 75 242 0
2021-11-18 17:31:14 GMT 40.985519 28.508211 3,700 75 243 -64
2021-11-18 17:31:03 GMT 40.982681 28.492979 3,700 76 241 -64
2021-11-18 17:30:53 GMT 40.979843 28.477499 3,700 76 243 -64
2021-11-18 17:30:42 GMT 40.976955 28.461643 3,675 76 252 128
2021-11-18 17:30:33 GMT 40.974350 28.447411 3,700 78 258 64
2021-11-18 17:30:21 GMT 40.972672 28.429995 3,700 88 266 -64
2021-11-18 17:30:11 GMT 40.973232 28.413204 3,725 97 273 -384
2021-11-18 17:30:01 GMT 40.975979 28.396164 3,850 111 277 -1024
2021-11-18 17:29:50 GMT 40.982712 28.380371 4,025 131 279 -1024
2021-11-18 17:29:39 GMT 40.992504 28.368010 4,200 139 280 -1088
2021-11-18 17:29:30 GMT 41.001892 28.357544 4,400 139 279 -1408
2021-11-18 17:29:19 GMT 41.012848 28.345350 4,650 139 277 -1408
2021-11-18 17:29:09 GMT 41.022858 28.334240 4,900 139 276 -1472
2021-11-18 17:28:55 GMT 41.036728 28.318695 5,225 139 277 -1344
2021-11-18 17:28:47 GMT 41.044647 28.309753 5,425 139 279 -1408
2021-11-18 17:28:36 GMT 41.055313 28.297729 5,675 139 281 -1408
2021-11-18 17:28:26 GMT 41.064800 28.287111 5,875 139 283 -1408
2021-11-18 17:28:16 GMT 41.075691 28.275002 6,125 139 285 -1408
2021-11-18 17:28:06 GMT 41.085892 28.263611 6,375 139 285 -1408
2021-11-18 17:27:55 GMT 41.096649 28.251587 6,625 139 287 -1472
2021-11-18 17:27:44 GMT 41.107162 28.239796 6,850 139 289 -1472
2021-11-18 17:27:35 GMT 41.116699 28.229187 7,075 139 290 -1472
2021-11-18 17:27:25 GMT 41.127319 28.217384 7,325 139 292 -1536
2021-11-18 17:27:15 GMT 41.137802 28.205750 7,575 139 294 -1472
2021-11-18 17:27:05 GMT 41.148285 28.194031 7,800 139 297 -1408
2021-11-18 17:26:55 GMT 41.158791 28.182241 8,000 139 306 -960
2021-11-18 17:26:45 GMT 41.170258 28.169250 8,150 139 315 -1024
2021-11-18 17:26:33 GMT 41.183350 28.154480 8,350 139 324 -1472
2021-11-18 17:26:25 GMT 41.192596 28.144104 8,575 139 329 -1600
2021-11-18 17:26:15 GMT 41.204922 28.130306 8,825 139 335 -1536
2021-11-18 17:26:04 GMT 41.216949 28.116760 9,075 139 339 -1600
2021-11-18 17:25:53 GMT 41.230618 28.101467 9,350 139 342 -1408
2021-11-18 17:25:44 GMT 41.241837 28.088982 9,550 139 346 -1024
2021-11-18 17:25:33 GMT 41.254807 28.074402 9,725 139 352 -1152
2021-11-18 17:25:24 GMT 41.266846 28.060974 9,975 139 356 -1792
2021-11-18 17:25:12 GMT 41.280991 28.045105 10,300 139 357 -1792
2021-11-18 17:25:02 GMT 41.293671 28.030884 10,600 139 359 -1792
2021-11-18 17:24:52 GMT 41.307678 28.015076 10,900 139 363 -1728
2021-11-18 17:24:41 GMT 41.320770 28.000305 11,175 139 365 -1664
2021-11-18 17:24:31 GMT 41.333954 27.985352 11,500 139 367 -1984
2021-11-18 17:24:21 GMT 41.346359 27.971191 11,800 139 369 -1792
2021-11-18 17:24:11 GMT 41.359955 27.955872 12,075 139 372 -1664
2021-11-18 17:24:05 GMT 41.369156 27.945435 12,275 139 374 -1792
2021-11-18 17:24:00 GMT 41.374046 27.939919 12,375 139 374 -1856
2021-11-18 17:23:54 GMT 41.382519 27.930367 12,575 139 375 -1792
2021-11-18 17:23:51 GMT 41.386475 27.925810 12,675 139 377 -1856
2021-11-18 17:23:41 GMT 41.399918 27.910643 12,975 139 378 -1920
2021-11-18 17:23:34 GMT 41.408478 27.900904 13,175 139 380 -1856
2021-11-18 17:23:31 GMT 41.413330 27.895473 13,275 139 381 -1856
2021-11-18 17:23:20 GMT 41.427673 27.879148 13,600 139 382 -1920
2021-11-18 17:23:13 GMT 41.436611 27.868994 13,800 139 384 -1792
2021-11-18 17:23:10 GMT 41.441174 27.863754 13,900 139 385 -1728
2021-11-18 17:23:03 GMT 41.450821 27.852776 14,100 139 387 -1664
2021-11-18 17:22:59 GMT 41.456223 27.846535 14,225 139 388 -1664
2021-11-18 17:22:54 GMT 41.464188 27.837420 14,375 139 390 -1792
2021-11-18 17:22:48 GMT 41.470642 27.830093 14,525 139 392 -1920
2021-11-18 17:22:43 GMT 41.478195 27.821440 14,700 139 392 -1920
2021-11-18 17:22:38 GMT 41.484283 27.814573 14,850 139 393 -1984
2021-11-18 17:22:33 GMT 41.492195 27.805567 15,025 139 395 -1984
2021-11-18 17:22:28 GMT 41.498573 27.798285 15,175 139 395 -1920
2021-11-18 17:22:18 GMT 41.512772 27.782124 15,500 139 397 -1920
2021-11-18 17:22:12 GMT 41.521477 27.772287 15,700 139 397 -1984
2021-11-18 17:22:08 GMT 41.526398 27.766697 15,800 139 398 -1984
2021-11-18 17:22:02 GMT 41.535862 27.756128 16,025 139 399 -1984
2021-11-18 17:21:58 GMT 41.540936 27.750315 16,150 137 401 -1920
2021-11-18 17:21:52 GMT 41.549469 27.739668 16,350 134 403 -1920
2021-11-18 17:21:47 GMT 41.554962 27.732176 16,475 132 404 -1920
2021-11-18 17:21:41 GMT 41.564758 27.717070 16,725 127 407 -2048
2021-11-18 17:21:38 GMT 41.566818 27.713512 16,800 127 407 -2048
2021-11-18 17:21:31 GMT 41.574371 27.699654 17,025 123 409 -2112
2021-11-18 17:21:28 GMT 41.577759 27.692701 17,150 121 410 -2048
2021-11-18 17:21:18 GMT 41.587234 27.670441 17,475 116 411 -2048
2021-11-18 17:21:10 GMT 41.593307 27.653164 17,725 113 413 -1984
2021-11-18 17:21:07 GMT 41.595913 27.645243 17,850 113 413 -1920
2021-11-18 17:21:01 GMT 41.600922 27.629992 18,050 113 415 -1920
2021-11-18 17:20:56 GMT 41.603317 27.622759 18,150 113 416 -1984
2021-11-18 17:20:50 GMT 41.608841 27.606022 18,375 113 418 -1984
2021-11-18 17:20:46 GMT 41.611313 27.598406 18,475 113 419 -1984
2021-11-18 17:20:40 GMT 41.617142 27.580666 18,725 113 420 -1984
2021-11-18 17:20:37 GMT 41.619053 27.574982 18,800 113 420 -1984
2021-11-18 17:20:27 GMT 41.626968 27.550901 19,150 113 422 -2048
2021-11-18 17:20:17 GMT 41.634476 27.527931 19,475 113 424 -2048
2021-11-18 17:20:09 GMT 41.641163 27.507530 19,750 113 425 -2048
2021-11-18 17:20:06 GMT 41.643211 27.501270 19,850 113 426 -2048
2021-11-18 17:20:00 GMT 41.647568 27.487980 20,025 113 427 -2176
2021-11-18 17:19:57 GMT 41.650333 27.479553 20,150 113 427 -2240
2021-11-18 17:19:47 GMT 41.658619 27.454388 20,575 113 427 -2752
2021-11-18 17:19:37 GMT 41.666611 27.429991 21,075 113 425 -3200
2021-11-18 17:19:30 GMT 41.671841 27.413891 21,425 113 422 -3328
2021-11-18 17:19:26 GMT 41.674587 27.405333 21,625 113 421 -3328
2021-11-18 17:19:18 GMT 41.682083 27.383360 22,150 115 416 -3328
2021-11-18 17:19:06 GMT 41.691345 27.358959 22,725 118 411 -3136
2021-11-18 17:18:59 GMT 41.697536 27.343821 23,050 119 408 -2624
2021-11-18 17:18:56 GMT 41.700794 27.336412 23,200 120 409 -1792
2021-11-18 17:18:46 GMT 41.711060 27.314259 23,500 123 410 -1728
2021-11-18 17:18:36 GMT 41.722675 27.291380 23,800 125 411 -1792
2021-11-18 17:18:28 GMT 41.730423 27.276556 24,025 124 412 -1856
2021-11-18 17:18:25 GMT 41.733150 27.271324 24,100 124 412 -1920
2021-11-18 17:18:16 GMT 41.743858 27.250820 24,425 124 413 -2048
2021-11-18 17:18:04 GMT 41.758896 27.221823 24,900 124 416 -1728
2021-11-18 17:17:55 GMT 41.767227 27.205790 25,125 124 417 -1728
2021-11-18 17:17:51 GMT 41.771072 27.198341 25,225 124 418 -1984
2021-11-18 17:17:43 GMT 41.780632 27.179855 25,525 124 418 -2048
2021-11-18 17:17:34 GMT 41.788967 27.163568 25,750 124 421 -1920
2021-11-18 17:17:32 GMT 41.792587 27.156454 25,875 123 421 -1984
2021-11-18 17:17:24 GMT 41.800419 27.140574 26,125 122 422 -1920
2021-11-18 17:17:18 GMT 41.806229 27.128428 26,275 122 424 -1728
2021-11-18 17:17:14 GMT 41.813324 27.113321 26,425 122 425 -1664
2021-11-18 17:17:11 GMT 41.813324 27.113321 26,475 122 425 -1664
2021-11-18 17:17:04 GMT 41.821831 27.095287 26,700 122 426 -1664
2021-11-18 17:16:54 GMT 41.832550 27.072123 26,975 121 428 -1600
2021-11-18 17:16:51 GMT 41.834015 27.068939 27,000 121 428 -1664
2021-11-18 17:16:48 GMT 41.837612 27.061050 27,125 121 434 -1664
2021-11-18 17:16:44 GMT 41.841942 27.051470 27,225 121 430 -1664
2021-11-18 17:16:36 GMT 41.850227 27.033266 27,450 121 431 -1728
2021-11-18 17:16:33 GMT 41.853836 27.025244 27,550 121 432 -1664
2021-11-18 17:16:26 GMT 41.860378 27.010845 27,700 121 433 -1664
2021-11-18 17:16:22 GMT 41.865921 26.998652 27,875 121 434 -1664
2021-11-18 17:16:16 GMT 41.871223 26.986958 28,125 121 436 -1792
2021-11-18 17:16:12 GMT 41.875122 26.978428 28,225 121 436 -1792
2021-11-18 17:16:08 GMT 41.880257 26.967093 28,250 121 436 -1792
2021-11-18 17:16:03 GMT 41.885193 26.956266 28,400 121 437 -1792
2021-11-18 17:16:00 GMT 41.887299 26.951649 28,475 121 437 -1792
2021-11-18 17:15:57 GMT 41.890915 26.943783 28,575 121 437 -1856
2021-11-18 17:15:52 GMT 41.897003 26.930424 28,725 121 438 -1856
2021-11-18 17:15:46 GMT 41.901997 26.919506 28,950 121 438 -1856
2021-11-18 17:15:43 GMT 41.908092 26.906092 29,075 121 439 -1856
2021-11-18 17:15:37 GMT 41.912518 26.896320 29,200 121 439 -1856
2021-11-18 17:15:33 GMT 41.916641 26.887289 29,350 121 440 -1792
2021-11-18 17:15:30 GMT 41.918896 26.882395 29,400 121 440 -1792
2021-11-18 17:15:26 GMT 41.923416 26.872372 29,525 121 439 -1728
2021-11-18 17:15:23 GMT 41.927132 26.864191 29,650 120 440 -1728
2021-11-18 17:15:20 GMT 41.929462 26.859081 29,700 120 441 -1792
2021-11-18 17:15:15 GMT 41.934998 26.846592 29,825 120 441 -1856
2021-11-18 17:15:12 GMT 41.938110 26.839537 29,925 120 442 -1920
2021-11-18 17:15:10 GMT 41.940216 26.834856 30,000 120 442 -1920
2021-11-18 17:15:05 GMT 41.945709 26.822620 30,175 121 442 -1920
2021-11-18 17:15:00 GMT 41.951481 26.810345 30,325 122 442 -1728
2021-11-18 17:14:56 GMT 41.956558 26.800085 30,525 124 442 -1664
2021-11-18 17:14:52 GMT 41.960419 26.792587 30,550 125 443 -1792
2021-11-18 17:14:48 GMT 41.964420 26.784924 30,650 125 443 -1920
2021-11-18 17:14:45 GMT 41.968918 26.776739 30,775 126 443 -2048
2021-11-18 17:14:42 GMT 41.972580 26.770124 30,900 127 444 -1920
2021-11-18 17:14:39 GMT 41.976200 26.763781 30,975 128 444 -1728
2021-11-18 17:14:34 GMT 41.982468 26.753206 31,100 129 444 -1280
2021-11-18 17:14:30 GMT 41.988071 26.744043 31,175 129 445 -960
2021-11-18 17:14:25 GMT 41.994873 26.733294 31,275 131 444 -960
2021-11-18 17:14:22 GMT 41.998672 26.727552 31,300 132 445 -960
2021-11-18 17:14:19 GMT 42.002563 26.721809 31,350 132 445 -960
2021-11-18 17:14:14 GMT 42.010483 26.710573 31,425 133 446 -960
2021-11-18 17:14:11 GMT 42.016708 26.701710 31,475 133 446 -960
2021-11-18 17:14:09 GMT 42.016708 26.701710 31,500 133 446 -960
2021-11-18 17:14:04 GMT 42.023960 26.691477 31,600 133 446 -960
2021-11-18 17:14:01 GMT 42.027512 26.686478 31,650 133 447 -960
2021-11-18 17:13:59 GMT 42.031219 26.681234 31,675 133 447 -1024
2021-11-18 17:13:53 GMT 42.039326 26.669760 31,775 133 448 -1024
2021-11-18 17:13:50 GMT 42.042725 26.664904 31,800 133 447 -1024
2021-11-18 17:13:48 GMT 42.047150 26.658636 31,850 133 448 -1024
2021-11-18 17:13:44 GMT 42.054245 26.648462 31,950 133 449 -1024
2021-11-18 17:13:40 GMT 42.057083 26.644405 31,975 133 449 -1024
2021-11-18 17:13:37 GMT 42.061810 26.637693 32,025 133 450 -1024
2021-11-18 17:13:33 GMT 42.067932 26.628862 32,150 133 452 -1024
2021-11-18 17:13:30 GMT 42.072655 26.622108 32,150 133 452 -1024
2021-11-18 17:13:28 GMT 42.075668 26.617813 32,200 133 452 -1024
2021-11-18 17:13:21 GMT 42.086109 26.602755 32,325 133 454 -1088
2021-11-18 17:13:17 GMT 42.090271 26.596777 32,375 133 456 -1152
2021-11-18 17:13:11 GMT 42.105148 26.575481 32,600 132 457 -1408
2021-11-18 17:13:08 GMT 42.105148 26.575481 32,600 132 457 -1408
2021-11-18 17:13:03 GMT 42.112644 26.564686 32,725 132 459 -1600
2021-11-18 17:12:59 GMT 42.118137 26.556767 32,825 132 459 -1600
2021-11-18 17:12:56 GMT 42.121071 26.552549 32,875 133 459 -1664
2021-11-18 17:12:52 GMT 42.127167 26.543798 33,000 133 460 -1728
2021-11-18 17:12:48 GMT 42.131542 26.537539 33,075 133 461 -1856
2021-11-18 17:12:46 GMT 42.135036 26.532494 33,150 133 461 -1920
2021-11-18 17:12:42 GMT 42.142017 26.522465 33,325 133 462 -1856
2021-11-18 17:12:39 GMT 42.145111 26.518063 33,325 133 462 -1856
2021-11-18 17:12:36 GMT 42.150257 26.510777 33,475 133 462 -1664
2021-11-18 17:12:30 GMT 42.158890 26.498400 33,600 133 464 -1344
2021-11-18 17:12:26 GMT 42.166260 26.487850 33,700 133 464 -1024
2021-11-18 17:12:19 GMT 42.174931 26.475389 33,775 133 464 -640
2021-11-18 17:12:16 GMT 42.180084 26.468061 33,825 133 466 -704
2021-11-18 17:12:10 GMT 42.188805 26.455589 33,875 133 466 -768
2021-11-18 17:12:05 GMT 42.195599 26.445816 33,950 133 466 -704
2021-11-18 17:11:59 GMT 42.204769 26.432657 34,000 133 469 -512
2021-11-18 17:11:55 GMT 42.210571 26.424366 34,025 133 469 -576
2021-11-18 17:11:50 GMT 42.219063 26.412218 34,100 133 471 -576
2021-11-18 17:11:46 GMT 42.225346 26.403276 34,125 133 471 -704
2021-11-18 17:11:38 GMT 42.236752 26.386988 34,225 133 474 -704
2021-11-18 17:11:36 GMT 42.239594 26.382917 34,275 133 474 -512
2021-11-18 17:11:30 GMT 42.248436 26.370190 34,300 133 476 -512
2021-11-18 17:11:27 GMT 42.253231 26.363291 34,325 133 476 -512
2021-11-18 17:11:24 GMT 42.257141 26.357670 34,350 132 476 -512
2021-11-18 17:11:17 GMT 42.267662 26.342403 34,400 132 479 -704
2021-11-18 17:11:15 GMT 42.271294 26.337168 34,425 132 479 -704
2021-11-18 17:11:09 GMT 42.281258 26.322796 34,525 132 480 -576
2021-11-18 17:11:05 GMT 42.287029 26.314428 34,550 132 481 -512
2021-11-18 17:10:57 GMT 42.297318 26.299480 34,625 132 483 -512
2021-11-18 17:10:54 GMT 42.302811 26.291561 34,625 132 483 -576
2021-11-18 17:10:47 GMT 42.315491 26.273243 34,700 133 486 -576
2021-11-18 17:10:43 GMT 42.318878 26.268373 34,725 133 486 -576
2021-11-18 17:10:38 GMT 42.327805 26.255514 34,775 133 487 -512
2021-11-18 17:10:36 GMT 42.330090 26.252214 34,775 133 488 -512
2021-11-18 17:10:31 GMT 42.337372 26.241718 34,825 133 488 -512
2021-11-18 17:10:28 GMT 42.342911 26.233728 34,850 133 491 -576
2021-11-18 17:10:24 GMT 42.350372 26.222992 34,875 133 491 -640
2021-11-18 17:10:17 GMT 42.361176 26.207262 34,950 132 492 -448
2021-11-18 17:10:13 GMT 42.365704 26.200731 34,975 132 492 -384
2021-11-18 17:10:07 GMT 42.374817 26.187473 34,975 132 493 -192
2021-11-18 17:10:01 GMT 42.383999 26.174160 35,000 132 493 -128
2021-11-18 17:09:58 GMT 42.390381 26.164940 35,000 132 493 -64
2021-11-18 17:09:52 GMT 42.399399 26.151831 35,000 133 492 -64
2021-11-18 17:09:46 GMT 42.407040 26.140818 35,000 132 493 -64
2021-11-18 17:09:42 GMT 42.413883 26.130919 35,000 132 493 -64
2021-11-18 17:09:37 GMT 42.423519 26.116928 35,000 133 492 64
2021-11-18 17:09:31 GMT 42.431293 26.105686 35,000 133 492 64
2021-11-18 17:09:28 GMT 42.435150 26.100082 35,000 132 491 0
2021-11-18 17:09:25 GMT 42.440559 26.092211 35,000 132 491 0
2021-11-18 17:09:22 GMT 42.445866 26.084608 34,975 132 491 0
2021-11-18 17:09:15 GMT 42.456341 26.069344 35,000 132 490 -64
2021-11-18 17:09:10 GMT 42.463135 26.059443 35,000 132 489 -64
2021-11-18 17:09:04 GMT 42.472958 26.045135 35,000 132 488 0
2021-11-18 17:09:01 GMT 42.482071 26.031918 35,000 132 488 0
2021-11-18 17:08:58 GMT 42.482071 26.031918 35,000 132 488 64
2021-11-18 17:08:54 GMT 42.487434 26.024120 34,975 132 488 64
2021-11-18 17:08:51 GMT 42.494339 26.014065 34,975 132 487 64
2021-11-18 17:08:48 GMT 42.497257 26.009811 34,975 132 487 0
2021-11-18 17:08:45 GMT 42.502472 26.002211 34,975 132 486 -64
2021-11-18 17:08:39 GMT 42.510712 25.990139 35,000 132 486 -64
2021-11-18 17:08:36 GMT 42.515598 25.983049 35,000 132 486 -64
2021-11-18 17:08:33 GMT 42.520210 25.976341 35,000 132 486 0
2021-11-18 17:08:30 GMT 42.527069 25.966311 34,975 132 486 -64
2021-11-18 17:08:27 GMT 42.529381 25.962929 34,975 132 486 -64
2021-11-18 17:08:24 GMT 42.534267 25.955839 34,975 132 486 0
2021-11-18 17:08:21 GMT 42.540253 25.947084 34,975 132 486 0
2021-11-18 17:08:17 GMT 42.544830 25.940407 34,975 132 486 -64
2021-11-18 17:08:14 GMT 42.549583 25.933483 35,000 132 486 0
2021-11-18 17:08:07 GMT 42.559799 25.918558 35,000 132 486 0
2021-11-18 17:08:04 GMT 42.565292 25.910505 35,000 132 486 0
2021-11-18 17:07:57 GMT 42.575363 25.895838 34,975 132 485 0
2021-11-18 17:07:54 GMT 42.581451 25.886848 35,000 132 485 0
2021-11-18 17:07:48 GMT 42.590408 25.873697 34,975 132 484 -64
2021-11-18 17:07:43 GMT 42.596462 25.864756 35,000 132 485 -64
2021-11-18 17:07:40 GMT 42.603333 25.854700 35,000 132 485 -64
2021-11-18 17:07:37 GMT 42.606033 25.850704 35,000 132 485 0
2021-11-18 17:07:33 GMT 42.612122 25.841717 35,000 132 485 -64
2021-11-18 17:07:29 GMT 42.617935 25.833288 35,000 132 485 0
2021-11-18 17:07:26 GMT 42.622021 25.827261 35,000 132 485 -64
2021-11-18 17:07:22 GMT 42.629608 25.816084 35,000 132 484 -64
2021-11-18 17:07:17 GMT 42.637665 25.804262 35,000 132 484 0
2021-11-18 17:07:12 GMT 42.643620 25.795580 35,000 132 484 0
2021-11-18 17:07:07 GMT 42.651814 25.783506 34,975 132 484 0
2021-11-18 17:07:03 GMT 42.657909 25.774628 34,975 132 484 64
2021-11-18 17:06:59 GMT 42.665359 25.763750 34,975 132 484 0
2021-11-18 17:06:56 GMT 42.669296 25.757946 34,975 132 484 0
2021-11-18 17:06:51 GMT 42.675110 25.749456 34,975 132 483 0
2021-11-18 17:06:48 GMT 42.680557 25.741467 34,975 132 484 -64
2021-11-18 17:06:45 GMT 42.684631 25.735474 35,000 132 483 -64
2021-11-18 17:06:42 GMT 42.690403 25.726978 34,975 132 483 -64
2021-11-18 17:06:35 GMT 42.701248 25.710945 35,000 132 482 -64
2021-11-18 17:06:31 GMT 42.706417 25.703344 35,000 132 482 -64
2021-11-18 17:06:27 GMT 42.711819 25.695297 35,000 132 481 0
2021-11-18 17:06:23 GMT 42.717545 25.686867 35,000 132 481 0
2021-11-18 17:06:20 GMT 42.722664 25.679264 35,000 132 481 0
2021-11-18 17:06:17 GMT 42.728851 25.670179 35,000 132 481 64
2021-11-18 17:06:12 GMT 42.734299 25.662189 34,975 132 481 0
2021-11-18 17:06:09 GMT 42.740170 25.653522 34,975 132 481 0
2021-11-18 17:06:06 GMT 42.742722 25.649769 34,975 132 481 0
2021-11-18 17:06:02 GMT 42.749634 25.639530 34,975 132 480 0
2021-11-18 17:05:56 GMT 42.758835 25.625994 35,000 132 479 0
2021-11-18 17:05:52 GMT 42.764694 25.617371 34,975 132 479 0
2021-11-18 17:05:49 GMT 42.768425 25.611814 34,975 132 479 0
2021-11-18 17:05:46 GMT 42.773827 25.603828 34,975 132 479 0
2021-11-18 17:05:40 GMT 42.784348 25.588308 34,975 132 479 0
2021-11-18 17:05:37 GMT 42.788406 25.582352 35,000 132 479 -64
2021-11-18 17:05:29 GMT 42.799484 25.565935 35,000 132 479 -64
2021-11-18 17:05:25 GMT 42.804886 25.557945 34,975 132 479 0
2021-11-18 17:05:21 GMT 42.811157 25.548578 35,000 132 479 -64
2021-11-18 17:05:18 GMT 42.815964 25.541489 35,000 132 479 -64
2021-11-18 17:05:15 GMT 42.820004 25.535496 35,000 132 478 0
2021-11-18 17:05:09 GMT 42.829269 25.521763 35,000 132 477 0
2021-11-18 17:05:06 GMT 42.834343 25.514242 35,000 132 477 -64
2021-11-18 17:05:01 GMT 42.840908 25.504499 34,975 132 477 0
2021-11-18 17:04:58 GMT 42.846130 25.496777 35,000 132 477 -64
2021-11-18 17:04:55 GMT 42.850342 25.490582 35,000 132 476 -64
2021-11-18 17:04:51 GMT 42.855972 25.482212 35,000 132 476 64
2021-11-18 17:04:48 GMT 42.860458 25.475634 35,000 132 476 0
2021-11-18 17:04:45 GMT 42.865067 25.468794 35,000 132 475 0
2021-11-18 17:04:41 GMT 42.871445 25.459282 35,000 132 475 0
2021-11-18 17:04:37 GMT 42.876331 25.451986 34,975 132 474 0
2021-11-18 17:04:34 GMT 42.880646 25.445614 34,975 132 474 64
2021-11-18 17:04:31 GMT 42.886108 25.437469 34,975 132 473 64
2021-11-18 17:04:28 GMT 42.892067 25.428707 35,000 132 474 0
2021-11-18 17:04:25 GMT 42.895752 25.423195 35,000 132 473 0
2021-11-18 17:04:21 GMT 42.901520 25.414581 34,975 132 473 0
2021-11-18 17:04:17 GMT 42.906498 25.407125 34,975 132 473 64
2021-11-18 17:04:14 GMT 42.910969 25.400520 34,975 132 473 64
2021-11-18 17:04:08 GMT 42.920094 25.386919 34,975 132 472 0
2021-11-18 17:04:04 GMT 42.925873 25.378353 34,975 132 472 -64
2021-11-18 17:03:57 GMT 42.936943 25.361874 35,000 132 472 -64
2021-11-18 17:03:54 GMT 42.940762 25.356184 35,000 132 472 -64
2021-11-18 17:03:50 GMT 42.946243 25.348015 35,000 132 472 0
2021-11-18 17:03:47 GMT 42.950638 25.341434 35,000 132 472 0
2021-11-18 17:03:44 GMT 42.956543 25.332621 35,000 132 472 0
2021-11-18 17:03:39 GMT 42.963318 25.322529 35,000 132 472 0
2021-11-18 17:03:36 GMT 42.967163 25.316843 34,975 132 472 64
2021-11-18 17:03:33 GMT 42.971718 25.310015 35,000 132 472 0
2021-11-18 17:03:29 GMT 42.976547 25.302727 35,000 132 472 0
2021-11-18 17:03:26 GMT 42.983002 25.293081 35,000 132 472 64
2021-11-18 17:03:20 GMT 42.991837 25.279924 34,975 132 471 64
2021-11-18 17:03:17 GMT 42.995228 25.274899 34,975 132 471 64
2021-11-18 17:03:13 GMT 43.001980 25.264763 34,975 132 471 64
2021-11-18 17:03:06 GMT 43.010330 25.252268 34,975 132 471 0
2021-11-18 17:03:02 GMT 43.016510 25.243069 34,975 132 471 -64
2021-11-18 17:02:59 GMT 43.021500 25.235596 35,000 132 472 0
2021-11-18 17:02:55 GMT 43.029144 25.224161 35,000 132 471 -64
2021-11-18 17:02:51 GMT 43.032074 25.219755 35,000 132 471 -64
2021-11-18 17:02:48 GMT 43.036613 25.212904 35,000 132 472 0
2021-11-18 17:02:42 GMT 43.046574 25.197927 35,000 132 472 -64
2021-11-18 17:02:39 GMT 43.055374 25.184719 34,975 132 472 64
2021-11-18 17:02:36 GMT 43.055374 25.184719 35,000 132 471 64
2021-11-18 17:02:32 GMT 43.061520 25.175497 35,000 132 472 0
2021-11-18 17:02:28 GMT 43.066681 25.167763 35,000 132 472 64
2021-11-18 17:02:24 GMT 43.073456 25.157606 34,975 132 472 128
2021-11-18 17:02:19 GMT 43.080780 25.146555 34,975 132 472 64
2021-11-18 17:02:15 GMT 43.085175 25.139977 34,975 132 473 64
2021-11-18 17:02:11 GMT 43.091675 25.130203 34,975 132 473 0
2021-11-18 17:02:08 GMT 43.095642 25.124228 34,975 132 475 -64
2021-11-18 17:02:04 GMT 43.101654 25.115129 34,975 132 475 -64
2021-11-18 17:02:01 GMT 43.106815 25.107355 34,975 132 475 -64
2021-11-18 17:01:56 GMT 43.114380 25.096031 35,000 132 476 -128
2021-11-18 17:01:53 GMT 43.119415 25.088430 35,000 132 477 -64
2021-11-18 17:01:50 GMT 43.123108 25.082899 35,000 132 477 -64
2021-11-18 17:01:45 GMT 43.130230 25.072174 35,000 132 478 -64
2021-11-18 17:01:40 GMT 43.137119 25.061842 34,975 132 479 64
2021-11-18 17:01:37 GMT 43.142471 25.053799 34,975 132 480 0
2021-11-18 17:01:33 GMT 43.147110 25.046848 34,975 132 480 0
2021-11-18 17:01:30 GMT 43.152786 25.038288 34,975 132 481 -64
2021-11-18 17:01:27 GMT 43.156487 25.032677 35,000 132 481 -128
2021-11-18 17:01:24 GMT 43.160954 25.025875 35,000 132 481 -128
2021-11-18 17:01:20 GMT 43.168304 25.014847 35,000 132 482 -128
2021-11-18 17:01:14 GMT 43.176407 25.002710 35,000 132 482 -64
2021-11-18 17:01:11 GMT 43.181168 24.995428 35,000 132 482 -64
2021-11-18 17:01:08 GMT 43.184929 24.989777 35,000 132 482 -64
2021-11-18 17:01:01 GMT 43.195862 24.973265 35,000 132 482 64
2021-11-18 17:00:58 GMT 43.199917 24.967150 34,975 132 482 0
2021-11-18 17:00:54 GMT 43.206203 24.957668 35,000 132 481 0
2021-11-18 17:00:51 GMT 43.214863 24.944590 35,000 132 481 -64
2021-11-18 17:00:44 GMT 43.220993 24.935324 34,975 132 480 0
2021-11-18 17:00:39 GMT 43.229645 24.922230 35,000 132 481 0
2021-11-18 17:00:35 GMT 43.233994 24.915684 35,000 132 481 0
2021-11-18 17:00:32 GMT 43.238297 24.909136 35,000 132 480 64
2021-11-18 17:00:28 GMT 43.245163 24.898788 34,975 132 480 64
2021-11-18 17:00:25 GMT 43.250099 24.891357 34,975 132 480 64
2021-11-18 17:00:20 GMT 43.258850 24.878094 35,000 132 480 0
2021-11-18 17:00:16 GMT 43.262577 24.872458 34,975 132 480 0
2021-11-18 17:00:10 GMT 43.273178 24.856504 34,975 132 480 64
2021-11-18 17:00:07 GMT 43.278358 24.848589 34,975 132 480 64
2021-11-18 17:00:02 GMT 43.284039 24.840088 35,000 132 480 0
2021-11-18 16:59:59 GMT 43.288330 24.833509 34,975 132 480 64
2021-11-18 16:59:56 GMT 43.292816 24.826738 34,975 132 480 64
2021-11-18 16:59:51 GMT 43.299362 24.816837 34,975 132 481 -64
2021-11-18 16:59:48 GMT 43.304123 24.809620 34,975 132 481 -64
2021-11-18 16:59:45 GMT 43.308758 24.802616 34,975 132 482 0
2021-11-18 16:59:39 GMT 43.320114 24.785418 35,000 132 482 -64
2021-11-18 16:59:36 GMT 43.322937 24.781132 34,975 132 482 -64
2021-11-18 16:59:31 GMT 43.329987 24.770441 35,000 132 483 0
2021-11-18 16:59:28 GMT 43.334930 24.762928 34,975 132 483 64
2021-11-18 16:59:25 GMT 43.338364 24.757690 34,975 132 483 0
2021-11-18 16:59:20 GMT 43.346008 24.746128 34,975 131 484 0
2021-11-18 16:59:15 GMT 43.353516 24.734760 34,975 131 484 0
2021-11-18 16:59:10 GMT 43.361454 24.722639 34,975 131 485 -64
2021-11-18 16:59:05 GMT 43.369720 24.710039 35,000 131 486 -128
2021-11-18 16:58:57 GMT 43.381439 24.692156 35,000 131 487 -128
2021-11-18 16:58:54 GMT 43.385376 24.686152 35,000 131 487 -64
2021-11-18 16:58:47 GMT 43.396500 24.669161 35,000 131 487 -64
2021-11-18 16:58:44 GMT 43.400436 24.663157 35,000 131 487 -64
2021-11-18 16:58:37 GMT 43.411560 24.646166 35,000 131 487 -64
2021-11-18 16:58:34 GMT 43.415771 24.639715 35,000 131 486 -64
2021-11-18 16:58:28 GMT 43.424625 24.626181 35,000 131 486 0
2021-11-18 16:58:24 GMT 43.430958 24.616568 35,000 131 485 0
2021-11-18 16:58:17 GMT 43.442505 24.598900 34,975 131 485 64
2021-11-18 16:58:14 GMT 43.447037 24.592066 34,975 131 485 64
2021-11-18 16:58:08 GMT 43.454224 24.581079 34,975 131 485 -64
2021-11-18 16:58:05 GMT 43.460220 24.571945 34,975 131 485 -64
2021-11-18 16:57:57 GMT 43.470852 24.555687 35,000 131 485 -64
2021-11-18 16:57:54 GMT 43.475323 24.548754 35,000 131 484 -64
2021-11-18 16:57:44 GMT 43.491196 24.524492 35,000 131 484 0
2021-11-18 16:57:36 GMT 43.503891 24.505070 35,000 131 483 0
2021-11-18 16:57:33 GMT 43.506138 24.501671 35,000 131 483 0
2021-11-18 16:57:27 GMT 43.515404 24.487478 35,000 131 483 64
2021-11-18 16:57:24 GMT 43.521240 24.478561 34,975 131 483 64
2021-11-18 16:57:16 GMT 43.531677 24.462528 35,000 131 482 0
2021-11-18 16:57:13 GMT 43.536438 24.455183 35,000 131 482 0
2021-11-18 16:57:07 GMT 43.546082 24.440329 35,000 131 482 0
2021-11-18 16:57:03 GMT 43.551910 24.431421 35,000 131 482 0
2021-11-18 16:56:55 GMT 43.565678 24.410116 34,975 131 483 0
2021-11-18 16:56:51 GMT 43.568657 24.405539 35,000 131 482 0
2021-11-18 16:56:46 GMT 43.582535 24.384283 34,975 132 482 0
2021-11-18 16:56:43 GMT 43.582535 24.384283 34,975 132 483 0
2021-11-18 16:56:35 GMT 43.593750 24.367548 34,975 133 483 0
2021-11-18 16:56:32 GMT 43.598373 24.360842 34,975 133 483 -64
2021-11-18 16:56:23 GMT 43.613022 24.340082 34,975 134 484 0
2021-11-18 16:56:15 GMT 43.624287 24.324646 34,975 135 485 0
2021-11-18 16:56:12 GMT 43.630829 24.315809 34,975 136 485 -64
2021-11-18 16:56:03 GMT 43.644791 24.297478 35,000 136 486 -64
2021-11-18 16:56:00 GMT 43.649891 24.290901 35,000 136 486 -64
2021-11-18 16:55:55 GMT 43.657654 24.281063 34,975 137 485 0
2021-11-18 16:55:51 GMT 43.664089 24.272919 35,000 138 485 0
2021-11-18 16:55:43 GMT 43.679405 24.254805 34,975 140 484 0
2021-11-18 16:55:40 GMT 43.682007 24.251871 34,975 141 484 -64
2021-11-18 16:55:34 GMT 43.692535 24.240376 35,000 142 484 -64
2021-11-18 16:55:31 GMT 43.699890 24.232765 35,000 143 484 -64
2021-11-18 16:55:24 GMT 43.711304 24.221340 35,000 145 484 -64
2021-11-18 16:55:20 GMT 43.718510 24.214586 35,000 146 484 -64
2021-11-18 16:55:13 GMT 43.731812 24.202625 35,000 148 483 64
2021-11-18 16:55:09 GMT 43.738853 24.196669 35,000 148 482 -64
2021-11-18 16:55:02 GMT 43.757847 24.180515 35,000 148 482 -64
2021-11-18 16:54:59 GMT 43.757847 24.180515 35,000 148 482 -64
2021-11-18 16:54:53 GMT 43.770218 24.169987 35,000 148 482 -64
2021-11-18 16:54:50 GMT 43.777039 24.164173 35,000 148 482 -64
2021-11-18 16:54:41 GMT 43.794296 24.149519 35,000 148 481 0
2021-11-18 16:54:38 GMT 43.797913 24.146416 35,000 148 481 0
2021-11-18 16:54:31 GMT 43.817963 24.129362 35,000 148 480 0
2021-11-18 16:54:28 GMT 43.817963 24.129362 35,000 148 480 0
2021-11-18 16:54:22 GMT 43.828537 24.120356 35,000 148 479 0
2021-11-18 16:54:19 GMT 43.836044 24.113905 35,000 148 479 0
2021-11-18 16:54:11 GMT 43.851105 24.101002 34,975 148 479 64
2021-11-18 16:54:08 GMT 43.855270 24.097425 34,975 148 479 64
2021-11-18 16:54:01 GMT 43.869385 24.085365 34,975 148 478 0
2021-11-18 16:53:57 GMT 43.875389 24.080200 34,975 148 478 64
2021-11-18 16:53:51 GMT 43.886490 24.070726 34,975 148 479 0
2021-11-18 16:53:48 GMT 43.894775 24.063637 34,975 148 479 -64
2021-11-18 16:53:40 GMT 43.906860 24.053352 34,975 148 479 -64
2021-11-18 16:53:37 GMT 43.913841 24.047373 35,000 148 479 -64
2021-11-18 16:53:30 GMT 43.928787 24.034637 35,000 148 480 0
2021-11-18 16:53:27 GMT 43.933319 24.030804 35,000 148 480 -64
2021-11-18 16:53:20 GMT 43.945770 24.020138 35,000 148 480 0
2021-11-18 16:53:17 GMT 43.953323 24.013622 34,975 148 480 0
2021-11-18 16:53:09 GMT 43.965408 24.003275 35,000 148 480 -64
2021-11-18 16:53:06 GMT 43.972778 23.996952 34,975 148 480 0
2021-11-18 16:52:59 GMT 43.986191 23.985455 34,975 148 480 -64
2021-11-18 16:52:55 GMT 43.993378 23.979322 34,975 148 481 -64
2021-11-18 16:52:49 GMT 44.005692 23.968702 34,975 148 481 -64
2021-11-18 16:52:46 GMT 44.011742 23.963535 35,000 148 481 -128
2021-11-18 16:52:38 GMT 44.024414 23.952623 35,000 148 480 -128
2021-11-18 16:52:35 GMT 44.031063 23.946991 35,000 148 481 -64
2021-11-18 16:52:28 GMT 44.044285 23.935547 35,000 148 481 -64
2021-11-18 16:52:24 GMT 44.050709 23.930054 35,000 148 481 -64
2021-11-18 16:52:18 GMT 44.069778 23.913595 35,000 148 480 -64
2021-11-18 16:52:15 GMT 44.069778 23.913595 35,000 148 480 -64
2021-11-18 16:52:08 GMT 44.082783 23.902391 35,000 148 479 64
2021-11-18 16:52:04 GMT 44.089531 23.896505 35,000 148 479 64
2021-11-18 16:51:58 GMT 44.099854 23.887600 34,975 148 478 128
2021-11-18 16:51:54 GMT 44.108711 23.879961 34,975 148 478 128
2021-11-18 16:51:49 GMT 44.119232 23.870871 34,975 148 477 128
2021-11-18 16:51:46 GMT 44.122055 23.868437 34,975 148 477 64
2021-11-18 16:51:43 GMT 44.129379 23.862173 34,975 148 477 64
2021-11-18 16:51:37 GMT 44.141762 23.851448 34,975 148 479 64
2021-11-18 16:51:33 GMT 44.148743 23.845442 34,975 148 479 64
2021-11-18 16:51:28 GMT 44.157219 23.838108 34,975 148 480 -64
2021-11-18 16:51:25 GMT 44.162479 23.833530 34,975 148 481 -64
2021-11-18 16:51:21 GMT 44.169273 23.827644 34,975 148 481 -64
2021-11-18 16:51:16 GMT 44.179688 23.818680 34,975 148 483 -64
2021-11-18 16:51:12 GMT 44.187653 23.811781 35,000 148 484 -64
2021-11-18 16:51:05 GMT 44.200607 23.800571 35,000 147 484 -64
2021-11-18 16:51:02 GMT 44.208206 23.793966 35,000 148 485 -64
2021-11-18 16:50:57 GMT 44.215221 23.787880 35,000 148 485 -64
2021-11-18 16:50:54 GMT 44.222858 23.781246 35,000 148 485 -64
2021-11-18 16:50:50 GMT 44.228760 23.776114 35,000 148 485 0
2021-11-18 16:50:46 GMT 44.238079 23.768049 34,975 148 485 0
2021-11-18 16:50:43 GMT 44.242687 23.764097 35,000 147 486 0
2021-11-18 16:50:40 GMT 44.247250 23.760078 34,975 147 486 0
2021-11-18 16:50:37 GMT 44.258881 23.750023 34,975 148 486 0
2021-11-18 16:50:34 GMT 44.258881 23.750023 34,975 147 486 0
2021-11-18 16:50:31 GMT 44.266525 23.743353 34,975 148 486 0
2021-11-18 16:50:26 GMT 44.275459 23.735626 34,975 148 485 -64
2021-11-18 16:50:23 GMT 44.281185 23.730602 34,975 147 486 0
2021-11-18 16:50:19 GMT 44.287079 23.725498 34,975 147 486 -64
2021-11-18 16:50:15 GMT 44.295292 23.718344 35,000 148 486 -64
2021-11-18 16:50:12 GMT 44.306374 23.708763 35,000 148 486 -64
2021-11-18 16:50:09 GMT 44.306374 23.708763 35,000 148 486 -64
2021-11-18 16:50:05 GMT 44.316101 23.700256 34,975 148 486 -64
2021-11-18 16:50:00 GMT 44.326401 23.691298 35,000 148 486 -64
2021-11-18 16:49:54 GMT 44.335190 23.683710 35,000 148 486 -64
2021-11-18 16:49:51 GMT 44.340729 23.678886 35,000 148 486 -64
2021-11-18 16:49:47 GMT 44.350269 23.670580 35,000 148 486 0
2021-11-18 16:49:42 GMT 44.360733 23.661411 35,000 147 486 0
2021-11-18 16:49:39 GMT 44.365120 23.657583 35,000 147 486 -64
2021-11-18 16:49:34 GMT 44.373871 23.649946 35,000 147 484 0
2021-11-18 16:49:31 GMT 44.379971 23.644655 35,000 147 485 -64
2021-11-18 16:49:28 GMT 44.387604 23.638023 35,000 147 484 0
2021-11-18 16:49:23 GMT 44.395565 23.631056 35,000 147 483 64
2021-11-18 16:49:20 GMT 44.402782 23.624760 35,000 147 483 0
2021-11-18 16:49:17 GMT 44.405807 23.622080 35,000 147 483 0
2021-11-18 16:49:13 GMT 44.414337 23.614655 34,975 147 483 64
2021-11-18 16:49:08 GMT 44.424179 23.606022 34,975 147 483 64
2021-11-18 16:49:03 GMT 44.433460 23.597897 34,975 147 482 64
2021-11-18 16:48:59 GMT 44.441002 23.591331 34,975 147 482 64
2021-11-18 16:48:56 GMT 44.446518 23.586535 34,975 147 482 64
2021-11-18 16:48:53 GMT 44.452148 23.581566 34,975 147 482 0
2021-11-18 16:48:49 GMT 44.461624 23.573324 34,975 148 483 -64
2021-11-18 16:48:45 GMT 44.467300 23.568356 34,975 148 483 -64
2021-11-18 16:48:40 GMT 44.476776 23.560049 35,000 147 483 -128
2021-11-18 16:48:36 GMT 44.485474 23.552464 35,000 147 483 -128
2021-11-18 16:48:32 GMT 44.492115 23.546650 34,975 147 484 64
2021-11-18 16:48:27 GMT 44.502728 23.537336 35,000 147 484 0
2021-11-18 16:48:20 GMT 44.515457 23.526175 35,000 147 484 64
2021-11-18 16:48:16 GMT 44.522278 23.520159 35,000 147 484 64
2021-11-18 16:48:12 GMT 44.529099 23.514208 34,975 147 484 64
2021-11-18 16:48:09 GMT 44.535187 23.508846 35,000 147 484 64
2021-11-18 16:48:05 GMT 44.550491 23.495401 34,975 147 483 64
2021-11-18 16:48:01 GMT 44.558079 23.488703 34,975 147 484 -64
2021-11-18 16:47:57 GMT 44.558079 23.488703 34,975 147 483 64
2021-11-18 16:47:54 GMT 44.562595 23.484682 34,975 147 483 64
2021-11-18 16:47:51 GMT 44.568878 23.479221 34,975 147 484 -64
2021-11-18 16:47:45 GMT 44.580051 23.469341 34,975 147 484 0
2021-11-18 16:47:42 GMT 44.587830 23.462481 34,975 147 485 -64
2021-11-18 16:47:39 GMT 44.594112 23.456949 35,000 147 485 -128
2021-11-18 16:47:35 GMT 44.600536 23.451256 34,975 147 486 -64
2021-11-18 16:47:31 GMT 44.613106 23.440203 35,000 147 487 -64
2021-11-18 16:47:28 GMT 44.613106 23.440203 35,000 147 487 -64
2021-11-18 16:47:25 GMT 44.619995 23.434174 35,000 147 487 -128
2021-11-18 16:47:21 GMT 44.626839 23.428078 35,000 147 487 -64
2021-11-18 16:47:18 GMT 44.632370 23.423244 35,000 147 487 -64
2021-11-18 16:47:14 GMT 44.639824 23.416689 35,000 147 488 -64
2021-11-18 16:47:07 GMT 44.652393 23.405567 34,975 147 487 64
2021-11-18 16:47:04 GMT 44.660202 23.398655 34,975 147 487 64
2021-11-18 16:46:58 GMT 44.671432 23.388754 34,975 147 487 -64
2021-11-18 16:46:53 GMT 44.679440 23.381720 35,000 147 487 -64
2021-11-18 16:46:49 GMT 44.687820 23.374285 35,000 147 487 -64
2021-11-18 16:46:46 GMT 44.692009 23.370600 35,000 147 487 -64
2021-11-18 16:46:42 GMT 44.699646 23.363901 35,000 148 486 -64
2021-11-18 16:46:37 GMT 44.710354 23.354523 35,000 147 486 64
2021-11-18 16:46:33 GMT 44.719299 23.346601 35,000 147 486 -64
2021-11-18 16:46:26 GMT 44.730183 23.337038 35,000 147 486 64
2021-11-18 16:46:22 GMT 44.738754 23.329533 35,000 147 485 -64
2021-11-18 16:46:17 GMT 44.750340 23.319284 34,975 147 485 64
2021-11-18 16:46:11 GMT 44.758896 23.311680 34,975 147 485 64
2021-11-18 16:46:06 GMT 44.768963 23.302807 34,975 147 485 0
2021-11-18 16:46:02 GMT 44.778458 23.294432 35,000 147 485 -64
2021-11-18 16:45:53 GMT 44.793777 23.280813 35,000 147 485 -64
2021-11-18 16:45:49 GMT 44.803619 23.272051 35,000 147 484 -128
2021-11-18 16:45:46 GMT 44.808563 23.267670 35,000 147 484 -64
2021-11-18 16:45:43 GMT 44.813278 23.263416 35,000 147 485 64
2021-11-18 16:45:39 GMT 44.819332 23.257990 34,975 147 485 64
2021-11-18 16:45:33 GMT 44.830902 23.247725 35,000 147 484 0
2021-11-18 16:45:30 GMT 44.839233 23.240335 34,975 147 484 64
2021-11-18 16:45:22 GMT 44.853241 23.227844 34,975 147 484 64
2021-11-18 16:45:17 GMT 44.863861 23.218428 35,000 147 484 0
2021-11-18 16:45:12 GMT 44.873337 23.209991 35,000 147 485 64
2021-11-18 16:45:09 GMT 44.877708 23.206074 35,000 147 486 0
2021-11-18 16:45:04 GMT 44.887951 23.196962 34,975 147 486 64
2021-11-18 16:45:01 GMT 44.892700 23.192661 34,975 147 487 64
2021-11-18 16:44:56 GMT 44.902008 23.184368 34,975 147 488 -64
2021-11-18 16:44:52 GMT 44.911697 23.175726 35,000 147 488 -64
2021-11-18 16:44:48 GMT 44.917229 23.170769 34,975 147 491 -64
2021-11-18 16:44:43 GMT 44.927353 23.161665 34,975 147 489 -64
2021-11-18 16:44:38 GMT 44.937901 23.152348 35,000 147 490 -64
2021-11-18 16:44:33 GMT 44.946323 23.144777 34,975 147 490 0
2021-11-18 16:44:30 GMT 44.963013 23.129948 35,000 147 492 -64
2021-11-18 16:44:24 GMT 44.963013 23.129948 35,000 147 491 -64
2021-11-18 16:44:21 GMT 44.971275 23.122536 35,000 147 492 -64
2021-11-18 16:44:16 GMT 44.978760 23.115889 34,975 147 492 64
2021-11-18 16:44:13 GMT 44.986862 23.108694 34,975 147 492 64
2021-11-18 16:44:09 GMT 44.991852 23.104248 35,000 147 492 -64
2021-11-18 16:44:05 GMT 44.998398 23.098364 34,975 147 492 -64
2021-11-18 16:44:02 GMT 45.005722 23.091824 35,000 147 492 -64
2021-11-18 16:43:58 GMT 45.013412 23.084957 35,000 147 493 -128
2021-11-18 16:43:53 GMT 45.023804 23.075605 35,000 147 493 -64
2021-11-18 16:43:50 GMT 45.030350 23.069719 35,000 147 493 -64
2021-11-18 16:43:45 GMT 45.044952 23.056576 34,975 147 493 0
2021-11-18 16:43:41 GMT 45.044952 23.056576 35,000 147 494 -64
2021-11-18 16:43:36 GMT 45.056900 23.045851 35,000 147 494 -64
2021-11-18 16:43:31 GMT 45.064056 23.039469 35,000 147 494 -64
2021-11-18 16:43:28 GMT 45.069626 23.034472 34,975 147 494 0
2021-11-18 16:43:25 GMT 45.077511 23.027411 34,975 147 493 0
2021-11-18 16:43:19 GMT 45.090218 23.015955 35,000 147 493 -64
2021-11-18 16:43:15 GMT 45.096954 23.009949 35,000 147 493 -64
2021-11-18 16:43:12 GMT 45.102928 23.004566 34,975 147 495 0
2021-11-18 16:43:08 GMT 45.109444 22.998672 34,975 147 493 64
2021-11-18 16:43:03 GMT 45.118881 22.990198 34,975 147 493 64
2021-11-18 16:42:57 GMT 45.129272 22.980848 35,000 147 493 0
2021-11-18 16:42:54 GMT 45.136398 22.974422 34,975 147 494 0
2021-11-18 16:42:50 GMT 45.143333 22.968191 34,975 147 495 0
2021-11-18 16:42:47 GMT 45.150642 22.961626 34,975 147 494 -64
2021-11-18 16:42:44 GMT 45.156418 22.956402 34,975 147 494 -64
2021-11-18 16:42:40 GMT 45.163559 22.949982 34,975 147 495 0
2021-11-18 16:42:36 GMT 45.169914 22.944208 34,975 147 494 -64
2021-11-18 16:42:33 GMT 45.177063 22.937754 34,975 147 495 0
2021-11-18 16:42:30 GMT 45.182877 22.932522 35,000 147 495 -128
2021-11-18 16:42:27 GMT 45.189655 22.926456 35,000 147 495 -256
2021-11-18 16:42:22 GMT 45.197010 22.919825 35,025 147 495 -256
2021-11-18 16:42:19 GMT 45.203751 22.913754 35,025 147 495 -128
2021-11-18 16:42:16 GMT 45.211899 22.906429 35,000 147 497 0
2021-11-18 16:42:13 GMT 45.217865 22.901001 35,000 147 496 128
2021-11-18 16:42:09 GMT 45.228710 22.891153 34,975 147 495 0
2021-11-18 16:42:06 GMT 45.228710 22.891153 34,975 147 495 128
2021-11-18 16:42:03 GMT 45.234856 22.885593 34,975 147 495 64
2021-11-18 16:42:00 GMT 45.242020 22.879160 34,975 147 495 64
2021-11-18 16:41:56 GMT 45.248932 22.872881 34,975 147 492 0
2021-11-18 16:41:52 GMT 45.257202 22.865362 34,975 147 493 -64
2021-11-18 16:41:48 GMT 45.266045 22.857325 35,000 147 493 -128
2021-11-18 16:41:41 GMT 45.277771 22.846724 35,000 147 495 -128
2021-11-18 16:41:38 GMT 45.283951 22.841099 35,000 147 495 -64
2021-11-18 16:41:35 GMT 45.288765 22.836758 35,000 147 495 -64
2021-11-18 16:41:28 GMT 45.301666 22.825077 35,000 147 495 -64
2021-11-18 16:41:25 GMT 45.307846 22.819454 35,000 147 495 64
2021-11-18 16:41:21 GMT 45.316929 22.811169 35,000 147 495 0
2021-11-18 16:41:18 GMT 45.321537 22.807014 35,000 147 495 64
2021-11-18 16:41:12 GMT 45.331963 22.797503 34,975 147 495 64
2021-11-18 16:41:08 GMT 45.340622 22.789635 34,975 147 495 64
2021-11-18 16:41:05 GMT 45.357010 22.774792 34,975 147 495 64
2021-11-18 16:40:59 GMT 45.357010 22.774792 34,975 147 495 0
2021-11-18 16:40:56 GMT 45.364517 22.767923 35,000 147 495 -64
2021-11-18 16:40:52 GMT 45.370464 22.762533 35,000 147 495 -64
2021-11-18 16:40:49 GMT 45.378189 22.755499 34,975 147 495 -64
2021-11-18 16:40:46 GMT 45.381866 22.752228 34,975 147 495 -64
2021-11-18 16:40:42 GMT 45.389969 22.744839 35,000 147 495 -64
2021-11-18 16:40:37 GMT 45.409286 22.727312 35,000 147 495 -64
2021-11-18 16:40:33 GMT 45.409286 22.727312 35,000 147 495 -64
2021-11-18 16:40:26 GMT 45.420647 22.716980 35,000 147 495 0
2021-11-18 16:40:23 GMT 45.427628 22.710684 35,000 147 495 0
2021-11-18 16:40:19 GMT 45.437073 22.702070 35,000 147 495 -64
2021-11-18 16:40:16 GMT 45.439774 22.699585 35,000 147 495 -64
2021-11-18 16:40:12 GMT 45.447876 22.692261 35,000 147 495 -64
2021-11-18 16:40:09 GMT 45.454834 22.685917 35,000 147 495 -64
2021-11-18 16:40:06 GMT 45.461563 22.679802 35,000 147 495 -64
2021-11-18 16:40:03 GMT 45.467148 22.674734 35,000 147 495 -64
2021-11-18 16:40:00 GMT 45.471992 22.670355 35,000 147 495 -64
2021-11-18 16:39:57 GMT 45.477951 22.664860 35,000 147 494 64
2021-11-18 16:39:53 GMT 45.484131 22.659237 35,000 147 494 64
2021-11-18 16:39:49 GMT 45.491962 22.652000 35,000 147 494 0
2021-11-18 16:39:46 GMT 45.499466 22.645176 35,000 147 494 64
2021-11-18 16:39:41 GMT 45.507324 22.637932 35,000 147 494 64
2021-11-18 16:39:37 GMT 45.516544 22.629492 34,975 147 493 0
2021-11-18 16:39:34 GMT 45.522079 22.624380 34,975 147 492 0
2021-11-18 16:39:30 GMT 45.531281 22.615946 34,975 147 492 64
2021-11-18 16:39:27 GMT 45.536049 22.611538 34,975 147 492 64
2021-11-18 16:39:24 GMT 45.542564 22.605576 34,975 147 492 64
2021-11-18 16:39:21 GMT 45.547176 22.601418 34,975 147 493 0
2021-11-18 16:39:17 GMT 45.555973 22.593315 34,975 147 493 0
2021-11-18 16:39:14 GMT 45.558884 22.590704 34,975 147 494 -64
2021-11-18 16:39:09 GMT 45.569798 22.580681 34,975 147 494 -64
2021-11-18 16:39:06 GMT 45.580399 22.570942 35,000 147 495 -64
2021-11-18 16:39:00 GMT 45.588089 22.563841 35,000 147 495 0
2021-11-18 16:38:56 GMT 45.600403 22.552521 34,975 147 496 0
2021-11-18 16:38:50 GMT 45.606171 22.547228 34,975 147 497 0
2021-11-18 16:38:44 GMT 45.617935 22.536461 34,975 147 497 0
2021-11-18 16:38:41 GMT 45.624126 22.530762 34,975 147 497 0
2021-11-18 16:38:36 GMT 45.634735 22.521034 35,000 147 497 -64
2021-11-18 16:38:33 GMT 45.638416 22.517647 35,000 147 497 -64
2021-11-18 16:38:30 GMT 45.645950 22.510717 35,000 147 497 0
2021-11-18 16:38:24 GMT 45.656342 22.501139 34,975 147 497 0
2021-11-18 16:38:18 GMT 45.666954 22.491348 34,975 147 497 0
2021-11-18 16:38:13 GMT 45.677216 22.481913 34,975 147 498 -64
2021-11-18 16:38:08 GMT 45.686321 22.473564 34,975 147 498 -64
2021-11-18 16:38:02 GMT 45.700657 22.460449 35,000 147 498 -64
2021-11-18 16:37:58 GMT 45.706696 22.454916 35,000 147 498 -64
2021-11-18 16:37:54 GMT 45.714798 22.447412 35,000 147 499 -64
2021-11-18 16:37:49 GMT 45.725281 22.437698 34,975 147 499 0
2021-11-18 16:37:45 GMT 45.732407 22.431061 35,000 147 499 64
2021-11-18 16:37:42 GMT 45.736496 22.427317 34,975 147 499 -64
2021-11-18 16:37:38 GMT 45.745209 22.419250 34,975 147 499 -64
2021-11-18 16:37:35 GMT 45.752190 22.412796 34,975 147 499 0
2021-11-18 16:37:31 GMT 45.758194 22.407219 35,000 147 499 0
2021-11-18 16:37:27 GMT 45.765739 22.400230 34,975 147 499 -64
2021-11-18 16:37:22 GMT 45.776367 22.390406 35,000 147 499 0
2021-11-18 16:37:18 GMT 45.785477 22.381897 35,000 147 499 0
2021-11-18 16:37:14 GMT 45.792458 22.375443 35,000 146 500 0
2021-11-18 16:37:10 GMT 45.799255 22.369169 35,000 146 500 -64
2021-11-18 16:37:06 GMT 45.806625 22.362335 34,975 147 500 64
2021-11-18 16:37:03 GMT 45.813995 22.355436 35,000 146 500 -64
2021-11-18 16:36:59 GMT 45.821365 22.348602 34,975 146 500 0
2021-11-18 16:36:56 GMT 45.826584 22.343788 35,000 147 500 0
2021-11-18 16:36:52 GMT 45.836681 22.334381 34,975 147 499 64
2021-11-18 16:36:46 GMT 45.847950 22.324013 35,000 147 500 -128
2021-11-18 16:36:43 GMT 45.850845 22.321272 34,975 147 500 0
2021-11-18 16:36:40 GMT 45.856888 22.315704 34,975 147 499 64
2021-11-18 16:36:36 GMT 45.865585 22.307673 35,000 147 499 0
2021-11-18 16:36:33 GMT 45.870434 22.303139 34,975 147 499 0
2021-11-18 16:36:30 GMT 45.876846 22.297222 34,975 147 499 0
2021-11-18 16:36:26 GMT 45.885563 22.289131 34,975 147 499 0
2021-11-18 16:36:23 GMT 45.891380 22.283775 34,975 147 499 0
2021-11-18 16:36:16 GMT 45.904930 22.271141 35,000 147 499 -64
2021-11-18 16:36:13 GMT 45.910538 22.265938 35,000 147 499 -64
2021-11-18 16:36:09 GMT 45.918476 22.258575 35,000 147 499 -64
2021-11-18 16:36:06 GMT 45.925041 22.252464 35,000 146 498 -64
2021-11-18 16:36:01 GMT 45.935841 22.242371 35,000 146 497 -64
2021-11-18 16:35:56 GMT 45.942215 22.236462 35,000 146 498 -64
2021-11-18 16:35:53 GMT 45.949013 22.230148 35,000 146 497 64
2021-11-18 16:35:49 GMT 45.956497 22.223131 35,000 146 496 0
2021-11-18 16:35:46 GMT 45.964424 22.215729 35,000 146 497 -64
2021-11-18 16:35:43 GMT 45.969032 22.211403 35,000 146 497 -64
2021-11-18 16:35:39 GMT 45.977325 22.203705 35,000 146 497 64
2021-11-18 16:35:35 GMT 45.985603 22.195953 35,000 146 497 0
2021-11-18 16:35:31 GMT 45.991329 22.190529 35,000 146 496 0
2021-11-18 16:35:26 GMT 46.002274 22.180258 35,000 146 495 -64
2021-11-18 16:35:23 GMT 46.008041 22.174898 34,975 146 495 0
2021-11-18 16:35:20 GMT 46.012253 22.170946 35,000 146 496 0
2021-11-18 16:35:15 GMT 46.022278 22.161568 35,000 147 495 -64
2021-11-18 16:35:12 GMT 46.027828 22.156403 35,000 147 495 -64
2021-11-18 16:35:08 GMT 46.035507 22.149193 35,000 146 496 -64
2021-11-18 16:35:02 GMT 46.046860 22.138590 35,000 146 495 -64
2021-11-18 16:34:59 GMT 46.054314 22.131615 35,000 146 496 -64
2021-11-18 16:34:54 GMT 46.062370 22.124062 35,000 146 496 64
2021-11-18 16:34:51 GMT 46.068932 22.117950 35,000 146 496 64
2021-11-18 16:34:43 GMT 46.084667 22.103188 34,975 146 496 64
2021-11-18 16:34:40 GMT 46.088699 22.099468 34,975 146 496 64
2021-11-18 16:34:32 GMT 46.105270 22.083994 34,975 146 497 -64
2021-11-18 16:34:26 GMT 46.116650 22.073318 34,975 146 496 -64
2021-11-18 16:34:23 GMT 46.124542 22.065907 34,975 146 498 -128
2021-11-18 16:34:20 GMT 46.127243 22.063427 34,975 146 499 -64
2021-11-18 16:34:14 GMT 46.141159 22.050364 35,000 146 500 -128
2021-11-18 16:34:11 GMT 46.146973 22.044870 35,000 146 500 -64
2021-11-18 16:34:05 GMT 46.156677 22.035761 35,000 146 501 -64
2021-11-18 16:34:01 GMT 46.164227 22.028618 35,000 146 502 -64
2021-11-18 16:33:58 GMT 46.170788 22.022438 35,000 146 502 0
2021-11-18 16:33:55 GMT 46.175861 22.017632 35,000 146 502 0
2021-11-18 16:33:52 GMT 46.184010 22.009941 35,000 146 502 0
2021-11-18 16:33:49 GMT 46.188446 22.005749 34,975 146 502 -64
2021-11-18 16:33:43 GMT 46.200119 21.994762 35,000 146 502 0
2021-11-18 16:33:39 GMT 46.207657 21.987625 35,000 146 502 -64
2021-11-18 16:33:33 GMT 46.218750 21.977213 35,000 146 502 0
2021-11-18 16:33:29 GMT 46.235825 21.961134 35,000 146 501 -64
2021-11-18 16:33:24 GMT 46.235825 21.961134 35,000 146 501 0
2021-11-18 16:33:19 GMT 46.245319 21.952126 34,975 146 501 0
2021-11-18 16:33:14 GMT 46.255562 21.942444 34,975 146 501 0
2021-11-18 16:33:11 GMT 46.263336 21.935076 35,000 146 501 0
2021-11-18 16:33:08 GMT 46.268177 21.930496 34,975 146 502 0
2021-11-18 16:33:05 GMT 46.275158 21.923904 34,975 146 502 0
2021-11-18 16:33:01 GMT 46.280186 21.919167 34,975 146 502 -64
2021-11-18 16:32:58 GMT 46.289124 21.910721 34,975 146 503 -64
2021-11-18 16:32:52 GMT 46.299225 21.901176 34,975 146 502 -64
2021-11-18 16:32:49 GMT 46.303299 21.897360 35,000 146 502 -64
2021-11-18 16:32:44 GMT 46.313984 21.887238 35,000 146 502 -64
2021-11-18 16:32:40 GMT 46.323296 21.878380 35,000 146 502 -64
2021-11-18 16:32:36 GMT 46.329666 21.872307 35,000 146 502 -64
2021-11-18 16:32:33 GMT 46.335724 21.866638 35,000 146 502 -64
2021-11-18 16:32:29 GMT 46.349487 21.853548 35,000 146 502 0
2021-11-18 16:32:26 GMT 46.359970 21.843567 35,000 146 502 0
2021-11-18 16:32:21 GMT 46.363655 21.840065 35,000 146 502 0
2021-11-18 16:32:18 GMT 46.363655 21.840065 34,975 146 502 0
2021-11-18 16:32:14 GMT 46.387482 21.817442 34,975 146 502 64
2021-11-18 16:32:07 GMT 46.387482 21.817442 34,975 146 501 64
2021-11-18 16:32:03 GMT 46.394844 21.810402 34,975 146 500 0
2021-11-18 16:31:59 GMT 46.400478 21.805046 34,975 146 501 0
2021-11-18 16:31:56 GMT 46.407833 21.798042 34,975 146 501 0
2021-11-18 16:31:53 GMT 46.414024 21.792137 35,000 146 502 -64
2021-11-18 16:31:49 GMT 46.420441 21.786091 35,000 146 502 -64
2021-11-18 16:31:45 GMT 46.428780 21.778130 34,975 146 503 -64
2021-11-18 16:31:42 GMT 46.433624 21.773529 34,975 146 502 -64
2021-11-18 16:31:39 GMT 46.440216 21.767199 34,975 146 502 -64
2021-11-18 16:31:36 GMT 46.446030 21.761639 35,000 146 502 -64
2021-11-18 16:31:32 GMT 46.452801 21.755196 34,975 146 502 -64
2021-11-18 16:31:29 GMT 46.459625 21.748775 35,000 146 502 -64
2021-11-18 16:31:20 GMT 46.478989 21.730288 35,000 146 502 0
2021-11-18 16:31:12 GMT 46.492558 21.717293 35,000 146 500 64
2021-11-18 16:31:06 GMT 46.504944 21.705502 35,000 146 500 0
2021-11-18 16:31:01 GMT 46.514019 21.696831 34,975 146 500 64
2021-11-18 16:30:58 GMT 46.519226 21.691835 34,975 146 500 64
2021-11-18 16:30:55 GMT 46.525818 21.685537 34,975 146 500 64
2021-11-18 16:30:52 GMT 46.531986 21.679665 35,000 146 503 0
2021-11-18 16:30:47 GMT 46.539734 21.672207 34,975 146 501 0
2021-11-18 16:30:42 GMT 46.551308 21.661125 34,975 146 501 0
2021-11-18 16:30:37 GMT 46.559830 21.652981 35,000 146 502 0
2021-11-18 16:30:31 GMT 46.571045 21.642174 34,975 146 502 0
2021-11-18 16:30:27 GMT 46.578415 21.635162 34,975 146 503 0
2021-11-18 16:30:24 GMT 46.584404 21.629402 35,000 146 507 -64
2021-11-18 16:30:21 GMT 46.591248 21.622810 34,975 146 503 0
2021-11-18 16:30:18 GMT 46.598000 21.616356 34,975 146 504 0
2021-11-18 16:30:15 GMT 46.603638 21.610910 34,975 146 504 -64
2021-11-18 16:30:11 GMT 46.611267 21.603653 34,975 146 505 0
2021-11-18 16:30:06 GMT 46.620392 21.594900 34,975 146 505 -64
2021-11-18 16:30:03 GMT 46.631935 21.583878 35,000 146 507 -64
2021-11-18 16:30:00 GMT 46.631935 21.583878 35,000 146 505 -64
2021-11-18 16:29:57 GMT 46.644241 21.572058 35,000 146 507 -64
2021-11-18 16:29:54 GMT 46.644241 21.572058 35,000 146 507 -64
2021-11-18 16:29:50 GMT 46.650696 21.565819 35,000 146 506 -64
2021-11-18 16:29:47 GMT 46.658516 21.558266 35,000 146 508 -64
2021-11-18 16:29:43 GMT 46.664383 21.552635 35,000 146 508 0
2021-11-18 16:29:40 GMT 46.670296 21.547005 34,975 146 508 0
2021-11-18 16:29:36 GMT 46.678486 21.539040 35,000 146 507 -64
2021-11-18 16:29:31 GMT 46.690823 21.527161 35,000 146 506 0
2021-11-18 16:29:26 GMT 46.699402 21.518867 35,000 146 507 0
2021-11-18 16:29:23 GMT 46.703533 21.514938 35,000 146 507 0
2021-11-18 16:29:20 GMT 46.709770 21.508896 35,000 146 506 -64
2021-11-18 16:29:14 GMT 46.723038 21.496056 35,000 146 506 -64
2021-11-18 16:29:10 GMT 46.730438 21.488914 34,975 146 505 0
2021-11-18 16:29:05 GMT 46.739227 21.480415 35,000 146 506 64
2021-11-18 16:29:00 GMT 46.749947 21.470100 35,000 146 505 64
2021-11-18 16:28:55 GMT 46.759872 21.460451 34,975 146 506 64
2021-11-18 16:28:52 GMT 46.770195 21.450462 34,975 146 506 0
2021-11-18 16:28:49 GMT 46.770195 21.450462 34,975 146 505 0
2021-11-18 16:28:45 GMT 46.779179 21.441811 35,000 146 506 -64
2021-11-18 16:28:40 GMT 46.789700 21.431648 35,000 146 505 -64
2021-11-18 16:28:36 GMT 46.796127 21.425484 35,000 146 506 0
2021-11-18 16:28:32 GMT 46.803131 21.418652 34,975 146 506 0
2021-11-18 16:28:29 GMT 46.809765 21.412216 34,975 146 506 -64
2021-11-18 16:28:24 GMT 46.819355 21.403015 35,000 146 507 -64
2021-11-18 16:28:18 GMT 46.830109 21.392578 35,000 146 506 -64
2021-11-18 16:28:13 GMT 46.839844 21.383080 35,000 146 508 0
2021-11-18 16:28:09 GMT 46.849659 21.373627 34,975 146 508 0
2021-11-18 16:28:05 GMT 46.856277 21.367203 34,975 146 508 0
2021-11-18 16:28:02 GMT 46.863907 21.359756 35,000 146 508 -64
2021-11-18 16:27:57 GMT 46.879967 21.344252 34,975 146 508 -64
2021-11-18 16:27:54 GMT 46.879967 21.344252 35,000 146 508 -64
2021-11-18 16:27:51 GMT 46.883083 21.341154 35,000 146 508 -64
2021-11-18 16:27:47 GMT 46.892071 21.332420 35,000 146 508 -64
2021-11-18 16:27:43 GMT 46.899307 21.325424 35,000 146 508 0
2021-11-18 16:27:39 GMT 46.907501 21.317459 35,000 146 508 0
2021-11-18 16:27:36 GMT 46.912582 21.312515 35,000 146 508 0
2021-11-18 16:27:33 GMT 46.919220 21.306061 34,975 146 507 0
2021-11-18 16:27:28 GMT 46.928986 21.296576 34,975 146 506 64
2021-11-18 16:27:25 GMT 46.934620 21.291080 34,975 146 506 0
2021-11-18 16:27:22 GMT 46.939320 21.286505 35,000 146 506 -64
2021-11-18 16:27:18 GMT 46.948814 21.277208 35,000 146 505 -64
2021-11-18 16:27:15 GMT 46.954494 21.271786 35,000 146 506 -64
2021-11-18 16:27:11 GMT 46.963062 21.263405 35,000 146 506 -64
2021-11-18 16:27:08 GMT 46.973373 21.253395 35,000 146 506 -64
2021-11-18 16:27:05 GMT 46.973373 21.253395 35,000 146 505 -64
2021-11-18 16:27:02 GMT 46.979774 21.247135 35,000 146 505 -64
2021-11-18 16:26:58 GMT 46.988712 21.238403 35,000 146 505 -64
2021-11-18 16:26:54 GMT 47.001884 21.225515 35,000 146 504 0
2021-11-18 16:26:51 GMT 47.001884 21.225515 35,000 146 504 0
2021-11-18 16:26:47 GMT 47.008869 21.218683 35,000 146 504 0
2021-11-18 16:26:44 GMT 47.014271 21.213331 35,000 146 503 64
2021-11-18 16:26:40 GMT 47.028004 21.199881 34,975 146 502 64
2021-11-18 16:26:37 GMT 47.028004 21.199881 34,975 145 502 64
2021-11-18 16:26:34 GMT 47.033386 21.194550 34,975 146 502 64
2021-11-18 16:26:31 GMT 47.038788 21.189194 34,975 146 502 0
2021-11-18 16:26:28 GMT 47.045506 21.182556 34,975 145 502 0
2021-11-18 16:26:25 GMT 47.051697 21.176500 34,975 146 503 -64
2021-11-18 16:26:21 GMT 47.061333 21.167063 35,000 146 503 -128
2021-11-18 16:26:18 GMT 47.064823 21.163683 35,000 146 502 -128
2021-11-18 16:26:14 GMT 47.072182 21.156500 35,000 146 503 -64
2021-11-18 16:26:11 GMT 47.078568 21.150261 35,000 146 503 -64
2021-11-18 16:26:07 GMT 47.086704 21.142344 35,000 146 503 -64
2021-11-18 16:26:02 GMT 47.097931 21.131310 35,000 146 503 0
2021-11-18 16:25:59 GMT 47.102764 21.126568 35,000 146 503 0
2021-11-18 16:25:56 GMT 47.107605 21.121849 35,000 146 502 0
2021-11-18 16:25:53 GMT 47.112026 21.117483 35,000 146 502 64
2021-11-18 16:25:49 GMT 47.121292 21.108328 35,000 145 503 64
2021-11-18 16:25:46 GMT 47.127064 21.102625 34,975 145 503 64
2021-11-18 16:25:43 GMT 47.132263 21.097458 34,975 145 503 64
2021-11-18 16:25:39 GMT 47.140144 21.089664 34,975 146 503 64
2021-11-18 16:25:36 GMT 47.145966 21.083961 34,975 146 502 64
2021-11-18 16:25:33 GMT 47.151169 21.078850 34,975 146 504 0
2021-11-18 16:25:27 GMT 47.163376 21.066849 34,975 146 505 -64
2021-11-18 16:25:23 GMT 47.171150 21.059172 34,975 146 506 -64
2021-11-18 16:25:19 GMT 47.179916 21.050629 35,000 146 507 -128
2021-11-18 16:25:15 GMT 47.186138 21.044453 35,000 146 508 -128
2021-11-18 16:25:12 GMT 47.191818 21.038889 35,000 146 509 -128
2021-11-18 16:25:09 GMT 47.200058 21.030861 35,000 146 510 -64
2021-11-18 16:25:06 GMT 47.205318 21.025648 35,000 146 511 -64
2021-11-18 16:25:02 GMT 47.211044 21.020016 35,000 146 511 -64
2021-11-18 16:24:58 GMT 47.220078 21.011141 34,975 146 513 64
2021-11-18 16:24:55 GMT 47.226360 21.004944 34,975 146 513 64
2021-11-18 16:24:52 GMT 47.230499 21.000847 34,975 146 513 64
2021-11-18 16:24:49 GMT 47.237595 20.993912 34,975 146 512 64
2021-11-18 16:24:46 GMT 47.243088 20.988487 34,975 146 512 0
2021-11-18 16:24:43 GMT 47.250755 20.980928 35,000 145 512 64
2021-11-18 16:24:36 GMT 47.263092 20.968643 35,000 145 512 0
2021-11-18 16:24:32 GMT 47.270920 20.960884 34,975 145 511 0
2021-11-18 16:24:28 GMT 47.278748 20.953125 34,975 145 511 0
2021-11-18 16:24:25 GMT 47.290325 20.941631 34,975 145 511 64
2021-11-18 16:24:22 GMT 47.290325 20.941631 34,975 145 511 0
2021-11-18 16:24:18 GMT 47.299728 20.932335 34,975 146 510 -64
2021-11-18 16:24:15 GMT 47.306988 20.925152 34,975 146 509 -64
2021-11-18 16:24:11 GMT 47.311085 20.921066 35,000 146 510 -64
2021-11-18 16:24:08 GMT 47.319324 20.912970 34,975 145 511 -64
2021-11-18 16:24:05 GMT 47.324982 20.907326 34,975 145 509 -64
2021-11-18 16:24:02 GMT 47.330265 20.902054 34,975 145 510 -64
2021-11-18 16:23:57 GMT 47.339081 20.893318 35,000 146 512 -64
2021-11-18 16:23:54 GMT 47.346142 20.886349 35,000 145 511 -64
2021-11-18 16:23:51 GMT 47.349865 20.882614 35,000 146 512 -64
2021-11-18 16:23:48 GMT 47.358894 20.873671 35,000 145 512 -64
2021-11-18 16:23:45 GMT 47.362434 20.870150 34,975 145 511 -64
2021-11-18 16:23:42 GMT 47.369881 20.862755 35,000 145 512 -64
2021-11-18 16:23:38 GMT 47.376755 20.855896 34,975 145 513 -64
2021-11-18 16:23:35 GMT 47.382076 20.850641 35,000 145 513 -64
2021-11-18 16:23:31 GMT 47.390690 20.841980 35,000 145 513 -64
2021-11-18 16:23:27 GMT 47.398186 20.834585 35,000 145 514 -64
2021-11-18 16:23:24 GMT 47.406239 20.826487 35,000 145 514 -64
2021-11-18 16:23:21 GMT 47.409962 20.822824 35,000 145 514 -64
2021-11-18 16:23:16 GMT 47.420013 20.812775 35,000 145 513 64
2021-11-18 16:23:13 GMT 47.425930 20.806837 35,000 145 514 -64
2021-11-18 16:23:10 GMT 47.431000 20.801788 34,975 145 513 64
2021-11-18 16:23:06 GMT 47.440224 20.792542 34,975 145 514 64
2021-11-18 16:23:03 GMT 47.446739 20.786062 34,975 145 514 0
2021-11-18 16:23:00 GMT 47.450272 20.782562 34,975 145 514 0
2021-11-18 16:22:57 GMT 47.456749 20.776133 34,975 146 513 0
2021-11-18 16:22:54 GMT 47.462082 20.770821 34,975 145 514 0
2021-11-18 16:22:51 GMT 47.475647 20.757330 34,975 145 514 0
2021-11-18 16:22:48 GMT 47.475647 20.757330 34,975 145 514 -64
2021-11-18 16:22:44 GMT 47.485336 20.747681 34,975 145 513 -64
2021-11-18 16:22:41 GMT 47.489273 20.743767 35,000 145 514 -64
2021-11-18 16:22:38 GMT 47.496323 20.736694 35,000 145 515 -64
2021-11-18 16:22:33 GMT 47.510147 20.722824 35,000 145 516 -64
2021-11-18 16:22:30 GMT 47.510147 20.722824 35,000 145 516 -64
2021-11-18 16:22:26 GMT 47.518387 20.714516 35,000 145 516 -64
2021-11-18 16:22:23 GMT 47.530811 20.702045 35,000 145 515 -64
2021-11-18 16:22:20 GMT 47.530811 20.702045 34,975 145 516 -64
2021-11-18 16:22:16 GMT 47.538353 20.694510 35,000 145 517 -64
2021-11-18 16:22:13 GMT 47.543476 20.689299 35,000 145 517 -64
2021-11-18 16:22:10 GMT 47.550179 20.682608 35,000 145 517 -64
2021-11-18 16:22:06 GMT 47.559082 20.673660 35,000 145 517 -64
2021-11-18 16:22:03 GMT 47.563019 20.669678 34,975 145 517 -64
2021-11-18 16:22:00 GMT 47.570160 20.662537 35,000 145 517 -64
2021-11-18 16:21:55 GMT 47.584160 20.648453 35,000 145 516 -64
2021-11-18 16:21:49 GMT 47.590492 20.642113 35,000 145 516 0
2021-11-18 16:21:45 GMT 47.599243 20.633451 35,000 145 518 0
2021-11-18 16:21:42 GMT 47.606365 20.626337 35,000 146 517 -64
2021-11-18 16:21:39 GMT 47.610535 20.622162 35,000 145 517 -64
2021-11-18 16:21:35 GMT 47.619644 20.613029 35,000 145 517 64
2021-11-18 16:21:32 GMT 47.624569 20.608097 34,975 145 516 64
2021-11-18 16:21:29 GMT 47.636810 20.595774 35,000 145 516 0
2021-11-18 16:21:26 GMT 47.636810 20.595774 35,000 145 517 0
2021-11-18 16:21:22 GMT 47.651104 20.581549 34,975 145 517 0
2021-11-18 16:21:19 GMT 47.651104 20.581549 34,975 145 518 0
2021-11-18 16:21:14 GMT 47.661987 20.570663 35,000 145 517 0
2021-11-18 16:21:11 GMT 47.666748 20.565857 34,975 145 517 64
2021-11-18 16:21:08 GMT 47.671261 20.561266 34,975 145 517 0
2021-11-18 16:21:03 GMT 47.682907 20.549446 35,000 145 517 -64
2021-11-18 16:21:00 GMT 47.688019 20.544222 35,000 145 517 -64
2021-11-18 16:20:57 GMT 47.694397 20.537842 35,000 145 518 -64
2021-11-18 16:20:54 GMT 47.699524 20.532623 35,000 145 519 -64
2021-11-18 16:20:51 GMT 47.706253 20.525826 35,000 145 519 -64
2021-11-18 16:20:48 GMT 47.711426 20.520607 35,000 145 519 -64
2021-11-18 16:20:42 GMT 47.724060 20.507767 35,000 145 520 -64
2021-11-18 16:20:39 GMT 47.731201 20.500488 35,000 145 520 64
2021-11-18 16:20:34 GMT 47.739738 20.491896 34,975 145 520 64
2021-11-18 16:20:31 GMT 47.751434 20.479958 34,975 145 520 128
2021-11-18 16:20:28 GMT 47.751434 20.479958 34,975 145 520 64
2021-11-18 16:20:25 GMT 47.757385 20.473984 34,975 145 520 64
2021-11-18 16:20:21 GMT 47.765717 20.465538 34,975 145 520 64
2021-11-18 16:20:18 GMT 47.771488 20.459711 34,975 145 520 0
2021-11-18 16:20:14 GMT 47.781033 20.449993 34,975 145 520 -64
2021-11-18 16:20:11 GMT 47.787186 20.443771 35,000 145 520 -64
2021-11-18 16:20:08 GMT 47.792156 20.438725 35,000 145 521 -64
2021-11-18 16:20:03 GMT 47.801926 20.428871 35,000 145 522 -64
2021-11-18 16:20:00 GMT 47.816875 20.413725 35,000 145 523 -64
2021-11-18 16:19:56 GMT 47.816875 20.413725 35,000 145 523 -64
2021-11-18 16:19:52 GMT 47.826839 20.403584 35,000 145 524 -64
2021-11-18 16:19:48 GMT 47.831863 20.398453 34,975 145 524 0
2021-11-18 16:19:44 GMT 47.839222 20.390978 34,975 145 524 0
2021-11-18 16:19:41 GMT 47.847229 20.382809 34,975 145 524 0
2021-11-18 16:19:38 GMT 47.854443 20.375484 35,000 145 525 -64
2021-11-18 16:19:34 GMT 47.859421 20.370438 35,000 145 525 -64
2021-11-18 16:19:30 GMT 47.869034 20.360619 35,000 145 523 -64
2021-11-18 16:19:27 GMT 47.874207 20.355331 35,000 145 524 -64
2021-11-18 16:19:22 GMT 47.882217 20.347160 35,000 145 524 0
2021-11-18 16:19:19 GMT 47.889404 20.339813 35,000 145 524 0
2021-11-18 16:19:16 GMT 47.895401 20.333702 35,000 145 525 0
2021-11-18 16:19:11 GMT 47.905792 20.323059 34,975 145 525 64
2021-11-18 16:19:07 GMT 47.916779 20.311819 35,000 145 525 0
2021-11-18 16:19:02 GMT 47.922783 20.305693 34,975 145 525 0
2021-11-18 16:18:59 GMT 47.931953 20.296326 34,975 145 525 0
2021-11-18 16:18:55 GMT 47.937588 20.290621 34,975 145 525 0
2021-11-18 16:18:51 GMT 47.947357 20.280624 34,975 145 525 -64
2021-11-18 16:18:46 GMT 47.957558 20.270199 34,975 145 525 -64
2021-11-18 16:18:43 GMT 47.963791 20.263870 35,000 145 525 -64
2021-11-18 16:18:40 GMT 47.966583 20.260986 35,000 145 525 -128
2021-11-18 16:18:37 GMT 47.974361 20.253014 35,000 145 525 -128
2021-11-18 16:18:34 GMT 47.981369 20.245880 35,000 145 525 -64
2021-11-18 16:18:31 GMT 47.984371 20.242804 35,000 145 525 -64
2021-11-18 16:18:28 GMT 47.991959 20.234985 35,000 145 525 -64
2021-11-18 16:18:25 GMT 47.998993 20.227821 34,975 145 525 0
2021-11-18 16:18:22 GMT 48.004990 20.221710 34,975 145 525 64
2021-11-18 16:18:18 GMT 48.013187 20.213293 34,975 145 525 -64
2021-11-18 16:18:15 GMT 48.019981 20.206322 35,000 145 524 -64
2021-11-18 16:18:12 GMT 48.029156 20.196884 35,000 145 522 -64
2021-11-18 16:18:09 GMT 48.029156 20.196884 35,000 145 523 -64
2021-11-18 16:18:06 GMT 48.035114 20.190758 35,000 145 523 -128
2021-11-18 16:18:03 GMT 48.039909 20.185829 35,000 145 523 -128
2021-11-18 16:18:00 GMT 48.048660 20.176813 35,000 145 522 -64
2021-11-18 16:17:57 GMT 48.053825 20.171461 35,000 145 522 -64
2021-11-18 16:17:54 GMT 48.067326 20.157587 34,975 145 521 -64
2021-11-18 16:17:50 GMT 48.067326 20.157587 35,000 145 521 0
2021-11-18 16:17:46 GMT 48.081200 20.143291 35,000 145 520 64
2021-11-18 16:17:43 GMT 48.081200 20.143291 35,000 145 519 0
2021-11-18 16:17:40 GMT 48.088120 20.136154 34,975 145 518 0
2021-11-18 16:17:37 GMT 48.101730 20.122164 34,975 145 518 0
2021-11-18 16:17:34 GMT 48.101730 20.122164 34,975 145 518 0
2021-11-18 16:17:31 GMT 48.106476 20.117306 34,975 145 517 0
2021-11-18 16:17:28 GMT 48.116299 20.107164 34,975 145 517 0
2021-11-18 16:17:25 GMT 48.116299 20.107164 35,000 145 517 -64
2021-11-18 16:17:22 GMT 48.122040 20.101341 34,975 145 517 -64
2021-11-18 16:17:19 GMT 48.129707 20.093431 35,000 145 516 -64
2021-11-18 16:17:16 GMT 48.133617 20.089417 35,000 145 516 -64
2021-11-18 16:17:13 GMT 48.142647 20.080120 35,000 145 516 0
2021-11-18 16:17:10 GMT 48.145813 20.076881 35,000 145 515 64
2021-11-18 16:17:07 GMT 48.154053 20.068430 34,975 145 515 64
2021-11-18 16:17:04 GMT 48.157745 20.064606 35,000 145 515 64
2021-11-18 16:17:01 GMT 48.162872 20.059345 35,000 145 515 -64
2021-11-18 16:16:58 GMT 48.169697 20.052288 35,000 143 523 -64
2021-11-18 16:16:55 GMT 48.175186 20.046579 34,975 145 514 0
2021-11-18 16:16:52 GMT 48.180862 20.040752 35,000 145 514 -64
2021-11-18 16:16:49 GMT 48.188690 20.032724 35,000 145 514 0
2021-11-18 16:16:46 GMT 48.194366 20.026848 35,000 145 514 -64
2021-11-18 16:16:42 GMT 48.202789 20.018217 35,000 145 514 -64
2021-11-18 16:16:38 GMT 48.208649 20.012159 34,975 145 514 0
2021-11-18 16:16:34 GMT 48.218857 20.001667 35,000 145 514 -64
2021-11-18 16:16:31 GMT 48.223938 19.996454 35,000 145 514 -64
2021-11-18 16:16:28 GMT 48.228073 19.992226 35,000 145 514 -64
2021-11-18 16:16:25 GMT 48.235703 19.984343 35,000 145 515 -64
2021-11-18 16:16:22 GMT 48.240417 19.979483 35,000 145 515 -64
2021-11-18 16:16:19 GMT 48.251999 19.967651 35,000 143 523 -64
2021-11-18 16:16:16 GMT 48.251999 19.967651 35,000 145 515 0
2021-11-18 16:16:13 GMT 48.257866 19.961580 34,975 145 515 64
2021-11-18 16:16:10 GMT 48.263947 19.955326 34,975 145 515 64
2021-11-18 16:16:07 GMT 48.269073 19.950045 34,975 145 515 64
2021-11-18 16:16:04 GMT 48.275928 19.943005 34,975 145 516 64
2021-11-18 16:16:01 GMT 48.281841 19.936934 34,975 145 516 64
2021-11-18 16:15:58 GMT 48.293617 19.924789 34,975 145 517 64
2021-11-18 16:15:55 GMT 48.293617 19.924789 34,975 145 517 64
2021-11-18 16:15:52 GMT 48.300694 19.917490 34,975 145 517 0
2021-11-18 16:15:48 GMT 48.306015 19.912016 34,975 145 517 -64
2021-11-18 16:15:45 GMT 48.314472 19.903252 34,975 145 518 -64
2021-11-18 16:15:42 GMT 48.317413 19.900185 34,975 145 518 -64
2021-11-18 16:15:39 GMT 48.325504 19.891760 34,975 145 519 0
2021-11-18 16:15:36 GMT 48.329636 19.887508 34,975 145 519 64
2021-11-18 16:15:33 GMT 48.336910 19.879906 34,975 145 519 0
2021-11-18 16:15:30 GMT 48.343414 19.873070 35,000 144 520 -64
2021-11-18 16:15:27 GMT 48.349686 19.866449 34,975 144 520 -64
2021-11-18 16:15:24 GMT 48.354603 19.861258 34,975 144 520 -64
2021-11-18 16:15:21 GMT 48.359303 19.856197 34,975 144 520 -64
2021-11-18 16:15:18 GMT 48.365585 19.849476 35,000 143 521 -128
2021-11-18 16:15:15 GMT 48.372990 19.841454 35,000 143 521 -128
2021-11-18 16:15:12 GMT 48.377274 19.836756 35,000 143 523 -64
2021-11-18 16:15:09 GMT 48.386444 19.826731 35,000 143 523 -128
2021-11-18 16:15:06 GMT 48.391891 19.820744 35,000 143 523 -64
2021-11-18 16:15:02 GMT 48.396973 19.815182 35,000 143 523 0
2021-11-18 16:14:59 GMT 48.409103 19.801941 35,000 143 523 0
2021-11-18 16:14:56 GMT 48.409103 19.801941 34,975 143 523 64
2021-11-18 16:14:52 GMT 48.424568 19.785004 35,000 143 523 -64
2021-11-18 16:14:49 GMT 48.428284 19.780954 35,000 143 523 0
2021-11-18 16:14:46 GMT 48.428284 19.780954 35,000 143 523 -64
2021-11-18 16:14:43 GMT 48.434143 19.774546 35,000 143 523 -64
2021-11-18 16:14:40 GMT 48.440002 19.768066 35,000 143 523 -64
2021-11-18 16:14:37 GMT 48.445656 19.761875 35,000 143 523 -64
2021-11-18 16:14:34 GMT 48.451355 19.755672 35,000 143 523 -64
2021-11-18 16:14:31 GMT 48.458771 19.747501 35,000 143 520 0
2021-11-18 16:14:28 GMT 48.463627 19.742144 35,000 143 522 -64
2021-11-18 16:14:25 GMT 48.468887 19.736376 35,000 143 522 -64
2021-11-18 16:14:22 GMT 48.479965 19.724216 35,000 143 521 0
2021-11-18 16:14:19 GMT 48.479965 19.724216 35,000 143 520 0
2021-11-18 16:14:16 GMT 48.487564 19.715881 35,000 143 520 0
2021-11-18 16:14:13 GMT 48.493561 19.709255 35,000 143 520 0
2021-11-18 16:14:10 GMT 48.504639 19.697079 35,000 143 519 0
2021-11-18 16:14:07 GMT 48.504639 19.697079 35,000 143 519 64
2021-11-18 16:14:04 GMT 48.512180 19.688801 35,000 143 519 64
2021-11-18 16:14:01 GMT 48.515671 19.684971 34,975 143 519 64
2021-11-18 16:13:58 GMT 48.523178 19.676655 34,975 143 518 64
2021-11-18 16:13:54 GMT 48.531326 19.667711 34,975 143 518 128
2021-11-18 16:13:51 GMT 48.534992 19.663649 34,975 143 518 64
2021-11-18 16:13:48 GMT 48.540253 19.657850 34,975 143 518 64
2021-11-18 16:13:45 GMT 48.546799 19.650667 35,000 143 521 -64
2021-11-18 16:13:42 GMT 48.552612 19.644258 34,975 143 520 -64
2021-11-18 16:13:38 GMT 48.560593 19.635532 34,975 143 520 -64
2021-11-18 16:13:35 GMT 48.566574 19.628836 34,975 143 520 -64
2021-11-18 16:13:31 GMT 48.580170 19.613907 35,000 143 520 -64
2021-11-18 16:13:28 GMT 48.580170 19.613907 34,975 143 521 -64
2021-11-18 16:13:25 GMT 48.586395 19.607004 34,975 143 521 -64
2021-11-18 16:13:21 GMT 48.594955 19.597567 35,000 143 521 -64
2021-11-18 16:13:18 GMT 48.599213 19.592850 35,000 143 521 -64
2021-11-18 16:13:15 GMT 48.604073 19.587467 35,000 143 521 -128
2021-11-18 16:13:12 GMT 48.611847 19.578865 35,000 143 521 -128
2021-11-18 16:13:08 GMT 48.618458 19.571566 35,000 143 520 -64
2021-11-18 16:13:05 GMT 48.623116 19.566435 35,000 143 521 -64
2021-11-18 16:13:01 GMT 48.631851 19.556791 35,000 143 520 -64
2021-11-18 16:12:58 GMT 48.638443 19.549467 35,000 143 520 -64
2021-11-18 16:12:55 GMT 48.643272 19.544100 35,000 143 520 0
2021-11-18 16:12:51 GMT 48.651993 19.534395 35,000 143 519 0
2021-11-18 16:12:48 GMT 48.656662 19.529255 35,000 143 519 64
2021-11-18 16:12:45 GMT 48.662842 19.522423 34,975 143 518 64
2021-11-18 16:12:42 GMT 48.670364 19.514105 35,000 143 518 64
2021-11-18 16:12:39 GMT 48.674648 19.509405 34,975 143 518 64
2021-11-18 16:12:36 GMT 48.682571 19.500662 35,000 143 518 64
2021-11-18 16:12:32 GMT 48.693176 19.488878 34,975 143 518 64
2021-11-18 16:12:29 GMT 48.693176 19.488878 34,975 143 518 64
2021-11-18 16:12:26 GMT 48.700531 19.480783 34,975 143 518 0
2021-11-18 16:12:20 GMT 48.716537 19.463055 35,000 143 518 -64
2021-11-18 16:12:17 GMT 48.716537 19.463055 34,975 143 518 -64
2021-11-18 16:12:14 GMT 48.722549 19.456427 35,000 143 518 -128
2021-11-18 16:12:09 GMT 48.732559 19.445223 35,000 143 519 -128
2021-11-18 16:12:06 GMT 48.740112 19.436857 35,000 143 519 -64
2021-11-18 16:12:03 GMT 48.749969 19.425852 35,000 143 520 0
2021-11-18 16:12:00 GMT 48.749969 19.425852 35,000 143 520 64
2021-11-18 16:11:57 GMT 48.761765 19.412701 35,000 143 518 64
2021-11-18 16:11:54 GMT 48.761765 19.412701 34,975 143 520 128
2021-11-18 16:11:50 GMT 48.769337 19.404312 34,975 143 519 64
2021-11-18 16:11:47 GMT 48.775314 19.397631 34,975 143 519 128
2021-11-18 16:11:44 GMT 48.781082 19.391151 34,975 143 517 -64
2021-11-18 16:11:40 GMT 48.788609 19.382774 34,975 143 517 -64
2021-11-18 16:11:37 GMT 48.795319 19.375305 35,000 143 514 -64
2021-11-18 16:11:34 GMT 48.800896 19.369041 35,000 143 516 -128
2021-11-18 16:11:29 GMT 48.824734 19.342443 35,000 143 517 -128
2021-11-18 16:11:24 GMT 48.824734 19.342443 35,000 143 516 -128
2021-11-18 16:11:21 GMT 48.827805 19.339045 35,000 143 514 -64
2021-11-18 16:11:17 GMT 48.833725 19.332346 35,000 143 514 -64
2021-11-18 16:11:14 GMT 48.840050 19.325314 35,000 143 514 -128
2021-11-18 16:11:09 GMT 48.847916 19.316500 35,000 143 514 0
2021-11-18 16:11:06 GMT 48.853828 19.309917 35,000 143 514 0
2021-11-18 16:11:03 GMT 48.859554 19.303484 35,000 143 514 -64
2021-11-18 16:11:00 GMT 48.867607 19.294451 35,000 143 514 0
2021-11-18 16:10:57 GMT 48.871216 19.290373 35,000 143 514 64
2021-11-18 16:10:54 GMT 48.875984 19.285053 35,000 143 514 64
2021-11-18 16:10:51 GMT 48.883621 19.276451 34,975 143 514 128
2021-11-18 16:10:48 GMT 48.888794 19.270653 34,950 143 516 128
2021-11-18 16:10:45 GMT 48.895493 19.263153 34,975 143 514 128
2021-11-18 16:10:41 GMT 48.902008 19.255854 34,975 143 516 128
2021-11-18 16:10:38 GMT 48.907734 19.249420 34,975 143 516 128
2021-11-18 16:10:34 GMT 48.928299 19.226215 34,950 143 525 -64
2021-11-18 16:10:27 GMT 48.928299 19.226215 34,950 143 533 -320
2021-11-18 16:10:24 GMT 48.934643 19.218990 34,950 143 522 64
2021-11-18 16:10:21 GMT 48.947071 19.205042 34,975 143 525 -64
2021-11-18 16:10:18 GMT 48.947071 19.205042 34,950 143 524 -64
2021-11-18 16:10:14 GMT 48.953308 19.198030 34,950 143 527 -128
2021-11-18 16:10:11 GMT 48.959747 19.190722 34,975 143 528 -320
2021-11-18 16:10:08 GMT 48.965652 19.184172 34,975 143 530 -256
2021-11-18 16:10:05 GMT 48.971970 19.177130 35,000 143 531 -384
2021-11-18 16:10:02 GMT 48.979111 19.169170 35,000 143 533 -256
2021-11-18 16:09:57 GMT 48.993805 19.152761 35,025 143 533 -192
2021-11-18 16:09:54 GMT 48.993805 19.152761 35,025 143 534 -192
2021-11-18 16:09:51 GMT 49.007496 19.137461 35,000 143 534 -64
2021-11-18 16:09:47 GMT 49.007496 19.137461 35,000 143 534 -64
2021-11-18 16:09:44 GMT 49.013260 19.131001 35,000 143 534 64
2021-11-18 16:09:41 GMT 49.018387 19.125154 35,000 143 532 64
2021-11-18 16:09:38 GMT 49.025116 19.117619 35,000 143 531 64
2021-11-18 16:09:35 GMT 49.031799 19.110014 35,000 143 529 0
2021-11-18 16:09:32 GMT 49.035736 19.105577 35,000 143 527 -64
2021-11-18 16:09:29 GMT 49.041641 19.098886 35,000 143 527 -64
2021-11-18 16:09:26 GMT 49.055492 19.083179 35,000 143 527 -64
2021-11-18 16:09:23 GMT 49.055492 19.083179 35,000 143 526 -64
2021-11-18 16:09:20 GMT 49.060192 19.077831 35,025 143 526 -128
2021-11-18 16:09:16 GMT 49.073181 19.062969 35,000 142 524 -64
2021-11-18 16:09:13 GMT 49.073181 19.062969 35,000 142 522 64
2021-11-18 16:09:10 GMT 49.079929 19.055208 35,000 142 522 64
2021-11-18 16:09:06 GMT 49.088406 19.045450 35,000 142 519 128
2021-11-18 16:09:02 GMT 49.095291 19.037500 35,000 142 519 128
2021-11-18 16:08:59 GMT 49.099903 19.032223 35,000 143 518 64
2021-11-18 16:08:55 GMT 49.107788 19.023251 34,975 143 517 192
2021-11-18 16:08:52 GMT 49.114288 19.015785 34,975 143 516 128
2021-11-18 16:08:49 GMT 49.120377 19.008814 34,975 143 516 128
2021-11-18 16:08:45 GMT 49.127415 19.000782 35,000 143 515 128
2021-11-18 16:08:42 GMT 49.133141 18.994276 34,975 143 516 64
2021-11-18 16:08:39 GMT 49.139465 18.987122 35,000 143 528 -128
2021-11-18 16:08:36 GMT 49.146175 18.979605 35,000 143 517 128
2021-11-18 16:08:32 GMT 49.151527 18.973461 34,975 143 517 128
2021-11-18 16:08:29 GMT 49.157867 18.966276 34,975 143 519 192
2021-11-18 16:08:25 GMT 49.167683 18.955173 34,975 143 522 192
2021-11-18 16:08:22 GMT 49.171593 18.950766 34,950 143 524 192
2021-11-18 16:08:19 GMT 49.176620 18.945057 34,950 143 525 128
2021-11-18 16:08:15 GMT 49.185184 18.935369 34,975 143 529 -256
2021-11-18 16:08:12 GMT 49.192841 18.926697 34,975 143 530 -256
2021-11-18 16:08:08 GMT 49.197968 18.920851 34,975 143 531 -448
2021-11-18 16:08:05 GMT 49.204876 18.913036 35,075 143 534 -1024
2021-11-18 16:08:02 GMT 49.209999 18.907183 35,100 143 536 -1152
2021-11-18 16:07:59 GMT 49.216747 18.899521 35,150 143 536 -1152
2021-11-18 16:07:56 GMT 49.221725 18.893879 35,150 143 536 -1152
2021-11-18 16:07:53 GMT 49.230293 18.884125 35,300 143 540 -832
2021-11-18 16:07:50 GMT 49.235088 18.878704 35,300 142 555 -1088
2021-11-18 16:07:47 GMT 49.241364 18.871695 35,350 143 543 -768
2021-11-18 16:07:44 GMT 49.248032 18.864176 35,450 143 547 -768
2021-11-18 16:07:41 GMT 49.252872 18.858683 35,425 143 546 -832
2021-11-18 16:07:38 GMT 49.258972 18.851816 35,450 143 546 -832
2021-11-18 16:07:34 GMT 49.267273 18.842398 35,575 143 549 -896
2021-11-18 16:07:31 GMT 49.273590 18.835264 35,550 143 548 -896
2021-11-18 16:07:27 GMT 49.281315 18.826519 35,575 143 548 -896
2021-11-18 16:07:24 GMT 49.287598 18.819298 35,625 143 550 -960
2021-11-18 16:07:21 GMT 49.293884 18.812063 35,675 143 550 -960
2021-11-18 16:07:18 GMT 49.299564 18.805557 35,750 143 551 -1024
2021-11-18 16:07:15 GMT 49.308548 18.795296 35,800 143 551 -1088
2021-11-18 16:07:12 GMT 49.312820 18.790354 35,850 143 552 -1088
2021-11-18 16:07:09 GMT 49.323631 18.777948 36,025 143 555 -1088
2021-11-18 16:07:06 GMT 49.332619 18.767612 36,025 143 555 -1088
2021-11-18 16:07:02 GMT 49.332619 18.767612 36,000 143 554 -1088
2021-11-18 16:06:59 GMT 49.340389 18.758650 36,050 143 555 -1088
2021-11-18 16:06:56 GMT 49.345325 18.753012 36,075 143 555 -1088
2021-11-18 16:06:52 GMT 49.355148 18.741665 36,175 142 555 -1088
2021-11-18 16:06:49 GMT 49.359055 18.737112 36,225 142 554 -1152
2021-11-18 16:06:46 GMT 49.367249 18.727674 36,300 142 552 -1216
2021-11-18 16:06:43 GMT 49.372746 18.721281 36,325 142 554 -1280
2021-11-18 16:06:40 GMT 49.377045 18.716337 36,375 143 553 -1216
2021-11-18 16:06:37 GMT 49.383179 18.709293 36,475 142 552 -1216
2021-11-18 16:06:33 GMT 49.392929 18.698027 36,525 143 550 -1216
2021-11-18 16:06:30 GMT 49.398193 18.691898 36,600 142 542 -832
2021-11-18 16:06:27 GMT 49.403282 18.686083 36,650 143 548 -1152
2021-11-18 16:06:23 GMT 49.413620 18.674152 36,700 143 547 -1024
2021-11-18 16:06:20 GMT 49.417854 18.669241 36,800 142 546 -1216
2021-11-18 16:06:17 GMT 49.425659 18.660208 36,800 142 544 -960
2021-11-18 16:06:13 GMT 49.431911 18.653004 36,900 142 542 -832
2021-11-18 16:06:10 GMT 49.438110 18.645823 36,950 142 541 -704
2021-11-18 16:06:07 GMT 49.443878 18.639122 36,975 142 541 -576
2021-11-18 16:06:04 GMT 49.450302 18.631699 37,000 142 541 -320
2021-11-18 16:06:01 GMT 49.458260 18.622494 36,975 142 541 -64
2021-11-18 16:05:58 GMT 49.461472 18.618784 36,975 142 541 128
2021-11-18 16:05:55 GMT 49.473438 18.604977 36,975 143 540 64
2021-11-18 16:05:52 GMT 49.473438 18.604977 36,975 143 540 0
2021-11-18 16:05:49 GMT 49.478806 18.598698 36,975 143 540 0
2021-11-18 16:05:46 GMT 49.485401 18.591093 36,975 143 540 64
2021-11-18 16:05:43 GMT 49.493591 18.581638 37,000 143 540 -64
2021-11-18 16:05:40 GMT 49.499176 18.575207 36,975 143 540 -64
2021-11-18 16:05:37 GMT 49.504761 18.568773 37,000 143 540 -64
2021-11-18 16:05:34 GMT 49.518356 18.553089 37,000 142 541 0
2021-11-18 16:05:30 GMT 49.518356 18.553089 36,975 142 541 -64
2021-11-18 16:05:27 GMT 49.523941 18.546658 36,950 142 541 128
2021-11-18 16:05:24 GMT 49.529892 18.539719 36,975 143 542 -64
2021-11-18 16:05:21 GMT 49.536514 18.532080 37,025 142 542 -128
2021-11-18 16:05:18 GMT 49.541309 18.526512 37,025 142 542 -128
2021-11-18 16:05:15 GMT 49.547104 18.519770 37,025 142 542 64
2021-11-18 16:05:12 GMT 49.554703 18.510950 37,025 142 543 128
2021-11-18 16:05:09 GMT 49.562447 18.501867 37,000 142 543 0
2021-11-18 16:05:06 GMT 49.567657 18.495855 36,975 142 543 64
2021-11-18 16:05:03 GMT 49.571045 18.491869 36,975 142 543 64
2021-11-18 16:05:00 GMT 49.577454 18.484425 36,975 142 543 0
2021-11-18 16:04:57 GMT 49.584465 18.476183 36,975 142 544 -64
2021-11-18 16:04:54 GMT 49.590683 18.468958 36,975 142 545 -128
2021-11-18 16:04:51 GMT 49.595490 18.463392 37,000 142 545 -128
2021-11-18 16:04:48 GMT 49.601898 18.455948 37,025 142 545 -64
2021-11-18 16:04:45 GMT 49.607117 18.449877 37,025 142 545 -64
2021-11-18 16:04:42 GMT 49.621010 18.433647 36,975 142 546 -64
2021-11-18 16:04:39 GMT 49.626801 18.426819 37,000 142 546 0
2021-11-18 16:04:36 GMT 49.626801 18.426819 36,975 142 546 64
2021-11-18 16:04:33 GMT 49.631653 18.421181 36,975 142 547 -64
2021-11-18 16:04:30 GMT 49.638279 18.413458 36,975 142 547 0
2021-11-18 16:04:27 GMT 49.645123 18.405439 36,975 142 547 64
2021-11-18 16:04:24 GMT 49.649963 18.399797 36,975 142 547 -64
2021-11-18 16:04:21 GMT 49.656807 18.391855 36,975 142 547 -64
2021-11-18 16:04:18 GMT 49.664440 18.382874 36,975 142 547 -64
2021-11-18 16:04:14 GMT 49.670864 18.375376 37,000 142 547 -64
2021-11-18 16:04:11 GMT 49.682739 18.361479 36,975 142 547 -64
2021-11-18 16:04:08 GMT 49.682739 18.361479 37,000 142 547 -64
2021-11-18 16:04:05 GMT 49.688602 18.354666 37,000 142 547 -64
2021-11-18 16:04:02 GMT 49.696655 18.345238 36,975 142 547 -640
2021-11-18 16:03:59 GMT 49.706955 18.333218 36,975 142 547 -64
2021-11-18 16:03:56 GMT 49.713409 18.325628 37,000 142 547 -64
2021-11-18 16:03:53 GMT 49.713409 18.325628 37,000 142 548 -64
2021-11-18 16:03:49 GMT 49.720024 18.317846 36,975 142 548 0
2021-11-18 16:03:46 GMT 49.726685 18.310089 37,000 142 548 -64
2021-11-18 16:03:43 GMT 49.732967 18.302776 36,975 142 548 64
2021-11-18 16:03:40 GMT 49.745682 18.287827 36,975 142 548 0
2021-11-18 16:03:37 GMT 49.745682 18.287827 36,975 141 537 -1024
2021-11-18 16:03:34 GMT 49.749710 18.283129 36,975 142 549 0
2021-11-18 16:03:31 GMT 49.757404 18.274199 36,975 142 549 0
2021-11-18 16:03:28 GMT 49.770355 18.258987 37,000 142 549 -640
2021-11-18 16:03:25 GMT 49.770355 18.258987 36,975 142 549 -64
2021-11-18 16:03:22 GMT 49.777222 18.250965 36,975 142 550 -64
2021-11-18 16:03:18 GMT 49.782486 18.244749 37,000 142 537 -1216
2021-11-18 16:03:15 GMT 49.797043 18.227692 37,000 142 550 -128
2021-11-18 16:03:12 GMT 49.797043 18.227692 37,000 142 550 -64
2021-11-18 16:03:08 GMT 49.803909 18.219597 37,000 142 551 64
2021-11-18 16:03:05 GMT 49.810196 18.212214 37,000 142 551 128
2021-11-18 16:03:02 GMT 49.819290 18.201454 36,975 142 552 128
2021-11-18 16:02:59 GMT 49.828400 18.190762 36,975 142 550 0
2021-11-18 16:02:56 GMT 49.828400 18.190762 36,975 142 550 64
2021-11-18 16:02:53 GMT 49.834076 18.184006 36,975 142 551 -192
2021-11-18 16:02:50 GMT 49.841583 18.175217 36,975 142 551 -192
2021-11-18 16:02:46 GMT 49.852890 18.161846 37,000 142 550 -320
2021-11-18 16:02:43 GMT 49.852890 18.161846 37,050 142 549 -576
2021-11-18 16:02:40 GMT 49.860947 18.152306 37,050 142 549 -640
2021-11-18 16:02:37 GMT 49.865799 18.146523 37,050 142 549 -640
2021-11-18 16:02:34 GMT 49.873032 18.137922 37,100 142 548 -576
2021-11-18 16:02:31 GMT 49.877426 18.132645 37,150 142 547 -640
2021-11-18 16:02:28 GMT 49.884075 18.124769 37,175 142 547 -640
2021-11-18 16:02:25 GMT 49.890079 18.117643 37,200 142 546 -704
2021-11-18 16:02:22 GMT 49.898876 18.107176 37,250 142 545 -832
2021-11-18 16:02:18 GMT 49.911438 18.092171 37,375 142 543 -1024
2021-11-18 16:02:15 GMT 49.911438 18.092171 37,350 142 544 -896
2021-11-18 16:02:12 GMT 49.916199 18.086460 37,375 142 543 -1088
2021-11-18 16:02:09 GMT 49.927925 18.072510 37,425 142 542 -1024
2021-11-18 16:02:06 GMT 49.933685 18.065643 37,475 142 542 -960
2021-11-18 16:02:03 GMT 49.933685 18.065643 37,550 142 541 -1024
2021-11-18 16:02:00 GMT 49.939636 18.058559 37,600 142 540 -1216
2021-11-18 16:01:57 GMT 49.945999 18.051043 37,625 142 540 -1152
2021-11-18 16:01:54 GMT 49.953918 18.041647 37,650 142 540 -896
2021-11-18 16:01:51 GMT 49.963806 18.029865 37,750 142 540 -1216
2021-11-18 16:01:48 GMT 49.969757 18.022854 37,850 142 540 -1088
2021-11-18 16:01:45 GMT 49.969757 18.022854 37,850 141 537 -1216
2021-11-18 16:01:42 GMT 49.976665 18.014608 37,925 142 539 -1280
2021-11-18 16:01:39 GMT 49.983788 18.006145 37,950 142 539 -1216
2021-11-18 16:01:36 GMT 49.988911 18.000059 38,025 142 539 -1280
2021-11-18 16:01:33 GMT 49.994614 17.993219 38,050 142 539 -1152
2021-11-18 16:01:30 GMT 49.998360 17.988703 38,150 142 538 -1216
2021-11-18 16:01:27 GMT 50.005436 17.980240 38,225 142 538 -1216
2021-11-18 16:01:24 GMT 50.017216 17.966061 38,275 142 537 -1152
2021-11-18 16:01:21 GMT 50.017216 17.966061 38,325 141 537 -1216
2021-11-18 16:01:18 GMT 50.023079 17.958935 38,425 141 537 -1152
2021-11-18 16:01:15 GMT 50.029690 17.950844 38,400 141 537 -1152
2021-11-18 16:01:11 GMT 50.039417 17.938892 38,500 141 537 -1024
2021-11-18 16:01:07 GMT 50.045284 17.931767 38,575 141 537 -1024
2021-11-18 16:01:04 GMT 50.049194 17.927015 38,575 141 537 -1088
2021-11-18 16:01:01 GMT 50.056824 17.917688 38,775 141 536 -896
2021-11-18 16:00:58 GMT 50.063461 17.909594 38,800 141 536 -896
2021-11-18 16:00:55 GMT 50.066372 17.906008 38,775 141 536 -896
2021-11-18 16:00:52 GMT 50.075310 17.895096 38,800 141 536 -896
2021-11-18 16:00:49 GMT 50.079025 17.890585 38,825 141 535 -832
2021-11-18 16:00:46 GMT 50.085251 17.882923 38,850 141 534 -704
2021-11-18 16:00:43 GMT 50.092621 17.873890 38,925 141 534 -704
2021-11-18 16:00:40 GMT 50.097290 17.868252 38,950 141 534 -640
2021-11-18 16:00:37 GMT 50.102917 17.861320 38,950 141 534 -512
2021-11-18 16:00:34 GMT 50.109741 17.853071 39,000 141 534 -64
2021-11-18 16:00:31 GMT 50.114365 17.847363 38,975 141 534 -192
2021-11-18 16:00:28 GMT 50.120224 17.840279 39,000 141 533 -64
2021-11-18 16:00:25 GMT 50.126984 17.831999 38,975 141 534 -64
2021-11-18 16:00:22 GMT 50.131851 17.826113 38,975 141 534 0
2021-11-18 16:00:19 GMT 50.138668 17.817820 39,000 141 534 64
2021-11-18 16:00:16 GMT 50.143524 17.811874 38,975 141 534 64
2021-11-18 16:00:13 GMT 50.156342 17.796188 38,975 141 534 64
2021-11-18 16:00:10 GMT 50.156342 17.796188 38,975 141 534 -64
2021-11-18 16:00:07 GMT 50.160965 17.790550 38,975 141 533 -64
2021-11-18 16:00:04 GMT 50.167763 17.782188 38,975 141 533 0
2021-11-18 16:00:01 GMT 50.172592 17.776239 39,000 141 533 -64
2021-11-18 15:59:58 GMT 50.178612 17.768902 38,975 141 534 0
2021-11-18 15:59:55 GMT 50.183441 17.762941 39,000 141 534 64
2021-11-18 15:59:52 GMT 50.190811 17.753906 39,000 141 534 64
2021-11-18 15:59:49 GMT 50.197605 17.745667 39,000 141 533 0
2021-11-18 15:59:45 GMT 50.202866 17.739208 39,000 142 533 0
2021-11-18 15:59:42 GMT 50.210220 17.730270 39,000 142 533 -64
2021-11-18 15:59:39 GMT 50.216446 17.722754 39,000 142 533 0
2021-11-18 15:59:36 GMT 50.221527 17.716682 38,975 142 533 -64
2021-11-18 15:59:33 GMT 50.227341 17.709600 39,000 142 533 -64
2021-11-18 15:59:30 GMT 50.233978 17.701576 39,000 142 533 -64
2021-11-18 15:59:27 GMT 50.239014 17.695505 39,000 142 533 -64
2021-11-18 15:59:24 GMT 50.251698 17.680267 39,000 142 533 -64
2021-11-18 15:59:21 GMT 50.251698 17.680267 39,000 139 537 -64
2021-11-18 15:59:18 GMT 50.256592 17.674400 39,000 142 533 0
2021-11-18 15:59:15 GMT 50.269455 17.658932 38,975 142 534 0
2021-11-18 15:59:12 GMT 50.275314 17.651850 38,975 142 534 0
2021-11-18 15:59:09 GMT 50.275314 17.651850 39,000 142 534 0
2021-11-18 15:59:06 GMT 50.281174 17.644766 38,975 142 535 0
2021-11-18 15:59:03 GMT 50.287170 17.637436 38,975 141 534 0
2021-11-18 15:59:00 GMT 50.291656 17.631971 38,975 141 535 -64
2021-11-18 15:58:57 GMT 50.297691 17.624594 38,975 141 535 0
2021-11-18 15:58:54 GMT 50.302719 17.618359 38,975 141 535 -64
2021-11-18 15:58:51 GMT 50.308731 17.610939 38,975 141 536 64
2021-11-18 15:58:48 GMT 50.316467 17.601254 39,000 140 536 0
2021-11-18 15:58:44 GMT 50.327225 17.587521 38,975 138 540 -64
2021-11-18 15:58:41 GMT 50.327225 17.587521 38,975 139 538 0
2021-11-18 15:58:38 GMT 50.335770 17.576344 38,975 139 537 -64
2021-11-18 15:58:35 GMT 50.340500 17.569958 38,975 138 538 64
2021-11-18 15:58:32 GMT 50.345352 17.563309 39,000 138 538 -64
2021-11-18 15:58:29 GMT 50.351303 17.555067 38,975 138 539 -64
2021-11-18 15:58:26 GMT 50.357254 17.546827 38,975 138 539 -64
2021-11-18 15:58:23 GMT 50.361889 17.540340 39,000 138 539 -64
2021-11-18 15:58:20 GMT 50.368217 17.531582 39,000 138 541 -64
2021-11-18 15:58:17 GMT 50.374008 17.523556 38,975 138 540 0
2021-11-18 15:58:14 GMT 50.387100 17.505413 38,975 138 542 0
2021-11-18 15:58:10 GMT 50.387100 17.505413 39,000 138 541 -64
2021-11-18 15:58:07 GMT 50.391354 17.499439 39,000 138 541 -64
2021-11-18 15:58:04 GMT 50.396614 17.492165 38,975 138 541 0
2021-11-18 15:58:01 GMT 50.403854 17.481995 38,975 138 542 0
2021-11-18 15:57:58 GMT 50.416580 17.464287 39,000 138 542 0
2021-11-18 15:57:55 GMT 50.416580 17.464287 38,975 138 542 0
2021-11-18 15:57:52 GMT 50.419380 17.460320 38,975 138 542 0
2021-11-18 15:57:49 GMT 50.426285 17.450699 39,000 138 542 -64
2021-11-18 15:57:46 GMT 50.434891 17.438700 39,000 138 542 -64
2021-11-18 15:57:43 GMT 50.438465 17.433744 39,000 138 542 -64
2021-11-18 15:57:40 GMT 50.442188 17.428549 38,975 138 542 -64
2021-11-18 15:57:37 GMT 50.447617 17.420992 39,000 138 542 -64
2021-11-18 15:57:34 GMT 50.454899 17.410807 38,975 138 541 -64
2021-11-18 15:57:31 GMT 50.458668 17.405609 38,975 138 542 0
2021-11-18 15:57:28 GMT 50.464256 17.397741 39,000 138 542 -64
2021-11-18 15:57:25 GMT 50.470634 17.388908 39,000 138 542 0
2021-11-18 15:57:22 GMT 50.481853 17.373245 39,000 138 542 0
2021-11-18 15:57:19 GMT 50.481853 17.373245 39,000 138 542 0
2021-11-18 15:57:16 GMT 50.486526 17.366783 39,000 138 541 0
2021-11-18 15:57:13 GMT 50.492699 17.358175 38,975 138 542 0
2021-11-18 15:57:10 GMT 50.498329 17.350307 39,000 138 542 0
2021-11-18 15:57:07 GMT 50.505455 17.340433 38,975 138 542 64
2021-11-18 15:57:04 GMT 50.509369 17.334908 38,975 138 542 0
2021-11-18 15:57:01 GMT 50.514221 17.328114 38,975 138 542 0
2021-11-18 15:56:58 GMT 50.522827 17.316116 39,000 138 542 -64
2021-11-18 15:56:55 GMT 50.528458 17.308237 39,000 138 543 0
2021-11-18 15:56:52 GMT 50.533154 17.301685 38,975 138 543 -64
2021-11-18 15:56:49 GMT 50.536877 17.296490 39,000 138 543 -64
2021-11-18 15:56:46 GMT 50.543472 17.287275 38,975 138 545 -64
2021-11-18 15:56:43 GMT 50.550201 17.277880 39,000 138 546 -64
2021-11-18 15:56:40 GMT 50.554146 17.272364 39,000 138 545 -64
2021-11-18 15:56:37 GMT 50.561687 17.261824 38,975 138 545 -64
2021-11-18 15:56:34 GMT 50.565628 17.256269 39,000 138 546 -64
2021-11-18 15:56:31 GMT 50.571991 17.247307 39,000 138 546 -64
2021-11-18 15:56:28 GMT 50.577469 17.239702 39,000 138 546 -64
2021-11-18 15:56:25 GMT 50.588737 17.223890 38,975 138 546 -64
2021-11-18 15:56:22 GMT 50.588737 17.223890 39,000 138 546 0
2021-11-18 15:56:19 GMT 50.599823 17.208277 38,975 138 546 0
2021-11-18 15:56:16 GMT 50.599823 17.208277 39,000 138 546 -64
2021-11-18 15:56:13 GMT 50.605499 17.200325 38,975 138 546 0
2021-11-18 15:56:10 GMT 50.612640 17.190279 38,975 138 546 64
2021-11-18 15:56:07 GMT 50.618271 17.182327 38,975 138 547 0
2021-11-18 15:56:04 GMT 50.627289 17.169607 39,000 138 547 -64
2021-11-18 15:56:01 GMT 50.627289 17.169607 38,975 138 546 -64
2021-11-18 15:55:58 GMT 50.634842 17.158981 38,975 138 547 -64
2021-11-18 15:55:55 GMT 50.640472 17.151031 38,975 138 546 -64
2021-11-18 15:55:52 GMT 50.645004 17.144743 39,000 138 546 -64
2021-11-18 15:55:49 GMT 50.656467 17.128576 39,000 138 546 -64
2021-11-18 15:55:46 GMT 50.656467 17.128576 39,000 138 546 -64
2021-11-18 15:55:43 GMT 50.661942 17.120892 39,000 138 546 -64
2021-11-18 15:55:40 GMT 50.667160 17.113520 39,000 138 546 -64
2021-11-18 15:55:37 GMT 50.673569 17.104450 39,000 138 546 -64
2021-11-18 15:55:34 GMT 50.678833 17.097101 39,000 138 546 -64
2021-11-18 15:55:31 GMT 50.691803 17.078781 39,000 138 546 0
2021-11-18 15:55:28 GMT 50.694992 17.074312 38,975 138 545 -64
2021-11-18 15:55:25 GMT 50.694992 17.074312 39,000 138 545 -64
2021-11-18 15:55:22 GMT 50.699669 17.067642 39,000 138 545 -64
2021-11-18 15:55:19 GMT 50.707718 17.056274 39,000 138 545 -64
2021-11-18 15:55:16 GMT 50.714287 17.046967 38,975 138 545 0
2021-11-18 15:55:13 GMT 50.719173 17.040100 39,000 138 545 -64
2021-11-18 15:55:09 GMT 50.725388 17.031332 38,975 138 545 -64
2021-11-18 15:55:06 GMT 50.731384 17.022869 39,000 138 545 -64
2021-11-18 15:55:03 GMT 50.737190 17.014618 39,000 138 545 -64
2021-11-18 15:55:00 GMT 50.741867 17.008024 39,000 138 545 -64
2021-11-18 15:54:57 GMT 50.753128 16.992064 39,000 138 545 -64
2021-11-18 15:54:54 GMT 50.753128 16.992064 39,000 138 545 0
2021-11-18 15:54:51 GMT 50.759857 16.982489 39,000 138 545 0
2021-11-18 15:54:48 GMT 50.764565 16.975861 39,000 138 545 0
2021-11-18 15:54:45 GMT 50.770523 16.967392 39,000 138 545 -64
2021-11-18 15:54:42 GMT 50.775784 16.959915 38,975 137 545 -64
2021-11-18 15:54:39 GMT 50.781601 16.951681 38,975 137 545 -64
2021-11-18 15:54:36 GMT 50.787552 16.943146 39,000 137 545 -64
2021-11-18 15:54:33 GMT 50.794125 16.933899 38,975 137 545 -64
2021-11-18 15:54:30 GMT 50.798447 16.927778 39,000 137 545 -64
2021-11-18 15:54:27 GMT 50.805176 16.918129 39,000 137 545 -64
2021-11-18 15:54:24 GMT 50.809441 16.912079 39,000 137 545 -64
2021-11-18 15:54:21 GMT 50.822193 16.893921 39,000 137 545 -64
2021-11-18 15:54:18 GMT 50.822193 16.893921 39,000 137 545 0
2021-11-18 15:54:15 GMT 50.833191 16.878193 38,975 137 545 0
2021-11-18 15:54:12 GMT 50.833191 16.878193 38,975 137 545 -64
2021-11-18 15:54:08 GMT 50.839554 16.869137 39,000 137 544 -64
2021-11-18 15:54:05 GMT 50.846821 16.858749 38,975 137 545 0
2021-11-18 15:54:02 GMT 50.856178 16.845474 38,975 137 544 0
2021-11-18 15:53:59 GMT 50.856178 16.845474 38,975 137 545 0
2021-11-18 15:53:56 GMT 50.867889 16.828678 38,975 137 544 0
2021-11-18 15:53:53 GMT 50.867889 16.828678 39,000 137 544 -64
2021-11-18 15:53:49 GMT 50.875763 16.817471 39,000 137 544 -64
2021-11-18 15:53:46 GMT 50.881348 16.809452 39,000 137 544 -128
2021-11-18 15:53:43 GMT 50.887878 16.800156 38,975 137 544 0
2021-11-18 15:53:39 GMT 50.895172 16.789782 38,975 137 544 0
2021-11-18 15:53:35 GMT 50.902031 16.779861 38,975 137 544 0
2021-11-18 15:53:32 GMT 50.908409 16.770859 39,000 137 544 0
2021-11-18 15:53:28 GMT 50.913437 16.763653 39,000 137 545 0
2021-11-18 15:53:25 GMT 50.919754 16.754597 39,000 137 544 64
2021-11-18 15:53:22 GMT 50.925541 16.746292 39,000 137 544 0
2021-11-18 15:53:19 GMT 50.936874 16.729952 38,975 137 544 -64
2021-11-18 15:53:16 GMT 50.936874 16.729952 38,975 137 544 0
2021-11-18 15:53:13 GMT 50.944336 16.719336 39,000 137 544 -64
2021-11-18 15:53:10 GMT 50.949921 16.711319 38,975 137 543 -64
2021-11-18 15:53:07 GMT 50.953846 16.705704 39,000 137 544 -64
2021-11-18 15:53:04 GMT 50.959061 16.698227 39,000 137 544 -64
2021-11-18 15:53:01 GMT 50.966507 16.687546 39,000 137 545 -64
2021-11-18 15:52:58 GMT 50.970230 16.682205 39,000 137 544 0
2021-11-18 15:52:55 GMT 50.976013 16.673906 39,000 137 544 0
2021-11-18 15:52:52 GMT 50.981598 16.665890 38,975 137 544 64
2021-11-18 15:52:49 GMT 50.987183 16.657871 38,975 137 545 0
2021-11-18 15:52:46 GMT 50.999863 16.639610 39,000 137 545 0
2021-11-18 15:52:43 GMT 50.999863 16.639610 39,000 137 545 0
2021-11-18 15:52:40 GMT 51.002838 16.635305 38,975 137 545 0
2021-11-18 15:52:37 GMT 51.008217 16.627579 38,975 137 545 0
2021-11-18 15:52:34 GMT 51.015713 16.616821 38,975 137 545 -64
2021-11-18 15:52:30 GMT 51.021671 16.608200 38,975 137 546 -64
2021-11-18 15:52:27 GMT 51.027817 16.599274 38,975 137 547 -64
2021-11-18 15:52:24 GMT 51.033634 16.590958 39,000 137 547 -64
2021-11-18 15:52:21 GMT 51.039047 16.583120 39,000 137 547 -64
2021-11-18 15:52:18 GMT 51.044807 16.574783 39,000 137 547 -64
2021-11-18 15:52:15 GMT 51.050442 16.566696 39,000 137 547 -128
2021-11-18 15:52:12 GMT 51.058090 16.555580 39,000 137 547 -64
2021-11-18 15:52:09 GMT 51.061844 16.550161 39,000 137 548 -64
2021-11-18 15:52:06 GMT 51.068573 16.540438 39,000 137 547 -64
2021-11-18 15:52:03 GMT 51.073952 16.532593 39,000 137 547 -64
2021-11-18 15:52:00 GMT 51.079742 16.524179 39,000 137 547 -64
2021-11-18 15:51:57 GMT 51.084229 16.517647 39,000 137 547 -64
2021-11-18 15:51:54 GMT 51.100811 16.493530 39,000 137 547 -64
2021-11-18 15:51:50 GMT 51.100811 16.493530 39,000 137 547 0
2021-11-18 15:51:46 GMT 51.104534 16.488113 39,000 137 546 0
2021-11-18 15:51:43 GMT 51.110123 16.479950 39,000 137 544 128
2021-11-18 15:51:39 GMT 51.117523 16.469116 39,000 137 544 64
2021-11-18 15:51:36 GMT 51.123856 16.459961 39,000 137 544 128
2021-11-18 15:51:33 GMT 51.130138 16.450806 38,975 137 544 64
2021-11-18 15:51:30 GMT 51.134933 16.443787 38,975 137 543 64
2021-11-18 15:51:27 GMT 51.141037 16.434879 38,975 137 542 64
2021-11-18 15:51:24 GMT 51.145477 16.428421 38,975 137 542 64
2021-11-18 15:51:21 GMT 51.151382 16.419809 38,975 137 542 0
2021-11-18 15:51:18 GMT 51.157883 16.410370 38,975 137 542 64
2021-11-18 15:51:15 GMT 51.161560 16.404953 39,000 137 543 64
2021-11-18 15:51:12 GMT 51.167847 16.395798 38,975 137 544 64
2021-11-18 15:51:08 GMT 51.184139 16.372070 38,975 137 544 64
2021-11-18 15:51:04 GMT 51.184139 16.372070 38,975 137 546 64
2021-11-18 15:51:01 GMT 51.188049 16.366364 38,950 137 549 0
2021-11-18 15:50:58 GMT 51.192490 16.359905 38,950 137 549 0
2021-11-18 15:50:54 GMT 51.200523 16.348190 38,950 137 549 0
2021-11-18 15:50:51 GMT 51.206680 16.339193 38,950 137 552 -128
2021-11-18 15:50:48 GMT 51.213043 16.329914 38,950 137 552 -128
2021-11-18 15:50:45 GMT 51.217705 16.323090 39,000 137 552 -128
2021-11-18 15:50:42 GMT 51.225037 16.312323 38,975 137 553 -256
2021-11-18 15:50:39 GMT 51.228790 16.306829 39,000 137 554 -320
2021-11-18 15:50:36 GMT 51.234604 16.298218 39,000 137 555 -320
2021-11-18 15:50:33 GMT 51.241028 16.288834 39,025 137 557 -256
2021-11-18 15:50:30 GMT 51.245171 16.282730 39,025 137 557 -256
2021-11-18 15:50:27 GMT 51.251595 16.273270 39,025 137 558 -128
2021-11-18 15:50:24 GMT 51.264267 16.254568 39,000 137 559 320
2021-11-18 15:50:21 GMT 51.264267 16.254568 39,000 137 559 256
2021-11-18 15:50:18 GMT 51.268257 16.248703 38,950 137 559 448
2021-11-18 15:50:15 GMT 51.275848 16.237564 38,925 137 559 768
2021-11-18 15:50:12 GMT 51.279617 16.231918 38,900 137 559 768
2021-11-18 15:50:09 GMT 51.286285 16.222130 38,875 137 559 832
2021-11-18 15:50:06 GMT 51.290451 16.216043 38,825 137 559 1088
2021-11-18 15:50:03 GMT 51.297272 16.205948 38,700 137 559 1024
2021-11-18 15:50:00 GMT 51.303547 16.196747 38,700 137 559 1024
2021-11-18 15:49:57 GMT 51.307938 16.190359 38,625 137 560 1088
2021-11-18 15:49:54 GMT 51.315536 16.179150 38,125 137 561 1088
2021-11-18 15:49:51 GMT 51.321213 16.170761 38,525 137 560 1216
2021-11-18 15:49:47 GMT 51.327518 16.161499 38,450 137 561 1152
2021-11-18 15:49:43 GMT 51.334534 16.151163 38,350 137 561 1088
2021-11-18 15:49:40 GMT 51.342369 16.139603 38,325 137 561 1024
2021-11-18 15:49:37 GMT 51.346756 16.133125 38,275 137 561 1088
2021-11-18 15:49:34 GMT 51.352657 16.124420 38,100 137 562 1088
2021-11-18 15:49:31 GMT 51.357220 16.117706 38,125 137 562 1088
2021-11-18 15:49:28 GMT 51.364063 16.107559 38,075 137 562 1088
2021-11-18 15:49:25 GMT 51.369415 16.099625 37,975 137 561 960
2021-11-18 15:49:22 GMT 51.375687 16.090368 37,975 137 562 960
2021-11-18 15:49:19 GMT 51.385986 16.075151 37,900 137 561 960
2021-11-18 15:49:16 GMT 51.385986 16.075151 37,900 137 561 960
2021-11-18 15:49:13 GMT 51.393631 16.063942 37,800 137 562 1024
2021-11-18 15:49:10 GMT 51.400131 16.054365 37,750 137 563 1024
2021-11-18 15:49:07 GMT 51.405487 16.046497 37,725 137 562 1024
2021-11-18 15:49:04 GMT 51.415421 16.031874 37,675 137 562 1024
2021-11-18 15:49:01 GMT 51.415421 16.031874 37,650 137 562 1024
2021-11-18 15:48:57 GMT 51.423477 16.020071 37,550 137 562 832
2021-11-18 15:48:54 GMT 51.428421 16.012796 37,525 137 562 768
2021-11-18 15:48:51 GMT 51.435333 16.002626 37,450 137 562 704
2021-11-18 15:48:46 GMT 51.443901 15.989990 37,425 137 561 640
2021-11-18 15:48:43 GMT 51.450417 15.980453 37,375 137 561 640
2021-11-18 15:48:40 GMT 51.454235 15.974884 37,325 137 561 576
2021-11-18 15:48:36 GMT 51.464355 15.960017 37,325 137 559 512
2021-11-18 15:48:33 GMT 51.468712 15.953598 37,300 137 558 448
2021-11-18 15:48:30 GMT 51.474438 15.945206 37,275 137 558 512
2021-11-18 15:48:27 GMT 51.487007 15.926819 37,250 137 557 576
2021-11-18 15:48:24 GMT 51.487007 15.926819 37,200 137 556 640
2021-11-18 15:48:21 GMT 51.498322 15.910110 37,175 137 556 640
2021-11-18 15:48:18 GMT 51.498322 15.910110 37,150 137 556 640
2021-11-18 15:48:15 GMT 51.504745 15.900650 37,100 137 556 640
2021-11-18 15:48:12 GMT 51.509258 15.893936 37,050 137 554 704
2021-11-18 15:48:09 GMT 51.513031 15.888367 37,025 137 554 704
2021-11-18 15:48:06 GMT 51.520752 15.876951 37,000 137 554 704
2021-11-18 15:48:03 GMT 51.531647 15.860769 36,950 137 553 704
2021-11-18 15:48:00 GMT 51.531647 15.860769 36,925 137 553 704
2021-11-18 15:47:57 GMT 51.536179 15.854162 36,875 137 552 768
2021-11-18 15:47:54 GMT 51.540821 15.847168 36,875 137 552 768
2021-11-18 15:47:51 GMT 51.548317 15.836029 36,800 137 551 896
2021-11-18 15:47:48 GMT 51.554855 15.826325 36,750 137 551 960
2021-11-18 15:47:45 GMT 51.558563 15.820758 36,675 137 550 1152
2021-11-18 15:47:42 GMT 51.569733 15.804056 36,625 137 550 1216
2021-11-18 15:47:39 GMT 51.569733 15.804056 36,625 137 550 1216
2021-11-18 15:47:35 GMT 51.578484 15.791016 36,500 137 550 1344
2021-11-18 15:47:32 GMT 51.585186 15.781021 36,400 136 551 1472
2021-11-18 15:47:29 GMT 51.588364 15.776293 36,350 136 551 1472
2021-11-18 15:47:26 GMT 51.594315 15.767385 36,275 136 551 1472
2021-11-18 15:47:23 GMT 51.601620 15.756531 36,175 136 551 1536
2021-11-18 15:47:19 GMT 51.607952 15.746994 36,125 136 551 1536
2021-11-18 15:47:16 GMT 51.612743 15.739746 36,025 136 552 1600
2021-11-18 15:47:13 GMT 51.619629 15.729378 35,925 136 552 1664
2021-11-18 15:47:10 GMT 51.625034 15.721283 35,875 136 553 1728
2021-11-18 15:47:07 GMT 51.628555 15.715942 35,600 136 553 2048
2021-11-18 15:47:04 GMT 51.636208 15.704346 35,625 136 553 2048
2021-11-18 15:47:01 GMT 51.648079 15.686340 35,550 137 557 1600
2021-11-18 15:46:58 GMT 51.648079 15.686340 35,475 136 555 1920
2021-11-18 15:46:54 GMT 51.654968 15.675857 35,350 136 556 1792
2021-11-18 15:46:51 GMT 51.660786 15.667114 35,250 136 556 1664
2021-11-18 15:46:48 GMT 51.665085 15.660640 35,125 136 556 1600
2021-11-18 15:46:45 GMT 51.670349 15.652697 35,050 137 557 1344
2021-11-18 15:46:42 GMT 51.682388 15.634658 34,825 137 557 1536
2021-11-18 15:46:39 GMT 51.687836 15.626450 34,900 137 557 1600
2021-11-18 15:46:36 GMT 51.687836 15.626450 34,850 137 557 1536
2021-11-18 15:46:32 GMT 51.695938 15.614319 34,700 137 557 1408
2021-11-18 15:46:28 GMT 51.702915 15.603867 34,625 137 557 1344
2021-11-18 15:46:25 GMT 51.708549 15.595398 34,575 137 557 1344
2021-11-18 15:46:22 GMT 51.714603 15.586395 34,525 137 557 1472
2021-11-18 15:46:19 GMT 51.719284 15.579356 34,400 137 557 1728
2021-11-18 15:46:16 GMT 51.731174 15.561523 34,300 136 557 1792
2021-11-18 15:46:13 GMT 51.731174 15.561523 34,225 136 557 1728
2021-11-18 15:46:10 GMT 51.736221 15.553894 32,875 136 551 1408
2021-11-18 15:46:07 GMT 51.744141 15.541943 34,050 136 558 1600
2021-11-18 15:46:04 GMT 51.753288 15.528030 34,000 136 558 1408
2021-11-18 15:46:01 GMT 51.753288 15.528030 33,900 136 557 1280
2021-11-18 15:45:58 GMT 51.760941 15.516258 33,800 136 557 1216
2021-11-18 15:45:55 GMT 51.764877 15.510254 33,775 136 556 1280
2021-11-18 15:45:52 GMT 51.777821 15.490189 33,725 136 556 1280
2021-11-18 15:45:49 GMT 51.777821 15.490189 33,650 136 556 1344
2021-11-18 15:45:45 GMT 51.784477 15.479889 33,550 136 555 1344
2021-11-18 15:45:42 GMT 51.790016 15.471268 33,500 136 554 1344
2021-11-18 15:45:39 GMT 51.794632 15.464073 33,325 136 553 1344
2021-11-18 15:45:36 GMT 51.800491 15.454943 33,350 136 554 1344
2021-11-18 15:45:33 GMT 51.805298 15.447445 33,175 136 553 1344
2021-11-18 15:45:30 GMT 51.810638 15.439148 33,200 136 553 1344
2021-11-18 15:45:27 GMT 51.823116 15.419769 33,125 136 552 1408
2021-11-18 15:45:24 GMT 51.828461 15.411443 33,075 136 552 1408
2021-11-18 15:45:21 GMT 51.828461 15.411443 33,025 136 551 1408
2021-11-18 15:45:18 GMT 51.834148 15.402603 32,900 136 551 1408
2021-11-18 15:45:15 GMT 51.838715 15.395483 32,875 136 551 1408
2021-11-18 15:45:12 GMT 51.844940 15.385759 32,800 136 550 1344
2021-11-18 15:45:09 GMT 51.849182 15.379257 32,600 136 549 1280
2021-11-18 15:45:07 GMT 51.852489 15.374146 32,650 136 550 1280
2021-11-18 15:45:04 GMT 51.859634 15.363044 32,600 136 549 1280
2021-11-18 15:45:01 GMT 51.865665 15.353622 32,550 136 549 1280
2021-11-18 15:44:58 GMT 51.869293 15.347977 32,475 136 548 1280
2021-11-18 15:44:55 GMT 51.877533 15.335207 32,400 136 548 1344
2021-11-18 15:44:51 GMT 51.883392 15.326150 32,325 136 547 1472
2021-11-18 15:44:48 GMT 51.887589 15.319672 32,250 136 546 1472
2021-11-18 15:44:45 GMT 51.892666 15.311737 32,175 136 546 1472
2021-11-18 15:44:42 GMT 51.897949 15.303497 32,100 136 545 1472
2021-11-18 15:44:39 GMT 51.904129 15.293884 32,050 136 545 1472
2021-11-18 15:44:37 GMT 51.908676 15.286848 31,825 135 545 1344
2021-11-18 15:44:34 GMT 51.913754 15.278922 31,925 135 545 1408
2021-11-18 15:44:30 GMT 51.920792 15.267868 31,800 135 544 1216
2021-11-18 15:44:27 GMT 51.926414 15.259068 31,675 135 544 1088
2021-11-18 15:44:24 GMT 51.933060 15.248642 31,650 135 543 1024
2021-11-18 15:44:21 GMT 51.944569 15.230582 31,625 135 541 896
2021-11-18 15:44:18 GMT 51.944569 15.230582 31,450 135 538 896
2021-11-18 15:44:15 GMT 51.947800 15.225449 31,550 135 540 832
2021-11-18 15:44:12 GMT 51.952251 15.218419 31,500 135 538 960
2021-11-18 15:44:09 GMT 51.958878 15.208054 31,475 135 538 1024
2021-11-18 15:44:05 GMT 51.965652 15.197449 31,400 135 537 1088
2021-11-18 15:44:02 GMT 51.969955 15.190735 31,375 135 536 1152
2021-11-18 15:43:59 GMT 51.977623 15.178789 31,275 135 535 1216
2021-11-18 15:43:56 GMT 51.983093 15.170135 31,175 135 533 1152
2021-11-18 15:43:53 GMT 51.988449 15.161819 31,125 135 533 1152
2021-11-18 15:43:50 GMT 51.993217 15.154306 31,075 135 533 1216
2021-11-18 15:43:47 GMT 51.998898 15.145438 31,000 135 532 1280
2021-11-18 15:43:44 GMT 52.003647 15.137939 30,925 135 531 1408
2021-11-18 15:43:41 GMT 52.007858 15.131302 30,850 135 531 1600
2021-11-18 15:43:38 GMT 52.013168 15.122986 30,800 135 531 1600
2021-11-18 15:43:35 GMT 52.020218 15.111923 30,625 135 530 1728
2021-11-18 15:43:31 GMT 52.026363 15.102277 30,575 135 530 1728
2021-11-18 15:43:28 GMT 52.030926 15.095058 30,525 135 529 1728
2021-11-18 15:43:25 GMT 52.034958 15.088730 30,450 135 529 1664
2021-11-18 15:43:22 GMT 52.042328 15.077133 30,325 135 529 1600
2021-11-18 15:43:19 GMT 52.046703 15.070182 30,275 135 529 1600
2021-11-18 15:43:16 GMT 52.057922 15.052525 30,150 135 528 1600
2021-11-18 15:43:13 GMT 52.057922 15.052525 30,100 135 528 1600
2021-11-18 15:43:10 GMT 52.061966 15.046234 28,775 135 528 1536
2021-11-18 15:43:07 GMT 52.068443 15.035967 29,825 135 527 1536
2021-11-18 15:43:04 GMT 52.078079 15.020905 29,850 135 527 1536
2021-11-18 15:43:01 GMT 52.078079 15.020905 29,725 135 527 1472
2021-11-18 15:42:58 GMT 52.084225 15.011248 29,725 135 526 1472
2021-11-18 15:42:55 GMT 52.087719 15.005755 29,600 135 526 1472
2021-11-18 15:42:51 GMT 52.097122 14.990923 29,525 135 525 1600
2021-11-18 15:42:48 GMT 52.101639 14.983782 29,450 135 525 1600
2021-11-18 15:42:45 GMT 52.111740 14.967852 29,350 135 525 1600
2021-11-18 15:42:42 GMT 52.111740 14.967852 29,275 135 524 1472
2021-11-18 15:42:39 GMT 52.117126 14.959335 29,200 136 523 1408
2021-11-18 15:42:36 GMT 52.120605 14.953918 29,125 136 523 1408
2021-11-18 15:42:33 GMT 52.132267 14.935678 29,050 136 523 1344
2021-11-18 15:42:30 GMT 52.132267 14.935678 29,000 136 521 1408
2021-11-18 15:42:27 GMT 52.137157 14.928066 28,925 136 521 1536
2021-11-18 15:42:24 GMT 52.141670 14.921003 28,900 136 521 1536
2021-11-18 15:42:21 GMT 52.147537 14.911743 28,775 134 519 1600
2021-11-18 15:42:18 GMT 52.152740 14.903107 28,700 133 518 1536
2021-11-18 15:42:15 GMT 52.158478 14.893145 28,625 132 517 1472
2021-11-18 15:42:12 GMT 52.162621 14.885611 28,500 130 515 1344
2021-11-18 15:42:09 GMT 52.168350 14.874725 28,375 128 512 1344
2021-11-18 15:42:06 GMT 52.171185 14.869053 28,325 126 509 1408
2021-11-18 15:42:03 GMT 52.176315 14.858475 28,325 126 509 1408
2021-11-18 15:42:00 GMT 52.180801 14.848633 28,275 125 508 1472
2021-11-18 15:41:57 GMT 52.188354 14.831161 28,150 123 505 1472
2021-11-18 15:41:54 GMT 52.188354 14.831161 28,150 123 505 1472
2021-11-18 15:41:50 GMT 52.194168 14.816513 28,050 121 502 1408
2021-11-18 15:41:47 GMT 52.196930 14.809099 27,950 120 499 1472
2021-11-18 15:41:44 GMT 52.200653 14.798662 27,900 119 499 1536
2021-11-18 15:41:40 GMT 52.204659 14.786813 27,700 114 492 1536
2021-11-18 15:41:37 GMT 52.207901 14.776535 27,700 114 492 1536
2021-11-18 15:41:34 GMT 52.211472 14.764481 27,625 114 492 1536
2021-11-18 15:41:31 GMT 52.215042 14.751740 27,525 112 489 1472
2021-11-18 15:41:28 GMT 52.216713 14.745300 27,375 108 482 1600
2021-11-18 15:41:25 GMT 52.219666 14.733353 27,375 108 482 1600
2021-11-18 15:41:22 GMT 52.221771 14.724503 27,325 110 485 1536
2021-11-18 15:41:19 GMT 52.224930 14.710770 27,225 109 484 1536
2021-11-18 15:41:16 GMT 52.226768 14.702218 27,175 108 482 1600
2021-11-18 15:41:12 GMT 52.229279 14.690170 27,050 107 480 1536
2021-11-18 15:41:09 GMT 52.231655 14.678127 26,975 106 478 1600
2021-11-18 15:41:06 GMT 52.233261 14.669495 26,900 106 478 1600
2021-11-18 15:41:03 GMT 52.236694 14.649506 26,800 105 477 1600
2021-11-18 15:41:00 GMT 52.236694 14.649506 26,725 104 474 1728
2021-11-18 15:40:57 GMT 52.238251 14.639816 26,675 103 473 1856
2021-11-18 15:40:55 GMT 52.239433 14.631827 26,525 103 472 1920
2021-11-18 15:40:52 GMT 52.241154 14.620056 26,500 103 472 2048
2021-11-18 15:40:48 GMT 52.242966 14.607239 26,325 103 473 2048
2021-11-18 15:40:45 GMT 52.244156 14.598923 26,225 103 473 1856
2021-11-18 15:40:42 GMT 52.245857 14.586862 26,225 103 473 1856
2021-11-18 15:40:39 GMT 52.247086 14.578171 25,925 102 472 960
2021-11-18 15:40:36 GMT 52.250336 14.555283 25,925 102 472 960
2021-11-18 15:40:33 GMT 52.250336 14.555283 25,950 102 472 1024
2021-11-18 15:40:30 GMT 52.251984 14.543533 25,900 103 471 960
2021-11-18 15:40:27 GMT 52.253448 14.533157 25,850 102 469 960
2021-11-18 15:40:24 GMT 52.254410 14.526291 25,800 102 469 960
2021-11-18 15:40:21 GMT 52.256050 14.514901 25,775 102 469 960
2021-11-18 15:40:17 GMT 52.258610 14.496303 25,675 102 468 960
2021-11-18 15:40:14 GMT 52.259720 14.488449 25,650 102 467 960
2021-11-18 15:40:11 GMT 52.260864 14.480209 25,625 102 467 1024
2021-11-18 15:40:07 GMT 52.262833 14.465790 25,525 102 466 1024
2021-11-18 15:40:04 GMT 52.264477 14.453770 25,475 102 465 1024
2021-11-18 15:40:01 GMT 52.265854 14.443893 25,350 102 465 1024
2021-11-18 15:39:58 GMT 52.267132 14.434623 25,350 102 464 1088
2021-11-18 15:39:55 GMT 52.269882 14.414520 25,300 102 463 1088
2021-11-18 15:39:52 GMT 52.269882 14.414520 25,250 102 463 1088
2021-11-18 15:39:48 GMT 52.271973 14.399309 25,175 102 460 1152
2021-11-18 15:39:45 GMT 52.274300 14.382359 25,100 102 459 1280
2021-11-18 15:39:42 GMT 52.274300 14.382359 25,100 102 459 1280
2021-11-18 15:39:40 GMT 52.276302 14.367528 25,000 102 457 1344
2021-11-18 15:39:35 GMT 52.277699 14.357404 24,900 102 456 1536
2021-11-18 15:39:32 GMT 52.279884 14.341239 24,825 102 456 1600
2021-11-18 15:39:30 GMT 52.279884 14.341239 24,750 102 456 1600
2021-11-18 15:39:27 GMT 52.281235 14.331512 24,675 102 455 1600
2021-11-18 15:39:24 GMT 52.282562 14.321518 24,650 102 455 1536
2021-11-18 15:39:21 GMT 52.285519 14.299726 24,525 102 454 1472
2021-11-18 15:39:18 GMT 52.285519 14.299726 24,475 102 453 1472
2021-11-18 15:39:15 GMT 52.286728 14.291094 24,425 102 453 1536
2021-11-18 15:39:12 GMT 52.288513 14.278107 24,300 102 452 1600
2021-11-18 15:39:09 GMT 52.289612 14.270096 24,300 102 452 1600
2021-11-18 15:39:06 GMT 52.290894 14.260788 24,125 102 451 1728
2021-11-18 15:39:03 GMT 52.293732 14.240189 24,000 102 451 1856
2021-11-18 15:39:00 GMT 52.293732 14.240189 24,000 102 451 1856
2021-11-18 15:38:57 GMT 52.296799 14.218369 23,850 102 450 1984
2021-11-18 15:38:54 GMT 52.296799 14.218369 23,550 102 450 2048
2021-11-18 15:38:50 GMT 52.298321 14.207441 23,650 102 450 2048
2021-11-18 15:38:46 GMT 52.300323 14.193268 23,475 102 450 2112
2021-11-18 15:38:43 GMT 52.301422 14.185333 23,375 102 450 2048
2021-11-18 15:38:40 GMT 52.304672 14.162140 23,250 102 450 1920
2021-11-18 15:38:37 GMT 52.304672 14.162140 23,200 102 450 1856
2021-11-18 15:38:33 GMT 52.306046 14.152222 23,025 102 449 1792
2021-11-18 15:38:30 GMT 52.307785 14.139633 23,000 102 449 1792
2021-11-18 15:38:26 GMT 52.309631 14.126064 22,825 102 448 1664
2021-11-18 15:38:22 GMT 52.311447 14.112880 22,750 102 448 1664
2021-11-18 15:38:18 GMT 52.313358 14.098363 22,625 102 447 1728
2021-11-18 15:38:15 GMT 52.314102 14.093105 22,575 102 447 1728
2021-11-18 15:38:12 GMT 52.315704 14.080963 22,475 102 446 1792
2021-11-18 15:38:09 GMT 52.316757 14.073029 22,400 102 446 1856
2021-11-18 15:38:06 GMT 52.319828 14.050415 22,275 102 445 1856
2021-11-18 15:38:03 GMT 52.319828 14.050415 22,000 102 444 1728
2021-11-18 15:38:00 GMT 52.320923 14.042206 22,075 102 444 1792
2021-11-18 15:37:57 GMT 52.322479 14.030797 22,000 102 444 1728
2021-11-18 15:37:54 GMT 52.323738 14.021615 21,925 102 442 1792
2021-11-18 15:37:51 GMT 52.324677 14.014816 21,875 102 443 1728
2021-11-18 15:37:48 GMT 52.326485 14.001447 21,750 102 442 1792
2021-11-18 15:37:44 GMT 52.328255 13.988421 21,600 102 441 1920
2021-11-18 15:37:41 GMT 52.329510 13.979318 21,375 102 441 1920
2021-11-18 15:37:38 GMT 52.330723 13.970215 21,400 102 440 1984
2021-11-18 15:37:35 GMT 52.332001 13.960800 21,350 102 440 1984
2021-11-18 15:37:32 GMT 52.333054 13.953018 20,900 102 439 2048
2021-11-18 15:37:29 GMT 52.334396 13.942984 21,150 102 439 2048
2021-11-18 15:37:27 GMT 52.335297 13.936234 21,050 102 439 2048
2021-11-18 15:37:25 GMT 52.336678 13.926191 20,950 102 438 2176
2021-11-18 15:37:22 GMT 52.338913 13.909398 20,825 102 437 2176
2021-11-18 15:37:19 GMT 52.338913 13.909398 20,800 102 437 2240
2021-11-18 15:37:17 GMT 52.339554 13.904572 20,400 101 425 2048
2021-11-18 15:37:15 GMT 52.340637 13.896528 20,525 102 437 2112
2021-11-18 15:37:12 GMT 52.341751 13.888131 20,450 102 436 2048
2021-11-18 15:37:09 GMT 52.343216 13.876877 20,425 102 436 2048
2021-11-18 15:37:07 GMT 52.344223 13.869095 20,325 102 436 1984
2021-11-18 15:37:04 GMT 52.345524 13.859174 20,200 102 435 1984
2021-11-18 15:37:01 GMT 52.346558 13.851089 20,075 102 435 1984
2021-11-18 15:36:58 GMT 52.347805 13.841832 20,125 102 434 1984
2021-11-18 15:36:54 GMT 52.349667 13.827706 19,925 102 433 1920
2021-11-18 15:36:51 GMT 52.350925 13.818133 19,850 102 433 1984
2021-11-18 15:36:48 GMT 52.353207 13.800868 19,725 102 432 1920
2021-11-18 15:36:45 GMT 52.353207 13.800868 19,625 102 431 1984
2021-11-18 15:36:42 GMT 52.354603 13.790039 19,500 102 430 2048
2021-11-18 15:36:38 GMT 52.356091 13.778582 19,475 102 430 2048
2021-11-18 15:36:34 GMT 52.358688 13.758621 19,250 101 429 2048
2021-11-18 15:36:31 GMT 52.359283 13.754196 19,075 101 429 2048
2021-11-18 15:36:28 GMT 52.360283 13.746251 19,100 101 429 2048
2021-11-18 15:36:25 GMT 52.361492 13.736755 18,975 101 428 1984
2021-11-18 15:36:22 GMT 52.362762 13.726959 18,925 101 427 1984
2021-11-18 15:36:19 GMT 52.363953 13.717499 18,800 101 426 1984
2021-11-18 15:36:17 GMT 52.365509 13.705521 18,675 101 426 1984
2021-11-18 15:36:15 GMT 52.365509 13.705521 18,625 101 425 1984
2021-11-18 15:36:12 GMT 52.366894 13.694458 18,475 101 423 1984
2021-11-18 15:36:09 GMT 52.368027 13.685379 18,500 101 424 2048
2021-11-18 15:36:05 GMT 52.369858 13.670959 18,300 101 423 1984
2021-11-18 15:36:02 GMT 52.370987 13.661891 18,225 101 422 1920
2021-11-18 15:35:59 GMT 52.373291 13.643417 18,100 101 422 1920
2021-11-18 15:35:56 GMT 52.373291 13.643417 18,025 101 421 1920
2021-11-18 15:35:53 GMT 52.375595 13.625087 17,950 101 420 1856
2021-11-18 15:35:50 GMT 52.376541 13.617325 17,775 101 419 1856
2021-11-18 15:35:47 GMT 52.376541 13.617325 17,725 101 418 1856
2021-11-18 15:35:43 GMT 52.378296 13.603350 17,675 101 417 1856
2021-11-18 15:35:40 GMT 52.379105 13.596878 17,600 101 417 1856
2021-11-18 15:35:37 GMT 52.380344 13.587341 17,475 101 416 1792
2021-11-18 15:35:34 GMT 52.382439 13.570705 17,300 101 414 1728
2021-11-18 15:35:28 GMT 52.384140 13.557510 17,200 102 413 1792
2021-11-18 15:35:25 GMT 52.385284 13.548965 17,100 102 412 1920
2021-11-18 15:35:22 GMT 52.386166 13.541983 16,975 102 410 2112
2021-11-18 15:35:19 GMT 52.388351 13.525582 16,800 102 410 2240
2021-11-18 15:35:17 GMT 52.388351 13.525582 16,850 102 410 2176
2021-11-18 15:35:14 GMT 52.389610 13.515930 16,750 102 410 2240
2021-11-18 15:35:11 GMT 52.390820 13.506827 16,675 102 407 2240
2021-11-18 15:35:08 GMT 52.391739 13.499908 16,575 101 408 2304
2021-11-18 15:35:05 GMT 52.393242 13.488150 16,400 102 407 2368
2021-11-18 15:35:02 GMT 52.394623 13.477554 16,275 102 408 2368
2021-11-18 15:34:59 GMT 52.395584 13.470306 16,225 102 408 2368
2021-11-18 15:34:57 GMT 52.396545 13.463135 16,100 102 407 2240
2021-11-18 15:34:54 GMT 52.397476 13.456212 16,025 102 407 2304
2021-11-18 15:34:51 GMT 52.398743 13.446884 15,575 103 404 2304
2021-11-18 15:34:48 GMT 52.399796 13.439102 15,825 102 406 2304
2021-11-18 15:34:46 GMT 52.400620 13.433151 15,650 102 405 2304
2021-11-18 15:34:43 GMT 52.401993 13.423615 15,575 103 405 2304
2021-11-18 15:34:40 GMT 52.403275 13.414612 15,450 103 404 2304
2021-11-18 15:34:37 GMT 52.404320 13.407166 15,450 103 404 2304
2021-11-18 15:34:34 GMT 52.406204 13.394394 15,200 103 403 2368
2021-11-18 15:34:31 GMT 52.407021 13.388803 14,875 104 402 2368
2021-11-18 15:34:28 GMT 52.409439 13.372794 15,000 103 402 2368
2021-11-18 15:34:26 GMT 52.409439 13.372794 14,875 103 402 2368
2021-11-18 15:34:23 GMT 52.410736 13.364258 14,575 104 400 2304
2021-11-18 15:34:20 GMT 52.412140 13.355059 14,725 104 402 2368
2021-11-18 15:34:17 GMT 52.413769 13.344465 14,600 104 401 2304
2021-11-18 15:34:13 GMT 52.415405 13.334198 14,400 104 400 2304
2021-11-18 15:34:10 GMT 52.418518 13.314645 14,350 104 399 2304
2021-11-18 15:34:07 GMT 52.418518 13.314645 14,200 104 398 2368
2021-11-18 15:34:04 GMT 52.419937 13.305588 14,075 104 398 2368
2021-11-18 15:34:01 GMT 52.420845 13.300049 13,950 104 398 2432
2021-11-18 15:33:58 GMT 52.422428 13.290161 13,875 104 398 2432
2021-11-18 15:33:56 GMT 52.424755 13.275643 13,750 104 396 2368
2021-11-18 15:33:53 GMT 52.424755 13.275643 13,675 104 396 2368
2021-11-18 15:33:50 GMT 52.426151 13.266933 13,575 104 396 2368
2021-11-18 15:33:47 GMT 52.427353 13.259125 13,475 104 395 2368
2021-11-18 15:33:45 GMT 52.429459 13.244960 13,325 103 393 2368
2021-11-18 15:33:42 GMT 52.429459 13.244960 13,275 102 392 2368
2021-11-18 15:33:38 GMT 52.431042 13.233346 13,075 101 391 2304
2021-11-18 15:33:36 GMT 52.431786 13.227539 12,975 99 389 2240
2021-11-18 15:33:33 GMT 52.433395 13.210983 12,875 97 388 2240
2021-11-18 15:33:30 GMT 52.433395 13.210983 12,825 97 387 2240
2021-11-18 15:33:27 GMT 52.434021 13.201407 12,725 95 385 2240
2021-11-18 15:33:24 GMT 52.434448 13.191833 12,550 91 382 2432
2021-11-18 15:33:21 GMT 52.434532 13.182260 12,375 85 377 2688
2021-11-18 15:33:18 GMT 52.434254 13.173706 12,325 83 376 2752
2021-11-18 15:33:15 GMT 52.433788 13.168056 12,125 77 372 2816
2021-11-18 15:33:12 GMT 52.432438 13.157619 12,050 73 369 2752
2021-11-18 15:33:08 GMT 52.430328 13.147354 11,875 66 364 2496
2021-11-18 15:33:06 GMT 52.427364 13.137216 11,775 61 360 2432
2021-11-18 15:33:04 GMT 52.427364 13.137216 11,625 56 355 2432
2021-11-18 15:33:01 GMT 52.425247 13.131409 11,425 54 354 2496
2021-11-18 15:32:57 GMT 52.419617 13.119736 11,225 44 344 2304
2021-11-18 15:32:52 GMT 52.414421 13.111712 11,225 37 338 2112
2021-11-18 15:32:47 GMT 52.408836 13.105277 11,075 30 331 1856
2021-11-18 15:32:43 GMT 52.403481 13.100568 10,925 20 321 1344
2021-11-18 15:32:40 GMT 52.398605 13.097382 10,875 16 317 1216
2021-11-18 15:32:37 GMT 52.395538 13.095856 10,825 13 313 1088
2021-11-18 15:32:33 GMT 52.384998 13.093192 10,725 5 304 1024
2021-11-18 15:32:30 GMT 52.384998 13.093192 10,700 2 301 1024
2021-11-18 15:32:27 GMT 52.381371 13.093113 10,550 355 292 1024
2021-11-18 15:32:25 GMT 52.378391 13.093349 10,625 355 292 1024
2021-11-18 15:32:21 GMT 52.372696 13.094635 10,225 346 281 960
2021-11-18 15:32:17 GMT 52.368164 13.096466 10,525 345 279 960
2021-11-18 15:32:13 GMT 52.362514 13.099784 10,400 332 265 960
2021-11-18 15:32:10 GMT 52.358826 13.102646 10,375 332 265 960
2021-11-18 15:32:07 GMT 52.356674 13.104630 10,350 329 263 960
2021-11-18 15:32:05 GMT 52.354740 13.106611 10,300 325 258 960
2021-11-18 15:32:02 GMT 52.351250 13.110692 10,225 321 254 960
2021-11-18 15:31:59 GMT 52.348480 13.114624 10,200 318 251 960
2021-11-18 15:31:56 GMT 52.347153 13.116684 9,500 265 226 2752
2021-11-18 15:31:53 GMT 52.343719 13.122787 10,100 301 229 1408
2021-11-18 15:31:50 GMT 52.342621 13.125076 10,075 306 239 1088
2021-11-18 15:31:47 GMT 52.340286 13.130341 10,000 303 236 960
2021-11-18 15:31:45 GMT 52.339008 13.133527 9,975 302 235 896
2021-11-18 15:31:41 GMT 52.336624 13.140030 9,850 300 229 1600
2021-11-18 15:31:37 GMT 52.334583 13.145848 9,775 298 226 2368
2021-11-18 15:31:35 GMT 52.333698 13.148594 9,575 292 226 2624
2021-11-18 15:31:32 GMT 52.332302 13.153146 9,525 292 226 2624
2021-11-18 15:31:29 GMT 52.331131 13.157730 9,300 286 226 2624
2021-11-18 15:31:26 GMT 52.330170 13.162231 9,350 287 226 2624
2021-11-18 15:31:23 GMT 52.329025 13.168793 9,150 283 227 2624
2021-11-18 15:31:20 GMT 52.328568 13.172150 8,975 279 228 2624
2021-11-18 15:31:17 GMT 52.327927 13.178253 8,875 277 228 2624
2021-11-18 15:31:14 GMT 52.327602 13.182887 8,825 276 228 2560
2021-11-18 15:31:10 GMT 52.327240 13.189926 8,650 274 228 2432
2021-11-18 15:31:06 GMT 52.327011 13.196793 8,425 270 228 2432
2021-11-18 15:31:00 GMT 52.327103 13.207855 8,175 265 228 2560
2021-11-18 15:30:57 GMT 52.327423 13.212967 8,100 265 226 2752
2021-11-18 15:30:55 GMT 52.327507 13.214512 8,075 264 227 2624
2021-11-18 15:30:51 GMT 52.328018 13.222198 7,800 264 226 2752
2021-11-18 15:30:47 GMT 52.328476 13.229980 7,625 265 225 2752
2021-11-18 15:30:45 GMT 52.328613 13.231659 7,600 265 225 2752
2021-11-18 15:30:40 GMT 52.329277 13.242685 7,300 265 224 2688
2021-11-18 15:30:36 GMT 52.329620 13.248520 6,825 264 222 2752
2021-11-18 15:30:30 GMT 52.330215 13.257904 6,850 264 222 2752
2021-11-18 15:30:27 GMT 52.330486 13.262068 6,750 264 221 2752
2021-11-18 15:30:25 GMT 52.330723 13.265442 6,500 264 220 2688
2021-11-18 15:30:19 GMT 52.331421 13.276036 6,400 264 220 2688
2021-11-18 15:30:16 GMT 52.331699 13.280352 6,250 264 219 2688
2021-11-18 15:30:14 GMT 52.331955 13.284454 5,900 265 214 2752
2021-11-18 15:30:10 GMT 52.332458 13.291626 5,700 264 215 2624
2021-11-18 15:30:07 GMT 52.332722 13.295419 5,875 264 217 2624
2021-11-18 15:30:05 GMT 52.332962 13.298798 5,775 264 215 2688
2021-11-18 15:30:02 GMT 52.333191 13.302689 5,675 265 214 2752
2021-11-18 15:29:59 GMT 52.333603 13.308868 5,500 265 214 2688
2021-11-18 15:29:56 GMT 52.333878 13.313370 5,300 265 212 2880
2021-11-18 15:29:54 GMT 52.334538 13.325082 5,250 266 211 2432
2021-11-18 15:29:49 GMT 52.334538 13.325082 5,025 266 212 2560
2021-11-18 15:29:46 GMT 52.334702 13.329010 4,925 266 209 2432
2021-11-18 15:29:44 GMT 52.334866 13.332066 4,850 266 209 2496
2021-11-18 15:29:39 GMT 52.335754 13.344345 4,400 262 207 2880
2021-11-18 15:29:36 GMT 52.335754 13.344345 4,475 261 207 2880
2021-11-18 15:29:34 GMT 52.336029 13.346976 4,400 260 207 2880
2021-11-18 15:29:29 GMT 52.337379 13.357021 4,075 255 206 2816
2021-11-18 15:29:26 GMT 52.337906 13.360214 3,975 253 207 2816
2021-11-18 15:29:24 GMT 52.338356 13.362435 3,900 252 207 2752
2021-11-18 15:29:19 GMT 52.340240 13.371124 3,375 249 205 2944
2021-11-18 15:29:16 GMT 52.341103 13.374756 3,525 249 205 2880
2021-11-18 15:29:13 GMT 52.342026 13.378677 3,375 249 204 3008
2021-11-18 15:29:08 GMT 52.343811 13.386154 2,900 249 203 3008
2021-11-18 15:29:05 GMT 52.345013 13.391235 2,925 249 203 3072
2021-11-18 15:29:02 GMT 52.345898 13.394924 2,800 249 203 3008
2021-11-18 15:28:59 GMT 52.347198 13.400417 2,200 249 167 1664
2021-11-18 15:28:56 GMT 52.347992 13.403870 2,475 249 202 2880
2021-11-18 15:28:54 GMT 52.348572 13.406296 2,400 249 202 2816
2021-11-18 15:28:47 GMT 52.351089 13.416748 2,075 249 199 2112
2021-11-18 15:28:45 GMT 52.352226 13.421369 1,950 249 197 1792
2021-11-18 15:28:43 GMT 52.352413 13.422232 1,950 249 196 1664
2021-11-18 15:28:40 GMT 52.353241 13.425674 1,850 249 194 1536
2021-11-18 15:28:39 GMT 52.354523 13.431015 1,800 249 190 1280
2021-11-18 15:28:37 GMT 52.354523 13.431015 1,775 249 189 1280
2021-11-18 15:28:36 GMT 52.355026 13.433151 1,750 249 185 1216
2021-11-18 15:28:34 GMT 52.355347 13.434448 1,725 249 183 1280
2021-11-18 15:28:30 GMT 52.356464 13.438947 1,650 249 179 1344
2021-11-18 15:28:27 GMT 52.357861 13.444676 1,550 249 173 1664
2021-11-18 15:28:24 GMT 52.359116 13.449698 1,500 248 170 1664
2021-11-18 15:28:22 GMT 52.359116 13.449698 1,425 249 169 1792
2021-11-18 15:28:19 GMT 52.359631 13.451817 1,350 248 167 1984
2021-11-18 15:28:17 GMT 52.360565 13.455658 1,275 248 165 2240
2021-11-18 15:28:16 GMT 52.360565 13.455658 1,250 248 164 2304
2021-11-18 15:28:13 GMT 52.361492 13.459194 1,125 249 163 2560
2021-11-18 15:28:12 GMT 52.361771 13.460371 1,075 249 163 2560
2021-11-18 15:28:10 GMT 52.362656 13.464059 775 249 165 2752
2021-11-18 15:28:09 GMT 52.363312 13.466721 775 249 165 2752
2021-11-18 15:28:07 GMT 52.363312 13.466721 775 249 165 2752
2021-11-18 15:28:04 GMT 52.364193 13.470337 500 249 166 2752
2021-11-18 15:28:00 GMT 52.366055 13.478106 500 250 168 2112
2021-11-18 15:27:58 GMT 52.366055 13.478106 325 249 168 1920
2021-11-18 15:27:55 GMT 52.366520 13.480303 325 249 168 1920
2021-11-18 15:27:54 GMT 52.366791 13.481293 300 249 168 1920
2021-11-18 15:27:53 GMT 52.367340 13.483658 250 249 167 1664
2021-11-18 15:27:51 GMT 52.367706 13.485107 200 249 166 1600
2021-11-18 15:27:50 GMT 52.367981 13.486252 175 249 165 1600
2021-11-18 15:27:47 GMT 52.369686 13.493330 25 249 164 1536
2021-11-18 15:27:44 GMT 52.369686 13.493330 25 249 164 1536
2021-11-18 15:27:43 GMT 52.369904 13.494415 0 249 163 1472
2021-11-18 15:27:34 GMT 52.372337 13.504630 -100 249 141 -128
2021-11-18 15:27:32 GMT 52.372833 13.506622 -100 249 141 -128
2021-11-18 15:27:31 GMT 52.373081 13.507690 -100 249 139 -128
2021-11-18 15:27:28 GMT 52.373734 13.510437 -100 249 129 -64
2021-11-18 15:27:27 GMT 52.373932 13.511276 -100 249 129 -64
2021-11-18 15:27:24 GMT 52.374714 13.514675 -100 249 110 -64
2021-11-18 15:27:21 GMT 52.375130 13.516323 -100 249 110 -64
2021-11-18 15:27:20 GMT 52.375317 13.517029 -100 249 107 -64
2021-11-18 15:27:18 GMT 52.375671 13.518600 -75 250 100 0
2021-11-18 15:27:17 GMT 52.375854 13.519287 -75 249 96 0
2021-11-18 15:27:16 GMT 52.375946 13.519897 -100 249 93 0
2021-11-18 15:27:15 GMT 52.376377 13.521580 -75 250 86 0
2021-11-18 15:27:14 GMT 52.376377 13.521580 0 249 82 0
2021-11-18 15:27:11 GMT 52.376713 13.523006 0 244 76
2021-11-18 15:27:09 GMT 52.377007 13.524288 0 244 65
2021-11-18 15:27:08 GMT 52.377121 13.524739 0 244 61
2021-11-18 15:27:06 GMT 52.377319 13.525582 0 244 53
2021-11-18 15:27:05 GMT 52.377399 13.525955 0 244 49
2021-11-18 15:27:04 GMT 52.377483 13.526308 0 244 45
2021-11-18 15:27:03 GMT 52.377686 13.527126 0 244 37
2021-11-18 15:27:01 GMT 52.377686 13.527126 0 244 32
2021-11-18 15:27:00 GMT 52.377808 13.527642 0 244 24
2021-11-18 15:26:58 GMT 52.377876 13.527917 0 244 16
2021-11-18 15:26:55 GMT 52.377926 13.528137 0 244 9
2021-11-18 15:26:27 GMT 52.377995 13.528423 0 244 0
2021-11-18 15:26:13 GMT 52.377995 13.528427 0 244 0
2021-11-18 15:26:10 GMT 52.377995 13.528423 0 244 0
2021-11-18 15:26:09 GMT 52.377995 13.528427 0 244 0
2021-11-18 15:26:05 GMT 52.377995 13.528427 0 244 0
2021-11-18 15:26:04 GMT 52.377995 13.528423 0 244 0
2021-11-18 15:26:01 GMT 52.377995 13.528423 0 244 0
2021-11-18 15:26:00 GMT 52.377995 13.528423 0 244 0
2021-11-18 15:25:58 GMT 52.377995 13.528427 0 244 0
2021-11-18 15:25:54 GMT 52.377995 13.528423 0 244 1
2021-11-18 15:25:53 GMT 52.378006 13.528442 0 244 2
2021-11-18 15:25:52 GMT 52.378006 13.528447 0 244 2
2021-11-18 15:25:49 GMT 52.378006 13.528481 0 244 1
2021-11-18 15:25:44 GMT 52.378017 13.528525 0 244 4
2021-11-18 15:25:41 GMT 52.378052 13.528633 0 244 6
2021-11-18 15:25:38 GMT 52.378086 13.528786 0 244 7
2021-11-18 15:25:36 GMT 52.378098 13.528824 0 247 7
2021-11-18 15:25:31 GMT 52.378155 13.529053 0 255 8
2021-11-18 15:25:27 GMT 52.378216 13.529251 0 270 8
2021-11-18 15:25:26 GMT 52.378227 13.529330 0 278 8
2021-11-18 15:25:24 GMT 52.378239 13.529447 0 286 8
2021-11-18 15:25:22 GMT 52.378216 13.529585 0 295 8
2021-11-18 15:25:14 GMT 52.378086 13.530045 0 317 9
2021-11-18 15:25:10 GMT 52.378006 13.530212 0 329 10
2021-11-18 15:25:07 GMT 52.377880 13.530331 0 334 10
2021-11-18 15:25:05 GMT 52.377800 13.530369 0 334 10
2021-11-18 15:25:04 GMT 52.377754 13.530407 0 334 10
2021-11-18 15:25:01 GMT 52.377651 13.530483 0 334 10
2021-11-18 15:25:00 GMT 52.377621 13.530507 0 334 9
2021-11-18 15:24:58 GMT 52.377541 13.530546 0 337 9
2021-11-18 15:24:53 GMT 52.377274 13.530712 0 348 8
2021-11-18 15:24:50 GMT 52.377274 13.530712 0 348 8
2021-11-18 15:24:49 GMT 52.377228 13.530742 0 351 8
2021-11-18 15:24:48 GMT 52.377193 13.530750 0 351 8
2021-11-18 15:24:47 GMT 52.377121 13.530781 0 357 7
2021-11-18 15:24:45 GMT 52.377087 13.530781 0 357 7
2021-11-18 15:24:44 GMT 52.377041 13.530801 0 0 7
2021-11-18 15:24:42 GMT 52.376999 13.530788 0 2 7
2021-11-18 15:24:40 GMT 52.376945 13.530801 0 5 6
2021-11-18 15:24:39 GMT 52.376911 13.530801 0 5 6
2021-11-18 15:24:38 GMT 52.376884 13.530788 0 8 6
2021-11-18 15:24:34 GMT 52.376762 13.530762 0 11 5
2021-11-18 15:24:32 GMT 52.376762 13.530762 0 14 4
2021-11-18 15:24:29 GMT 52.376713 13.530750 0 14 4
2021-11-18 15:24:28 GMT 52.376701 13.530742 0 16 4
2021-11-18 15:24:27 GMT 52.376678 13.530742 0 16 4
2021-11-18 15:24:26 GMT 52.376667 13.530731 0 16 4
2021-11-18 15:24:25 GMT 52.376644 13.530722 0 19 3
2021-11-18 15:24:23 GMT 52.376621 13.530703 0 19 3
2021-11-18 15:24:22 GMT 52.376610 13.530703 0 19 3
2021-11-18 15:24:21 GMT 52.376575 13.530693 0 19 2
2021-11-18 15:24:19 GMT 52.376575 13.530693 0 19 2
2021-11-18 15:24:18 GMT 52.376575 13.530674 0 19 2
2021-11-18 15:24:16 GMT 52.376564 13.530674 0 19 2
2021-11-18 15:24:14 GMT 52.376553 13.530664 0 22 1
2021-11-18 15:24:12 GMT 52.376541 13.530674 0 22 1
2021-11-18 15:24:11 GMT 52.376530 13.530674 0 22 2
2021-11-18 15:24:10 GMT 52.376530 13.530664 0 22 2
2021-11-18 15:24:09 GMT 52.376518 13.530655 0 25 3
2021-11-18 15:24:07 GMT 52.376495 13.530655 0 25 3
2021-11-18 15:24:06 GMT 52.376480 13.530644 0 28 4
2021-11-18 15:24:04 GMT 52.376446 13.530624 0 30 4
2021-11-18 15:24:03 GMT 52.376434 13.530624 0 30 4
2021-11-18 15:24:02 GMT 52.376415 13.530598 0 33 5
2021-11-18 15:23:59 GMT 52.376366 13.530546 0 36 6
2021-11-18 15:23:58 GMT 52.376320 13.530487 0 36 7
2021-11-18 15:23:56 GMT 52.376293 13.530467 0 36 7
2021-11-18 15:23:55 GMT 52.376278 13.530445 0 36 7
2021-11-18 15:23:52 GMT 52.376202 13.530350 0 39 8
2021-11-18 15:23:51 GMT 52.376144 13.530252 0 39 9
2021-11-18 15:23:49 GMT 52.376110 13.530212 0 39 9
2021-11-18 15:23:48 GMT 52.376053 13.530134 0 39 10
2021-11-18 15:23:46 GMT 52.376015 13.530075 0 39 10
2021-11-18 15:23:45 GMT 52.375957 13.529987 0 39 11
2021-11-18 15:23:43 GMT 52.375923 13.529938 0 39 11
2021-11-18 15:23:38 GMT 52.375736 13.529663 0 39 11
2021-11-18 15:23:36 GMT 52.375671 13.529549 0 39 11
2021-11-18 15:23:35 GMT 52.375637 13.529510 0 39 11
2021-11-18 15:23:34 GMT 52.375603 13.529453 0 39 12
2021-11-18 15:23:32 GMT 52.375526 13.529349 0 39 12
2021-11-18 15:23:30 GMT 52.375446 13.529212 0 39 13
2021-11-18 15:23:28 GMT 52.375362 13.529091 0 39 13
2021-11-18 15:23:27 GMT 52.375271 13.528957 0 39 12
2021-11-18 15:23:25 GMT 52.375225 13.528900 0 39 12
2021-11-18 15:23:22 GMT 52.375107 13.528741 0 39 12
2021-11-18 15:23:19 GMT 52.375004 13.528564 0 39 11
2021-11-18 15:23:18 GMT 52.374947 13.528506 0 39 11
2021-11-18 15:23:17 GMT 52.374905 13.528442 0 42 11
2021-11-18 15:23:15 GMT 52.374836 13.528328 0 42 11
2021-11-18 15:23:13 GMT 52.374779 13.528233 0 45 10
2021-11-18 15:23:09 GMT 52.374653 13.528035 0 53 10
2021-11-18 15:23:05 GMT 52.374527 13.527780 0 64 11
2021-11-18 15:23:03 GMT 52.374493 13.527623 0 64 11
2021-11-18 15:23:00 GMT 52.374435 13.527431 0 64 11
2021-11-18 15:22:57 GMT 52.374386 13.527191 0 64 12
2021-11-18 15:22:55 GMT 52.374355 13.527069 0 64 12
2021-11-18 15:22:52 GMT 52.374298 13.526840 0 64 13
2021-11-18 15:22:48 GMT 52.374195 13.526440 0 64 15
2021-11-18 15:22:46 GMT 52.374165 13.526289 0 64 15
2021-11-18 15:22:45 GMT 52.374069 13.525925 0 64 15
2021-11-18 15:22:43 GMT 52.374069 13.525925 0 64 15
2021-11-18 15:22:40 GMT 52.374001 13.525622 0 64 16
2021-11-18 15:22:39 GMT 52.373943 13.525406 0 64 16
2021-11-18 15:22:36 GMT 52.373886 13.525162 0 64 17
2021-11-18 15:22:34 GMT 52.373829 13.524896 0 64 17
2021-11-18 15:22:32 GMT 52.373749 13.524570 0 64 16
2021-11-18 15:22:30 GMT 52.373722 13.524464 0 64 16
2021-11-18 15:22:29 GMT 52.373669 13.524227 0 64 16
2021-11-18 15:22:27 GMT 52.373653 13.524131 0 64 16
2021-11-18 15:22:26 GMT 52.373600 13.523903 0 64 16
2021-11-18 15:22:23 GMT 52.373512 13.523581 0 64 15
2021-11-18 15:22:21 GMT 52.373497 13.523483 0 64 15
2021-11-18 15:22:20 GMT 52.373466 13.523366 0 64 15
2021-11-18 15:22:18 GMT 52.373428 13.523178 0 64 15
2021-11-18 15:22:16 GMT 52.373386 13.522993 0 64 15
2021-11-18 15:22:15 GMT 52.373352 13.522895 0 64 14
2021-11-18 15:22:11 GMT 52.373268 13.522522 0 64 13
2021-11-18 15:22:10 GMT 52.373222 13.522301 0 64 13
2021-11-18 15:22:07 GMT 52.373154 13.522032 0 64 13
2021-11-18 15:22:05 GMT 52.373131 13.521953 0 64 13
2021-11-18 15:22:04 GMT 52.373119 13.521900 0 64 13
2021-11-18 15:22:02 GMT 52.373081 13.521718 0 64 12
2021-11-18 15:22:00 GMT 52.373013 13.521463 0 64 13
2021-11-18 15:21:59 GMT 52.373013 13.521463 0 64 13
2021-11-18 15:21:58 GMT 52.372971 13.521271 0 64 15
2021-11-18 15:21:56 GMT 52.372955 13.521168 0 64 15
2021-11-18 15:21:54 GMT 52.372898 13.520972 0 64 16
2021-11-18 15:21:53 GMT 52.372875 13.520854 0 64 16
2021-11-18 15:21:52 GMT 52.372849 13.520756 0 64 15
2021-11-18 15:21:49 GMT 52.372791 13.520501 0 64 15
2021-11-18 15:21:48 GMT 52.372768 13.520384 0 64 15
2021-11-18 15:21:47 GMT 52.372730 13.520241 0 64 15
2021-11-18 15:21:46 GMT 52.372711 13.520129 0 64 14
2021-11-18 15:21:44 GMT 52.372665 13.519932 0 64 14
2021-11-18 15:21:42 GMT 52.372581 13.519592 0 64 14
2021-11-18 15:21:39 GMT 52.372570 13.519554 0 64 14
2021-11-18 15:21:38 GMT 52.372536 13.519403 0 64 14
2021-11-18 15:21:36 GMT 52.372501 13.519268 0 64 14
2021-11-18 15:21:35 GMT 52.372478 13.519173 0 64 14
2021-11-18 15:21:34 GMT 52.372433 13.518971 0 64 14
2021-11-18 15:21:32 GMT 52.372398 13.518829 0 64 15
2021-11-18 15:21:30 GMT 52.372372 13.518716 0 64 15
2021-11-18 15:21:28 GMT 52.372307 13.518448 0 64 15
2021-11-18 15:21:26 GMT 52.372257 13.518265 0 64 14
2021-11-18 15:21:25 GMT 52.372238 13.518181 0 64 14
2021-11-18 15:21:23 GMT 52.372192 13.517971 0 64 14
2021-11-18 15:21:22 GMT 52.372166 13.517853 0 64 15
2021-11-18 15:21:21 GMT 52.372124 13.517666 0 64 15
2021-11-18 15:21:18 GMT 52.372066 13.517456 0 64 16
2021-11-18 15:21:15 GMT 52.371975 13.517056 0 64 18
2021-11-18 15:21:14 GMT 52.371918 13.516833 0 64 18
2021-11-18 15:21:11 GMT 52.371861 13.516578 0 64 19
2021-11-18 15:21:08 GMT 52.371780 13.516235 0 64 20
2021-11-18 15:21:07 GMT 52.371735 13.516048 0 64 20
2021-11-18 15:21:06 GMT 52.371632 13.515625 0 64 20
2021-11-18 15:21:04 GMT 52.371632 13.515625 0 64 20
2021-11-18 15:21:03 GMT 52.371605 13.515518 0 64 19
2021-11-18 15:21:02 GMT 52.371540 13.515224 0 64 19
2021-11-18 15:21:00 GMT 52.371506 13.515091 0 64 19
2021-11-18 15:20:58 GMT 52.371414 13.514729 0 64 19
2021-11-18 15:20:56 GMT 52.371391 13.514595 0 64 19
2021-11-18 15:20:55 GMT 52.371326 13.514341 0 64 18
2021-11-18 15:20:50 GMT 52.371231 13.513908 0 64 18
2021-11-18 15:20:49 GMT 52.371128 13.513478 0 64 17
2021-11-18 15:20:47 GMT 52.371128 13.513478 0 64 17
2021-11-18 15:20:44 GMT 52.371037 13.513107 0 64 17
2021-11-18 15:20:42 GMT 52.370979 13.512878 0 64 17
2021-11-18 15:20:40 GMT 52.370899 13.512535 0 64 16
2021-11-18 15:20:38 GMT 52.370872 13.512438 0 64 16
2021-11-18 15:20:37 GMT 52.370853 13.512306 0 64 16
2021-11-18 15:20:35 GMT 52.370804 13.512105 0 64 16
2021-11-18 15:20:34 GMT 52.370773 13.512001 0 64 16
2021-11-18 15:20:32 GMT 52.370720 13.511771 0 64 17
2021-11-18 15:20:31 GMT 52.370682 13.511620 0 64 17
2021-11-18 15:20:29 GMT 52.370636 13.511410 0 64 16
2021-11-18 15:20:27 GMT 52.370579 13.511181 0 64 16
2021-11-18 15:20:25 GMT 52.370533 13.511006 0 64 16
2021-11-18 15:20:18 GMT 52.370361 13.510260 0 64 15
2021-11-18 15:20:17 GMT 52.370338 13.510162 0 64 15
2021-11-18 15:20:16 GMT 52.370316 13.510036 0 64 15
2021-11-18 15:20:14 GMT 52.370258 13.509808 0 64 15
2021-11-18 15:20:13 GMT 52.370232 13.509692 0 64 14
2021-11-18 15:20:11 GMT 52.370197 13.509535 0 64 14
2021-11-18 15:20:09 GMT 52.370152 13.509338 0 64 14
2021-11-18 15:20:08 GMT 52.370121 13.509235 0 64 14
2021-11-18 15:20:07 GMT 52.370098 13.509140 0 64 14
2021-11-18 15:20:05 GMT 52.370052 13.508949 0 64 14
2021-11-18 15:20:04 GMT 52.370022 13.508848 0 64 14
2021-11-18 15:20:03 GMT 52.370007 13.508759 0 64 14
2021-11-18 15:20:02 GMT 52.369938 13.508472 0 64 14
2021-11-18 15:20:00 GMT 52.369938 13.508472 0 64 14
2021-11-18 15:19:59 GMT 52.369919 13.508377 0 64 13
2021-11-18 15:19:56 GMT 52.369869 13.508186 0 64 13
2021-11-18 15:19:55 GMT 52.369835 13.508044 0 64 13
2021-11-18 15:19:53 GMT 52.369789 13.507847 0 64 13
2021-11-18 15:19:52 GMT 52.369720 13.507553 0 64 13
2021-11-18 15:19:50 GMT 52.369720 13.507553 0 64 13
2021-11-18 15:19:49 GMT 52.369698 13.507462 0 64 13
2021-11-18 15:19:48 GMT 52.369663 13.507309 0 64 13
2021-11-18 15:19:46 GMT 52.369637 13.507220 0 64 13
2021-11-18 15:19:44 GMT 52.369606 13.507061 0 64 13
2021-11-18 15:19:43 GMT 52.369572 13.506927 0 64 13
2021-11-18 15:19:41 GMT 52.369537 13.506794 0 64 13
2021-11-18 15:19:39 GMT 52.369503 13.506622 0 64 12
2021-11-18 15:19:37 GMT 52.369457 13.506451 0 64 12
2021-11-18 15:19:36 GMT 52.369431 13.506337 0 64 12
2021-11-18 15:19:33 GMT 52.369389 13.506165 0 64 12
2021-11-18 15:19:32 GMT 52.369358 13.506023 0 64 12
2021-11-18 15:19:30 GMT 52.369312 13.505827 0 64 12
2021-11-18 15:19:29 GMT 52.369274 13.505688 0 64 12
2021-11-18 15:19:27 GMT 52.369255 13.505591 0 64 12
2021-11-18 15:19:23 GMT 52.369171 13.505211 0 64 12
2021-11-18 15:19:21 GMT 52.369148 13.505116 0 64 12
2021-11-18 15:19:20 GMT 52.369125 13.505039 0 64 12
2021-11-18 15:19:18 GMT 52.369091 13.504868 0 64 11
2021-11-18 15:19:17 GMT 52.369080 13.504826 0 64 11
2021-11-18 15:19:15 GMT 52.369034 13.504639 0 64 11
2021-11-18 15:19:13 GMT 52.368999 13.504493 0 64 11
2021-11-18 15:19:10 GMT 52.368927 13.504218 0 64 11
2021-11-18 15:19:07 GMT 52.368896 13.504066 0 64 11
2021-11-18 15:19:04 GMT 52.368847 13.503865 0 64 10
2021-11-18 15:19:03 GMT 52.368835 13.503786 0 64 10
2021-11-18 15:19:00 GMT 52.368782 13.503590 0 64 10
2021-11-18 15:18:59 GMT 52.368767 13.503531 0 64 9
2021-11-18 15:18:57 GMT 52.368744 13.503394 0 64 9
2021-11-18 15:18:55 GMT 52.368706 13.503276 0 64 9
2021-11-18 15:18:54 GMT 52.368694 13.503198 0 64 9
2021-11-18 15:18:53 GMT 52.368668 13.503094 0 64 9
2021-11-18 15:18:51 GMT 52.368656 13.503036 0 64 9
2021-11-18 15:18:48 GMT 52.368614 13.502864 0 64 8
2021-11-18 15:18:47 GMT 52.368591 13.502766 0 64 8
2021-11-18 15:18:44 GMT 52.368565 13.502655 0 64 8
2021-11-18 15:18:41 GMT 52.368523 13.502492 0 61 8
2021-11-18 15:18:40 GMT 52.368496 13.502388 0 61 8
2021-11-18 15:18:38 GMT 52.368484 13.502335 0 59 7
2021-11-18 15:18:37 GMT 52.368484 13.502293 0 59 8
2021-11-18 15:18:31 GMT 52.368427 13.502026 0 42 7
2021-11-18 15:18:29 GMT 52.368404 13.501942 0 33 7
2021-11-18 15:18:27 GMT 52.368370 13.501854 0 22 7
2021-11-18 15:18:26 GMT 52.368324 13.501759 0 8 7
2021-11-18 15:18:24 GMT 52.368313 13.501740 0 2 7
2021-11-18 15:18:23 GMT 52.368290 13.501682 0 354 7
2021-11-18 15:18:22 GMT 52.368206 13.501648 0 343 7
2021-11-18 15:18:20 GMT 52.368206 13.501648 0 340 7
2021-11-18 15:18:19 GMT 52.368137 13.501668 0 340 7
2021-11-18 15:18:16 GMT 52.368092 13.501687 0 340 7
2021-11-18 15:18:14 GMT 52.368015 13.501740 0 343 7
2021-11-18 15:18:12 GMT 52.367973 13.501766 0 345 7
2021-11-18 15:18:11 GMT 52.367939 13.501785 0 348 7
2021-11-18 15:18:09 GMT 52.367878 13.501816 0 351 7
2021-11-18 15:18:06 GMT 52.367809 13.501854 0 357 6
2021-11-18 15:18:05 GMT 52.367775 13.501854 0 357 6
2021-11-18 15:18:03 GMT 52.367718 13.501883 0 2 6
2021-11-18 15:18:02 GMT 52.367683 13.501883 0 5 6
2021-11-18 15:18:00 GMT 52.367603 13.501864 0 11 6
2021-11-18 15:17:57 GMT 52.367554 13.501864 0 11 6
2021-11-18 15:17:54 GMT 52.367489 13.501816 0 11 6
2021-11-18 15:17:53 GMT 52.367466 13.501816 0 11 6
2021-11-18 15:17:50 GMT 52.367393 13.501766 0 8 6
2021-11-18 15:17:49 GMT 52.367355 13.501766 0 5 6
2021-11-18 15:17:46 GMT 52.367275 13.501726 0 2 6
2021-11-18 15:17:44 GMT 52.367260 13.501720 0 2 6
2021-11-18 15:17:42 GMT 52.367195 13.501707 0 0 6
2021-11-18 15:17:40 GMT 52.367157 13.501682 0 357 5
2021-11-18 15:17:39 GMT 52.367134 13.501663 0 354 5
2021-11-18 15:17:35 GMT 52.367043 13.501648 0 345 5
2021-11-18 15:17:34 GMT 52.367020 13.501644 0 343 6
2021-11-18 15:17:31 GMT 52.366974 13.501648 0 340 6
2021-11-18 15:17:30 GMT 52.366928 13.501663 0 340 5
2021-11-18 15:17:26 GMT 52.366844 13.501687 0 337 5
2021-11-18 15:17:25 GMT 52.366821 13.501707 0 337 5
2021-11-18 15:17:23 GMT 52.366787 13.501726 0 334 4
2021-11-18 15:17:21 GMT 52.366756 13.501740 0 334 4
2021-11-18 15:17:18 GMT 52.366711 13.501778 0 334 4
2021-11-18 15:17:14 GMT 52.366653 13.501816 0 334 3
2021-11-18 15:17:13 GMT 52.366642 13.501816 0 334 3
2021-11-18 15:17:12 GMT 52.366623 13.501825 0 334 3
2021-11-18 15:17:10 GMT 52.366608 13.501835 0 334 3
2021-11-18 15:17:07 GMT 52.366566 13.501864 0 334 4
2021-11-18 15:17:06 GMT 52.366539 13.501873 0 334 4
2021-11-18 15:17:01 GMT 52.366474 13.501923 0 334 4
2021-11-18 15:17:00 GMT 52.366470 13.501930 0 334 4
2021-11-18 15:16:59 GMT 52.366425 13.501962 0 334 5
2021-11-18 15:16:57 GMT 52.366413 13.501962 0 334 6
2021-11-18 15:16:55 GMT 52.366367 13.501987 0 334 7
2021-11-18 15:16:54 GMT 52.366344 13.502007 0 334 7
2021-11-18 15:16:53 GMT 52.366287 13.502045 0 334 6
2021-11-18 15:16:50 GMT 52.366241 13.502080 0 334 6
2021-11-18 15:16:47 GMT 52.366173 13.502121 0 334 6
2021-11-18 15:16:45 GMT 52.366112 13.502158 0 334 5
2021-11-18 15:16:44 GMT 52.366093 13.502159 0 334 5
2021-11-18 15:16:43 GMT 52.366055 13.502197 0 334 5
2021-11-18 15:16:41 GMT 52.366032 13.502197 0 334 5
2021-11-18 15:16:39 GMT 52.365997 13.502237 0 334 4
2021-11-18 15:16:32 GMT 52.365868 13.502295 0 334 0
2021-11-18 15:16:22 GMT 52.365868 13.502295 0 334 0
2021-11-18 15:16:12 GMT 52.365875 13.502312 0 334 0
2021-11-18 15:15:02 GMT 52.365875 13.502312 0 334 0
2021-11-18 15:14:32 GMT 52.365868 13.502295 0 334 0
2021-11-18 15:13:52 GMT 52.365875 13.502312 0 334 0
2021-11-18 15:13:42 GMT 52.365868 13.502295 0 334 0
2021-11-18 15:13:32 GMT 52.365875 13.502312 0 334 0
2021-11-18 15:13:23 GMT 52.365864 13.502312 0 334 0
2021-11-18 15:13:12 GMT 52.365868 13.502295 0 334 0
2021-11-18 15:13:03 GMT 52.365864 13.502312 0 334 3
2021-11-18 15:13:00 GMT 52.365841 13.502331 0 334 3
2021-11-18 15:12:58 GMT 52.365807 13.502350 0 334 4
2021-11-18 15:12:55 GMT 52.365749 13.502369 0 334 4
2021-11-18 15:12:54 GMT 52.365738 13.502388 0 334 4
2021-11-18 15:12:53 GMT 52.365726 13.502393 0 334 4
2021-11-18 15:12:51 GMT 52.365692 13.502426 0 334 4
2021-11-18 15:12:48 GMT 52.365646 13.502452 0 334 5
2021-11-18 15:12:47 GMT 52.365623 13.502472 0 334 5
2021-11-18 15:12:46 GMT 52.365555 13.502511 0 334 5
2021-11-18 15:12:44 GMT 52.365555 13.502511 0 334 5
2021-11-18 15:12:42 GMT 52.365509 13.502522 0 334 5
2021-11-18 15:12:41 GMT 52.365505 13.502531 0 334 5
2021-11-18 15:12:40 GMT 52.365482 13.502550 0 334 6
2021-11-18 15:12:37 GMT 52.365425 13.502590 0 334 6
2021-11-18 15:12:34 GMT 52.365337 13.502636 0 334 6
2021-11-18 15:12:32 GMT 52.365292 13.502674 0 334 6
2021-11-18 15:12:30 GMT 52.365246 13.502693 0 334 5
2021-11-18 15:12:27 GMT 52.365189 13.502731 0 334 5
2021-11-18 15:12:26 GMT 52.365170 13.502747 0 334 4
2021-11-18 15:12:24 GMT 52.365135 13.502766 0 334 4
2021-11-18 15:12:23 GMT 52.365120 13.502769 0 334 4
2021-11-18 15:12:21 GMT 52.365089 13.502786 0 334 4
2021-11-18 15:12:20 GMT 52.365074 13.502808 0 334 4
2021-11-18 15:12:15 GMT 52.364983 13.502864 0 337 5
2021-11-18 15:12:14 GMT 52.364971 13.502865 0 337 5
2021-11-18 15:12:13 GMT 52.364948 13.502884 0 337 5
2021-11-18 15:12:10 GMT 52.364914 13.502904 0 337 5
2021-11-18 15:12:09 GMT 52.364868 13.502941 0 337 3
2021-11-18 15:12:07 GMT 52.364857 13.502943 0 337 3
2021-11-18 15:12:06 GMT 52.364834 13.502941 0 337 0
2021-11-18 15:12:02 GMT 52.364834 13.502960 0 337 0
2021-11-18 15:11:59 GMT 52.364834 13.502960 0 337 0
2021-11-18 15:11:57 GMT 52.364834 13.502943 0 337 3
2021-11-18 15:11:56 GMT 52.364868 13.502923 0 337 4
2021-11-18 15:11:54 GMT 52.364868 13.502922 0 334 4
2021-11-18 15:11:53 GMT 52.364891 13.502904 0 334 5
2021-11-18 15:11:52 GMT 52.364902 13.502884 0 331 5
2021-11-18 15:11:51 GMT 52.364914 13.502865 0 331 5
2021-11-18 15:11:49 GMT 52.364960 13.502825 0 329 5
2021-11-18 15:11:48 GMT 52.364983 13.502808 0 329 5
2021-11-18 15:11:47 GMT 52.365017 13.502769 0 329 5
2021-11-18 15:11:45 GMT 52.365028 13.502769 0 329 5
2021-11-18 15:11:42 GMT 52.365074 13.502707 0 326 5
2021-11-18 15:11:41 GMT 52.365086 13.502693 0 326 5
2021-11-18 15:11:40 GMT 52.365143 13.502636 0 323 4
2021-11-18 15:11:38 GMT 52.365143 13.502636 0 323 4
2021-11-18 15:11:37 GMT 52.365154 13.502617 0 323 4
2021-11-18 15:11:36 GMT 52.365170 13.502590 0 323 4
2021-11-18 15:11:34 GMT 52.365192 13.502550 0 320 4
2021-11-18 15:11:32 GMT 52.365204 13.502531 0 320 4
2021-11-18 15:11:31 GMT 52.365238 13.502492 0 317 4
2021-11-18 15:11:30 GMT 52.365238 13.502492 0 317 4
2021-11-18 15:11:29 GMT 52.365257 13.502445 0 317 4
2021-11-18 15:11:26 GMT 52.365269 13.502426 0 315 4
2021-11-18 15:11:25 GMT 52.365292 13.502388 0 315 5
2021-11-18 15:11:23 GMT 52.365314 13.502350 0 315 5
2021-11-18 15:11:21 GMT 52.365345 13.502295 0 312 5
2021-11-18 15:11:19 GMT 52.365383 13.502216 0 309 5
2021-11-18 15:11:18 GMT 52.365383 13.502216 0 309 5
2021-11-18 15:11:17 GMT 52.365406 13.502159 0 309 5
2021-11-18 15:11:15 GMT 52.365417 13.502140 0 306 5
2021-11-18 15:11:13 GMT 52.365440 13.502064 0 306 5
2021-11-18 15:11:11 GMT 52.365452 13.502026 0 303 5
2021-11-18 15:11:09 GMT 52.365498 13.501911 0 300 4
2021-11-18 15:11:07 GMT 52.365517 13.501864 0 300 4
2021-11-18 15:11:05 GMT 52.365517 13.501864 0 300 4
2021-11-18 15:11:03 GMT 52.365517 13.501825 0 298 4
2021-11-18 15:11:02 GMT 52.365532 13.501778 0 295 4
2021-11-18 15:10:59 GMT 52.365543 13.501720 0 292 3
2021-11-18 15:10:58 GMT 52.365543 13.501701 0 292 3
2021-11-18 15:10:56 GMT 52.365543 13.501625 0 284 4
2021-11-18 15:10:53 GMT 52.365532 13.501568 0 281 3
2021-11-18 15:10:51 GMT 52.365532 13.501530 0 278 4
2021-11-18 15:10:50 GMT 52.365532 13.501511 0 275 3
2021-11-18 15:10:49 GMT 52.365517 13.501452 0 272 4
2021-11-18 15:10:46 GMT 52.365520 13.501434 0 270 4
2021-11-18 15:10:42 GMT 52.365494 13.501334 0 261 4
2021-11-18 15:10:41 GMT 52.365486 13.501301 0 261 4
2021-11-18 15:10:39 GMT 52.365475 13.501244 0 258 4
2021-11-18 15:10:34 GMT 52.365440 13.501148 0 253 4
2021-11-18 15:10:29 GMT 52.365414 13.501020 0 250 4
2021-11-18 15:10:28 GMT 52.365402 13.500981 0 247 4
2021-11-18 15:10:27 GMT 52.365395 13.500957 0 247 4
2021-11-18 15:10:25 GMT 52.365379 13.500902 0 247 4
2021-11-18 15:10:24 GMT 52.365379 13.500883 0 247 4
2021-11-18 15:10:23 GMT 52.365368 13.500824 0 247 3
2021-11-18 15:10:21 GMT 52.365356 13.500804 0 247 3
2021-11-18 15:10:19 GMT 52.365345 13.500765 0 247 3
2021-11-18 15:10:18 GMT 52.365345 13.500746 0 247 4
2021-11-18 15:10:16 GMT 52.365337 13.500690 0 247 4
2021-11-18 15:10:15 GMT 52.365318 13.500667 0 247 4
2021-11-18 15:10:12 GMT 52.365314 13.500595 0 244 3
2021-11-18 15:10:11 GMT 52.365295 13.500549 0 244 4
2021-11-18 15:10:09 GMT 52.365295 13.500530 0 244 4
2021-11-18 15:10:07 GMT 52.365280 13.500481 0 244 4
2021-11-18 15:10:02 GMT 52.365250 13.500373 0 244 5
2021-11-18 15:10:01 GMT 52.365246 13.500328 0 244 4
2021-11-18 15:10:00 GMT 52.365238 13.500314 0 244 4
2021-11-18 15:09:15 GMT 52.365200 13.500118 0 244 0
2021-11-18 15:08:40 GMT 52.365204 13.500118 0 244 0
2021-11-18 15:08:35 GMT 52.365200 13.500118 0 244 0
2021-11-18 15:07:40 GMT 52.365200 13.500118 0 244 0
2021-11-18 15:07:35 GMT 52.365204 13.500118 0 244 0
2021-11-18 15:07:25 GMT 52.365192 13.500118 0 244 0
2021-11-18 15:07:15 GMT 52.365204 13.500118 0 244 0
2021-11-18 15:07:10 GMT 52.365189 13.500118 0 244 0
2021-11-18 15:07:01 GMT 52.365189 13.500118 0 244 0
2021-11-18 15:06:44 GMT 52.365192 13.500118 0 244 0
2021-11-18 15:06:35 GMT 52.365200 13.500118 0 244 0
2021-11-18 15:05:25 GMT 52.365204 13.500118 0 244 0
2021-11-18 15:05:15 GMT 52.365200 13.500118 0 244 0
2021-11-18 15:05:00 GMT 52.365189 13.500118 0 244 0
2021-11-18 15:04:55 GMT 52.365192 13.500118 0 244 0
2021-11-18 15:04:26 GMT 52.365192 13.500118 0 244 0
2021-11-18 15:04:21 GMT 52.365192 13.500118 0 244 0
2021-11-18 15:04:10 GMT 52.365200 13.500118 0 244 0
2021-11-18 15:03:56 GMT 52.365192 13.500118 0 244 0
2021-11-18 15:03:25 GMT 52.365200 13.500118 0 244 0
2021-11-18 15:03:15 GMT 52.365192 13.500118 0 244 0
2021-11-18 15:02:45 GMT 52.365189 13.500118 0 244 0
2021-11-18 15:02:25 GMT 52.365192 13.500118 0 244 0
2021-11-18 15:02:21 GMT 52.365200 13.500118 0 244 0
2021-11-18 15:02:09 GMT 52.365192 13.500118 0 244 0
2021-11-18 15:01:59 GMT 52.365200 13.500118 0 244 0
2021-11-18 15:01:49 GMT 52.365189 13.500118 0 244 0
2021-11-18 15:01:09 GMT 52.365192 13.500118 0 244 0
2021-11-18 15:00:59 GMT 52.365181 13.500118 0 244 0
2021-11-18 15:00:29 GMT 52.365189 13.500118 0 244 0
2021-11-18 15:00:09 GMT 52.365189 13.500118 0 244 0
2021-11-18 14:59:59 GMT 52.365189 13.500118 0 244 0
2021-11-18 14:59:44 GMT 52.365189 13.500118 0 244 0
2021-11-18 14:59:39 GMT 52.365192 13.500118 0 244 0
2021-11-18 14:59:19 GMT 52.365189 13.500118 0 244 0
2021-11-18 14:58:39 GMT 52.365189 13.500118 0 244 0
2021-11-18 14:58:34 GMT 52.365189 13.500118 0 244 0
2021-11-18 14:58:29 GMT 52.365192 13.500118 0 244 0
2021-11-18 14:58:24 GMT 52.365189 13.500118 0 244 0
2021-11-18 14:58:14 GMT 52.365189 13.500118 0 244 0
2021-11-18 14:57:59 GMT 52.365189 13.500118 0 244 0
2021-11-18 14:57:55 GMT 52.365192 13.500118 0 244 0
2021-11-18 14:57:50 GMT 52.365189 13.500118 0 244 0
2021-11-18 14:57:40 GMT 52.365189 13.500118 0 244 0
2021-11-18 14:57:24 GMT 52.365192 13.500118 0 244 0
2021-11-18 14:57:09 GMT 52.365189 13.500118 0 244 0
2021-11-18 14:56:49 GMT 52.365192 13.500118 0 244 0
2021-11-18 14:56:40 GMT 52.365192 13.500118 0 244 0
2021-11-18 14:56:25 GMT 52.365200 13.500118 0 244 0
2021-11-18 14:56:05 GMT 52.365192 13.500118 0 244 0
2021-11-18 14:55:55 GMT 52.365200 13.500118 0 244 0
2021-11-18 14:55:51 GMT 52.365192 13.500118 0 244 0
2021-11-18 14:55:46 GMT 52.365200 13.500118 0 244 0
2021-11-18 14:55:37 GMT 52.365192 13.500118 0 244 0
2021-11-18 14:55:31 GMT 52.365192 13.500118 0 244 0
2021-11-18 14:55:26 GMT 52.365200 13.500118 0 244 0
2021-11-18 14:54:46 GMT 52.365192 13.500118 0 244 0
2021-11-18 14:54:27 GMT 52.365200 13.500118 0 244 0
We lost coverage of the aircraft here for a total of 190 minutes
2021-11-18 11:44:31 GMT 52.365189 13.500137 0 244 0 0
2021-11-18 11:44:06 GMT 52.365189 13.500137 0 244 0 0
2021-11-18 11:43:57 GMT 52.365192 13.500137 0 244 0 0
2021-11-18 11:43:48 GMT 52.365192 13.500137 0 244 0 0
2021-11-18 11:43:41 GMT 52.365204 13.500177 0 244 3 0
2021-11-18 11:43:35 GMT 52.365223 13.500271 0 244 4 0
2021-11-18 11:43:34 GMT 52.365238 13.500314 0 244 5 0
2021-11-18 11:43:33 GMT 52.365238 13.500353 0 244 5 0
2021-11-18 11:43:32 GMT 52.365250 13.500392 0 244 5 0
2021-11-18 11:43:28 GMT 52.365288 13.500510 0 244 6 0
2021-11-18 11:43:27 GMT 52.365295 13.500549 0 244 7 0
2021-11-18 11:43:26 GMT 52.365311 13.500608 0 244 8 0
2021-11-18 11:43:23 GMT 52.365337 13.500748 0 244 10 0
2021-11-18 11:43:22 GMT 52.365360 13.500843 0 244 9 0
2021-11-18 11:43:21 GMT 52.365372 13.500900 0 244 9 0
2021-11-18 11:43:19 GMT 52.365406 13.501034 0 244 9 0
2021-11-18 11:43:16 GMT 52.365440 13.501186 0 244 9 0
2021-11-18 11:43:11 GMT 52.365532 13.501606 0 239 10 0
2021-11-18 11:43:06 GMT 52.365601 13.501864 0 225 8 0
2021-11-18 11:43:04 GMT 52.365623 13.501949 0 219 7 0
2021-11-18 11:42:58 GMT 52.365715 13.502197 0 188 6 0
2021-11-18 11:42:57 GMT 52.365726 13.502217 0 182 6 0
2021-11-18 11:42:54 GMT 52.365822 13.502335 0 157 6 0
2021-11-18 11:42:49 GMT 52.365925 13.502276 0 154 7 0
2021-11-18 11:42:44 GMT 52.366070 13.502178 0 154 8 0
2021-11-18 11:42:43 GMT 52.366100 13.502158 0 154 9 0
2021-11-18 11:42:41 GMT 52.366169 13.502099 0 154 9 0
2021-11-18 11:42:37 GMT 52.366322 13.502021 0 154 9 0
2021-11-18 11:42:36 GMT 52.366390 13.501968 0 154 10 0
2021-11-18 11:42:33 GMT 52.366474 13.501903 0 151 10 0
2021-11-18 11:42:29 GMT 52.366657 13.501785 0 149 11 0
2021-11-18 11:42:26 GMT 52.366791 13.501701 0 143 11 0
2021-11-18 11:42:21 GMT 52.366962 13.501550 0 120 9 0
2021-11-18 11:42:17 GMT 52.367111 13.501320 0 120 9 0
2021-11-18 11:42:14 GMT 52.367180 13.501148 0 120 9 0
2021-11-18 11:42:12 GMT 52.367207 13.501059 0 120 9 0
2021-11-18 11:42:11 GMT 52.367271 13.500862 0 129 9 0
2021-11-18 11:42:09 GMT 52.367271 13.500862 0 129 9 0
2021-11-18 11:42:08 GMT 52.367294 13.500824 0 132 9 0
2021-11-18 11:42:07 GMT 52.367348 13.500687 0 143 9 0
2021-11-18 11:42:05 GMT 52.367371 13.500647 0 146 9 0
2021-11-18 11:42:03 GMT 52.367420 13.500576 0 151 8 0
2021-11-18 11:42:01 GMT 52.367535 13.500481 0 154 9 0
2021-11-18 11:41:59 GMT 52.367535 13.500481 0 154 9 0
2021-11-18 11:41:58 GMT 52.367695 13.500385 0 154 9 0
2021-11-18 11:41:55 GMT 52.367695 13.500385 0 154 9 0
2021-11-18 11:41:53 GMT 52.367832 13.500294 0 154 9 0
2021-11-18 11:41:45 GMT 52.368103 13.500118 0 154 12 0
2021-11-18 11:41:43 GMT 52.368187 13.500061 0 157 14 0
2021-11-18 11:41:41 GMT 52.368416 13.499922 0 160 13 0
2021-11-18 11:41:39 GMT 52.368416 13.499922 0 160 13 0
2021-11-18 11:41:37 GMT 52.368500 13.499882 0 163 14 0
2021-11-18 11:41:35 GMT 52.368706 13.499765 0 177 16 0
2021-11-18 11:41:34 GMT 52.368706 13.499765 0 177 16 0
2021-11-18 11:41:33 GMT 52.368778 13.499745 0 182 16 0
2021-11-18 11:41:28 GMT 52.369137 13.499832 0 205 16 0
2021-11-18 11:41:18 GMT 52.369675 13.500481 0 216 15 0
2021-11-18 11:41:08 GMT 52.370197 13.501157 0 213 13 0
2021-11-18 11:41:04 GMT 52.370384 13.501393 0 216 15 0
2021-11-18 11:41:01 GMT 52.370522 13.501587 0 216 18 0
2021-11-18 11:41:00 GMT 52.370579 13.501663 0 216 19 0
2021-11-18 11:40:57 GMT 52.370785 13.501930 0 216 23 0
2021-11-18 11:40:48 GMT 52.371586 13.503094 0 225 33 0
2021-11-18 11:40:47 GMT 52.371696 13.503276 0 225 36 0
2021-11-18 11:40:43 GMT 52.372093 13.504120 0 233 41 0
2021-11-18 11:40:41 GMT 52.372353 13.504791 0 239 50 0
2021-11-18 11:40:39 GMT 52.372501 13.505344 0 244 55 0
2021-11-18 11:40:36 GMT 52.372814 13.506592 0 244 74 0
2021-11-18 11:40:35 GMT 52.372925 13.507061 0 244 80 0
2021-11-18 11:40:30 GMT 52.373657 13.510208 -150 249 108 -64
2021-11-18 11:40:28 GMT 52.374016 13.511771 -150 249 108 -64
2021-11-18 11:40:25 GMT 52.374527 13.513811 -150 249 119 -64
2021-11-18 11:40:24 GMT 52.374664 13.514439 -150 249 122 -64
2021-11-18 11:40:21 GMT 52.375969 13.519932 -150 249 138 -64
2021-11-18 11:40:19 GMT 52.375969 13.519932 -175 249 140 -192
2021-11-18 11:40:17 GMT 52.376404 13.521805 -150 249 141 -512
2021-11-18 11:40:15 GMT 52.376907 13.523788 -150 250 142 -704
2021-11-18 11:40:14 GMT 52.377136 13.524857 -125 249 141 -704
2021-11-18 11:40:13 GMT 52.377365 13.525848 -100 249 141 -704
2021-11-18 11:40:11 GMT 52.377831 13.527701 -75 249 141 -704
2021-11-18 11:40:09 GMT 52.378296 13.529742 -50 249 140 -832
2021-11-18 11:40:07 GMT 52.378716 13.531468 -25 249 140 -832
2021-11-18 11:40:05 GMT 52.379089 13.533037 0 249 140 -768
2021-11-18 11:40:04 GMT 52.379925 13.536647 25 249 140 -768
2021-11-18 11:40:02 GMT 52.379925 13.536647 25 249 140 -768
2021-11-18 11:40:00 GMT 52.380524 13.539124 75 249 139 -768
2021-11-18 11:39:55 GMT 52.381695 13.544102 175 249 138 -704
2021-11-18 11:39:51 GMT 52.382401 13.547134 175 249 138 -704
2021-11-18 11:39:48 GMT 52.383133 13.550110 300 249 139 -768
2021-11-18 11:39:45 GMT 52.383976 13.553676 300 249 139 -768
2021-11-18 11:39:41 GMT 52.384769 13.557050 300 249 139 -896
2021-11-18 11:39:40 GMT 52.384964 13.557892 300 249 139 -896
2021-11-18 11:39:38 GMT 52.385418 13.559797 375 249 139 -832
2021-11-18 11:39:35 GMT 52.386536 13.564505 400 249 139 -768
2021-11-18 11:39:32 GMT 52.386955 13.566467 475 249 138 -704
2021-11-18 11:39:29 GMT 52.387653 13.569371 475 249 138 -704
2021-11-18 11:39:25 GMT 52.388771 13.574079 525 249 137 -768
2021-11-18 11:39:22 GMT 52.389332 13.576355 600 249 137 -768
2021-11-18 11:39:18 GMT 52.390076 13.579494 600 249 137 -768
2021-11-18 11:39:15 GMT 52.390869 13.582840 725 249 136 -768
2021-11-18 11:39:12 GMT 52.391647 13.586121 725 249 136 -832
2021-11-18 11:39:07 GMT 52.392563 13.589935 725 249 136 -768
2021-11-18 11:39:05 GMT 52.393005 13.591971 750 249 136 -768
2021-11-18 11:39:04 GMT 52.393478 13.593750 775 249 136 -768
2021-11-18 11:39:01 GMT 52.394032 13.596209 850 249 136 -768
2021-11-18 11:38:58 GMT 52.395401 13.601990 900 250 134 -704
2021-11-18 11:38:55 GMT 52.395401 13.601990 900 250 134 -704
2021-11-18 11:38:54 GMT 52.395615 13.602879 900 250 134 -704
2021-11-18 11:38:52 GMT 52.396179 13.605270 925 249 133 -768
2021-11-18 11:38:49 GMT 52.396778 13.607823 950 249 133 -768
2021-11-18 11:38:46 GMT 52.397461 13.610764 1,000 249 133 -768
2021-11-18 11:38:45 GMT 52.397690 13.611679 1,000 249 133 -768
2021-11-18 11:38:44 GMT 52.397919 13.612595 1,025 249 133 -768
2021-11-18 11:38:41 GMT 52.398502 13.615199 1,075 249 135 -832
2021-11-18 11:38:40 GMT 52.398827 13.616534 1,075 249 135 -832
2021-11-18 11:38:37 GMT 52.399521 13.619461 1,150 250 135 -704
2021-11-18 11:38:34 GMT 52.400345 13.623123 1,175 250 134 -704
2021-11-18 11:38:30 GMT 52.401062 13.626107 1,200 249 135 -704
2021-11-18 11:38:28 GMT 52.401398 13.627548 1,250 249 134 -704
2021-11-18 11:38:26 GMT 52.401993 13.629990 1,250 249 134 -704
2021-11-18 11:38:23 GMT 52.402542 13.632278 1,275 249 134 -704
2021-11-18 11:38:22 GMT 52.403481 13.636309 1,325 249 133 -704
2021-11-18 11:38:19 GMT 52.403481 13.636309 1,325 249 133 -704
2021-11-18 11:38:17 GMT 52.404041 13.638585 1,375 249 132 -704
2021-11-18 11:38:14 GMT 52.404556 13.640976 1,400 249 132 -768
2021-11-18 11:38:13 GMT 52.404831 13.642044 1,400 250 133 -832
2021-11-18 11:38:11 GMT 52.405334 13.644180 1,450 250 133 -832
2021-11-18 11:38:09 GMT 52.405624 13.645333 1,450 249 133 -768
2021-11-18 11:38:08 GMT 52.406368 13.648551 1,475 250 134 -896
2021-11-18 11:38:06 GMT 52.406368 13.648551 1,500 249 135 -960
2021-11-18 11:38:05 GMT 52.406601 13.649571 1,500 249 136 -896
2021-11-18 11:38:02 GMT 52.407806 13.654633 1,575 250 137 -768
2021-11-18 11:38:00 GMT 52.407806 13.654633 1,575 249 139 -704
2021-11-18 11:37:58 GMT 52.408558 13.657968 1,625 249 142 -768
2021-11-18 11:37:55 GMT 52.408836 13.659145 1,650 249 143 -768
2021-11-18 11:37:53 GMT 52.409348 13.661185 1,650 249 144 -704
2021-11-18 11:37:50 GMT 52.410141 13.664551 1,700 249 146 -832
2021-11-18 11:37:49 GMT 52.410370 13.665501 1,725 249 146 -832
2021-11-18 11:37:48 GMT 52.410736 13.667068 1,725 249 147 -896
2021-11-18 11:37:46 GMT 52.411953 13.672250 1,800 250 150 -768
2021-11-18 11:37:43 GMT 52.411953 13.672250 1,800 250 150 -768
2021-11-18 11:37:42 GMT 52.412186 13.673270 1,825 249 152 -768
2021-11-18 11:37:40 GMT 52.412750 13.675537 1,825 249 153 -896
2021-11-18 11:37:37 GMT 52.413437 13.678589 1,875 249 155 -896
2021-11-18 11:37:34 GMT 52.414215 13.681946 1,925 250 160 -896
2021-11-18 11:37:33 GMT 52.414764 13.684235 1,950 250 160 -960
2021-11-18 11:37:30 GMT 52.415306 13.686611 2,000 250 161 -960
2021-11-18 11:37:28 GMT 52.415588 13.687897 2,025 250 164 -1024
2021-11-18 11:37:26 GMT 52.416138 13.690186 2,025 250 164 -1024
2021-11-18 11:37:24 GMT 52.416916 13.693466 2,100 249 168 -960
2021-11-18 11:37:23 GMT 52.417191 13.694687 2,100 249 168 -960
2021-11-18 11:37:21 GMT 52.417786 13.697052 2,175 249 170 -960
2021-11-18 11:37:18 GMT 52.418377 13.699559 2,175 249 170 -960
2021-11-18 11:37:15 GMT 52.419403 13.703953 2,300 249 170 -1024
2021-11-18 11:37:11 GMT 52.420624 13.709106 2,300 249 170 -1024
2021-11-18 11:37:10 GMT 52.421032 13.710938 2,325 250 170 -1088
2021-11-18 11:37:07 GMT 52.421539 13.712997 2,375 250 171 -1088
2021-11-18 11:37:06 GMT 52.421814 13.714142 2,375 250 171 -1152
2021-11-18 11:37:05 GMT 52.422104 13.715489 2,400 249 171 -1152
2021-11-18 11:37:04 GMT 52.422455 13.716812 2,425 249 173 -1152
2021-11-18 11:37:02 GMT 52.423004 13.719254 2,450 249 173 -1152
2021-11-18 11:37:01 GMT 52.423325 13.720474 2,500 249 175 -960
2021-11-18 11:37:00 GMT 52.423546 13.721610 2,575 249 175 -960
2021-11-18 11:36:58 GMT 52.424103 13.723907 2,575 249 175 -960
2021-11-18 11:36:54 GMT 52.425266 13.728751 2,575 249 177 -960
2021-11-18 11:36:52 GMT 52.425980 13.731918 2,625 249 180 -1024
2021-11-18 11:36:51 GMT 52.426151 13.732518 2,650 249 180 -1024
2021-11-18 11:36:50 GMT 52.426758 13.735107 2,675 249 181 -1152
2021-11-18 11:36:47 GMT 52.427216 13.737030 2,700 249 182 -1152
2021-11-18 11:36:46 GMT 52.427765 13.739319 2,725 249 183 -1152
2021-11-18 11:36:45 GMT 52.428108 13.740758 2,750 249 184 -1024
2021-11-18 11:36:43 GMT 52.428619 13.742876 2,825 249 184 -1024
2021-11-18 11:36:41 GMT 52.429272 13.745701 2,825 249 184 -1024
2021-11-18 11:36:40 GMT 52.429596 13.747035 2,850 249 184 -960
2021-11-18 11:36:39 GMT 52.429916 13.748474 2,875 249 184 -960
2021-11-18 11:36:38 GMT 52.430237 13.749771 2,900 249 184 -960
2021-11-18 11:36:36 GMT 52.430809 13.751979 2,925 249 185 -832
2021-11-18 11:36:35 GMT 52.431087 13.753313 2,925 249 185 -768
2021-11-18 11:36:34 GMT 52.431553 13.755118 2,950 249 185 -768
2021-11-18 11:36:33 GMT 52.431877 13.756452 2,975 249 186 -704
2021-11-18 11:36:31 GMT 52.432800 13.760529 3,000 250 187 -384
2021-11-18 11:36:29 GMT 52.433182 13.761945 3,000 250 187 -256
2021-11-18 11:36:27 GMT 52.433487 13.763428 3,000 251 189 -256
2021-11-18 11:36:26 GMT 52.433926 13.765398 3,025 250 189 -320
2021-11-18 11:36:25 GMT 52.434265 13.766937 3,025 250 189 -384
2021-11-18 11:36:24 GMT 52.434586 13.768234 3,025 250 190 -448
2021-11-18 11:36:23 GMT 52.434952 13.769913 3,025 250 190 -448
2021-11-18 11:36:22 GMT 52.435555 13.772696 3,050 250 191 -512
2021-11-18 11:36:20 GMT 52.436325 13.776169 3,075 251 192 -512
2021-11-18 11:36:18 GMT 52.436325 13.776169 3,075 251 193 -448
2021-11-18 11:36:17 GMT 52.436722 13.777954 3,075 251 194 -512
2021-11-18 11:36:15 GMT 52.437332 13.780823 3,100 251 194 -512
2021-11-18 11:36:14 GMT 52.437515 13.781662 3,100 252 195 -448
2021-11-18 11:36:13 GMT 52.437881 13.783340 3,100 252 196 -576
2021-11-18 11:36:11 GMT 52.438477 13.786163 3,125 252 196 -704
2021-11-18 11:36:10 GMT 52.438721 13.787449 3,125 252 197 -768
2021-11-18 11:36:09 GMT 52.439026 13.788986 3,150 252 197 -832
2021-11-18 11:36:07 GMT 52.439621 13.791809 3,175 253 197 -832
2021-11-18 11:36:05 GMT 52.440166 13.794512 3,200 253 198 -960
2021-11-18 11:36:04 GMT 52.440399 13.796003 3,225 254 198 -960
2021-11-18 11:36:03 GMT 52.440720 13.797531 3,250 254 199 -960
2021-11-18 11:36:01 GMT 52.441177 13.800125 3,275 254 199 -896
2021-11-18 11:36:00 GMT 52.441563 13.802359 3,300 255 200 -896
2021-11-18 11:35:58 GMT 52.441818 13.803635 3,325 255 200 -832
2021-11-18 11:35:57 GMT 52.442276 13.806534 3,350 256 201 -640
2021-11-18 11:35:55 GMT 52.442780 13.809814 3,350 256 201 -512
2021-11-18 11:35:54 GMT 52.442963 13.810959 3,350 257 201 -448
2021-11-18 11:35:53 GMT 52.443192 13.812485 3,375 258 203 -512
2021-11-18 11:35:51 GMT 52.444309 13.821115 3,400 260 205 -512
2021-11-18 11:35:47 GMT 52.444309 13.821115 3,400 262 206 -640
2021-11-18 11:35:46 GMT 52.444473 13.822784 3,425 262 206 -640
2021-11-18 11:35:44 GMT 52.444912 13.827628 3,450 264 207 -832
2021-11-18 11:35:41 GMT 52.445099 13.830688 3,475 266 207 -896
2021-11-18 11:35:39 GMT 52.445286 13.834141 3,500 267 207 -896
2021-11-18 11:35:38 GMT 52.445343 13.835907 3,525 267 208 -896
2021-11-18 11:35:37 GMT 52.445423 13.837280 3,550 267 208 -832
2021-11-18 11:35:35 GMT 52.445618 13.842163 3,575 266 209 -576
2021-11-18 11:35:32 GMT 52.445755 13.844986 3,600 262 212 -512
2021-11-18 11:35:30 GMT 52.445984 13.848190 3,600 261 213 -512
2021-11-18 11:35:28 GMT 52.446404 13.851876 3,625 254 216 -448
2021-11-18 11:35:27 GMT 52.446854 13.854523 3,625 245 220 -512
2021-11-18 11:35:24 GMT 52.447403 13.856964 3,650 245 220 -512
2021-11-18 11:35:22 GMT 52.448410 13.860626 3,650 240 224 -576
2021-11-18 11:35:20 GMT 52.449196 13.862863 3,675 237 226 -576
2021-11-18 11:35:19 GMT 52.451801 13.868277 3,700 229 231 -832
2021-11-18 11:35:16 GMT 52.451801 13.868277 3,800 227 232 -832
2021-11-18 11:35:13 GMT 52.454178 13.871966 3,775 221 238 -1024
2021-11-18 11:35:12 GMT 52.455414 13.873749 3,800 219 240 -960
2021-11-18 11:35:09 GMT 52.458321 13.877459 3,850 218 244 -1088
2021-11-18 11:35:08 GMT 52.459122 13.878479 3,875 218 245 -1152
2021-11-18 11:35:06 GMT 52.461720 13.881853 3,925 218 248 -1216
2021-11-18 11:35:04 GMT 52.462463 13.882717 3,925 218 249 -1216
2021-11-18 11:35:03 GMT 52.463470 13.884048 3,950 218 250 -1216
2021-11-18 11:35:01 GMT 52.465397 13.886483 4,000 218 252 -1280
2021-11-18 11:34:59 GMT 52.466839 13.888367 4,050 218 253 -1280
2021-11-18 11:34:57 GMT 52.469193 13.891296 4,100 218 259 -1344
2021-11-18 11:34:55 GMT 52.470982 13.893624 4,125 218 259 -1344
2021-11-18 11:34:53 GMT 52.472843 13.895979 4,250 217 266 -1280
2021-11-18 11:34:50 GMT 52.475830 13.899689 4,250 217 266 -1280
2021-11-18 11:34:49 GMT 52.478806 13.903275 4,300 216 269 -1408
2021-11-18 11:34:47 GMT 52.478806 13.903275 4,300 216 269 -1408
2021-11-18 11:34:45 GMT 52.481049 13.905869 4,350 215 270 -1472
2021-11-18 11:34:42 GMT 52.483978 13.909073 4,425 213 275 -1408
2021-11-18 11:34:41 GMT 52.485134 13.910339 4,450 212 277 -1472
2021-11-18 11:34:40 GMT 52.486252 13.911438 4,475 211 278 -1472
2021-11-18 11:34:38 GMT 52.488144 13.913193 4,525 207 283 -1472
2021-11-18 11:34:36 GMT 52.490349 13.915126 4,550 207 283 -1472
2021-11-18 11:34:35 GMT 52.491394 13.915939 4,575 203 288 -1472
2021-11-18 11:34:34 GMT 52.493134 13.917160 4,625 202 290 -1472
2021-11-18 11:34:33 GMT 52.494492 13.918030 4,650 198 295 -1472
2021-11-18 11:34:31 GMT 52.497051 13.919442 4,700 197 296 -1536
2021-11-18 11:34:30 GMT 52.501102 13.921169 4,750 193 301 -1536
2021-11-18 11:34:28 GMT 52.501102 13.921169 4,775 190 305 -1600
2021-11-18 11:34:26 GMT 52.503849 13.921953 4,800 190 305 -1600
2021-11-18 11:34:24 GMT 52.506687 13.922503 4,875 184 312 -1728
2021-11-18 11:34:23 GMT 52.509621 13.922660 4,925 179 317 -1856
2021-11-18 11:34:21 GMT 52.511063 13.922660 4,975 178 319 -1856
2021-11-18 11:34:20 GMT 52.512554 13.922660 5,000 176 320 -1920
2021-11-18 11:34:18 GMT 52.518356 13.921890 5,100 174 325 -2048
2021-11-18 11:34:16 GMT 52.518356 13.921890 5,150 173 326 -2112
2021-11-18 11:34:15 GMT 52.521332 13.921356 5,225 173 329 -2240
2021-11-18 11:34:13 GMT 52.522842 13.921051 5,250 173 330 -2240
2021-11-18 11:34:12 GMT 52.525909 13.920441 5,325 173 332 -2304
2021-11-18 11:34:10 GMT 52.527420 13.920135 5,350 173 333 -2304
2021-11-18 11:34:09 GMT 52.528931 13.919830 5,400 172 334 -2368
2021-11-18 11:34:08 GMT 52.531082 13.919449 5,500 173 336 -2368
2021-11-18 11:34:05 GMT 52.535599 13.918501 5,575 172 339 -2368
2021-11-18 11:34:04 GMT 52.536987 13.918228 5,600 172 339 -2368
2021-11-18 11:34:02 GMT 52.540421 13.917542 5,700 172 341 -2432
2021-11-18 11:34:00 GMT 52.543533 13.916855 5,775 172 345 -2240
2021-11-18 11:33:58 GMT 52.546535 13.916225 5,850 172 345 -2240
2021-11-18 11:33:56 GMT 52.548119 13.915911 5,900 172 345 -2240
2021-11-18 11:33:55 GMT 52.549576 13.915634 5,950 172 348 -2176
2021-11-18 11:33:54 GMT 52.551006 13.915362 5,950 172 349 -2112
2021-11-18 11:33:53 GMT 52.552635 13.914969 6,000 172 351 -2048
2021-11-18 11:33:51 GMT 52.556824 13.914106 6,050 172 354 -1984
2021-11-18 11:33:49 GMT 52.559433 13.913557 6,125 172 358 -1920
2021-11-18 11:33:46 GMT 52.563389 13.912694 6,200 172 360 -1920
2021-11-18 11:33:45 GMT 52.565018 13.912380 6,225 172 363 -1920
2021-11-18 11:33:44 GMT 52.568043 13.911752 6,300 172 365 -1920
2021-11-18 11:33:41 GMT 52.573288 13.910675 6,375 172 372 -1856
2021-11-18 11:33:40 GMT 52.575119 13.910261 6,425 172 373 -1856
2021-11-18 11:33:39 GMT 52.579788 13.909302 6,475 172 375 -1856
2021-11-18 11:33:37 GMT 52.579788 13.909302 6,525 172 376 -1856
2021-11-18 11:33:36 GMT 52.581360 13.909005 6,525 172 378 -1856
2021-11-18 11:33:34 GMT 52.584805 13.908299 6,575 172 382 -1792
2021-11-18 11:33:33 GMT 52.586746 13.907852 6,625 172 382 -1792
2021-11-18 11:33:32 GMT 52.588341 13.907593 6,650 172 384 -1728
2021-11-18 11:33:31 GMT 52.594391 13.906337 6,700 173 389 -1728
2021-11-18 11:33:29 GMT 52.594391 13.906337 6,775 173 391 -1984
2021-11-18 11:33:26 GMT 52.599747 13.905317 6,850 173 392 -1920
2021-11-18 11:33:25 GMT 52.600662 13.905106 6,850 173 392 -1920
2021-11-18 11:33:24 GMT 52.603378 13.904611 6,975 173 394 -1920
2021-11-18 11:33:21 GMT 52.609360 13.903427 7,025 172 396 -1920
2021-11-18 11:33:19 GMT 52.612976 13.902664 7,075 172 396 -1920
2021-11-18 11:33:18 GMT 52.615906 13.902054 7,125 172 397 -1920
2021-11-18 11:33:15 GMT 52.619888 13.901215 7,200 172 398 -1920
2021-11-18 11:33:13 GMT 52.623348 13.900530 7,275 172 399 -1920
2021-11-18 11:33:12 GMT 52.625381 13.900070 7,300 172 400 -1856
2021-11-18 11:33:10 GMT 52.632706 13.898621 7,400 172 401 -1856
2021-11-18 11:33:08 GMT 52.632706 13.898621 7,425 172 402 -1856
2021-11-18 11:33:06 GMT 52.636414 13.897858 7,500 172 401 -1856
2021-11-18 11:33:05 GMT 52.638058 13.897470 7,525 173 402 -1856
2021-11-18 11:33:03 GMT 52.642319 13.896637 7,600 173 403 -1920
2021-11-18 11:33:02 GMT 52.646206 13.895900 7,650 173 404 -1920
2021-11-18 11:33:00 GMT 52.647903 13.895569 7,675 173 404 -1920
2021-11-18 11:32:59 GMT 52.649734 13.895187 7,725 173 405 -1856
2021-11-18 11:32:56 GMT 52.654953 13.894119 7,800 172 407 -1856
2021-11-18 11:32:55 GMT 52.656830 13.893738 7,825 172 407 -1856
2021-11-18 11:32:51 GMT 52.665989 13.891898 8,000 172 409 -1856
2021-11-18 11:32:48 GMT 52.670700 13.890915 8,075 172 411 -1856
2021-11-18 11:32:46 GMT 52.673531 13.890250 8,100 172 411 -1856
2021-11-18 11:32:45 GMT 52.676331 13.889694 8,150 172 411 -1856
2021-11-18 11:32:43 GMT 52.678791 13.889151 8,200 172 412 -1856
2021-11-18 11:32:42 GMT 52.681641 13.888474 8,225 172 412 -1856
2021-11-18 11:32:41 GMT 52.683727 13.888053 8,275 172 413 -1856
2021-11-18 11:32:39 GMT 52.686752 13.887425 8,325 172 413 -1856
2021-11-18 11:32:38 GMT 52.693405 13.885956 8,425 172 415 -1856
2021-11-18 11:32:36 GMT 52.693405 13.885956 8,425 172 415 -1856
2021-11-18 11:32:35 GMT 52.695282 13.885574 8,450 172 415 -1856
2021-11-18 11:32:33 GMT 52.698715 13.884888 8,525 172 415 -1856
2021-11-18 11:32:31 GMT 52.702347 13.884129 8,575 172 416 -1792
2021-11-18 11:32:30 GMT 52.704437 13.883667 8,625 172 416 -1792
2021-11-18 11:32:28 GMT 52.708237 13.882828 8,675 172 416 -1792
2021-11-18 11:32:27 GMT 52.710354 13.882403 8,700 172 416 -1792
2021-11-18 11:32:25 GMT 52.714916 13.881461 8,850 172 416 -1728
2021-11-18 11:32:22 GMT 52.718948 13.880615 8,850 172 416 -1728
2021-11-18 11:32:21 GMT 52.721806 13.880048 8,875 172 416 -1728
2021-11-18 11:32:20 GMT 52.723717 13.879656 8,925 172 416 -1728
2021-11-18 11:32:18 GMT 52.726181 13.879166 8,950 172 416 -1728
2021-11-18 11:32:17 GMT 52.728275 13.878714 8,975 172 416 -1664
2021-11-18 11:32:15 GMT 52.733093 13.877792 9,050 172 416 -1600
2021-11-18 11:32:14 GMT 52.734970 13.877411 9,075 172 416 -1600
2021-11-18 11:32:12 GMT 52.739548 13.876495 9,125 172 416 -1472
2021-11-18 11:32:10 GMT 52.745083 13.875340 9,200 172 417 -1472
2021-11-18 11:32:08 GMT 52.747036 13.874948 9,225 172 417 -1472
2021-11-18 11:32:07 GMT 52.749115 13.874512 9,250 172 417 -1472
2021-11-18 11:32:05 GMT 52.752762 13.873771 9,300 172 418 -1408
2021-11-18 11:32:04 GMT 52.754883 13.873367 9,325 172 418 -1408
2021-11-18 11:32:03 GMT 52.756954 13.872907 9,350 172 418 -1408
2021-11-18 11:32:01 GMT 52.760605 13.872223 9,400 172 418 -1408
2021-11-18 11:31:58 GMT 52.764633 13.871338 9,450 172 418 -1408
2021-11-18 11:31:57 GMT 52.766373 13.871002 9,475 172 418 -1408
2021-11-18 11:31:56 GMT 52.768124 13.870632 9,500 172 419 -1408
2021-11-18 11:31:55 GMT 52.770218 13.870239 9,525 172 419 -1408
2021-11-18 11:31:53 GMT 52.773697 13.869476 9,550 172 419 -1344
2021-11-18 11:31:52 GMT 52.776180 13.868984 9,600 172 419 -1344
2021-11-18 11:31:49 GMT 52.782898 13.867645 9,675 172 419 -1280
2021-11-18 11:31:47 GMT 52.785599 13.867035 9,725 172 419 -1280
2021-11-18 11:31:45 GMT 52.789261 13.866316 9,750 172 419 -1280
2021-11-18 11:31:44 GMT 52.791733 13.865814 9,775 172 419 -1216
2021-11-18 11:31:43 GMT 52.793495 13.865452 9,800 172 419 -1216
2021-11-18 11:31:42 GMT 52.796768 13.864746 9,825 172 419 -1088
2021-11-18 11:31:39 GMT 52.800980 13.863907 9,875 172 419 -960
2021-11-18 11:31:36 GMT 52.806950 13.862627 9,900 172 419 -896
2021-11-18 11:31:35 GMT 52.808487 13.862313 9,925 172 418 -768
2021-11-18 11:31:34 GMT 52.810394 13.861921 9,925 172 418 -768
2021-11-18 11:31:33 GMT 52.815002 13.860979 9,950 172 418 -448
2021-11-18 11:31:29 GMT 52.820572 13.859863 9,975 172 417 -192
2021-11-18 11:31:27 GMT 52.824223 13.859096 9,975 172 416 -192
2021-11-18 11:31:26 GMT 52.826130 13.858704 10,000 172 416 -256
2021-11-18 11:31:25 GMT 52.828217 13.858261 10,000 172 416 -192
2021-11-18 11:31:23 GMT 52.832016 13.857422 10,000 172 415 -64
2021-11-18 11:31:22 GMT 52.833717 13.857056 10,000 172 415 -64
2021-11-18 11:31:19 GMT 52.838882 13.855972 10,000 172 415 -64
2021-11-18 11:31:16 GMT 52.845963 13.854545 10,000 172 417 -256
2021-11-18 11:31:15 GMT 52.847870 13.854152 10,000 172 417 -256
2021-11-18 11:31:13 GMT 52.851471 13.853378 10,000 172 418 -320
2021-11-18 11:31:12 GMT 52.853027 13.853073 10,000 172 418 -384
2021-11-18 11:31:11 GMT 52.855133 13.852661 10,025 173 419 -512
2021-11-18 11:31:10 GMT 52.856873 13.852310 10,025 173 420 -640
2021-11-18 11:31:07 GMT 52.862438 13.851170 10,050 173 422 -896
2021-11-18 11:31:05 GMT 52.866302 13.850385 10,075 173 422 -1152
2021-11-18 11:31:03 GMT 52.870789 13.849487 10,125 173 425 -1472
2021-11-18 11:31:02 GMT 52.872711 13.849106 10,150 173 426 -1600
2021-11-18 11:31:00 GMT 52.875660 13.848580 10,200 173 427 -1792
2021-11-18 11:30:59 GMT 52.877838 13.848190 10,300 173 429 -2176
2021-11-18 11:30:57 GMT 52.882141 13.847351 10,300 173 430 -2368
2021-11-18 11:30:55 GMT 52.886124 13.846664 10,375 173 431 -2560
2021-11-18 11:30:54 GMT 52.888092 13.846283 10,425 173 431 -2688
2021-11-18 11:30:52 GMT 52.896011 13.844833 10,575 173 433 -2816
2021-11-18 11:30:50 GMT 52.896011 13.844833 10,600 173 433 -2816
2021-11-18 11:30:47 GMT 52.902420 13.843689 10,750 173 434 -2816
2021-11-18 11:30:46 GMT 52.904388 13.843307 10,800 173 435 -2816
2021-11-18 11:30:44 GMT 52.908199 13.842616 10,900 173 436 -2816
2021-11-18 11:30:43 GMT 52.910202 13.842224 10,950 173 437 -2880
2021-11-18 11:30:41 GMT 52.913223 13.841705 11,025 173 437 -2944
2021-11-18 11:30:39 GMT 52.918442 13.840637 11,150 173 439 -3008
2021-11-18 11:30:38 GMT 52.920044 13.840332 11,225 172 439 -3008
2021-11-18 11:30:36 GMT 52.924263 13.839478 11,275 172 439 -3008
2021-11-18 11:30:35 GMT 52.926311 13.839085 11,350 172 440 -3008
2021-11-18 11:30:34 GMT 52.928101 13.838730 11,375 172 440 -3008
2021-11-18 11:30:32 GMT 52.932129 13.837814 11,425 172 441 -3008
2021-11-18 11:30:31 GMT 52.933990 13.837437 11,525 172 441 -3072
2021-11-18 11:30:30 GMT 52.935993 13.837045 11,600 172 442 -3008
2021-11-18 11:30:29 GMT 52.937805 13.836670 11,650 172 442 -3008
2021-11-18 11:30:28 GMT 52.942703 13.835602 11,725 172 443 -3008
2021-11-18 11:30:26 GMT 52.944511 13.835240 11,800 172 443 -3008
2021-11-18 11:30:25 GMT 52.946732 13.834763 11,850 172 443 -3008
2021-11-18 11:30:24 GMT 52.948563 13.834377 11,900 172 444 -3008
2021-11-18 11:30:22 GMT 52.954880 13.833084 12,050 172 445 -3072
2021-11-18 11:30:19 GMT 52.959000 13.832245 12,150 172 446 -3072
2021-11-18 11:30:17 GMT 52.963074 13.831406 12,275 173 446 -3136
2021-11-18 11:30:16 GMT 52.964901 13.831002 12,300 173 447 -3136
2021-11-18 11:30:14 GMT 52.968624 13.830296 12,375 173 447 -3136
2021-11-18 11:30:13 GMT 52.970856 13.829803 12,475 173 448 -3136
2021-11-18 11:30:12 GMT 52.972916 13.829422 12,525 173 448 -3136
2021-11-18 11:30:11 GMT 52.978867 13.828177 12,625 173 448 -3136
2021-11-18 11:30:09 GMT 52.978867 13.828177 12,675 172 449 -3072
2021-11-18 11:30:08 GMT 52.980961 13.827785 12,700 172 449 -3136
2021-11-18 11:30:07 GMT 52.983215 13.827286 13,000 172 449 -3072
2021-11-18 11:30:05 GMT 52.990040 13.825902 13,000 172 451 -3072
2021-11-18 11:30:02 GMT 52.993103 13.825302 13,000 172 451 -3072
2021-11-18 11:30:01 GMT 52.995392 13.824803 13,050 172 451 -3008
2021-11-18 11:30:00 GMT 52.997070 13.824489 13,100 172 451 -3008
2021-11-18 11:29:59 GMT 53.000153 13.823776 13,150 172 452 -3008
2021-11-18 11:29:58 GMT 53.002422 13.823312 13,225 172 452 -3008
2021-11-18 11:29:56 GMT 53.006565 13.822370 13,325 172 453 -2944
2021-11-18 11:29:55 GMT 53.008896 13.821945 13,375 172 453 -2944
2021-11-18 11:29:53 GMT 53.012852 13.821036 13,475 172 454 -2944
2021-11-18 11:29:52 GMT 53.014900 13.820565 13,525 172 455 -2944
2021-11-18 11:29:50 GMT 53.018250 13.819859 13,575 172 455 -2944
2021-11-18 11:29:49 GMT 53.021183 13.819231 13,700 172 456 -2880
2021-11-18 11:29:48 GMT 53.022442 13.818996 13,725 172 456 -2880
2021-11-18 11:29:47 GMT 53.024536 13.818525 13,750 172 457 -2944
2021-11-18 11:29:45 GMT 53.029564 13.817426 13,850 172 458 -2944
2021-11-18 11:29:44 GMT 53.031658 13.816956 13,900 172 458 -2944
2021-11-18 11:29:43 GMT 53.033981 13.816452 13,950 172 458 -2880
2021-11-18 11:29:42 GMT 53.038193 13.815536 14,000 172 459 -2880
2021-11-18 11:29:40 GMT 53.040085 13.815151 14,100 172 460 -2880
2021-11-18 11:29:39 GMT 53.042179 13.814680 14,150 172 460 -2880
2021-11-18 11:29:38 GMT 53.046204 13.813782 14,225 172 462 -2880
2021-11-18 11:29:36 GMT 53.048092 13.813424 14,275 172 462 -2880
2021-11-18 11:29:33 GMT 53.055305 13.811776 14,450 172 464 -2880
2021-11-18 11:29:31 GMT 53.058704 13.810992 14,525 172 465 -2880
2021-11-18 11:29:30 GMT 53.060623 13.810577 14,550 172 465 -2816
2021-11-18 11:29:29 GMT 53.062775 13.810120 14,600 172 466 -2816
2021-11-18 11:29:28 GMT 53.064663 13.809658 14,675 172 466 -2816
2021-11-18 11:29:25 GMT 53.071087 13.808245 14,775 173 468 -2688
2021-11-18 11:29:23 GMT 53.076462 13.807144 14,875 173 469 -2624
2021-11-18 11:29:21 GMT 53.081375 13.806283 15,000 174 469 -2688
2021-11-18 11:29:20 GMT 53.083565 13.805891 15,050 174 470 -2688
2021-11-18 11:29:17 GMT 53.088547 13.805084 15,150 175 472 -2688
2021-11-18 11:29:16 GMT 53.091805 13.804557 15,200 175 472 -2752
2021-11-18 11:29:15 GMT 53.096550 13.803998 15,300 175 473 -2752
2021-11-18 11:29:13 GMT 53.098740 13.803675 15,350 176 473 -2752
2021-11-18 11:29:12 GMT 53.100723 13.803458 15,375 176 474 -2880
2021-11-18 11:29:11 GMT 53.102695 13.803271 15,425 176 474 -2880
2021-11-18 11:29:08 GMT 53.108597 13.802752 15,550 177 475 -2944
2021-11-18 11:29:07 GMT 53.109467 13.802673 15,575 177 475 -3008
2021-11-18 11:29:06 GMT 53.111866 13.802463 15,625 177 476 -3008
2021-11-18 11:29:05 GMT 53.115646 13.802202 15,725 178 476 -3072
2021-11-18 11:29:03 GMT 53.118477 13.802059 15,775 178 477 -3136
2021-11-18 11:29:02 GMT 53.120911 13.801967 15,825 178 477 -3136
2021-11-18 11:29:01 GMT 53.125553 13.801817 15,950 179 478 -3328
2021-11-18 11:28:59 GMT 53.126858 13.801817 15,975 179 478 -3328
2021-11-18 11:28:58 GMT 53.129089 13.801736 16,025 179 478 -3328
2021-11-18 11:28:57 GMT 53.131279 13.801736 16,100 181 478 -3392
2021-11-18 11:28:55 GMT 53.136585 13.801817 16,225 182 479 -3456
2021-11-18 11:28:53 GMT 53.140366 13.801967 16,325 182 479 -3520
2021-11-18 11:28:51 GMT 53.144760 13.802202 16,400 183 479 -3584
2021-11-18 11:28:50 GMT 53.147202 13.802302 16,500 183 478 -3584
2021-11-18 11:28:49 GMT 53.149387 13.802463 16,550 183 478 -3648
2021-11-18 11:28:48 GMT 53.151623 13.802706 16,625 184 478 -3712
2021-11-18 11:28:46 GMT 53.155579 13.803029 16,750 185 479 -3776
2021-11-18 11:28:45 GMT 53.158699 13.803433 16,825 185 478 -3776
2021-11-18 11:28:44 GMT 53.163074 13.803998 16,950 186 478 -3776
2021-11-18 11:28:42 GMT 53.165310 13.804241 17,000 186 478 -3776
2021-11-18 11:28:41 GMT 53.167282 13.804557 17,075 186 479 -3776
2021-11-18 11:28:40 GMT 53.169479 13.804949 17,125 186 478 -3776
2021-11-18 11:28:38 GMT 53.173462 13.805577 17,250 187 478 -3776
2021-11-18 11:28:37 GMT 53.175877 13.806018 17,325 187 478 -3776
2021-11-18 11:28:35 GMT 53.182022 13.807310 17,450 188 478 -3584
2021-11-18 11:28:34 GMT 53.182022 13.807310 17,475 188 478 -3584
2021-11-18 11:28:33 GMT 53.184402 13.807853 17,550 189 478 -3520
2021-11-18 11:28:32 GMT 53.187283 13.808441 17,625 189 478 -3456
2021-11-18 11:28:30 GMT 53.192078 13.809653 17,750 189 479 -3328
2021-11-18 11:28:29 GMT 53.193192 13.809893 17,775 189 479 -3328
2021-11-18 11:28:28 GMT 53.198219 13.811188 17,900 189 480 -3136
2021-11-18 11:28:26 GMT 53.200409 13.811672 17,950 189 481 -3072
2021-11-18 11:28:24 GMT 53.205002 13.812796 18,075 189 481 -3008
2021-11-18 11:28:23 GMT 53.206329 13.813110 18,100 189 481 -3008
2021-11-18 11:28:21 GMT 53.215164 13.815229 18,275 189 483 -2880
2021-11-18 11:28:19 GMT 53.215164 13.815229 18,275 189 483 -2880
2021-11-18 11:28:18 GMT 53.220242 13.816439 18,400 188 485 -2880
2021-11-18 11:28:15 GMT 53.224503 13.817426 18,500 188 486 -2880
2021-11-18 11:28:13 GMT 53.228714 13.818458 18,550 188 486 -2880
2021-11-18 11:28:10 GMT 53.236301 13.820155 18,750 188 490 -2944
2021-11-18 11:28:07 GMT 53.241898 13.821429 19,250 188 494 -3072
2021-11-18 11:28:04 GMT 53.254990 13.824411 19,150 188 493 -3008
2021-11-18 11:28:01 GMT 53.254990 13.824411 19,150 188 493 -3008
2021-11-18 11:28:00 GMT 53.257435 13.825001 19,200 188 494 -3072
2021-11-18 11:27:59 GMT 53.263092 13.826215 19,300 188 495 -3072
2021-11-18 11:27:58 GMT 53.263092 13.826215 19,325 188 495 -3136
2021-11-18 11:27:57 GMT 53.265381 13.826765 19,375 188 496 -3136
2021-11-18 11:27:56 GMT 53.267864 13.827344 19,450 188 496 -3200
2021-11-18 11:27:54 GMT 53.272427 13.828394 19,550 188 497 -3200
2021-11-18 11:27:53 GMT 53.274490 13.828805 19,575 188 497 -3264
2021-11-18 11:27:52 GMT 53.276733 13.829354 19,650 188 497 -3264
2021-11-18 11:27:50 GMT 53.281311 13.830375 19,750 188 498 -3264
2021-11-18 11:27:49 GMT 53.283833 13.830979 19,800 188 498 -3264
2021-11-18 11:27:47 GMT 53.288811 13.832110 19,925 188 498 -3264
2021-11-18 11:27:44 GMT 53.293167 13.833200 20,025 189 500 -3264
2021-11-18 11:27:42 GMT 53.300262 13.834857 20,150 189 500 -3200
2021-11-18 11:27:41 GMT 53.302128 13.835261 20,250 189 502 -3200
2021-11-18 11:27:40 GMT 53.304405 13.835826 20,300 189 502 -3136
2021-11-18 11:27:39 GMT 53.311298 13.837442 20,400 189 503 -3072
2021-11-18 11:27:37 GMT 53.311298 13.837442 20,550 189 505 -2944
2021-11-18 11:27:34 GMT 53.317062 13.838850 20,650 189 505 -2944
2021-11-18 11:27:31 GMT 53.324192 13.840512 20,725 189 506 -2944
2021-11-18 11:27:28 GMT 53.331127 13.842127 20,875 189 506 -2816
2021-11-18 11:27:25 GMT 53.341370 13.844551 21,075 188 509 -2944
2021-11-18 11:27:22 GMT 53.346268 13.845677 21,175 188 510 -2944
2021-11-18 11:27:20 GMT 53.350727 13.846732 21,275 188 511 -3008
2021-11-18 11:27:19 GMT 53.355148 13.847717 21,350 188 512 -3008
2021-11-18 11:27:17 GMT 53.357288 13.848267 21,400 188 513 -3072
2021-11-18 11:27:16 GMT 53.360085 13.848913 21,475 188 513 -3072
2021-11-18 11:27:15 GMT 53.365036 13.849993 21,575 188 514 -3072
2021-11-18 11:27:13 GMT 53.366913 13.850385 21,600 188 515 -3072
2021-11-18 11:27:12 GMT 53.369293 13.850935 21,675 188 515 -3008
2021-11-18 11:27:09 GMT 53.377762 13.852818 21,900 188 518 -2944
2021-11-18 11:27:06 GMT 53.382290 13.853841 22,100 188 530 -2624
2021-11-18 11:27:02 GMT 53.394672 13.856587 22,175 188 521 -2752
2021-11-18 11:26:57 GMT 53.406876 13.859253 22,525 188 530 -2624
2021-11-18 11:26:53 GMT 53.416782 13.861353 22,750 188 529 -2624
2021-11-18 11:26:49 GMT 53.426933 13.863615 22,750 188 530 -2624
2021-11-18 11:26:46 GMT 53.430843 13.864423 22,925 188 535 -3392
2021-11-18 11:26:43 GMT 53.439640 13.866362 23,100 188 534 -3200
2021-11-18 11:26:40 GMT 53.448166 13.868199 23,250 188 535 -3520
2021-11-18 11:26:37 GMT 53.454575 13.869611 23,350 188 536 -3776
2021-11-18 11:26:36 GMT 53.457001 13.870161 23,425 188 536 -3968
2021-11-18 11:26:35 GMT 53.459240 13.870643 23,475 188 536 -4096
2021-11-18 11:26:34 GMT 53.461708 13.871209 23,550 188 536 -4224
2021-11-18 11:26:32 GMT 53.466843 13.872280 23,675 188 536 -4480
2021-11-18 11:26:31 GMT 53.469315 13.872829 23,750 188 536 -4608
2021-11-18 11:26:30 GMT 53.471531 13.873309 23,825 188 535 -4800
2021-11-18 11:26:28 GMT 53.476685 13.874477 24,000 188 535 -4800
2021-11-18 11:26:27 GMT 53.478607 13.874869 24,050 188 535 -4864
2021-11-18 11:26:26 GMT 53.482040 13.875654 24,175 188 534 -4928
2021-11-18 11:26:24 GMT 53.485977 13.876517 29,050 136 578 -576
2021-11-18 11:26:22 GMT 53.490875 13.877537 24,600 188 533 -4800
2021-11-18 11:26:19 GMT 53.498947 13.879287 24,725 188 533 -4608
2021-11-18 11:26:17 GMT 53.503555 13.880284 24,875 188 532 -4224
2021-11-18 11:26:15 GMT 53.508213 13.881306 25,000 188 532 -4224
2021-11-18 11:26:14 GMT 53.513565 13.882518 25,150 188 532 -4032
2021-11-18 11:26:12 GMT 53.516499 13.883084 25,250 188 532 -3904
2021-11-18 11:26:11 GMT 53.517700 13.883423 25,275 188 532 -3776
2021-11-18 11:26:10 GMT 53.521133 13.884129 25,375 188 532 -3648
2021-11-18 11:26:08 GMT 53.526031 13.885228 25,475 188 533 -3136
2021-11-18 11:26:07 GMT 53.528458 13.885777 25,525 188 533 -2880
2021-11-18 11:26:06 GMT 53.530884 13.886326 25,575 188 534 -2752
2021-11-18 11:26:04 GMT 53.540939 13.888577 25,675 188 534 -2560
2021-11-18 11:26:02 GMT 53.540939 13.888577 25,750 188 536 -2112
2021-11-18 11:26:00 GMT 53.544617 13.889387 25,800 188 536 -2048
2021-11-18 11:25:59 GMT 53.548050 13.890172 25,850 188 537 -1984
2021-11-18 11:25:58 GMT 53.550251 13.890677 25,875 188 538 -1984
2021-11-18 11:25:57 GMT 53.555183 13.891808 25,925 188 539 -2048
2021-11-18 11:25:54 GMT 53.559654 13.892858 26,000 188 541 -1920
2021-11-18 11:25:53 GMT 53.565563 13.894231 26,100 188 541 -1856
2021-11-18 11:25:51 GMT 53.568031 13.894797 26,125 188 542 -1856
2021-11-18 11:25:50 GMT 53.570499 13.895362 26,150 188 542 -1792
2021-11-18 11:25:48 GMT 53.574970 13.896413 26,225 188 543 -1728
2021-11-18 11:25:47 GMT 53.577209 13.896920 26,225 188 543 -1728
2021-11-18 11:25:46 GMT 53.580185 13.897627 26,275 188 544 -1664
2021-11-18 11:25:44 GMT 53.585175 13.898804 26,325 188 545 -1600
2021-11-18 11:25:43 GMT 53.587444 13.899321 26,350 188 546 -1536
2021-11-18 11:25:42 GMT 53.590164 13.899981 26,400 188 546 -1536
2021-11-18 11:25:40 GMT 53.594650 13.901001 26,425 188 547 -1472
2021-11-18 11:25:39 GMT 53.597408 13.901663 26,450 188 547 -1472
2021-11-18 11:25:38 GMT 53.602436 13.902794 26,500 188 549 -1408
2021-11-18 11:25:36 GMT 53.604675 13.903355 26,525 188 549 -1408
2021-11-18 11:25:35 GMT 53.607193 13.903905 26,550 188 550 -1408
2021-11-18 11:25:34 GMT 53.614746 13.905709 26,625 188 551 -1344
2021-11-18 11:25:32 GMT 53.614746 13.905709 26,625 188 552 -1280
2021-11-18 11:25:31 GMT 53.617264 13.906259 26,650 189 552 -1216
2021-11-18 11:25:29 GMT 53.623104 13.907641 26,675 188 554 -1088
2021-11-18 11:25:27 GMT 53.628178 13.908853 26,725 188 555 -1024
2021-11-18 11:25:26 GMT 53.633251 13.910065 26,750 188 556 -1024
2021-11-18 11:25:24 GMT 53.635765 13.910630 26,775 188 558 -1024
2021-11-18 11:25:21 GMT 53.640656 13.911752 26,800 188 559 -1024
2021-11-18 11:25:19 GMT 53.647034 13.913296 27,025 188 567 -1472
2021-11-18 11:25:16 GMT 53.653736 13.914831 26,875 188 564 -1088
2021-11-18 11:25:14 GMT 53.658600 13.915989 26,925 188 565 -1216
2021-11-18 11:25:13 GMT 53.661465 13.916689 26,950 188 565 -1216
2021-11-18 11:25:10 GMT 53.669998 13.918658 27,025 188 568 -1536
2021-11-18 11:25:08 GMT 53.674915 13.919759 27,075 188 568 -1664
2021-11-18 11:25:07 GMT 53.677525 13.920405 27,100 188 569 -1856
2021-11-18 11:25:05 GMT 53.682999 13.921640 27,175 188 570 -2048
2021-11-18 11:25:03 GMT 53.687950 13.922747 27,225 188 571 -2240
2021-11-18 11:25:01 GMT 53.693436 13.923994 27,300 188 572 -2432
2021-11-18 11:25:00 GMT 53.695820 13.924525 27,350 188 572 -2432
2021-11-18 11:24:58 GMT 53.700520 13.925575 27,425 188 571 -2560
2021-11-18 11:24:57 GMT 53.703129 13.926221 27,475 188 572 -2944
2021-11-18 11:24:55 GMT 53.709923 13.927675 27,625 188 572 -2944
2021-11-18 11:24:52 GMT 53.716507 13.929173 27,725 188 572 -3072
2021-11-18 11:24:51 GMT 53.719376 13.929775 27,775 188 572 -3136
2021-11-18 11:24:49 GMT 53.724380 13.930899 27,875 188 572 -3136
2021-11-18 11:24:47 GMT 53.729336 13.931957 27,975 188 571 -3328
2021-11-18 11:24:44 GMT 53.737202 13.933653 28,150 188 571 -3200
2021-11-18 11:24:42 GMT 53.743488 13.935026 28,275 188 571 -3200
2021-11-18 11:24:41 GMT 53.744797 13.935294 28,300 188 571 -3200
2021-11-18 11:24:39 GMT 53.748962 13.936157 28,375 188 571 -3072
2021-11-18 11:24:38 GMT 53.752625 13.936942 28,450 188 570 -2880
2021-11-18 11:24:35 GMT 53.762009 13.938904 28,625 187 569 -2688
2021-11-18 11:24:34 GMT 53.763317 13.939146 28,625 187 569 -2624
2021-11-18 11:24:33 GMT 53.766220 13.939689 28,675 187 568 -2496
2021-11-18 11:24:32 GMT 53.771652 13.940843 28,750 187 566 -2176
2021-11-18 11:24:30 GMT 53.774002 13.941336 28,800 187 565 -1984
2021-11-18 11:24:29 GMT 53.776611 13.941807 28,825 187 565 -1984
2021-11-18 11:24:27 GMT 53.784126 13.943266 28,900 187 564 -1472
2021-11-18 11:24:25 GMT 53.787247 13.943912 28,925 187 563 -1280
2021-11-18 11:24:24 GMT 53.792416 13.944882 28,975 187 563 -1024
2021-11-18 11:24:22 GMT 53.795242 13.945339 28,975 186 562 -896
2021-11-18 11:24:20 GMT 53.800655 13.946336 29,000 186 561 -768
2021-11-18 11:24:18 GMT 53.806091 13.947222 29,050 186 561 -320
2021-11-18 11:24:16 GMT 53.813595 13.948355 29,050 185 560 0
2021-11-18 11:24:13 GMT 53.817947 13.948948 29,050 185 560 64
2021-11-18 11:24:11 GMT 53.823624 13.949576 29,050 183 560 128
2021-11-18 11:24:10 GMT 53.826233 13.949812 29,050 183 560 128
2021-11-18 11:24:08 GMT 53.830124 13.950132 29,050 183 560 64
2021-11-18 11:24:06 GMT 53.836826 13.950536 29,050 181 560 -256
2021-11-18 11:24:05 GMT 53.839432 13.950617 29,050 181 560 -384
2021-11-18 11:24:04 GMT 53.841991 13.950617 29,050 179 560 -320
2021-11-18 11:24:03 GMT 53.844601 13.950617 29,075 178 559 -320
2021-11-18 11:23:59 GMT 53.854935 13.950132 29,150 176 560 -832
2021-11-18 11:23:56 GMT 53.862396 13.949419 29,200 175 562 -1280
2021-11-18 11:23:54 GMT 53.867615 13.948713 29,250 174 564 -1664
2021-11-18 11:23:50 GMT 53.877960 13.946830 29,400 172 567 -2304
2021-11-18 11:23:49 GMT 53.883179 13.945574 29,475 171 568 -2624
2021-11-18 11:23:46 GMT 53.889404 13.943926 29,600 170 570 -2944
2021-11-18 11:23:44 GMT 53.893291 13.942781 29,675 169 570 -3072
2021-11-18 11:23:43 GMT 53.896133 13.941886 29,725 168 572 -3456
2021-11-18 11:23:42 GMT 53.899998 13.940519 29,800 167 572 -3584
2021-11-18 11:23:40 GMT 53.904922 13.938747 29,875 166 574 -3968
2021-11-18 11:23:37 GMT 53.910843 13.936319 30,075 165 574 -4288
2021-11-18 11:23:36 GMT 53.914474 13.934703 30,175 164 575 -4480
2021-11-18 11:23:34 GMT 53.919846 13.932234 30,300 164 576 -4608
2021-11-18 11:23:30 GMT 53.932571 13.925563 30,725 161 577 -4544
2021-11-18 11:23:27 GMT 53.936356 13.923313 30,850 160 578 -4608
2021-11-18 11:23:25 GMT 53.942642 13.919521 31,050 159 577 -5248
2021-11-18 11:23:24 GMT 53.945850 13.917416 31,150 158 577 -5504
2021-11-18 11:23:23 GMT 53.948090 13.915989 31,225 158 577 -5760
2021-11-18 11:23:22 GMT 53.958652 13.908449 31,675 156 577 -6080
2021-11-18 11:23:19 GMT 53.962051 13.905864 31,825 154 574 -6400
2021-11-18 11:23:16 GMT 53.964706 13.903826 31,950 154 574 -6400
2021-11-18 11:23:15 GMT 53.967133 13.901864 32,075 154 573 -6528
2021-11-18 11:23:14 GMT 53.969009 13.900295 32,150 153 572 -6656
2021-11-18 11:23:13 GMT 53.971848 13.897940 32,275 153 571 -6720
2021-11-18 11:23:12 GMT 53.974014 13.896170 32,400 152 570 -6784
2021-11-18 11:23:11 GMT 53.977020 13.893467 32,550 151 569 -6848
2021-11-18 11:23:09 GMT 53.981464 13.889465 32,775 151 568 -6848
2021-11-18 11:23:07 GMT 53.986958 13.884376 33,425 149 563 -6656
2021-11-18 11:23:03 GMT 53.997116 13.874398 33,625 148 561 -6336
2021-11-18 11:23:00 GMT 54.001759 13.869512 33,925 147 560 -5888
2021-11-18 11:22:56 GMT 54.009953 13.860465 34,300 143 555 -4480
2021-11-18 11:22:53 GMT 54.017540 13.851498 34,525 140 554 -3904
2021-11-18 11:22:49 GMT 54.026199 13.840592 35,050 137 554 -3520
2021-11-18 11:22:44 GMT 54.040558 13.820251 35,500 135 560 -3200
2021-11-18 11:22:41 GMT 54.040558 13.820251 35,250 137 554 -3520
2021-11-18 11:22:38 GMT 54.046646 13.810913 35,425 137 554 -3520
2021-11-18 11:22:35 GMT 54.056133 13.795678 35,675 136 555 -3328
2021-11-18 11:22:32 GMT 54.056133 13.795678 37,350 136 567 -3200
2021-11-18 11:22:29 GMT 54.062790 13.784772 36,375 135 560 -3200
2021-11-18 11:22:26 GMT 54.068703 13.774997 36,175 135 560 -3200
2021-11-18 11:22:22 GMT 54.075729 13.763365 36,375 135 562 -3264
2021-11-18 11:22:19 GMT 54.081692 13.753590 36,625 135 562 -3264
2021-11-18 11:22:15 GMT 54.089558 13.740665 36,825 136 565 -3136
2021-11-18 11:22:12 GMT 54.094398 13.732668 37,350 136 567 -3200
2021-11-18 11:22:09 GMT 54.099659 13.724105 38,325 136 572 -2624
2021-11-18 11:22:06 GMT 54.106083 13.713603 37,450 136 567 -3136
2021-11-18 11:22:02 GMT 54.113800 13.700893 37,600 136 570 -2688
2021-11-18 11:21:58 GMT 54.121212 13.688803 37,600 136 571 -2560
2021-11-18 11:21:54 GMT 54.128799 13.676444 37,675 136 572 -2624
2021-11-18 11:21:50 GMT 54.137600 13.662145 37,850 136 572 -2496
2021-11-18 11:21:46 GMT 54.145279 13.649705 38,075 136 572 -2368
2021-11-18 11:21:43 GMT 54.149471 13.642919 38,200 136 572 -2368
2021-11-18 11:21:40 GMT 54.157150 13.630560 38,300 136 571 -2240
2021-11-18 11:21:37 GMT 54.161179 13.624067 38,300 136 571 -2240
2021-11-18 11:21:34 GMT 54.167114 13.614565 38,475 136 571 -1984
2021-11-18 11:21:31 GMT 54.172714 13.605626 38,600 136 571 -1728
2021-11-18 11:21:28 GMT 54.184429 13.586857 38,700 136 572 -1536
2021-11-18 11:21:25 GMT 54.184429 13.586857 38,725 136 573 -1216
2021-11-18 11:21:21 GMT 54.192158 13.574497 38,850 136 575 -832
2021-11-18 11:21:18 GMT 54.200089 13.561837 38,875 136 575 -832
2021-11-18 11:21:15 GMT 54.203934 13.555638 38,900 136 575 -832
2021-11-18 11:21:11 GMT 54.212860 13.541277 38,950 136 577 -640
2021-11-18 11:21:06 GMT 54.221207 13.527886 38,975 136 578 -448
2021-11-18 11:21:03 GMT 54.226456 13.519461 38,975 136 578 -384
2021-11-18 11:21:00 GMT 54.232056 13.510356 39,000 136 578 -256
2021-11-18 11:20:57 GMT 54.238861 13.499451 39,000 136 579 -192
2021-11-18 11:20:54 GMT 54.244110 13.490969 39,000 136 579 -64
2021-11-18 11:20:51 GMT 54.251884 13.478447 39,000 136 579 -64
2021-11-18 11:20:48 GMT 54.255375 13.472793 39,000 136 579 64
2021-11-18 11:20:45 GMT 54.261616 13.462776 39,000 136 578 64
2021-11-18 11:20:42 GMT 54.267014 13.454051 38,975 136 578 64
2021-11-18 11:20:39 GMT 54.273251 13.443954 38,975 136 578 64
2021-11-18 11:20:36 GMT 54.280014 13.433048 38,975 136 577 64
2021-11-18 11:20:33 GMT 54.286972 13.421739 38,975 136 577 0
2021-11-18 11:20:30 GMT 54.292786 13.412368 38,975 136 577 0
2021-11-18 11:20:26 GMT 54.298599 13.402997 39,000 136 577 -64
2021-11-18 11:20:23 GMT 54.305145 13.392334 39,000 136 577 -64
2021-11-18 11:20:20 GMT 54.315994 13.374724 39,000 136 577 0
2021-11-18 11:20:17 GMT 54.315994 13.374724 39,000 136 577 -64
2021-11-18 11:20:13 GMT 54.325607 13.359052 39,000 136 577 -64
2021-11-18 11:20:10 GMT 54.331211 13.349887 39,000 135 578 -64
2021-11-18 11:20:06 GMT 54.336937 13.340399 39,000 135 577 -64
2021-11-18 11:20:03 GMT 54.342545 13.331263 39,000 135 577 0
2021-11-18 11:20:00 GMT 54.349823 13.319226 39,000 135 577 0
2021-11-18 11:19:57 GMT 54.354767 13.310987 39,000 135 578 -64
2021-11-18 11:19:54 GMT 54.361679 13.299516 39,000 135 578 -64
2021-11-18 11:19:50 GMT 54.367241 13.290294 38,975 135 578 64
2021-11-18 11:19:47 GMT 54.372597 13.281472 39,000 135 578 64
2021-11-18 11:19:44 GMT 54.379715 13.269707 38,975 135 578 0
2021-11-18 11:19:40 GMT 54.387211 13.257335 38,975 135 578 64
2021-11-18 11:19:37 GMT 54.399456 13.236944 38,975 135 578 0
2021-11-18 11:19:34 GMT 54.399456 13.236944 38,975 135 578 64
2021-11-18 11:19:31 GMT 54.405228 13.227456 38,975 135 578 64
2021-11-18 11:19:28 GMT 54.409607 13.220107 38,975 135 578 0
2021-11-18 11:19:25 GMT 54.416355 13.208979 38,975 135 578 -64
2021-11-18 11:19:22 GMT 54.422653 13.198458 38,975 135 578 -64
2021-11-18 11:19:19 GMT 54.428421 13.188925 38,975 135 578 -64
2021-11-18 11:19:15 GMT 54.434967 13.178101 39,000 135 578 -128
2021-11-18 11:19:12 GMT 54.441833 13.166630 39,000 135 578 -128
2021-11-18 11:19:09 GMT 54.446659 13.158708 39,000 135 579 -64
2021-11-18 11:19:06 GMT 54.451267 13.151051 39,000 135 579 -64
2021-11-18 11:19:03 GMT 54.457947 13.139891 39,000 135 578 0
2021-11-18 11:19:00 GMT 54.464676 13.128745 38,975 135 578 -64
2021-11-18 11:18:57 GMT 54.469070 13.121392 38,975 135 578 0
2021-11-18 11:18:53 GMT 54.478081 13.106357 38,975 135 578 64
2021-11-18 11:18:49 GMT 54.483807 13.096785 38,975 135 577 -64
2021-11-18 11:18:46 GMT 54.489349 13.087544 39,000 135 577 -64
2021-11-18 11:18:43 GMT 54.495483 13.077366 39,000 135 577 -64
2021-11-18 11:18:40 GMT 54.501984 13.066541 39,000 135 577 -128
2021-11-18 11:18:37 GMT 54.508118 13.056362 39,000 135 577 -64
2021-11-18 11:18:34 GMT 54.513428 13.047396 39,000 135 577 -128
2021-11-18 11:18:31 GMT 54.518784 13.038510 39,000 135 577 -128
2021-11-18 11:18:28 GMT 54.525696 13.027039 39,000 135 577 -128
2021-11-18 11:18:25 GMT 54.538879 13.005066 39,000 135 576 -64
2021-11-18 11:18:21 GMT 54.538879 13.005066 39,000 135 576 -64
2021-11-18 11:18:18 GMT 54.543442 12.997409 39,000 135 576 -64
2021-11-18 11:18:15 GMT 54.551285 12.984386 39,000 135 576 0
2021-11-18 11:18:11 GMT 54.559296 12.970976 38,975 135 576 64
2021-11-18 11:18:08 GMT 54.563095 12.964594 39,000 135 575 64
2021-11-18 11:18:05 GMT 54.568626 12.955378 38,975 135 575 64
2021-11-18 11:18:02 GMT 54.579704 12.936901 38,975 135 575 64
2021-11-18 11:17:59 GMT 54.579704 12.936901 38,975 135 575 64
2021-11-18 11:17:55 GMT 54.589050 12.921295 38,975 135 575 64
2021-11-18 11:17:52 GMT 54.593811 12.913430 39,000 135 575 -64
2021-11-18 11:17:49 GMT 54.598793 12.905107 39,000 135 576 -64
2021-11-18 11:17:46 GMT 54.604294 12.895930 39,000 135 576 -64
2021-11-18 11:17:42 GMT 54.612896 12.881553 39,000 135 576 -64
2021-11-18 11:17:39 GMT 54.624161 12.862809 38,975 135 576 -64
2021-11-18 11:17:36 GMT 54.624161 12.862809 39,000 135 576 -64
2021-11-18 11:17:33 GMT 54.630074 12.852922 38,975 135 576 -64
2021-11-18 11:17:30 GMT 54.635971 12.843018 39,000 135 576 -64
2021-11-18 11:17:27 GMT 54.640961 12.834697 38,975 135 576 -64
2021-11-18 11:17:24 GMT 54.648605 12.821934 39,000 135 576 -64
2021-11-18 11:17:20 GMT 54.654888 12.811473 39,000 135 577 -64
2021-11-18 11:17:17 GMT 54.660614 12.801819 39,000 135 576 0
2021-11-18 11:17:14 GMT 54.666340 12.792247 39,000 135 576 0
2021-11-18 11:17:11 GMT 54.673782 12.779765 39,000 135 576 -64
2021-11-18 11:17:08 GMT 54.677372 12.773687 39,000 135 576 -64
2021-11-18 11:17:05 GMT 54.683098 12.764116 39,000 135 575 0
2021-11-18 11:17:02 GMT 54.689568 12.753296 39,000 135 575 0
2021-11-18 11:16:59 GMT 54.695847 12.742687 39,000 135 575 -64
2021-11-18 11:16:56 GMT 54.701569 12.733074 39,000 135 575 -64
2021-11-18 11:16:52 GMT 54.707611 12.722895 39,000 135 574 0
2021-11-18 11:16:50 GMT 54.711262 12.716758 39,000 135 574 0
2021-11-18 11:16:47 GMT 54.717865 12.705527 39,000 135 574 -64
2021-11-18 11:16:44 GMT 54.723175 12.696560 39,000 135 574 0
2021-11-18 11:16:41 GMT 54.728851 12.686947 38,975 135 574 0
2021-11-18 11:16:38 GMT 54.734482 12.677253 39,000 135 574 0
2021-11-18 11:16:35 GMT 54.745197 12.658830 38,975 134 574 64
2021-11-18 11:16:32 GMT 54.751530 12.647761 38,975 134 574 64
2021-11-18 11:16:29 GMT 54.751530 12.647761 38,975 134 574 -64
2021-11-18 11:16:26 GMT 54.757278 12.637589 39,000 133 575 -64
2021-11-18 11:16:23 GMT 54.762085 12.629107 39,000 133 575 -64
2021-11-18 11:16:20 GMT 54.769089 12.616505 39,000 133 575 -64
2021-11-18 11:16:17 GMT 54.774712 12.606229 39,000 133 575 -64
2021-11-18 11:16:13 GMT 54.782021 12.592829 39,000 133 574 -64
2021-11-18 11:16:09 GMT 54.794731 12.569441 38,975 133 575 0
2021-11-18 11:16:06 GMT 54.794731 12.569441 39,000 133 575 0
2021-11-18 11:16:03 GMT 54.798203 12.563109 39,000 133 575 -64
2021-11-18 11:16:00 GMT 54.802917 12.554384 39,000 133 575 -64
2021-11-18 11:15:57 GMT 54.809628 12.541976 38,975 133 575 64
2021-11-18 11:15:53 GMT 54.816891 12.528492 38,975 132 576 0
2021-11-18 11:15:50 GMT 54.824104 12.515009 38,975 132 576 0
2021-11-18 11:15:47 GMT 54.827690 12.508184 38,975 132 576 -64
2021-11-18 11:15:44 GMT 54.833267 12.497675 38,975 132 576 0
2021-11-18 11:15:41 GMT 54.840305 12.484464 38,975 132 576 -64
2021-11-18 11:15:38 GMT 54.844635 12.476307 39,000 132 576 -64
2021-11-18 11:15:34 GMT 54.851257 12.463828 39,000 132 576 -64
2021-11-18 11:15:31 GMT 54.856133 12.454668 38,975 132 576 -64
2021-11-18 11:15:28 GMT 54.862278 12.443182 39,000 132 576 -128
2021-11-18 11:15:25 GMT 54.866234 12.435691 39,000 132 576 -64
2021-11-18 11:15:22 GMT 54.872864 12.423114 39,000 132 576 -64
2021-11-18 11:15:19 GMT 54.878632 12.412289 39,000 132 576 -128
2021-11-18 11:15:16 GMT 54.884205 12.401733 39,000 132 576 0
2021-11-18 11:15:13 GMT 54.889977 12.390830 39,000 132 577 -64
2021-11-18 11:15:10 GMT 54.895748 12.379927 39,000 132 576 -64
2021-11-18 11:15:07 GMT 54.901291 12.369394 39,000 132 576 -64
2021-11-18 11:15:04 GMT 54.904907 12.362527 39,000 132 577 0
2021-11-18 11:15:01 GMT 54.910458 12.351962 39,000 132 577 0
2021-11-18 11:14:58 GMT 54.917450 12.338616 39,000 132 577 -64
2021-11-18 11:14:55 GMT 54.927521 12.319471 39,000 132 577 0
2021-11-18 11:14:52 GMT 54.927521 12.319471 39,000 132 577 0
2021-11-18 11:14:49 GMT 54.933781 12.307517 39,000 132 577 -64
2021-11-18 11:14:46 GMT 54.936993 12.301358 38,975 132 577 64
2021-11-18 11:14:43 GMT 54.944164 12.287625 38,975 132 576 64
2021-11-18 11:14:40 GMT 54.948303 12.279807 38,975 132 576 64
2021-11-18 11:14:36 GMT 54.955124 12.266801 38,975 132 577 64
2021-11-18 11:14:33 GMT 54.961945 12.253795 39,000 132 576 64
2021-11-18 11:14:30 GMT 54.967346 12.243616 38,975 132 576 64
2021-11-18 11:14:27 GMT 54.972748 12.233357 38,975 132 576 -128
2021-11-18 11:14:24 GMT 54.976517 12.226119 38,975 132 577 64
2021-11-18 11:14:21 GMT 54.982986 12.213884 38,975 132 577 64
2021-11-18 11:14:17 GMT 54.994675 12.191674 38,975 132 577 -64
2021-11-18 11:14:14 GMT 54.994675 12.191674 38,975 132 576 0
2021-11-18 11:14:11 GMT 55.001495 12.178668 38,975 132 576 -128
2021-11-18 11:14:08 GMT 55.006897 12.168409 39,000 132 576 -64
2021-11-18 11:14:05 GMT 55.010834 12.160896 39,000 132 577 -128
2021-11-18 11:14:02 GMT 55.017288 12.148536 39,000 132 577 -128
2021-11-18 11:13:59 GMT 55.021069 12.141391 39,000 132 576 -64
2021-11-18 11:13:56 GMT 55.027313 12.129391 39,000 132 576 0
2021-11-18 11:13:53 GMT 55.031822 12.120750 38,975 132 576 -64
2021-11-18 11:13:50 GMT 55.038071 12.108792 38,975 132 576 -64
2021-11-18 11:13:46 GMT 55.045624 12.094332 38,975 132 576 0
2021-11-18 11:13:43 GMT 55.050816 12.084378 38,975 132 576 0
2021-11-18 11:13:40 GMT 55.055470 12.075473 38,975 132 576 -64
2021-11-18 11:13:37 GMT 55.061737 12.063473 39,000 132 576 -64
2021-11-18 11:13:34 GMT 55.067459 12.052487 38,975 132 576 -64
2021-11-18 11:13:29 GMT 55.081959 12.024703 39,000 132 576 -64
2021-11-18 11:13:26 GMT 55.081959 12.024703 38,975 132 576 -64
2021-11-18 11:13:23 GMT 55.085358 12.018154 39,000 132 576 -64
2021-11-18 11:13:19 GMT 55.094479 12.000566 39,000 132 577 -64
2021-11-18 11:13:16 GMT 55.099319 11.991335 39,000 132 577 -64
2021-11-18 11:13:13 GMT 55.103790 11.982755 39,000 132 577 -64
2021-11-18 11:13:09 GMT 55.110264 11.970354 39,000 132 577 -64
2021-11-18 11:13:06 GMT 55.122414 11.946883 39,000 132 578 64
2021-11-18 11:13:03 GMT 55.122414 11.946883 39,000 132 578 64
2021-11-18 11:13:00 GMT 55.128510 11.935231 38,975 132 578 64
2021-11-18 11:12:56 GMT 55.134979 11.922746 39,000 132 578 64
2021-11-18 11:12:53 GMT 55.140705 11.911677 38,975 132 578 64
2021-11-18 11:12:49 GMT 55.148201 11.897195 38,975 132 578 64
2021-11-18 11:12:45 GMT 55.153748 11.886480 38,975 132 578 0
2021-11-18 11:12:42 GMT 55.159515 11.875494 39,000 132 578 -64
2021-11-18 11:12:39 GMT 55.165237 11.864427 39,000 132 578 -64
2021-11-18 11:12:34 GMT 55.174362 11.846757 39,000 132 579 -64
2021-11-18 11:12:31 GMT 55.180786 11.834356 39,000 132 579 -64
2021-11-18 11:12:28 GMT 55.183674 11.828780 39,000 132 578 -128
2021-11-18 11:12:25 GMT 55.190098 11.816379 39,000 132 579 -64
2021-11-18 11:12:22 GMT 55.201180 11.794822 39,000 131 578 -64
2021-11-18 11:12:19 GMT 55.201180 11.794822 39,000 131 579 0
2021-11-18 11:12:16 GMT 55.206905 11.783752 39,000 131 579 0
2021-11-18 11:12:13 GMT 55.211380 11.775082 39,000 131 579 0
2021-11-18 11:12:10 GMT 55.217789 11.762561 39,000 131 579 0
2021-11-18 11:12:07 GMT 55.222092 11.754159 39,000 131 579 64
2021-11-18 11:12:04 GMT 55.227619 11.743386 38,975 131 579 64
2021-11-18 11:12:01 GMT 55.232971 11.732982 38,975 131 579 64
2021-11-18 11:11:57 GMT 55.239769 11.719749 38,975 131 579 64
2021-11-18 11:11:54 GMT 55.245823 11.707930 38,975 131 579 64
2021-11-18 11:11:51 GMT 55.250290 11.699228 38,975 131 579 0
2021-11-18 11:11:47 GMT 55.258896 11.682587 38,975 131 579 0
2021-11-18 11:11:44 GMT 55.264252 11.672085 38,975 131 579 0
2021-11-18 11:11:41 GMT 55.267982 11.664817 38,975 131 579 -64
2021-11-18 11:11:38 GMT 55.274078 11.652998 39,000 131 579 -64
2021-11-18 11:11:35 GMT 55.279430 11.642512 39,000 131 579 -64
2021-11-18 11:11:32 GMT 55.285858 11.629944 39,000 131 579 -64
2021-11-18 11:11:28 GMT 55.291908 11.618125 39,000 131 579 -64
2021-11-18 11:11:24 GMT 55.300148 11.602062 39,000 131 579 -64
2021-11-18 11:11:21 GMT 55.310158 11.582420 39,000 131 580 -64
2021-11-18 11:11:18 GMT 55.310158 11.582420 39,000 131 580 -64
2021-11-18 11:11:14 GMT 55.317078 11.568765 39,000 131 580 -64
2021-11-18 11:11:11 GMT 55.327988 11.547463 39,000 131 580 0
2021-11-18 11:11:08 GMT 55.327988 11.547463 39,000 131 580 0
2021-11-18 11:11:05 GMT 55.334198 11.535160 39,000 131 580 0
2021-11-18 11:11:02 GMT 55.337948 11.527821 39,000 131 580 0
2021-11-18 11:10:59 GMT 55.344002 11.515836 39,000 131 580 -64
2021-11-18 11:10:56 GMT 55.350052 11.503934 38,975 131 580 0
2021-11-18 11:10:53 GMT 55.354843 11.494446 39,000 131 580 0
2021-11-18 11:10:49 GMT 55.363598 11.477300 39,000 131 580 -64
2021-11-18 11:10:46 GMT 55.366440 11.471724 39,000 131 580 0
2021-11-18 11:10:43 GMT 55.376587 11.451712 38,975 131 580 64
2021-11-18 11:10:40 GMT 55.376587 11.451712 38,975 131 580 64
2021-11-18 11:10:37 GMT 55.384415 11.436202 38,975 131 580 0
2021-11-18 11:10:33 GMT 55.391556 11.422227 38,975 131 580 -64
2021-11-18 11:10:30 GMT 55.394928 11.415544 38,975 131 581 0
2021-11-18 11:10:26 GMT 55.402050 11.401478 38,975 131 580 0
2021-11-18 11:10:22 GMT 55.409546 11.386663 38,975 131 582 64
2021-11-18 11:10:19 GMT 55.416138 11.373596 38,975 131 583 -128
2021-11-18 11:10:16 GMT 55.419708 11.366568 38,975 131 582 -64
2021-11-18 11:10:13 GMT 55.426483 11.353158 38,975 131 582 -64
2021-11-18 11:10:10 GMT 55.430962 11.344383 39,000 131 582 -64
2021-11-18 11:10:06 GMT 55.438499 11.329484 39,000 131 583 -64
2021-11-18 11:10:03 GMT 55.444382 11.317832 38,975 131 583 -64
2021-11-18 11:10:00 GMT 55.448883 11.309052 39,000 131 583 -64
2021-11-18 11:09:57 GMT 55.454983 11.296949 39,000 131 584 -64
2021-11-18 11:09:52 GMT 55.463745 11.279630 39,000 131 585 64
2021-11-18 11:09:49 GMT 55.468246 11.270771 39,000 131 585 0
2021-11-18 11:09:46 GMT 55.474346 11.258755 38,975 131 585 64
2021-11-18 11:09:42 GMT 55.481323 11.244923 38,975 131 585 64
2021-11-18 11:09:38 GMT 55.488144 11.231440 38,975 131 585 0
2021-11-18 11:09:35 GMT 55.493500 11.220703 38,975 131 585 0
2021-11-18 11:09:32 GMT 55.503719 11.200476 38,975 131 585 64
2021-11-18 11:09:29 GMT 55.503719 11.200476 39,000 131 585 -64
2021-11-18 11:09:25 GMT 55.510517 11.186914 39,000 131 585 0
2021-11-18 11:09:22 GMT 55.517689 11.172667 39,000 131 586 -64
2021-11-18 11:09:19 GMT 55.522343 11.163397 39,000 131 586 -64
2021-11-18 11:09:15 GMT 55.530441 11.147378 39,000 131 586 -64
2021-11-18 11:09:12 GMT 55.537262 11.133811 39,000 131 587 -64
2021-11-18 11:09:09 GMT 55.539940 11.128464 38,975 131 587 -64
2021-11-18 11:09:05 GMT 55.546921 11.114502 39,000 131 587 0
2021-11-18 11:09:02 GMT 55.554649 11.099110 39,000 131 587 0
2021-11-18 11:08:58 GMT 55.559143 11.090116 39,000 131 587 -64
2021-11-18 11:08:55 GMT 55.565598 11.077215 38,975 131 588 0
2021-11-18 11:08:51 GMT 55.572201 11.064005 39,000 131 587 -64
2021-11-18 11:08:47 GMT 55.583862 11.040677 39,000 131 587 0
2021-11-18 11:08:44 GMT 55.583862 11.040677 38,975 131 587 0
2021-11-18 11:08:40 GMT 55.591194 11.025982 39,000 131 587 0
2021-11-18 11:08:37 GMT 55.598362 11.011562 38,975 131 587 64
2021-11-18 11:08:34 GMT 55.602127 11.004056 38,975 131 587 -64
2021-11-18 11:08:31 GMT 55.607674 10.992937 39,000 131 587 64
2021-11-18 11:08:28 GMT 55.614841 10.978518 38,975 131 587 0
2021-11-18 11:08:25 GMT 55.619495 10.969162 38,975 131 587 -64
2021-11-18 11:08:21 GMT 55.627579 10.953036 38,975 131 587 -64
2021-11-18 11:08:18 GMT 55.632019 10.944014 39,000 131 587 -64
2021-11-18 11:08:15 GMT 55.637745 10.932512 39,000 131 587 -64
2021-11-18 11:08:11 GMT 55.644012 10.919994 39,000 131 586 0
2021-11-18 11:08:07 GMT 55.650639 10.906677 38,975 131 587 -64
2021-11-18 11:08:03 GMT 55.658508 10.890799 39,000 131 587 64
2021-11-18 11:08:00 GMT 55.663696 10.880377 38,975 131 587 -64
2021-11-18 11:07:57 GMT 55.669373 10.868808 39,000 131 587 -64
2021-11-18 11:07:53 GMT 55.676559 10.854409 38,975 131 587 -64
2021-11-18 11:07:50 GMT 55.682064 10.843248 39,000 131 587 -64
2021-11-18 11:07:46 GMT 55.690304 10.826597 39,000 131 587 0
2021-11-18 11:07:43 GMT 55.694733 10.817621 39,000 131 587 0
2021-11-18 11:07:40 GMT 55.698303 10.810380 39,000 131 587 64
2021-11-18 11:07:37 GMT 55.705292 10.796299 39,000 131 586 -64
2021-11-18 11:07:34 GMT 55.710274 10.786171 39,000 131 587 64
2021-11-18 11:07:31 GMT 55.723297 10.759860 39,000 131 587 64
2021-11-18 11:07:27 GMT 55.723297 10.759860 39,000 131 587 0
2021-11-18 11:07:23 GMT 55.731686 10.742826 38,975 131 587 0
2021-11-18 11:07:20 GMT 55.735271 10.735617 38,975 131 587 0
2021-11-18 11:07:16 GMT 55.742722 10.720425 38,975 131 586 64
2021-11-18 11:07:13 GMT 55.749146 10.707464 39,000 131 586 -64
2021-11-18 11:07:10 GMT 55.753235 10.699102 38,975 131 586 64
2021-11-18 11:07:07 GMT 55.760742 10.683954 39,000 131 586 64
2021-11-18 11:07:03 GMT 55.765366 10.674549 39,000 131 587 0
2021-11-18 11:07:00 GMT 55.770885 10.663261 39,000 131 587 -64
2021-11-18 11:06:56 GMT 55.777679 10.649529 38,975 131 587 0
2021-11-18 11:06:53 GMT 55.782990 10.638628 38,975 131 588 -64
2021-11-18 11:06:50 GMT 55.789215 10.625943 38,975 131 588 -64
2021-11-18 11:06:45 GMT 55.797279 10.609617 39,000 131 588 -64
2021-11-18 11:06:42 GMT 55.803864 10.596147 39,000 131 588 -64
2021-11-18 11:06:39 GMT 55.807243 10.589275 39,025 131 588 -128
2021-11-18 11:06:33 GMT 55.819019 10.565329 39,000 131 588 -64
2021-11-18 11:06:29 GMT 55.825817 10.551510 39,000 130 588 64
2021-11-18 11:06:26 GMT 55.832748 10.537304 38,975 131 588 64
2021-11-18 11:06:23 GMT 55.837006 10.528564 38,975 130 589 64
2021-11-18 11:06:20 GMT 55.842899 10.516491 38,975 131 588 64
2021-11-18 11:06:15 GMT 55.850719 10.500441 38,975 130 587 64
2021-11-18 11:06:12 GMT 55.856552 10.488448 38,975 130 587 0
2021-11-18 11:06:09 GMT 55.861176 10.478960 38,975 130 587 0
2021-11-18 11:06:05 GMT 55.868832 10.463362 38,975 130 587 -64
2021-11-18 11:06:02 GMT 55.875732 10.449163 38,975 130 586 -64
2021-11-18 11:05:59 GMT 55.879444 10.441475 39,000 130 586 0
2021-11-18 11:05:55 GMT 55.887962 10.424051 39,000 130 586 -64
2021-11-18 11:05:52 GMT 55.892200 10.415382 39,000 130 586 -64
2021-11-18 11:05:49 GMT 55.897507 10.404482 38,975 130 586 0
2021-11-18 11:05:45 GMT 55.903557 10.392122 38,975 130 585 0
2021-11-18 11:05:42 GMT 55.909561 10.379763 38,975 130 585 -64
2021-11-18 11:05:39 GMT 55.914871 10.368776 38,975 130 585 -64
2021-11-18 11:05:34 GMT 55.923714 10.350580 38,975 130 585 -128
2021-11-18 11:05:31 GMT 55.929348 10.338993 38,975 130 585 -128
2021-11-18 11:05:28 GMT 55.934464 10.328397 39,000 130 585 -128
2021-11-18 11:05:25 GMT 55.938721 10.319658 39,000 130 585 -64
2021-11-18 11:05:22 GMT 55.944717 10.307340 39,000 130 584 -128
2021-11-18 11:05:19 GMT 55.950714 10.294939 39,025 130 582 -64
2021-11-18 11:05:15 GMT 55.957031 10.281788 39,000 130 585 -64
2021-11-18 11:05:12 GMT 55.963566 10.268269 39,000 130 585 0
2021-11-18 11:05:09 GMT 55.968822 10.257368 39,000 130 584 64
2021-11-18 11:05:04 GMT 55.978645 10.236940 39,000 130 584 64
2021-11-18 11:05:01 GMT 55.983208 10.227413 38,975 130 584 128
2021-11-18 11:04:58 GMT 55.986877 10.219782 38,975 130 584 64
2021-11-18 11:04:55 GMT 55.993031 10.207071 38,975 130 583 128
2021-11-18 11:04:51 GMT 55.998989 10.194712 38,975 130 582 64
2021-11-18 11:04:48 GMT 56.004623 10.183039 38,975 130 582 0
2021-11-18 11:04:45 GMT 56.010406 10.171093 38,975 130 582 -64
2021-11-18 11:04:41 GMT 56.016914 10.157633 38,975 130 582 -64
2021-11-18 11:04:38 GMT 56.022175 10.146732 39,000 130 581 -64
2021-11-18 11:04:33 GMT 56.030926 10.128622 39,000 130 581 -64
2021-11-18 11:04:30 GMT 56.035812 10.118408 39,000 130 581 -64
2021-11-18 11:04:27 GMT 56.040527 10.108587 39,000 130 581 -64
2021-11-18 11:04:23 GMT 56.050152 10.088625 39,000 130 582 -64
2021-11-18 11:04:20 GMT 56.053802 10.080955 39,000 130 582 -64
2021-11-18 11:04:17 GMT 56.058014 10.072216 38,975 130 582 0
2021-11-18 11:04:13 GMT 56.066586 10.054379 39,000 130 582 0
2021-11-18 11:04:10 GMT 56.071289 10.044583 38,975 130 582 0
2021-11-18 11:04:07 GMT 56.075500 10.035844 38,975 130 582 0
2021-11-18 11:04:02 GMT 56.085617 10.014704 38,975 130 582 0
2021-11-18 11:03:59 GMT 56.092255 10.000888 38,975 130 582 0
2021-11-18 11:03:55 GMT 56.098705 9.987345 38,975 130 581 0
2021-11-18 11:03:52 GMT 56.105362 9.973526 38,975 130 581 -64
2021-11-18 11:03:48 GMT 56.110748 9.962186 38,975 130 581 -64
2021-11-18 11:03:42 GMT 56.119656 9.943657 39,000 130 581 -128
2021-11-18 11:03:39 GMT 56.124542 9.933443 39,000 130 581 -128
2021-11-18 11:03:36 GMT 56.129608 9.922818 39,000 130 582 -128
2021-11-18 11:03:33 GMT 56.135017 9.911470 39,000 130 582 -64
2021-11-18 11:03:30 GMT 56.142151 9.896518 39,000 130 581 -128
2021-11-18 11:03:27 GMT 56.145950 9.888444 39,000 130 582 -64
2021-11-18 11:03:23 GMT 56.152222 9.875211 39,000 130 582 -64
2021-11-18 11:03:20 GMT 56.157269 9.864607 39,000 130 581 -64
2021-11-18 11:03:17 GMT 56.163879 9.850702 39,000 130 581 -64
2021-11-18 11:03:14 GMT 56.169788 9.838171 39,000 130 581 0
2021-11-18 11:03:10 GMT 56.176895 9.823192 39,000 130 581 0
2021-11-18 11:03:07 GMT 56.181061 9.814370 39,000 130 581 64
2021-11-18 11:03:03 GMT 56.188019 9.799721 39,000 130 581 0
2021-11-18 11:03:00 GMT 56.192184 9.790982 39,000 130 581 0
2021-11-18 11:02:57 GMT 56.197723 9.779247 39,000 130 581 0
2021-11-18 11:02:53 GMT 56.205170 9.763498 39,000 130 581 0
2021-11-18 11:02:50 GMT 56.210220 9.752863 39,000 130 581 64
2021-11-18 11:02:47 GMT 56.215923 9.740753 39,000 130 581 0
2021-11-18 11:02:43 GMT 56.221985 9.727977 39,000 130 581 0
2021-11-18 11:02:39 GMT 56.231194 9.708481 39,000 130 581 64
2021-11-18 11:02:36 GMT 56.233795 9.703008 39,000 130 581 0
2021-11-18 11:02:33 GMT 56.239853 9.690113 38,975 130 581 64
2021-11-18 11:02:30 GMT 56.245193 9.678789 38,975 130 581 64
2021-11-18 11:02:27 GMT 56.252327 9.663677 38,975 130 581 64
2021-11-18 11:02:23 GMT 56.257542 9.652691 38,975 130 581 64
2021-11-18 11:02:19 GMT 56.269501 9.627269 38,975 130 581 64
2021-11-18 11:02:16 GMT 56.269501 9.627269 38,975 130 582 64
2021-11-18 11:02:13 GMT 56.274719 9.616283 38,975 130 582 0
2021-11-18 11:02:09 GMT 56.280769 9.603338 38,975 130 582 0
2021-11-18 11:02:06 GMT 56.286312 9.591494 38,975 130 582 -64
2021-11-18 11:02:02 GMT 56.294128 9.574918 38,975 130 583 -64
2021-11-18 11:01:59 GMT 56.300228 9.561968 38,975 130 584 -64
2021-11-18 11:01:56 GMT 56.304375 9.553041 39,000 130 584 -128
2021-11-18 11:01:52 GMT 56.311310 9.538193 38,975 130 585 -128
2021-11-18 11:01:49 GMT 56.315498 9.529266 38,975 130 585 -64
2021-11-18 11:01:46 GMT 56.321785 9.515963 38,975 130 586 -128
2021-11-18 11:01:42 GMT 56.328918 9.500677 39,000 130 586 -128
2021-11-18 11:01:38 GMT 56.335003 9.487724 39,000 130 586 -64
2021-11-18 11:01:35 GMT 56.339565 9.478025 39,000 130 586 -64
2021-11-18 11:01:32 GMT 56.346550 9.463177 39,000 130 586 -128
2021-11-18 11:01:28 GMT 56.352631 9.450156 39,000 130 585 64
2021-11-18 11:01:25 GMT 56.357723 9.439316 38,975 130 585 64
2021-11-18 11:01:22 GMT 56.363632 9.426699 38,975 130 585 64
2021-11-18 11:01:18 GMT 56.370392 9.412120 38,975 130 584 -64
2021-11-18 11:01:15 GMT 56.374878 9.402466 38,975 130 584 0
2021-11-18 11:01:12 GMT 56.380096 9.391313 39,000 130 584 64
2021-11-18 11:01:09 GMT 56.385635 9.379411 39,000 129 583 -64
2021-11-18 11:01:06 GMT 56.391861 9.366011 39,000 129 583 -64
2021-11-18 11:01:02 GMT 56.398087 9.352611 38,975 129 583 -64
2021-11-18 11:00:59 GMT 56.402782 9.342585 39,000 129 583 -64
2021-11-18 11:00:56 GMT 56.408279 9.330740 39,000 129 582 -64
2021-11-18 11:00:52 GMT 56.420197 9.305087 39,000 129 582 -64
2021-11-18 11:00:49 GMT 56.420197 9.305087 39,000 129 582 0
2021-11-18 11:00:45 GMT 56.427971 9.288340 39,000 129 582 -64
2021-11-18 11:00:41 GMT 56.435028 9.273044 39,000 129 582 0
2021-11-18 11:00:38 GMT 56.440025 9.262247 39,000 129 582 0
2021-11-18 11:00:35 GMT 56.445194 9.251089 39,000 129 582 0
2021-11-18 11:00:32 GMT 56.450035 9.240704 38,975 129 582 64
2021-11-18 11:00:29 GMT 56.455200 9.229546 38,975 129 582 0
2021-11-18 11:00:25 GMT 56.461899 9.215032 38,975 129 582 0
2021-11-18 11:00:21 GMT 56.468609 9.200535 38,975 129 582 0
2021-11-18 11:00:17 GMT 56.476894 9.182682 39,000 129 581 0
2021-11-18 11:00:14 GMT 56.479641 9.176760 38,975 129 581 -64
2021-11-18 11:00:10 GMT 56.487350 9.160018 38,975 129 580 -64
2021-11-18 11:00:07 GMT 56.492157 9.149531 39,000 129 580 -64
2021-11-18 11:00:04 GMT 56.497330 9.138378 39,000 129 580 -64
2021-11-18 11:00:01 GMT 56.503662 9.124660 38,975 129 580 0
2021-11-18 10:59:57 GMT 56.509689 9.111661 39,000 129 580 -64
2021-11-18 10:59:54 GMT 56.515137 9.099759 39,000 129 580 -64
2021-11-18 10:59:51 GMT 56.520142 9.088955 38,975 129 580 0
2021-11-18 10:59:48 GMT 56.525803 9.076621 38,975 129 580 0
2021-11-18 10:59:45 GMT 56.531780 9.063635 39,000 129 580 -64
2021-11-18 10:59:41 GMT 56.538803 9.048406 38,975 129 580 0
2021-11-18 10:59:38 GMT 56.541370 9.042778 38,975 129 580 -64
2021-11-18 10:59:35 GMT 56.547890 9.028702 38,975 129 580 -64
2021-11-18 10:59:29 GMT 56.558502 9.005613 38,975 129 580 -64
2021-11-18 10:59:25 GMT 56.565018 8.991537 39,000 129 580 -64
2021-11-18 10:59:21 GMT 56.571396 8.977744 39,000 129 580 -64
2021-11-18 10:59:18 GMT 56.576202 8.967341 39,000 129 580 -64
2021-11-18 10:59:15 GMT 56.582150 8.954287 39,000 129 580 -64
2021-11-18 10:59:10 GMT 56.591042 8.934889 39,000 129 579 -64
2021-11-18 10:59:07 GMT 56.594604 8.926992 39,000 129 579 -64
2021-11-18 10:59:01 GMT 56.606033 8.902027 39,000 129 579 0
2021-11-18 10:58:58 GMT 56.617950 8.875890 38,975 129 579 0
2021-11-18 10:58:54 GMT 56.617950 8.875890 38,975 129 579 0
2021-11-18 10:58:48 GMT 56.628387 8.853092 38,975 129 578 0
2021-11-18 10:58:45 GMT 56.634010 8.840805 38,975 129 578 0
2021-11-18 10:58:42 GMT 56.637909 8.832235 38,975 129 578 0
2021-11-18 10:58:38 GMT 56.645370 8.815842 38,975 129 578 0
2021-11-18 10:58:34 GMT 56.652878 8.799362 38,975 129 578 -64
2021-11-18 10:58:29 GMT 56.660545 8.782595 38,975 129 578 -64
2021-11-18 10:58:26 GMT 56.664593 8.773646 39,000 129 578 -64
2021-11-18 10:58:23 GMT 56.669716 8.762483 39,000 129 578 -64
2021-11-18 10:58:20 GMT 56.675488 8.749724 38,975 129 578 -64
2021-11-18 10:58:16 GMT 56.682083 8.735161 39,000 129 578 -64
2021-11-18 10:58:13 GMT 56.687313 8.723499 39,000 129 578 -64
2021-11-18 10:58:10 GMT 56.692757 8.711538 39,000 129 578 0
2021-11-18 10:58:07 GMT 56.696808 8.702589 39,000 129 578 -64
2021-11-18 10:58:03 GMT 56.704422 8.685722 39,000 129 578 0
2021-11-18 10:57:59 GMT 56.711380 8.670339 38,975 129 578 64
2021-11-18 10:57:55 GMT 56.718128 8.655366 38,975 129 577 0
2021-11-18 10:57:52 GMT 56.722046 8.646755 38,975 129 577 0
2021-11-18 10:57:48 GMT 56.730278 8.628432 38,975 129 577 0
2021-11-18 10:57:45 GMT 56.734329 8.619395 38,975 129 576 -64
2021-11-18 10:57:42 GMT 56.739079 8.608940 39,000 129 576 -64
2021-11-18 10:57:39 GMT 56.743973 8.598089 38,975 129 576 -64
2021-11-18 10:57:36 GMT 56.750381 8.583841 39,000 129 576 -64
2021-11-18 10:57:33 GMT 56.755417 8.572598 39,000 129 576 -64
2021-11-18 10:57:27 GMT 56.764683 8.551970 39,000 129 576 0
2021-11-18 10:57:24 GMT 56.777157 8.524239 39,000 129 576 0
2021-11-18 10:57:20 GMT 56.777157 8.524239 38,975 129 576 64
2021-11-18 10:57:17 GMT 56.781326 8.514833 38,975 129 576 64
2021-11-18 10:57:13 GMT 56.789913 8.495798 39,000 129 576 0
2021-11-18 10:57:08 GMT 56.798172 8.477411 39,000 129 577 0
2021-11-18 10:57:03 GMT 56.805588 8.460846 38,975 129 577 0
2021-11-18 10:57:00 GMT 56.811790 8.446980 39,000 129 577 -64
2021-11-18 10:56:55 GMT 56.819366 8.430033 39,000 129 577 0
2021-11-18 10:56:52 GMT 56.823761 8.420248 39,000 129 577 -64
2021-11-18 10:56:49 GMT 56.829666 8.407110 39,000 129 577 0
2021-11-18 10:56:45 GMT 56.836212 8.392439 38,975 129 578 64
2021-11-18 10:56:42 GMT 56.841293 8.381109 38,975 129 577 -64
2021-11-18 10:56:37 GMT 56.849396 8.363085 38,975 129 578 0
2021-11-18 10:56:31 GMT 56.858826 8.341885 38,975 129 578 0
2021-11-18 10:56:27 GMT 56.865921 8.326006 38,975 129 578 0
2021-11-18 10:56:22 GMT 56.875847 8.303715 38,975 129 578 0
2021-11-18 10:56:17 GMT 56.882923 8.287856 38,975 129 578 -64
2021-11-18 10:56:10 GMT 56.894375 8.262162 38,975 129 578 -64
2021-11-18 10:56:07 GMT 56.900253 8.248844 38,975 129 578 -64
2021-11-18 10:56:02 GMT 56.910004 8.226871 39,000 129 579 64
2021-11-18 10:55:57 GMT 56.917099 8.210993 39,000 129 579 -128
2021-11-18 10:55:50 GMT 56.928360 8.185612 39,000 128 578 -64
2021-11-18 10:55:46 GMT 56.934265 8.172283 39,000 128 578 -64
2021-11-18 10:55:41 GMT 56.942963 8.152542 39,000 129 579 0
2021-11-18 10:55:36 GMT 56.950890 8.134756 39,000 128 578 64
2021-11-18 10:55:32 GMT 56.959122 8.116150 38,975 128 578 128
2021-11-18 10:55:29 GMT 56.968300 8.095329 38,975 128 578 64
2021-11-18 10:55:26 GMT 56.968300 8.095329 38,975 128 578 64
2021-11-18 10:55:22 GMT 56.975189 8.079758 38,975 128 577 64
2021-11-18 10:55:19 GMT 56.981709 8.064939 38,975 128 577 -64
2021-11-18 10:55:16 GMT 56.985062 8.057408 39,000 128 577 -64
2021-11-18 10:55:07 GMT 57.001968 8.018990 38,975 128 578 -64
2021-11-18 10:55:02 GMT 57.008801 8.003451 39,000 128 578 0
2021-11-18 10:54:59 GMT 57.014008 7.991610 39,000 128 578 -64
2021-11-18 10:54:56 GMT 57.019184 7.979795 39,000 128 578 -64
2021-11-18 10:54:49 GMT 57.032089 7.950497 38,975 128 578 -64
2021-11-18 10:54:46 GMT 57.035618 7.942495 38,975 128 578 -64
2021-11-18 10:54:39 GMT 57.046322 7.918042 39,000 128 578 -64
2021-11-18 10:54:36 GMT 57.052326 7.904309 39,000 128 578 -64
2021-11-18 10:54:30 GMT 57.062531 7.881060 39,000 128 578 -64
2021-11-18 10:54:26 GMT 57.069366 7.865325 39,000 128 577 -64
2021-11-18 10:54:19 GMT 57.080677 7.839365 39,000 128 577 -64
2021-11-18 10:54:16 GMT 57.085876 7.827587 39,000 128 577 -64
2021-11-18 10:54:10 GMT 57.096176 7.803898 39,000 128 577 0
2021-11-18 10:54:06 GMT 57.112793 7.765703 38,975 128 577 64
2021-11-18 10:54:00 GMT 57.112793 7.765703 38,975 128 577 64
2021-11-18 10:53:57 GMT 57.116776 7.756519 38,975 128 576 64
2021-11-18 10:53:54 GMT 57.121552 7.745450 38,975 128 576 64
2021-11-18 10:53:51 GMT 57.126343 7.734375 38,975 128 575 0
2021-11-18 10:53:48 GMT 57.131187 7.723300 38,975 128 575 0
2021-11-18 10:53:45 GMT 57.137146 7.709567 38,975 128 575 -64
2021-11-18 10:53:38 GMT 57.153854 7.670946 39,000 128 575 -64
2021-11-18 10:53:35 GMT 57.153854 7.670946 39,000 128 575 -64
2021-11-18 10:53:30 GMT 57.163467 7.648802 39,000 128 576 -64
2021-11-18 10:53:27 GMT 57.166615 7.641523 39,000 128 576 -64
2021-11-18 10:53:24 GMT 57.171921 7.629296 39,000 128 576 -64
2021-11-18 10:53:21 GMT 57.176575 7.618576 39,000 128 577 -64
2021-11-18 10:53:17 GMT 57.184021 7.601252 38,975 128 577 0
2021-11-18 10:53:14 GMT 57.188004 7.592068 38,975 128 577 0
2021-11-18 10:53:09 GMT 57.196453 7.572504 38,975 128 577 0
2021-11-18 10:53:06 GMT 57.202740 7.557974 38,975 128 577 0
2021-11-18 10:53:03 GMT 57.206543 7.549152 38,975 128 577 0
2021-11-18 10:52:59 GMT 57.213501 7.533016 38,975 128 576 -64
2021-11-18 10:52:54 GMT 57.221786 7.513876 39,000 128 576 -64
2021-11-18 10:52:47 GMT 57.232407 7.489243 38,975 128 576 -64
2021-11-18 10:52:44 GMT 57.238358 7.475510 39,000 128 576 -64
2021-11-18 10:52:38 GMT 57.247475 7.454312 39,000 128 577 -64
2021-11-18 10:52:34 GMT 57.255615 7.435513 39,000 128 577 -64
2021-11-18 10:52:26 GMT 57.267883 7.407103 38,975 128 576 -64
2021-11-18 10:52:23 GMT 57.272507 7.396374 39,000 128 577 0
2021-11-18 10:52:16 GMT 57.284576 7.368282 39,000 128 575 0
2021-11-18 10:52:13 GMT 57.289398 7.357149 38,975 128 575 0
2021-11-18 10:52:10 GMT 57.295349 7.343330 38,975 128 575 0
2021-11-18 10:52:07 GMT 57.300293 7.331829 38,975 128 575 0
2021-11-18 10:52:04 GMT 57.305878 7.318697 38,975 128 575 0
2021-11-18 10:51:59 GMT 57.312321 7.303782 38,975 128 573 -64
2021-11-18 10:51:56 GMT 57.318100 7.290373 39,000 128 574 -64
2021-11-18 10:51:53 GMT 57.322517 7.279949 39,000 128 573 -64
2021-11-18 10:51:46 GMT 57.335739 7.249382 39,000 128 573 -64
2021-11-18 10:51:43 GMT 57.338997 7.241674 39,000 128 573 -64
2021-11-18 10:51:38 GMT 57.347191 7.222536 38,975 128 572 -64
2021-11-18 10:51:33 GMT 57.356186 7.201452 38,975 128 571 -64
2021-11-18 10:51:28 GMT 57.363903 7.183464 39,000 128 571 -64
2021-11-18 10:51:25 GMT 57.368958 7.171669 38,975 128 571 -64
2021-11-18 10:51:22 GMT 57.373489 7.160940 38,975 128 570 -64
2021-11-18 10:51:16 GMT 57.383453 7.137569 39,000 128 570 -64
2021-11-18 10:51:13 GMT 57.388668 7.125343 39,000 128 570 -64
2021-11-18 10:51:06 GMT 57.400074 7.098586 38,975 128 570 0
2021-11-18 10:51:02 GMT 57.405289 7.086359 39,000 128 570 0
2021-11-18 10:50:55 GMT 57.418274 7.055792 38,975 128 569 0
2021-11-18 10:50:52 GMT 57.422333 7.046185 38,975 128 569 0
2021-11-18 10:50:48 GMT 57.430115 7.027817 39,000 128 569 0
2021-11-18 10:50:45 GMT 57.433544 7.019732 39,000 128 569 -64
2021-11-18 10:50:42 GMT 57.438217 7.008677 39,000 128 569 0
2021-11-18 10:50:36 GMT 57.448883 6.983271 39,000 127 570 0
2021-11-18 10:50:32 GMT 57.454697 6.969452 39,000 127 570 0
2021-11-18 10:50:29 GMT 57.459057 6.959041 39,000 127 570 0
2021-11-18 10:50:24 GMT 57.467926 6.937695 38,975 127 571 0
2021-11-18 10:50:17 GMT 57.479259 6.910135 39,000 127 571 0
2021-11-18 10:50:14 GMT 57.483028 6.900743 39,000 126 570 0
2021-11-18 10:50:11 GMT 57.487453 6.889845 39,000 126 571 -64
2021-11-18 10:50:07 GMT 57.494061 6.873366 39,000 126 571 -64
2021-11-18 10:50:04 GMT 57.500198 6.858044 39,000 126 571 0
2021-11-18 10:50:00 GMT 57.504913 6.846199 39,000 126 572 0
2021-11-18 10:49:56 GMT 57.511185 6.830492 38,975 126 572 64
2021-11-18 10:49:52 GMT 57.519154 6.810283 38,975 126 571 0
2021-11-18 10:49:48 GMT 57.524414 6.796816 38,975 126 572 0
2021-11-18 10:49:45 GMT 57.529266 6.784573 39,000 126 572 -64
2021-11-18 10:49:41 GMT 57.534851 6.770239 38,975 126 572 -64
2021-11-18 10:49:37 GMT 57.542633 6.750412 38,975 126 572 -64
2021-11-18 10:49:31 GMT 57.550575 6.730189 39,000 126 572 -64
2021-11-18 10:49:26 GMT 57.558025 6.711052 39,000 125 573 -64
2021-11-18 10:49:23 GMT 57.562679 6.699179 39,000 125 572 -64
2021-11-18 10:49:18 GMT 57.571339 6.676852 39,000 125 573 -64
2021-11-18 10:49:15 GMT 57.574905 6.667671 39,000 125 573 0
2021-11-18 10:49:12 GMT 57.580170 6.654110 39,000 125 573 0
2021-11-18 10:49:09 GMT 57.583878 6.644497 39,000 125 573 0
2021-11-18 10:49:06 GMT 57.589958 6.628920 39,000 125 573 0
2021-11-18 10:49:03 GMT 57.595219 6.615453 39,000 125 573 0
2021-11-18 10:48:58 GMT 57.602062 6.597910 39,000 125 572 0
2021-11-18 10:48:53 GMT 57.609329 6.579180 38,975 125 573 0
2021-11-18 10:48:48 GMT 57.617565 6.557952 39,000 125 573 64
2021-11-18 10:48:43 GMT 57.625122 6.538410 39,000 125 572 0
2021-11-18 10:48:40 GMT 57.628971 6.528448 39,000 125 572 64
2021-11-18 10:48:33 GMT 57.640095 6.499742 38,975 125 571 64
2021-11-18 10:48:30 GMT 57.645031 6.486895 38,975 125 572 0
2021-11-18 10:48:23 GMT 57.655785 6.458986 38,975 125 572 0
2021-11-18 10:48:20 GMT 57.660721 6.446139 38,975 125 571 0
2021-11-18 10:48:16 GMT 57.667793 6.427799 39,000 125 571 -64
2021-11-18 10:48:13 GMT 57.671474 6.418231 39,000 125 571 -64
2021-11-18 10:48:09 GMT 57.676731 6.404675 39,000 125 571 -64
2021-11-18 10:48:03 GMT 57.687012 6.377907 39,000 125 571 -64
2021-11-18 10:47:58 GMT 57.696259 6.353874 38,975 125 571 -64
2021-11-18 10:47:53 GMT 57.702244 6.338314 39,000 125 571 0
2021-11-18 10:47:50 GMT 57.708572 6.321859 39,000 125 571 -64
2021-11-18 10:47:46 GMT 57.712067 6.312709 39,000 125 571 -64
2021-11-18 10:47:42 GMT 57.718369 6.296282 38,975 125 571 64
2021-11-18 10:47:38 GMT 57.724823 6.279459 39,000 125 571 0
2021-11-18 10:47:33 GMT 57.733109 6.257777 39,000 125 571 0
2021-11-18 10:47:30 GMT 57.736923 6.247833 38,975 125 571 64
2021-11-18 10:47:27 GMT 57.741859 6.234924 38,975 125 572 64
2021-11-18 10:47:24 GMT 57.746567 6.222514 38,975 125 572 64
2021-11-18 10:47:21 GMT 57.752567 6.206818 38,975 125 572 64
2021-11-18 10:47:17 GMT 57.757324 6.194428 38,975 125 572 0
2021-11-18 10:47:12 GMT 57.764328 6.175911 38,975 125 572 -64
2021-11-18 10:47:09 GMT 57.769547 6.162267 39,000 125 572 -64
2021-11-18 10:47:06 GMT 57.774445 6.149331 39,000 125 572 -64
2021-11-18 10:47:01 GMT 57.781174 6.131611 39,000 125 572 -64
2021-11-18 10:46:58 GMT 57.786224 6.118378 39,000 125 572 -64
2021-11-18 10:46:54 GMT 57.792648 6.101440 39,000 125 574 64
2021-11-18 10:46:50 GMT 57.798660 6.085717 39,000 125 573 64
2021-11-18 10:46:46 GMT 57.804153 6.071187 38,975 125 574 64
2021-11-18 10:46:41 GMT 57.812485 6.049391 38,975 125 574 64
2021-11-18 10:46:37 GMT 57.819809 6.029988 38,975 125 574 64
2021-11-18 10:46:31 GMT 57.828735 6.006509 38,975 125 573 -64
2021-11-18 10:46:28 GMT 57.832264 5.997253 38,975 125 573 -64
2021-11-18 10:46:25 GMT 57.836220 5.986725 38,975 125 573 -64
2021-11-18 10:46:22 GMT 57.841434 5.972900 39,000 125 574 -64
2021-11-18 10:46:18 GMT 57.847534 5.956696 39,000 125 574 -64
2021-11-18 10:46:12 GMT 57.856888 5.931997 39,000 125 574 -64
2021-11-18 10:46:09 GMT 57.861145 5.920656 39,000 125 575 -64
2021-11-18 10:46:06 GMT 57.865921 5.908081 39,000 125 575 -64
2021-11-18 10:46:00 GMT 57.874535 5.885284 38,975 125 575 0
2021-11-18 10:45:57 GMT 57.879143 5.873108 38,975 125 575 0
2021-11-18 10:45:52 GMT 57.889244 5.846375 38,975 125 574 64
2021-11-18 10:45:47 GMT 57.895061 5.830902 38,975 125 574 64
2021-11-18 10:45:43 GMT 57.900696 5.815843 38,975 125 574 0
2021-11-18 10:45:40 GMT 57.905914 5.802022 38,975 125 574 64
2021-11-18 10:45:36 GMT 57.913033 5.782928 39,000 125 574 0
2021-11-18 10:45:27 GMT 57.926113 5.747864 39,000 124 573 -64
2021-11-18 10:45:22 GMT 57.933243 5.728750 39,000 124 573 -64
2021-11-18 10:45:18 GMT 57.939472 5.712067 39,000 124 573 -64
2021-11-18 10:45:14 GMT 57.947109 5.691742 39,000 125 574 0
2021-11-18 10:45:08 GMT 57.954372 5.672150 39,000 125 574 0
2021-11-18 10:44:58 GMT 57.969772 5.631025 39,000 124 573 0
2021-11-18 10:44:48 GMT 57.987076 5.584599 39,000 124 573 0
2021-11-18 10:44:41 GMT 57.994949 5.563423 39,000 124 573 -64
2021-11-18 10:44:37 GMT 58.002365 5.543427 39,000 124 573 -64
2021-11-18 10:44:31 GMT 58.010101 5.522579 38,975 124 573 0
2021-11-18 10:44:26 GMT 58.017975 5.501404 38,975 124 573 0
2021-11-18 10:44:20 GMT 58.026245 5.478882 38,975 124 573 0
2021-11-18 10:44:16 GMT 58.033035 5.460559 38,975 124 572 -64
2021-11-18 10:44:10 GMT 58.048920 5.417633 38,975 124 572 64
2021-11-18 10:44:05 GMT 58.048920 5.417633 39,000 124 572 -64
2021-11-18 10:44:01 GMT 58.056133 5.398041 38,975 124 572 0
2021-11-18 10:43:55 GMT 58.064560 5.375153 38,975 124 572 0
2021-11-18 10:43:50 GMT 58.072426 5.353912 38,975 124 570 0
2021-11-18 10:43:46 GMT 58.079922 5.333496 38,975 124 571 0
2021-11-18 10:43:40 GMT 58.086685 5.315079 38,975 124 571 -64
2021-11-18 10:43:35 GMT 58.095108 5.292221 39,000 124 571 -64
2021-11-18 10:43:30 GMT 58.101616 5.274719 39,000 124 570 -64
2021-11-18 10:43:25 GMT 58.111084 5.248984 39,000 124 570 -64
2021-11-18 10:43:20 GMT 58.116806 5.233479 38,975 124 571 -64
2021-11-18 10:43:15 GMT 58.126144 5.208140 39,000 124 571 -64
2021-11-18 10:43:11 GMT 58.131821 5.192635 38,975 124 570 0
2021-11-18 10:43:08 GMT 58.137089 5.178314 38,975 124 570 0
2021-11-18 10:43:04 GMT 58.142769 5.162750 38,975 124 570 0
2021-11-18 10:42:58 GMT 58.150261 5.142334 38,975 124 570 -64
2021-11-18 10:42:54 GMT 58.158737 5.119009 39,000 124 570 0
2021-11-18 10:42:51 GMT 58.162354 5.109263 39,000 124 570 0
2021-11-18 10:42:48 GMT 58.167984 5.093669 38,975 124 569 0
2021-11-18 10:42:43 GMT 58.173214 5.079346 38,975 124 569 -64
2021-11-18 10:42:38 GMT 58.180801 5.058495 39,000 124 569 -64
2021-11-18 10:42:33 GMT 58.187988 5.038826 39,000 124 569 -64
2021-11-18 10:42:27 GMT 58.196594 5.015082 39,000 124 570 -64
2021-11-18 10:42:23 GMT 58.203892 4.995026 39,025 124 569 -64
2021-11-18 10:42:20 GMT 58.207150 4.985962 39,000 124 569 -64
2021-11-18 10:42:17 GMT 58.212502 4.971130 39,000 124 569 0
2021-11-18 10:42:12 GMT 58.219162 4.952708 39,000 124 569 0
2021-11-18 10:42:08 GMT 58.225708 4.934633 38,975 124 570 0
2021-11-18 10:42:05 GMT 58.230331 4.921875 38,975 124 570 0
2021-11-18 10:42:01 GMT 58.235550 4.907522 38,975 124 570 0
2021-11-18 10:41:58 GMT 58.240631 4.893523 38,975 124 570 0
2021-11-18 10:41:52 GMT 58.249977 4.867676 38,975 124 569 0
2021-11-18 10:41:47 GMT 58.256542 4.849548 38,975 124 570 0
2021-11-18 10:41:44 GMT 58.260685 4.838013 39,000 124 569 -64
2021-11-18 10:41:38 GMT 58.271484 4.808025 38,975 124 569 64
2021-11-18 10:41:33 GMT 58.276093 4.795258 39,000 124 569 -64
2021-11-18 10:41:30 GMT 58.281876 4.779141 39,000 124 569 -64
2021-11-18 10:41:27 GMT 58.286316 4.766826 39,000 124 569 0
2021-11-18 10:41:20 GMT 58.296204 4.739227 39,000 124 569 -64
2021-11-18 10:41:16 GMT 58.301788 4.723572 39,000 124 568 -64
2021-11-18 10:41:11 GMT 58.310760 4.698427 39,000 124 568 0
2021-11-18 10:41:04 GMT 58.319759 4.673218 39,000 124 568 0
2021-11-18 10:41:00 GMT 58.325344 4.657562 38,975 124 568 0
2021-11-18 10:40:56 GMT 58.331955 4.638977 38,975 124 568 64
2021-11-18 10:40:48 GMT 58.342384 4.609589 38,975 123 569 0
2021-11-18 10:40:39 GMT 58.356628 4.569515 39,000 124 568 -64
2021-11-18 10:40:29 GMT 58.371479 4.527740 39,000 124 569 -64
2021-11-18 10:40:18 GMT 58.387527 4.482688 39,000 124 568 -64
2021-11-18 10:40:08 GMT 58.401352 4.443793 38,975 124 568 -64
2021-11-18 10:39:56 GMT 58.418777 4.394531 38,975 124 568 -64
2021-11-18 10:39:49 GMT 58.431671 4.358093 39,000 123 567 -64
2021-11-18 10:39:38 GMT 58.447906 4.312134 39,000 123 567 -64
2021-11-18 10:39:26 GMT 58.463512 4.267914 38,975 123 567 -64
2021-11-18 10:39:16 GMT 58.478363 4.225616 39,000 123 565 0
2021-11-18 10:39:07 GMT 58.491676 4.187531 38,975 123 565 0
2021-11-18 10:38:56 GMT 58.508377 4.140074 38,975 123 564 0
2021-11-18 10:38:51 GMT 58.513321 4.125986 39,000 123 565 -64
2021-11-18 10:38:46 GMT 58.522446 4.099915 39,000 123 565 -64
2021-11-18 10:38:42 GMT 58.526642 4.087889 39,000 123 564 -64
2021-11-18 10:38:35 GMT 58.537762 4.056061 38,975 123 564 0
2021-11-18 10:38:32 GMT 58.541534 4.045258 39,000 123 564 64
2021-11-18 10:38:25 GMT 58.552414 4.014263 39,000 123 565 -64
2021-11-18 10:38:22 GMT 58.556011 4.003876 38,975 123 565 -64
2021-11-18 10:38:16 GMT 58.566719 3.973206 39,000 123 564 0
2021-11-18 10:38:05 GMT 58.581024 3.932131 38,975 123 564 0
2021-11-18 10:37:54 GMT 58.596588 3.887300 38,975 123 564 -64
2021-11-18 10:37:51 GMT 58.601486 3.873212 39,000 123 564 -64
2021-11-18 10:37:43 GMT 58.614017 3.836975 39,000 123 564 0
2021-11-18 10:37:40 GMT 58.616180 3.830773 39,000 123 565 -64
2021-11-18 10:37:35 GMT 58.625515 3.803650 38,975 123 565 0
2021-11-18 10:37:31 GMT 58.629284 3.792755 38,975 123 565 -64
2021-11-18 10:37:22 GMT 58.643112 3.752747 38,975 123 565 -64
2021-11-18 10:37:13 GMT 58.655319 3.717277 39,000 123 565 -64
2021-11-18 10:37:06 GMT 58.664795 3.689723 39,000 123 565 -64
2021-11-18 10:37:03 GMT 58.670670 3.672546 39,000 123 566 0
2021-11-18 10:36:52 GMT 58.686172 3.627411 38,975 123 566 64
2021-11-18 10:36:44 GMT 58.697624 3.593903 38,975 123 566 0
2021-11-18 10:36:42 GMT 58.699951 3.587219 38,975 123 566 0
2021-11-18 10:36:33 GMT 58.715080 3.542725 39,000 123 566 -64
2021-11-18 10:36:25 GMT 58.724251 3.515900 39,000 123 566 -64
2021-11-18 10:36:21 GMT 58.730537 3.497406 39,000 123 566 -128
2021-11-18 10:36:16 GMT 58.737534 3.476730 39,000 123 566 -64
2021-11-18 10:36:11 GMT 58.743992 3.457855 38,975 123 567 -64
2021-11-18 10:36:06 GMT 58.751717 3.435150 39,000 123 566 0
2021-11-18 10:36:01 GMT 58.759323 3.412850 38,975 123 566 64
2021-11-18 10:35:52 GMT 58.773224 3.372070 38,975 123 566 64
2021-11-18 10:35:46 GMT 58.780952 3.349274 38,975 123 567 0
2021-11-18 10:35:41 GMT 58.787659 3.329478 39,000 123 566 0
2021-11-18 10:35:36 GMT 58.794800 3.308391 38,975 122 566 0
2021-11-18 10:35:30 GMT 58.802765 3.284735 38,975 122 566 -64
2021-11-18 10:35:25 GMT 58.810280 3.262390 38,975 122 566 -64
2021-11-18 10:35:21 GMT 58.818008 3.239594 39,000 123 566 -64
2021-11-18 10:35:16 GMT 58.823689 3.222656 39,000 122 566 -64
2021-11-18 10:35:10 GMT 58.832062 3.197730 38,975 122 566 -64
2021-11-18 10:34:59 GMT 58.846802 3.153696 39,000 122 566 0
2021-11-18 10:34:53 GMT 58.855434 3.127883 39,000 122 566 64
2021-11-18 10:34:49 GMT 58.861393 3.110173 38,975 122 566 64
2021-11-18 10:34:46 GMT 58.866188 3.095777 38,975 122 565 64
2021-11-18 10:34:39 GMT 58.875778 3.066985 38,975 122 565 64
2021-11-18 10:34:36 GMT 58.880447 3.053009 38,975 122 564 0
2021-11-18 10:34:29 GMT 58.891003 3.021335 38,975 122 564 -64
2021-11-18 10:34:17 GMT 58.906677 2.974365 39,000 122 564 -64
2021-11-18 10:34:13 GMT 58.912136 2.957879 39,000 122 564 -64
2021-11-18 10:34:08 GMT 58.920052 2.934202 38,975 122 564 0
2021-11-18 10:34:04 GMT 58.925079 2.918954 38,975 122 564 -64
2021-11-18 10:33:58 GMT 58.934387 2.891014 38,975 122 565 64
2021-11-18 10:33:53 GMT 58.939743 2.874914 38,975 122 565 0
2021-11-18 10:33:45 GMT 58.950729 2.841765 39,000 122 565 -64
2021-11-18 10:33:37 GMT 58.963062 2.804450 39,000 122 565 -128
2021-11-18 10:33:30 GMT 58.971359 2.779358 39,000 122 564 -64
2021-11-18 10:33:24 GMT 58.980148 2.752454 38,975 122 565 0
2021-11-18 10:33:15 GMT 58.993149 2.712708 39,000 122 565 -64
2021-11-18 10:33:04 GMT 59.007847 2.667973 38,975 122 566 -64
2021-11-18 10:32:55 GMT 59.021580 2.626111 39,000 122 566 -64
2021-11-18 10:32:45 GMT 59.035641 2.583492 39,000 122 565 64
2021-11-18 10:32:35 GMT 59.049557 2.540683 38,975 122 565 64
2021-11-18 10:32:24 GMT 59.064220 2.495317 38,975 122 564 0
2021-11-18 10:32:14 GMT 59.078888 2.450500 39,000 122 564 0
2021-11-18 10:32:05 GMT 59.091873 2.410836 38,975 122 565 0
2021-11-18 10:31:55 GMT 59.106678 2.365565 39,000 122 565 -64
2021-11-18 10:31:45 GMT 59.119400 2.326630 39,000 122 565 0
2021-11-18 10:31:35 GMT 59.133492 2.283262 38,975 122 565 64
2021-11-18 10:31:33 GMT 59.136154 2.275085 38,975 122 566 0
2021-11-18 10:31:24 GMT 59.149647 2.233445 39,000 122 566 0
2021-11-18 10:31:13 GMT 59.163986 2.189117 39,000 122 566 -192
2021-11-18 10:31:03 GMT 59.178883 2.143092 39,000 122 567 -128
2021-11-18 10:30:55 GMT 59.189171 2.111269 39,000 122 567 192
2021-11-18 10:30:51 GMT 59.193916 2.096589 39,000 122 567 320
2021-11-18 10:30:45 GMT 59.203262 2.067719 38,900 122 566 768
2021-11-18 10:30:35 GMT 59.217224 2.024597 38,775 122 568 768
2021-11-18 10:30:31 GMT 59.223804 2.004247 38,675 122 568 704
2021-11-18 10:30:25 GMT 59.231461 1.980377 38,650 121 569 768
2021-11-18 10:30:20 GMT 59.237000 1.962982 38,600 121 569 832
2021-11-18 10:30:13 GMT 59.248077 1.928101 38,450 121 571 768
2021-11-18 10:30:10 GMT 59.251694 1.916748 38,425 121 571 1024
2021-11-18 10:29:59 GMT 59.266434 1.870422 38,250 121 571 1088
2021-11-18 10:29:52 GMT 59.276962 1.837097 38,100 121 573 1216
2021-11-18 10:29:45 GMT 59.287163 1.805073 37,925 121 574 1536
2021-11-18 10:29:32 GMT 59.303268 1.753740 37,600 121 576 1600
2021-11-18 10:29:23 GMT 59.315598 1.714142 37,400 121 580 1216
2021-11-18 10:29:09 GMT 59.335510 1.650787 37,100 121 581 1088
2021-11-18 10:29:03 GMT 59.344093 1.623514 37,025 121 580 640
2021-11-18 10:28:53 GMT 59.358109 1.579001 37,000 121 578 64
2021-11-18 10:28:44 GMT 59.371235 1.537044 36,975 121 578 0
2021-11-18 10:28:33 GMT 59.385910 1.490295 36,975 121 578 64
2021-11-18 10:28:26 GMT 59.397163 1.454078 36,975 121 579 0
2021-11-18 10:28:24 GMT 59.399120 1.447828 36,975 121 579 0
2021-11-18 10:28:17 GMT 59.409687 1.413827 36,975 121 579 -64
2021-11-18 10:28:14 GMT 59.412918 1.403595 37,000 121 579 -128
2021-11-18 10:28:06 GMT 59.424042 1.367798 36,975 121 579 -64
2021-11-18 10:28:04 GMT 59.426956 1.358422 36,975 121 579 -64
2021-11-18 10:27:59 GMT 59.434219 1.335123 37,000 121 580 -192
2021-11-18 10:27:54 GMT 59.440922 1.313624 37,000 121 580 -192
2021-11-18 10:27:46 GMT 59.451817 1.278676 37,000 121 580 -64
2021-11-18 10:27:43 GMT 59.455402 1.266932 36,975 121 580 64
2021-11-18 10:27:36 GMT 59.465836 1.233307 36,975 121 580 64
2021-11-18 10:27:34 GMT 59.468761 1.223839 36,975 121 580 64
2021-11-18 10:27:27 GMT 59.478607 1.191925 37,000 121 579 -64
2021-11-18 10:27:24 GMT 59.483192 1.177052 37,000 121 580 0
2021-11-18 10:27:16 GMT 59.493576 1.143311 36,975 121 580 64
2021-11-18 10:27:14 GMT 59.496784 1.133012 36,975 121 581 -64
2021-11-18 10:27:06 GMT 59.507172 1.099182 36,950 121 581 -64
2021-11-18 10:27:04 GMT 59.510239 1.089294 37,000 121 581 -64
2021-11-18 10:26:56 GMT 59.521179 1.053646 37,000 121 581 -64
2021-11-18 10:26:54 GMT 59.524384 1.043243 36,975 121 581 0
2021-11-18 10:26:46 GMT 59.534912 1.008911 36,975 121 581 -64
2021-11-18 10:26:44 GMT 59.538635 0.996630 36,975 121 581 0
2021-11-18 10:26:39 GMT 59.544735 0.976741 37,000 121 581 0
2021-11-18 10:26:36 GMT 59.553349 0.948707 37,000 121 582 64
2021-11-18 10:26:33 GMT 59.553349 0.948707 36,975 121 581 0
2021-11-18 10:26:29 GMT 59.559586 0.928345 36,975 121 582 64
2021-11-18 10:26:23 GMT 59.567451 0.902584 36,975 121 582 0
2021-11-18 10:26:14 GMT 59.579929 0.861764 36,975 121 582 -128
2021-11-18 10:26:04 GMT 59.593964 0.816010 37,000 121 582 -128
2021-11-18 10:25:54 GMT 59.607395 0.770653 37,000 119 582 -64
2021-11-18 10:25:44 GMT 59.620239 0.723633 36,975 117 580 64
2021-11-18 10:25:37 GMT 59.628159 0.692505 36,975 115 579 64
2021-11-18 10:25:34 GMT 59.632507 0.674469 36,975 114 578 -64
2021-11-18 10:25:23 GMT 59.643749 0.625179 36,975 113 575 0
2021-11-18 10:25:18 GMT 59.649536 0.597565 36,975 111 574 0
2021-11-18 10:25:14 GMT 59.653427 0.578156 37,000 111 573 -64
2021-11-18 10:25:10 GMT 59.656319 0.563049 36,975 110 572 64
2021-11-18 10:25:04 GMT 59.662373 0.529711 37,000 109 571 -64
2021-11-18 10:25:02 GMT 59.663906 0.520809 36,975 108 570 -64
2021-11-18 10:24:57 GMT 59.667892 0.497681 36,975 108 570 -64
2021-11-18 10:24:54 GMT 59.670891 0.480462 37,000 108 570 -64
2021-11-18 10:24:52 GMT 59.672516 0.471130 37,000 108 570 -64
2021-11-18 10:24:44 GMT 59.679108 0.432770 37,000 108 571 -64
2021-11-18 10:24:41 GMT 59.681808 0.416931 36,975 108 570 0
2021-11-18 10:24:37 GMT 59.685089 0.397686 36,975 108 570 -64
2021-11-18 10:24:32 GMT 59.689178 0.373535 37,000 108 570 -64
2021-11-18 10:24:27 GMT 59.693470 0.348437 36,975 108 570 -64
2021-11-18 10:24:23 GMT 59.696594 0.330139 37,000 108 570 0
2021-11-18 10:24:16 GMT 59.702271 0.296539 36,975 108 570 -64
2021-11-18 10:24:13 GMT 59.704872 0.281288 37,000 108 570 -64
2021-11-18 10:24:06 GMT 59.710552 0.247666 36,975 108 570 0
2021-11-18 10:24:03 GMT 59.713718 0.228913 36,975 108 571 -64
2021-11-18 10:23:56 GMT 59.718887 0.198761 37,000 108 572 -64
2021-11-18 10:23:52 GMT 59.723236 0.173035 37,000 108 571 64
2021-11-18 10:23:46 GMT 59.727448 0.148315 37,000 108 571 -64
2021-11-18 10:23:42 GMT 59.731361 0.125112 37,000 108 571 -64
2021-11-18 10:23:36 GMT 59.735779 0.098877 37,000 108 571 0
2021-11-18 10:23:33 GMT 59.739120 0.079102 36,975 108 571 -64
2021-11-18 10:23:31 GMT 59.740585 0.070129 37,000 108 571 0
2021-11-18 10:23:26 GMT 59.744164 0.048870 37,000 108 571 0
2021-11-18 10:23:21 GMT 59.748230 0.024628 37,000 108 571 0
2021-11-18 10:23:16 GMT 59.752636 -0.001610 36,975 108 570 64
2021-11-18 10:23:13 GMT 59.754967 -0.015438 37,000 108 570 64
2021-11-18 10:23:11 GMT 59.756332 -0.023895 36,975 108 570 0
2021-11-18 10:23:06 GMT 59.760681 -0.049713 36,975 108 571 64
2021-11-18 10:23:03 GMT 59.763065 -0.064024 36,975 108 571 64
2021-11-18 10:23:01 GMT 59.764740 -0.073874 36,975 108 570 0
2021-11-18 10:22:55 GMT 59.769535 -0.102571 36,975 108 570 0
2021-11-18 10:22:53 GMT 59.771351 -0.113462 36,975 108 570 0
2021-11-18 10:22:51 GMT 59.772949 -0.122864 36,975 108 569 0
2021-11-18 10:22:46 GMT 59.777309 -0.149073 36,975 108 569 -64
2021-11-18 10:22:43 GMT 59.779861 -0.164429 36,975 108 569 -64
2021-11-18 10:22:41 GMT 59.781326 -0.173309 36,975 108 568 -64
2021-11-18 10:22:36 GMT 59.785767 -0.199951 37,000 108 568 -128
2021-11-18 10:22:31 GMT 59.789459 -0.222189 37,000 108 568 -64
2021-11-18 10:22:25 GMT 59.793976 -0.249844 37,000 108 567 -64
2021-11-18 10:22:23 GMT 59.796116 -0.262725 37,000 108 567 -64
2021-11-18 10:22:20 GMT 59.798210 -0.275511 37,000 108 567 -64
2021-11-18 10:22:16 GMT 59.801937 -0.298241 36,975 108 567 -64
2021-11-18 10:22:13 GMT 59.804077 -0.311121 36,975 108 567 0
2021-11-18 10:22:06 GMT 59.809799 -0.346161 37,000 108 567 -64
2021-11-18 10:22:03 GMT 59.812641 -0.363496 37,000 107 566 -128
2021-11-18 10:21:56 GMT 59.818275 -0.397970 37,000 107 567 -128
2021-11-18 10:21:52 GMT 59.820786 -0.413361 37,025 107 567 -128
2021-11-18 10:21:45 GMT 59.826920 -0.450897 37,000 107 567 64
2021-11-18 10:21:42 GMT 59.828842 -0.462708 37,000 107 567 64
2021-11-18 10:21:36 GMT 59.834473 -0.497314 37,000 107 567 64
2021-11-18 10:21:32 GMT 59.836899 -0.512146 37,000 107 567 128
2021-11-18 10:21:26 GMT 59.844635 -0.559753 36,975 107 568 64
2021-11-18 10:21:23 GMT 59.844635 -0.559753 36,975 107 569 64
2021-11-18 10:21:16 GMT 59.850449 -0.595459 37,000 107 570 0
2021-11-18 10:21:12 GMT 59.853096 -0.611825 36,975 107 570 64
2021-11-18 10:21:05 GMT 59.859467 -0.651215 36,975 107 570 0
2021-11-18 10:21:03 GMT 59.861023 -0.661194 36,975 107 571 -128
2021-11-18 10:20:56 GMT 59.868832 -0.709565 37,000 107 572 -64
2021-11-18 10:20:53 GMT 59.868832 -0.709565 36,975 107 572 -64
2021-11-18 10:20:45 GMT 59.875305 -0.750092 36,975 107 572 0
2021-11-18 10:20:43 GMT 59.876770 -0.759064 37,000 107 572 -64
2021-11-18 10:20:35 GMT 59.883499 -0.801086 36,975 107 570 -64
2021-11-18 10:20:33 GMT 59.884918 -0.810059 36,975 107 570 -64
2021-11-18 10:20:25 GMT 59.891281 -0.849976 37,000 107 570 -64
2021-11-18 10:20:23 GMT 59.892883 -0.859955 36,975 107 569 -64
2021-11-18 10:20:15 GMT 59.899136 -0.899269 36,975 107 568 -128
2021-11-18 10:20:13 GMT 59.900803 -0.909760 36,975 107 567 -128
2021-11-18 10:20:05 GMT 59.907051 -0.948897 37,000 107 566 -128
2021-11-18 10:20:02 GMT 59.909317 -0.963318 37,000 107 566 -128
2021-11-18 10:19:55 GMT 59.914948 -0.998932 37,000 107 564 -64
2021-11-18 10:19:53 GMT 59.916546 -1.009322 37,000 107 564 -64
2021-11-18 10:19:47 GMT 59.921062 -1.038019 37,000 107 564 -64
2021-11-18 10:19:45 GMT 59.922684 -1.048370 37,000 107 564 -64
2021-11-18 10:19:43 GMT 59.924461 -1.059802 37,000 107 563 -64
2021-11-18 10:19:36 GMT 59.930008 -1.094879 37,000 107 563 -64
2021-11-18 10:19:33 GMT 59.932480 -1.110718 37,000 107 564 -64
2021-11-18 10:19:27 GMT 59.936874 -1.138367 37,000 107 564 -64
2021-11-18 10:19:25 GMT 59.938293 -1.147247 37,000 107 563 64
2021-11-18 10:19:23 GMT 59.940170 -1.159058 37,000 107 563 64
2021-11-18 10:19:17 GMT 59.946156 -1.197131 37,000 107 564 64
2021-11-18 10:19:15 GMT 59.946156 -1.197131 36,975 107 564 128
2021-11-18 10:19:13 GMT 59.948204 -1.210011 36,975 107 564 128
2021-11-18 10:19:05 GMT 59.953995 -1.247223 36,975 107 565 64
2021-11-18 10:19:02 GMT 59.956009 -1.260113 36,975 107 565 64
2021-11-18 10:18:56 GMT 59.963657 -1.309335 36,975 107 566 0
2021-11-18 10:18:53 GMT 59.963657 -1.309335 36,975 107 566 0
2021-11-18 10:18:46 GMT 59.968639 -1.341215 37,000 107 567 -64
2021-11-18 10:18:42 GMT 59.971207 -1.357664 37,000 107 567 -64
2021-11-18 10:18:36 GMT 59.976471 -1.391570 36,975 107 568 0
2021-11-18 10:18:32 GMT 59.979206 -1.409095 36,975 107 568 0
2021-11-18 10:18:26 GMT 59.984097 -1.441073 37,000 107 569 -64
2021-11-18 10:18:22 GMT 59.986496 -1.456541 36,975 107 569 -64
2021-11-18 10:18:16 GMT 59.992149 -1.493062 36,975 107 569 0
2021-11-18 10:18:14 GMT 59.993546 -1.502086 36,975 107 569 0
2021-11-18 10:18:12 GMT 59.994289 -1.507089 37,000 107 569 0
2021-11-18 10:18:07 GMT 59.999176 -1.538654 36,975 107 569 0
2021-11-18 10:18:05 GMT 60.000340 -1.546129 37,000 107 569 0
2021-11-18 10:18:01 GMT 60.002670 -1.561138 37,000 107 569 -64
2021-11-18 10:17:57 GMT 60.006592 -1.586767 37,000 107 570 -64
2021-11-18 10:17:55 GMT 60.008068 -1.596255 37,000 107 570 -64
2021-11-18 10:17:52 GMT 60.010071 -1.609301 37,000 106 569 0
2021-11-18 10:17:46 GMT 60.015335 -1.643971 37,000 106 569 -64
2021-11-18 10:17:44 GMT 60.016308 -1.650500 36,975 106 569 -64
2021-11-18 10:17:42 GMT 60.017899 -1.661019 36,975 106 569 -64
2021-11-18 10:17:39 GMT 60.020126 -1.675611 37,000 106 570 -64
2021-11-18 10:17:35 GMT 60.023479 -1.697682 37,000 106 570 -64
2021-11-18 10:17:32 GMT 60.025154 -1.708766 37,000 106 570 0
2021-11-18 10:17:29 GMT 60.027832 -1.726369 37,000 106 570 -64
2021-11-18 10:17:25 GMT 60.031036 -1.747394 37,000 106 570 -64
2021-11-18 10:17:22 GMT 60.033005 -1.760464 37,000 106 570 -64
2021-11-18 10:17:18 GMT 60.036209 -1.781585 36,975 106 570 -64
2021-11-18 10:17:15 GMT 60.038773 -1.798727 36,975 106 570 0
2021-11-18 10:17:11 GMT 60.041061 -1.813786 37,000 106 570 -64
2021-11-18 10:17:08 GMT 60.043076 -1.826856 36,975 106 570 -64
2021-11-18 10:17:05 GMT 60.046333 -1.848548 37,000 106 571 -64
2021-11-18 10:17:02 GMT 60.048290 -1.861594 36,975 106 570 0
2021-11-18 10:16:59 GMT 60.050850 -1.878760 37,000 106 570 -64
2021-11-18 10:16:55 GMT 60.053787 -1.898456 37,000 106 570 -64
2021-11-18 10:16:52 GMT 60.055710 -1.911526 37,000 106 570 -64
2021-11-18 10:16:48 GMT 60.058731 -1.931700 37,000 106 570 0
2021-11-18 10:16:44 GMT 60.061977 -1.953408 37,000 106 571 0
2021-11-18 10:16:42 GMT 60.063080 -1.960965 37,000 106 571 0
2021-11-18 10:16:37 GMT 60.067051 -1.987741 36,975 106 571 0
2021-11-18 10:16:34 GMT 60.068939 -2.000364 36,975 106 571 64
2021-11-18 10:16:32 GMT 60.070908 -2.013529 36,975 106 571 0
2021-11-18 10:16:29 GMT 60.073055 -2.028155 36,975 106 571 64
2021-11-18 10:16:25 GMT 60.075756 -2.046302 36,975 106 570 64
2021-11-18 10:16:22 GMT 60.078415 -2.064009 37,000 106 571 -64
2021-11-18 10:16:18 GMT 60.081158 -2.082694 36,975 106 571 -64
2021-11-18 10:16:16 GMT 60.082581 -2.092327 37,000 106 571 -64
2021-11-18 10:16:13 GMT 60.084461 -2.104863 36,975 106 571 -64
2021-11-18 10:16:11 GMT 60.086414 -2.118007 36,975 106 571 -64
2021-11-18 10:16:06 GMT 60.090141 -2.143315 37,000 106 571 -64
2021-11-18 10:16:04 GMT 60.091599 -2.152941 37,000 106 571 -64
2021-11-18 10:16:01 GMT 60.094193 -2.170585 37,000 106 571 -64
2021-11-18 10:15:58 GMT 60.096085 -2.183249 36,975 106 571 -64
2021-11-18 10:15:56 GMT 60.097775 -2.194911 37,000 106 571 -64
2021-11-18 10:15:54 GMT 60.098988 -2.202955 37,000 106 571 -64
2021-11-18 10:15:51 GMT 60.101780 -2.222181 36,975 106 571 -64
2021-11-18 10:15:46 GMT 60.105286 -2.245946 37,000 106 571 -64
2021-11-18 10:15:44 GMT 60.106476 -2.254091 37,000 106 571 -64
2021-11-18 10:15:41 GMT 60.108624 -2.268775 36,975 106 571 -64
2021-11-18 10:15:36 GMT 60.112625 -2.296044 36,975 106 571 -64
2021-11-18 10:15:34 GMT 60.114029 -2.305614 36,975 106 571 -64
2021-11-18 10:15:32 GMT 60.115883 -2.318311 37,000 106 571 -64
2021-11-18 10:15:26 GMT 60.120026 -2.346660 36,975 106 571 -64
2021-11-18 10:15:24 GMT 60.121517 -2.356764 37,000 106 571 -64
2021-11-18 10:15:22 GMT 60.123009 -2.366867 37,000 106 570 -64
2021-11-18 10:15:20 GMT 60.124355 -2.375990 37,000 106 570 -64
2021-11-18 10:15:16 GMT 60.127430 -2.397178 37,000 106 570 -64
2021-11-18 10:15:12 GMT 60.130688 -2.419543 36,975 106 570 0
2021-11-18 10:15:06 GMT 60.134785 -2.447793 37,000 106 570 0
2021-11-18 10:15:04 GMT 60.136047 -2.456486 36,975 106 570 0
2021-11-18 10:15:02 GMT 60.137787 -2.468609 36,975 106 570 0
2021-11-18 10:14:56 GMT 60.142181 -2.498916 36,975 106 570 64
2021-11-18 10:14:54 GMT 60.143692 -2.509050 37,000 106 570 -64
2021-11-18 10:14:52 GMT 60.145073 -2.518714 37,000 106 570 -64
2021-11-18 10:14:46 GMT 60.149506 -2.549586 37,000 106 570 -64
2021-11-18 10:14:44 GMT 60.150970 -2.559720 36,975 106 570 0
2021-11-18 10:14:42 GMT 60.152756 -2.571937 36,975 106 570 64
2021-11-18 10:14:34 GMT 60.158112 -2.609442 37,000 106 571 -64
2021-11-18 10:14:32 GMT 60.160061 -2.623182 37,000 105 571 -64
2021-11-18 10:14:24 GMT 60.165462 -2.660751 36,975 106 571 0
2021-11-18 10:14:21 GMT 60.167725 -2.676402 37,000 105 571 -64
2021-11-18 10:14:14 GMT 60.172585 -2.710484 37,000 105 571 -64
2021-11-18 10:14:12 GMT 60.174362 -2.723189 36,975 105 570 0
2021-11-18 10:14:05 GMT 60.179054 -2.756195 36,975 105 571 0
2021-11-18 10:14:02 GMT 60.181664 -2.774538 37,000 105 571 -64
2021-11-18 10:14:00 GMT 60.182964 -2.783661 37,000 105 571 0
2021-11-18 10:13:56 GMT 60.186131 -2.806026 37,000 105 571 -64
2021-11-18 10:13:54 GMT 60.187225 -2.813637 37,000 105 571 0
2021-11-18 10:13:52 GMT 60.189018 -2.826331 37,000 105 570 -64
2021-11-18 10:13:44 GMT 60.194229 -2.862821 37,000 105 570 0
2021-11-18 10:13:42 GMT 60.196014 -2.875577 37,000 105 570 0
2021-11-18 10:13:35 GMT 60.200844 -2.909611 36,975 105 570 64
2021-11-18 10:13:33 GMT 60.202194 -2.919238 36,975 105 570 64
2021-11-18 10:13:31 GMT 60.203728 -2.929916 36,975 105 570 64
2021-11-18 10:13:24 GMT 60.208897 -2.966603 36,975 105 571 0
2021-11-18 10:13:22 GMT 60.210709 -2.979379 36,975 105 571 -64
2021-11-18 10:13:15 GMT 60.215012 -3.009875 36,975 105 571 0
2021-11-18 10:13:12 GMT 60.217896 -3.030332 36,975 105 571 0
2021-11-18 10:13:04 GMT 60.223206 -3.068027 36,975 105 572 -64
2021-11-18 10:13:00 GMT 60.225494 -3.084412 36,975 105 573 0
2021-11-18 10:12:54 GMT 60.230209 -3.118128 37,000 105 573 -64
2021-11-18 10:12:51 GMT 60.232544 -3.135027 37,000 105 573 -64
2021-11-18 10:12:42 GMT 60.238689 -3.179071 37,000 105 574 -64
2021-11-18 10:12:40 GMT 60.240410 -3.191332 37,000 105 574 -64
2021-11-18 10:12:36 GMT 60.242832 -3.208793 37,000 105 574 -64
2021-11-18 10:12:34 GMT 60.244835 -3.223114 37,000 105 574 -64
2021-11-18 10:12:31 GMT 60.246277 -3.233414 37,000 105 574 -64
2021-11-18 10:12:28 GMT 60.248337 -3.248259 37,000 105 574 -64
2021-11-18 10:12:24 GMT 60.251816 -3.273435 37,000 105 574 -64
2021-11-18 10:12:19 GMT 60.255157 -3.297509 37,000 105 573 -64
2021-11-18 10:12:14 GMT 60.259033 -3.325718 36,975 105 573 64
2021-11-18 10:12:09 GMT 60.262161 -3.348841 37,000 105 573 -64
2021-11-18 10:12:04 GMT 60.265736 -3.374961 37,000 105 573 0
2021-11-18 10:12:01 GMT 60.267693 -3.389380 37,000 105 573 -64
2021-11-18 10:11:59 GMT 60.268982 -3.399132 37,000 105 573 0
2021-11-18 10:11:54 GMT 60.272919 -3.427829 37,000 105 573 -64
2021-11-18 10:11:49 GMT 60.275932 -3.449903 37,000 105 573 -64
2021-11-18 10:11:44 GMT 60.279785 -3.478120 37,000 105 573 -64
2021-11-18 10:11:41 GMT 60.281658 -3.491985 37,000 105 573 0
2021-11-18 10:11:39 GMT 60.283237 -3.503265 37,000 105 573 0
2021-11-18 10:11:35 GMT 60.286034 -3.523767 37,000 105 573 0
2021-11-18 10:11:33 GMT 60.287151 -3.532006 37,000 105 573 0
2021-11-18 10:11:31 GMT 60.288803 -3.543754 37,000 105 573 64
2021-11-18 10:11:29 GMT 60.290268 -3.554568 36,975 105 573 64
2021-11-18 10:11:24 GMT 60.293793 -3.580785 36,975 105 573 64
2021-11-18 10:11:20 GMT 60.296181 -3.598807 36,975 105 573 64
2021-11-18 10:11:18 GMT 60.297501 -3.608535 36,975 105 573 64
2021-11-18 10:11:14 GMT 60.300697 -3.632747 36,975 104 573 64
2021-11-18 10:11:11 GMT 60.302399 -3.645567 36,975 104 573 0
2021-11-18 10:11:09 GMT 60.304184 -3.659016 37,000 104 573 0
2021-11-18 10:11:04 GMT 60.307755 -3.685724 37,000 104 574 64
2021-11-18 10:10:58 GMT 60.311142 -3.711485 36,975 105 574 0
2021-11-18 10:10:54 GMT 60.314301 -3.735257 37,000 105 574 0
2021-11-18 10:10:51 GMT 60.316132 -3.748611 36,975 105 574 64
2021-11-18 10:10:48 GMT 60.318249 -3.764583 37,000 105 574 0
2021-11-18 10:10:44 GMT 60.321552 -3.789400 36,975 105 575 0
2021-11-18 10:10:41 GMT 60.323135 -3.801270 37,000 105 575 0
2021-11-18 10:10:37 GMT 60.325882 -3.821916 36,975 105 575 -64
2021-11-18 10:10:34 GMT 60.328354 -3.840574 36,975 105 576 -64
2021-11-18 10:10:30 GMT 60.331284 -3.862263 37,000 105 576 -128
2021-11-18 10:10:27 GMT 60.333004 -3.875231 37,000 105 578 -128
2021-11-18 10:10:24 GMT 60.335175 -3.891338 37,000 105 578 -128
2021-11-18 10:10:21 GMT 60.336960 -3.904787 37,000 105 579 -128
2021-11-18 10:10:17 GMT 60.339661 -3.925062 37,000 105 578 -128
2021-11-18 10:10:14 GMT 60.342033 -3.942817 37,000 104 579 -64
2021-11-18 10:10:10 GMT 60.345154 -3.966254 36,975 104 579 -64
2021-11-18 10:10:04 GMT 60.349319 -3.997508 37,000 104 580 -64
2021-11-18 10:10:00 GMT 60.351158 -4.011579 37,000 104 581 -64
2021-11-18 10:09:57 GMT 60.353302 -4.027815 37,000 104 581 0
2021-11-18 10:09:54 GMT 60.356094 -4.048746 37,000 104 581 64
2021-11-18 10:09:49 GMT 60.359253 -4.072802 37,000 104 582 0
2021-11-18 10:09:44 GMT 60.362823 -4.099984 37,000 104 582 -64
2021-11-18 10:09:41 GMT 60.364799 -4.115165 37,000 104 582 0
2021-11-18 10:09:39 GMT 60.366119 -4.125177 36,975 104 582 0
2021-11-18 10:09:35 GMT 60.369141 -4.148191 37,000 104 582 0
2021-11-18 10:09:31 GMT 60.371475 -4.165997 36,975 104 582 64
2021-11-18 10:09:29 GMT 60.372898 -4.177061 37,000 104 582 64
2021-11-18 10:09:25 GMT 60.375786 -4.199033 37,000 104 583 64
2021-11-18 10:09:23 GMT 60.376785 -4.206911 36,975 104 582 64
2021-11-18 10:09:21 GMT 60.378571 -4.220549 36,975 104 582 64
2021-11-18 10:09:19 GMT 60.379974 -4.231600 37,000 104 582 64
2021-11-18 10:09:13 GMT 60.383423 -4.258339 36,975 104 582 64
2021-11-18 10:09:10 GMT 60.385796 -4.276722 36,975 104 581 64
2021-11-18 10:09:08 GMT 60.387142 -4.287218 36,975 104 581 0
2021-11-18 10:09:05 GMT 60.389420 -4.304462 36,975 104 581 0
2021-11-18 10:09:03 GMT 60.390198 -4.310808 36,975 104 581 0
2021-11-18 10:09:01 GMT 60.392174 -4.325965 36,975 104 581 -64
2021-11-18 10:08:58 GMT 60.393997 -4.340168 36,975 104 581 -64
2021-11-18 10:08:55 GMT 60.397060 -4.363828 36,975 104 581 -64
2021-11-18 10:08:50 GMT 60.399059 -4.379523 36,975 104 582 -64
2021-11-18 10:08:48 GMT 60.401112 -4.395316 36,975 104 582 -64
2021-11-18 10:08:43 GMT 60.403839 -4.416788 37,000 104 582 -128
2021-11-18 10:08:41 GMT 60.405441 -4.429384 37,000 104 582 -64
2021-11-18 10:08:38 GMT 60.407730 -4.447285 37,000 104 582 -128
2021-11-18 10:08:35 GMT 60.409676 -4.462509 37,000 104 583 -64
2021-11-18 10:08:33 GMT 60.410606 -4.469866 37,000 104 583 -64
2021-11-18 10:08:28 GMT 60.414001 -4.496723 37,000 104 583 -64
2021-11-18 10:08:25 GMT 60.416428 -4.515665 37,000 104 583 -64
2021-11-18 10:08:23 GMT 60.417171 -4.521463 37,000 104 583 -64
2021-11-18 10:08:21 GMT 60.419033 -4.536275 37,000 104 583 0
2021-11-18 10:08:18 GMT 60.420547 -4.548340 37,000 104 583 0
2021-11-18 10:08:15 GMT 60.423176 -4.568841 36,975 104 583 0
2021-11-18 10:08:13 GMT 60.423828 -4.574138 37,000 104 583 0
2021-11-18 10:08:11 GMT 60.425831 -4.589931 37,000 104 583 0
2021-11-18 10:08:07 GMT 60.428192 -4.608386 37,000 104 583 0
2021-11-18 10:08:04 GMT 60.429794 -4.620982 37,000 104 583 -64
2021-11-18 10:08:02 GMT 60.431763 -4.636799 37,000 104 583 0
2021-11-18 10:07:58 GMT 60.434532 -4.658399 36,975 104 583 0
2021-11-18 10:07:54 GMT 60.436432 -4.673641 37,000 104 583 0
2021-11-18 10:07:52 GMT 60.438396 -4.688906 37,000 104 583 0
2021-11-18 10:07:49 GMT 60.439701 -4.699402 36,975 104 583 0
2021-11-18 10:07:47 GMT 60.441238 -4.711525 37,000 104 583 0
2021-11-18 10:07:43 GMT 60.443939 -4.733146 37,000 104 582 64
2021-11-18 10:07:41 GMT 60.445290 -4.743641 37,000 104 582 64
2021-11-18 10:07:38 GMT 60.447693 -4.763236 36,975 104 582 64
2021-11-18 10:07:33 GMT 60.450409 -4.784840 36,975 104 582 64
2021-11-18 10:07:27 GMT 60.455063 -4.821821 36,975 104 583 0
2021-11-18 10:07:24 GMT 60.456367 -4.832317 36,975 104 583 0
2021-11-18 10:07:20 GMT 60.459114 -4.854486 37,000 104 583 -64
2021-11-18 10:07:13 GMT 60.463768 -4.891466 37,000 104 583 -64
2021-11-18 10:07:09 GMT 60.466003 -4.909515 37,000 104 584 0
2021-11-18 10:07:05 GMT 60.469028 -4.933842 36,975 104 584 0
2021-11-18 10:07:03 GMT 60.470398 -4.944889 37,000 104 584 0
2021-11-18 10:07:00 GMT 60.472092 -4.958717 36,975 103 584 0
2021-11-18 10:06:56 GMT 60.475266 -4.984556 37,000 103 583 -64
2021-11-18 10:06:53 GMT 60.476849 -4.997308 37,000 103 583 -64
2021-11-18 10:06:49 GMT 60.479233 -5.016869 37,000 103 583 0
2021-11-18 10:06:46 GMT 60.481842 -5.037989 37,000 103 583 0
2021-11-18 10:06:43 GMT 60.483459 -5.051259 37,000 103 583 0
2021-11-18 10:06:40 GMT 60.485416 -5.067051 37,000 103 583 0
2021-11-18 10:06:35 GMT 60.488342 -5.090932 36,975 103 583 0
2021-11-18 10:06:33 GMT 60.490036 -5.104665 36,975 103 583 0
2021-11-18 10:06:29 GMT 60.492027 -5.121100 36,975 103 583 0
2021-11-18 10:06:27 GMT 60.493790 -5.135351 36,975 103 583 -64
2021-11-18 10:06:23 GMT 60.496307 -5.155923 36,975 103 584 -64
2021-11-18 10:06:17 GMT 60.500450 -5.189863 36,975 103 584 -64
2021-11-18 10:06:13 GMT 60.502945 -5.210550 37,000 103 583 -64
2021-11-18 10:06:08 GMT 60.505711 -5.233318 37,000 103 583 -64
2021-11-18 10:06:06 GMT 60.507622 -5.249209 37,000 103 583 -64
2021-11-18 10:06:03 GMT 60.509262 -5.262451 37,000 103 583 -64
2021-11-18 10:06:00 GMT 60.511253 -5.278931 37,000 103 583 0
2021-11-18 10:05:56 GMT 60.513535 -5.297961 37,000 103 583 0
2021-11-18 10:05:53 GMT 60.515720 -5.316010 36,975 103 583 0
2021-11-18 10:05:51 GMT 60.516838 -5.325524 37,000 103 583 0
2021-11-18 10:05:49 GMT 60.518326 -5.337745 36,975 103 583 0
2021-11-18 10:05:46 GMT 60.519913 -5.351028 37,000 103 583 0
2021-11-18 10:05:43 GMT 60.522171 -5.369568 36,975 103 583 0
2021-11-18 10:05:40 GMT 60.523495 -5.380750 37,000 103 583 0
2021-11-18 10:05:37 GMT 60.526108 -5.402432 36,975 103 583 0
2021-11-18 10:05:33 GMT 60.528431 -5.422047 37,000 103 583 -64
2021-11-18 10:05:31 GMT 60.529495 -5.431129 37,000 103 583 -64
2021-11-18 10:05:29 GMT 60.530945 -5.443235 37,000 103 582 -64
2021-11-18 10:05:23 GMT 60.534668 -5.474506 37,000 103 582 -64
2021-11-18 10:05:20 GMT 60.536682 -5.491459 37,000 103 582 -64
2021-11-18 10:05:13 GMT 60.541077 -5.528585 37,000 103 582 0
2021-11-18 10:05:10 GMT 60.542908 -5.543878 36,975 103 582 0
2021-11-18 10:05:04 GMT 60.546677 -5.575758 36,975 103 582 0
2021-11-18 10:05:02 GMT 60.547852 -5.585790 36,975 103 582 0
2021-11-18 10:04:58 GMT 60.550449 -5.607540 37,000 103 581 -64
2021-11-18 10:04:53 GMT 60.553570 -5.634024 37,000 103 581 0
2021-11-18 10:04:49 GMT 60.556091 -5.655686 37,000 103 581 -64
2021-11-18 10:04:43 GMT 60.559982 -5.688645 36,975 103 582 0
2021-11-18 10:04:40 GMT 60.561951 -5.705598 37,000 103 582 -64
2021-11-18 10:04:33 GMT 60.566025 -5.740641 36,975 103 582 -64
2021-11-18 10:04:31 GMT 60.567303 -5.751735 36,975 103 582 -64
2021-11-18 10:04:29 GMT 60.568268 -5.759772 37,000 103 582 -64
2021-11-18 10:04:23 GMT 60.572144 -5.793228 37,000 103 583 -64
2021-11-18 10:04:20 GMT 60.574310 -5.811862 37,000 103 583 -64
2021-11-18 10:04:12 GMT 60.579025 -5.852303 37,000 103 584 -64
2021-11-18 10:04:07 GMT 60.582291 -5.880530 37,000 103 584 0
2021-11-18 10:04:04 GMT 60.584152 -5.896519 37,000 103 584 -64
2021-11-18 10:04:02 GMT 60.585133 -5.905053 37,000 103 584 0
2021-11-18 10:04:00 GMT 60.586620 -5.917805 37,000 103 584 0
2021-11-18 10:03:53 GMT 60.590973 -5.955726 36,975 103 584 0
2021-11-18 10:03:50 GMT 60.592804 -5.971732 36,975 103 584 0
2021-11-18 10:03:43 GMT 60.597107 -6.009048 36,975 103 584 -64
2021-11-18 10:03:38 GMT 60.599281 -6.027669 36,975 103 584 -64
2021-11-18 10:03:33 GMT 60.603149 -6.061328 36,975 103 584 -64
2021-11-18 10:03:28 GMT 60.605804 -6.084816 36,975 103 584 -64
2021-11-18 10:03:24 GMT 60.608685 -6.109870 37,000 103 584 0
2021-11-18 10:03:22 GMT 60.609467 -6.116733 37,000 103 584 0
2021-11-18 10:03:19 GMT 60.611107 -6.131156 37,000 103 584 0
2021-11-18 10:03:13 GMT 60.615326 -6.167971 36,975 102 583 0
2021-11-18 10:03:09 GMT 60.617340 -6.186060 36,975 102 582 0
2021-11-18 10:03:03 GMT 60.621460 -6.222334 36,975 102 583 0
2021-11-18 10:02:59 GMT 60.623211 -6.237782 36,975 102 582 0
2021-11-18 10:02:56 GMT 60.625214 -6.255388 36,975 102 583 -64
2021-11-18 10:02:53 GMT 60.627365 -6.274614 36,975 102 583 -64
2021-11-18 10:02:47 GMT 60.630798 -6.304975 36,975 102 583 -64
2021-11-18 10:02:43 GMT 60.633545 -6.329498 36,975 102 583 -64
2021-11-18 10:02:39 GMT 60.635284 -6.344983 37,000 102 583 -64
2021-11-18 10:02:34 GMT 60.638718 -6.375953 37,000 102 583 -64
2021-11-18 10:02:32 GMT 60.639412 -6.381880 37,000 102 583 -64
2021-11-18 10:02:29 GMT 60.641373 -6.399441 37,000 102 583 -64
2021-11-18 10:02:24 GMT 60.644852 -6.430412 37,000 102 583 -64
2021-11-18 10:02:22 GMT 60.645447 -6.435810 37,000 102 583 -64
2021-11-18 10:02:19 GMT 60.647461 -6.453900 37,000 102 583 -64
2021-11-18 10:02:14 GMT 60.650757 -6.483828 37,000 102 583 0
2021-11-18 10:02:12 GMT 60.651352 -6.489132 37,000 102 583 -64
2021-11-18 10:02:09 GMT 60.653366 -6.507316 37,000 102 582 0
2021-11-18 10:02:04 GMT 60.656754 -6.538286 36,975 102 582 0
2021-11-18 10:01:54 GMT 60.663345 -6.597953 37,000 102 582 0
2021-11-18 10:01:47 GMT 60.666458 -6.626227 36,975 102 581 0
2021-11-18 10:01:44 GMT 60.668461 -6.644374 36,975 102 581 -64
2021-11-18 10:01:42 GMT 60.669205 -6.651275 36,975 102 580 0
2021-11-18 10:01:38 GMT 60.671768 -6.674668 36,975 102 580 0
2021-11-18 10:01:32 GMT 60.674931 -6.704014 37,000 102 580 -64
2021-11-18 10:01:28 GMT 60.677628 -6.729031 37,000 102 579 0
2021-11-18 10:01:22 GMT 60.680702 -6.757180 37,000 102 579 -64
2021-11-18 10:01:17 GMT 60.683762 -6.785384 37,000 102 579 -64
2021-11-18 10:01:12 GMT 60.686417 -6.809913 37,000 102 579 -64
2021-11-18 10:01:07 GMT 60.689163 -6.835390 37,000 102 579 0
2021-11-18 10:01:02 GMT 60.692184 -6.863140 37,000 102 579 0
2021-11-18 10:00:57 GMT 60.695087 -6.890193 37,000 102 579 0
2021-11-18 10:00:52 GMT 60.697834 -6.915697 37,000 102 578 64
2021-11-18 10:00:49 GMT 60.699600 -6.932184 37,000 102 578 64
2021-11-18 10:00:47 GMT 60.700672 -6.942280 37,000 102 578 64
2021-11-18 10:00:41 GMT 60.703979 -6.973179 37,000 102 578 64
2021-11-18 10:00:39 GMT 60.705185 -6.984274 36,975 102 578 0
2021-11-18 10:00:37 GMT 60.706585 -6.997604 36,975 102 578 64
2021-11-18 10:00:32 GMT 60.709259 -7.022537 36,975 102 578 0
2021-11-18 10:00:29 GMT 60.710915 -7.037920 37,000 102 578 0
2021-11-18 10:00:27 GMT 60.712234 -7.050192 36,975 102 578 0
2021-11-18 10:00:22 GMT 60.715164 -7.077752 37,000 102 578 0
2021-11-18 10:00:18 GMT 60.717545 -7.100104 37,000 102 578 0
2021-11-18 10:00:12 GMT 60.720737 -7.130421 37,000 102 578 0
2021-11-18 10:00:08 GMT 60.723083 -7.152194 36,975 102 578 -64
2021-11-18 10:00:02 GMT 60.726471 -7.184111 37,000 102 578 -64
2021-11-18 09:59:57 GMT 60.729492 -7.212809 37,000 102 578 64
2021-11-18 09:59:52 GMT 60.732143 -7.237832 37,000 102 577 0
2021-11-18 09:59:48 GMT 60.734390 -7.259595 37,000 102 578 0
2021-11-18 09:59:42 GMT 60.737549 -7.289429 36,975 102 578 64
2021-11-18 09:59:38 GMT 60.739975 -7.312822 36,975 102 578 64
2021-11-18 09:59:32 GMT 60.743080 -7.342104 36,975 102 578 -64
2021-11-18 09:59:28 GMT 60.745560 -7.366144 37,000 101 578 0
2021-11-18 09:59:22 GMT 60.748764 -7.397019 36,975 101 578 -64
2021-11-18 09:59:17 GMT 60.751324 -7.422049 37,000 101 578 -64
2021-11-18 09:59:11 GMT 60.754395 -7.451968 37,000 101 578 -64
2021-11-18 09:59:06 GMT 60.756866 -7.475912 37,000 101 579 -64
2021-11-18 09:59:02 GMT 60.759613 -7.502620 37,000 101 579 -64
2021-11-18 09:58:52 GMT 60.765102 -7.556534 36,975 101 579 0
2021-11-18 09:58:42 GMT 60.770828 -7.612152 36,975 101 580 0
2021-11-18 09:58:32 GMT 60.776184 -7.665142 37,000 101 579 -64
2021-11-18 09:58:22 GMT 60.781677 -7.719695 37,000 101 579 -64
2021-11-18 09:58:12 GMT 60.786934 -7.771650 37,000 101 579 -64
2021-11-18 09:58:04 GMT 60.791122 -7.813339 37,000 101 579 0
2021-11-18 09:58:02 GMT 60.792522 -7.827366 37,000 101 579 0
2021-11-18 09:57:54 GMT 60.796417 -7.866400 36,975 101 579 0
2021-11-18 09:57:52 GMT 60.797733 -7.879846 36,975 101 579 0
2021-11-18 09:57:44 GMT 60.801693 -7.919475 37,000 101 579 -64
2021-11-18 09:57:41 GMT 60.803238 -7.935065 36,975 101 579 -64
2021-11-18 09:57:34 GMT 60.806946 -7.972570 37,000 101 580 0
2021-11-18 09:57:31 GMT 60.808441 -7.988140 37,000 101 580 -64
2021-11-18 09:57:24 GMT 60.812210 -8.026270 37,000 101 581 0
2021-11-18 09:57:21 GMT 60.813721 -8.041329 37,000 101 581 -64
2021-11-18 09:57:11 GMT 60.819103 -8.095649 36,975 101 582 0
2021-11-18 09:57:04 GMT 60.823013 -8.135572 36,975 101 583 0
2021-11-18 09:57:01 GMT 60.824432 -8.150151 36,975 101 583 -64
2021-11-18 09:56:54 GMT 60.828369 -8.190023 36,975 101 584 -64
2021-11-18 09:56:51 GMT 60.829605 -8.203093 36,975 101 584 -64
2021-11-18 09:56:44 GMT 60.833496 -8.243061 37,000 101 585 -64
2021-11-18 09:56:41 GMT 60.834961 -8.258309 37,000 101 585 -64
2021-11-18 09:56:31 GMT 60.840096 -8.311942 37,000 101 585 -64
2021-11-18 09:56:21 GMT 60.845219 -8.365206 37,000 101 585 -64
2021-11-18 09:56:11 GMT 60.850571 -8.421210 37,000 101 585 -64
2021-11-18 09:56:00 GMT 60.856110 -8.479930 37,000 100 586 0
2021-11-18 09:55:51 GMT 60.860870 -8.530978 37,000 100 585 0
2021-11-18 09:55:41 GMT 60.865768 -8.583164 37,000 100 585 0
2021-11-18 09:55:31 GMT 60.871033 -8.639611 37,000 100 584 0
2021-11-18 09:55:21 GMT 60.876068 -8.693879 36,975 100 584 0
2021-11-18 09:55:11 GMT 60.880920 -8.747106 37,000 100 583 0
2021-11-18 09:55:03 GMT 60.885113 -8.793182 36,975 100 582 0
2021-11-18 09:55:01 GMT 60.885818 -8.801280 37,000 100 582 0
2021-11-18 09:54:53 GMT 60.889999 -8.847329 37,000 100 582 -64
2021-11-18 09:54:51 GMT 60.890697 -8.854980 37,000 100 582 -64
2021-11-18 09:54:42 GMT 60.896053 -8.914621 37,000 100 582 -64
2021-11-18 09:54:31 GMT 60.900570 -8.964451 37,000 100 582 0
2021-11-18 09:54:21 GMT 60.905640 -9.020344 37,000 100 583 64
2021-11-18 09:54:11 GMT 60.910484 -9.072941 37,000 100 582 0
2021-11-18 09:54:01 GMT 60.915894 -9.128597 36,975 101 582 64
2021-11-18 09:53:50 GMT 60.921471 -9.186532 36,975 101 582 0
2021-11-18 09:53:41 GMT 60.926266 -9.236265 37,000 101 582 -64
2021-11-18 09:53:30 GMT 60.931713 -9.293649 37,000 100 582 0
2021-11-18 09:53:21 GMT 60.936584 -9.345103 37,000 100 582 64
2021-11-18 09:53:11 GMT 60.941528 -9.398141 36,975 100 582 0
2021-11-18 09:53:01 GMT 60.946472 -9.452315 37,000 100 581 0
2021-11-18 09:52:51 GMT 60.951591 -9.509157 36,975 100 581 64
2021-11-18 09:52:41 GMT 60.956268 -9.562936 36,975 99 581 64
2021-11-18 09:52:31 GMT 60.960854 -9.616667 36,975 99 582 64
2021-11-18 09:52:20 GMT 60.965561 -9.674883 36,975 99 581 -64
2021-11-18 09:52:10 GMT 60.969650 -9.727805 37,000 98 582 0
2021-11-18 09:52:01 GMT 60.973480 -9.780768 36,975 98 582 0
2021-11-18 09:51:51 GMT 60.977242 -9.836001 37,000 97 582 0
2021-11-18 09:51:41 GMT 60.979935 -9.891484 37,000 93 582 -64
2021-11-18 09:51:31 GMT 60.980942 -9.947741 37,000 90 581 0
2021-11-18 09:51:20 GMT 60.980255 -10.002768 36,975 86 579 0
2021-11-18 09:51:10 GMT 60.978172 -10.057002 36,975 84 577 0
2021-11-18 09:51:00 GMT 60.975239 -10.110365 36,975 83 577 -64
2021-11-18 09:50:50 GMT 60.972198 -10.166426 37,000 84 578 -64
2021-11-18 09:50:40 GMT 60.969543 -10.220979 37,000 83 577 -64
2021-11-18 09:50:30 GMT 60.966385 -10.274300 37,000 82 577 -64
2021-11-18 09:50:19 GMT 60.962856 -10.331268 37,000 82 576 0
2021-11-18 09:50:10 GMT 60.959549 -10.383257 37,000 82 576 -64
2021-11-18 09:50:00 GMT 60.956131 -10.437959 37,000 82 576 -64
2021-11-18 09:49:50 GMT 60.952652 -10.492133 36,975 82 576 0
2021-11-18 09:49:40 GMT 60.949127 -10.547443 37,000 82 577 -64
2021-11-18 09:49:30 GMT 60.945786 -10.599439 37,000 82 576 0
2021-11-18 09:49:20 GMT 60.942093 -10.655169 37,000 82 576 0
2021-11-18 09:49:10 GMT 60.938602 -10.708237 37,000 82 577 0
2021-11-18 09:49:00 GMT 60.934982 -10.762908 36,975 82 578 -64
2021-11-18 09:48:50 GMT 60.931412 -10.817177 37,000 82 578 -64
2021-11-18 09:48:40 GMT 60.927704 -10.872582 37,000 82 579 -64
2021-11-18 09:48:29 GMT 60.923798 -10.930710 36,975 82 579 -64
2021-11-18 09:48:20 GMT 60.920380 -10.981214 36,975 82 578 0
2021-11-18 09:48:10 GMT 60.916721 -11.034884 37,000 82 578 -64
2021-11-18 09:48:00 GMT 60.912918 -11.090698 37,000 81 578 -64
2021-11-18 09:47:50 GMT 60.909275 -11.143276 37,000 81 577 -64
2021-11-18 09:47:39 GMT 60.905365 -11.200088 36,975 81 577 0
2021-11-18 09:47:30 GMT 60.901611 -11.254167 36,975 81 576 -64
2021-11-18 09:47:20 GMT 60.897858 -11.307110 37,000 81 577 0
2021-11-18 09:47:10 GMT 60.894096 -11.360550 36,975 81 577 0
2021-11-18 09:47:00 GMT 60.890141 -11.415580 36,975 81 576 0
2021-11-18 09:46:50 GMT 60.886230 -11.470105 36,975 81 577 -64
2021-11-18 09:46:40 GMT 60.882320 -11.524658 37,000 81 577 -64
2021-11-18 09:46:30 GMT 60.878540 -11.577033 37,000 81 578 -64
2021-11-18 09:46:20 GMT 60.874603 -11.631112 37,000 81 579 -64
2021-11-18 09:46:10 GMT 60.870529 -11.686328 37,000 81 579 -64
2021-11-18 09:46:00 GMT 60.866501 -11.741638 36,975 81 579 -64
2021-11-18 09:45:50 GMT 60.862583 -11.794118 36,975 81 579 0
2021-11-18 09:45:40 GMT 60.858536 -11.848944 36,975 81 580 -64
2021-11-18 09:45:30 GMT 60.854435 -11.903687 37,000 81 580 0
2021-11-18 09:45:19 GMT 60.850342 -11.958429 36,975 81 581 -64
2021-11-18 09:45:09 GMT 60.846176 -12.013834 37,000 81 581 -64
2021-11-18 09:44:59 GMT 60.842148 -12.067061 37,000 81 582 -64
2021-11-18 09:44:36 GMT 60.832508 -12.192568 37,000 81 582 0
2021-11-18 09:44:29 GMT 60.829483 -12.231609 37,000 81 582 0
2021-11-18 09:44:19 GMT 60.825348 -12.285272 37,000 80 581 0
2021-11-18 09:44:09 GMT 60.821243 -12.337745 36,975 80 580 -64
2021-11-18 09:43:59 GMT 60.816925 -12.392199 37,000 80 579 -64
2021-11-18 09:43:49 GMT 60.812725 -12.445646 37,000 80 578 -64
2021-11-18 09:43:39 GMT 60.808273 -12.501021 36,975 80 577 0
2021-11-18 09:43:29 GMT 60.804020 -12.554332 37,000 80 577 0
2021-11-18 09:43:19 GMT 60.799599 -12.609166 37,000 80 577 0
2021-11-18 09:43:09 GMT 60.795135 -12.664490 37,000 80 577 -64
We lost coverage of the aircraft here for a total of 150 minutes
2021-11-18 07:13:21 GMT 52.116669 -51.299999 37,000 66 510
2021-11-18 07:12:21 GMT 52.083332 -51.516666 37,000 67 510
2021-11-18 07:11:22 GMT 52.016666 -51.716667 37,000 72 510
2021-11-18 07:10:22 GMT 51.950001 -51.933334 37,000 66 510
2021-11-18 07:09:35 GMT 51.916668 -52.183334 37,000 62 510
2021-11-18 07:08:35 GMT 51.883331 -52.400002 37,000 60 510
2021-11-18 07:07:21 GMT 51.783333 -52.566666 37,000 67 510
2021-11-18 07:06:21 GMT 51.733334 -52.766666 37,000 66 510
2021-11-18 07:05:22 GMT 51.683334 -52.983334 37,000 63 510
2021-11-18 07:04:08 GMT 51.616669 -53.233334 37,000 66 510
2021-11-18 07:03:08 GMT 51.549999 -53.450001 37,000 69 510
2021-11-18 07:02:08 GMT 51.483334 -53.650002 37,000 71 510
2021-11-18 07:01:07 GMT 51.450001 -53.866669 37,000 71 510
2021-11-18 07:00:07 GMT 51.400002 -54.099998 37,000 71 510
2021-11-18 06:59:08 GMT 51.349998 -54.299999 37,000 70 510
2021-11-18 06:58:08 GMT 51.316666 -54.533333 37,000 70 510
2021-11-18 06:57:08 GMT 51.266666 -54.733334 37,000 67 510
2021-11-18 06:56:21 GMT 51.216667 -54.900002 37,000 69 510
2021-11-18 06:55:35 GMT 51.183334 -55.150002 37,000 64 510
2021-11-18 06:54:21 GMT 51.116669 -55.316666 37,000 69 510
2021-11-18 06:53:22 GMT 51.066666 -55.533333 37,000 69 510
2021-11-18 06:52:22 GMT 51.016666 -55.716667 37,000 68 510
2021-11-18 06:51:21 GMT 50.966667 -55.950001 37,000 67 510
2021-11-18 06:50:21 GMT 50.916668 -56.166668 37,000 66 510
2021-11-18 06:49:21 GMT 50.849998 -56.383331 37,000 68 510
2021-11-18 06:48:22 GMT 50.799999 -56.599998 37,000 68 510
2021-11-18 06:47:22 GMT 50.750000 -56.783333 37,000 67 510
2021-11-18 06:46:21 GMT 50.700001 -57.000000 37,000 68 510
2021-11-18 06:45:21 GMT 50.650002 -57.200001 37,000 66 510
2021-11-18 06:44:21 GMT 50.583332 -57.416668 37,000 66 510
2021-11-18 06:43:21 GMT 50.549999 -57.599998 37,000 65 510
2021-11-18 06:42:22 GMT 50.483334 -57.816666 37,000 66 510
2021-11-18 06:41:22 GMT 50.416668 -58.033333 37,000 65 510
2021-11-18 06:40:21 GMT 50.366669 -58.233334 37,000 66 510
2021-11-18 06:39:21 GMT 50.316666 -58.433334 37,000 66 510
2021-11-18 06:38:21 GMT 50.250000 -58.616669 37,000 67 510
2021-11-18 06:37:21 GMT 50.200001 -58.833332 37,000 64 510
2021-11-18 06:36:22 GMT 50.150002 -59.033333 37,000 64 510
2021-11-18 06:35:21 GMT 50.083332 -59.250000 37,000 62 510
2021-11-18 06:34:21 GMT 50.016666 -59.433334 37,000 64 510
2021-11-18 06:33:07 GMT 49.950001 -59.683334 37,000 65 510
2021-11-18 06:32:07 GMT 49.883331 -59.866669 37,000 67 510
2021-11-18 06:31:26 GMT 49.849998 -59.983334 37,000 69 510
2021-11-18 06:31:07 GMT 49.833332 -60.083332 37,000 65 510
2021-11-18 06:30:08 GMT 49.766666 -60.299999 37,000 65 510
2021-11-18 06:29:08 GMT 49.733334 -60.483334 37,000 63 510
2021-11-18 06:28:07 GMT 49.666668 -60.666668 37,000 65 510
2021-11-18 06:27:07 GMT 49.599998 -60.883331 37,000 63 510
2021-11-18 06:26:07 GMT 49.549999 -61.066666 37,000 60 510
2021-11-18 06:25:07 GMT 49.483334 -61.283333 37,000 58 510
2021-11-18 06:24:08 GMT 49.416668 -61.466667 37,000 61 510
2021-11-18 06:23:27 GMT 49.366669 -61.566666 37,000 64 510
We lost coverage of the aircraft here for a total of 7 minutes
2021-11-18 06:16:13 GMT 48.924591 -63.041031 37,000 63 537 -64
2021-11-18 06:16:12 GMT 48.922989 -63.045750 37,000 63 537 -64
2021-11-18 06:13:53 GMT 48.765701 -63.511257 36,975 62 541 0
2021-11-18 06:13:46 GMT 48.756317 -63.538795 36,975 62 541 -64
2021-11-18 06:13:35 GMT 48.744827 -63.572315 36,975 62 541 -64
2021-11-18 06:13:24 GMT 48.732559 -63.608238 36,975 62 541 -64
2021-11-18 06:13:16 GMT 48.721893 -63.639431 37,000 62 540 -64
2021-11-18 06:12:35 GMT 48.675751 -63.773872 37,000 62 539 -64
2021-11-18 06:12:24 GMT 48.663071 -63.810635 37,000 62 539 -64
2021-11-18 06:11:53 GMT 48.628326 -63.911083 36,975 62 539 -64
2021-11-18 06:11:44 GMT 48.616737 -63.944332 37,000 62 539 -64
2021-11-18 06:11:32 GMT 48.603374 -63.982929 36,975 62 539 -64
2021-11-18 06:11:21 GMT 48.590900 -64.018852 36,975 62 538 -64
2021-11-18 06:11:13 GMT 48.580353 -64.049095 36,975 62 539 -64
2021-11-18 06:11:01 GMT 48.567997 -64.084557 37,000 62 538 -128
2021-11-18 06:10:52 GMT 48.556637 -64.117004 37,000 62 538 -64
2021-11-18 06:10:41 GMT 48.544693 -64.151138 37,000 62 538 0
2021-11-18 06:10:31 GMT 48.532425 -64.186211 36,975 62 538 -64
2021-11-18 06:10:20 GMT 48.520844 -64.219315 37,000 62 538 -64
2021-11-18 06:10:11 GMT 48.509262 -64.252411 37,000 62 538 -64
2021-11-18 06:10:01 GMT 48.497177 -64.286781 36,975 62 538 -64
2021-11-18 06:09:50 GMT 48.485321 -64.320511 36,975 62 537 -64
2021-11-18 06:09:39 GMT 48.472961 -64.355515 36,975 62 537 -64
2021-11-18 06:09:30 GMT 48.460831 -64.389816 36,975 62 537 -64
2021-11-18 06:09:19 GMT 48.448975 -64.423477 36,975 62 537 -64
2021-11-18 06:09:08 GMT 48.436615 -64.458405 37,000 62 537 -64
2021-11-18 06:08:59 GMT 48.424381 -64.492996 37,000 62 537 -64
2021-11-18 06:08:47 GMT 48.411896 -64.528198 37,000 61 537 -64
2021-11-18 06:08:38 GMT 48.400967 -64.558846 36,975 61 538 0
2021-11-18 06:08:28 GMT 48.388916 -64.592705 36,975 61 538 0
2021-11-18 06:08:17 GMT 48.376511 -64.627640 36,975 61 538 -64
2021-11-18 06:08:07 GMT 48.364288 -64.661865 36,975 61 539 -64
2021-11-18 06:07:57 GMT 48.352692 -64.694580 37,000 61 539 -128
2021-11-18 06:07:45 GMT 48.339386 -64.731865 37,000 61 540 -64
2021-11-18 06:07:35 GMT 48.328205 -64.763245 37,000 61 541 -64
2021-11-18 06:07:25 GMT 48.315636 -64.798302 37,000 61 541 -64
2021-11-18 06:07:14 GMT 48.302719 -64.834267 37,000 61 541 0
2021-11-18 06:07:04 GMT 48.291199 -64.866318 37,000 61 542 64
2021-11-18 06:06:54 GMT 48.278458 -64.901596 36,975 61 542 0
2021-11-18 06:06:45 GMT 48.266708 -64.934334 36,975 61 542 -64
2021-11-18 06:06:28 GMT 48.247391 -64.987816 37,000 61 543 -64
2021-11-18 06:06:20 GMT 48.238033 -65.013618 36,975 61 544 -64
2021-11-18 06:06:14 GMT 48.229935 -65.036171 36,975 61 544 -64
2021-11-18 06:06:02 GMT 48.217163 -65.071602 37,000 61 544 -64
2021-11-18 06:05:46 GMT 48.198093 -65.124207 37,000 61 545 -64
2021-11-18 06:05:41 GMT 48.190876 -65.144081 37,000 61 545 -64
2021-11-18 06:05:31 GMT 48.179718 -65.174774 37,000 61 544 -64
2021-11-18 06:05:17 GMT 48.161179 -65.225616 36,975 61 544 0
2021-11-18 06:05:12 GMT 48.155777 -65.240479 37,000 61 544 -64
2021-11-18 06:04:58 GMT 48.139622 -65.284706 37,000 61 544 -64
2021-11-18 06:04:48 GMT 48.127441 -65.317978 37,000 61 544 -64
2021-11-18 06:04:42 GMT 48.119606 -65.339424 37,000 61 544 0
2021-11-18 06:04:33 GMT 48.109818 -65.366112 36,975 61 544 0
2021-11-18 06:04:25 GMT 48.100285 -65.392105 37,000 61 543 -64
2021-11-18 06:04:18 GMT 48.091232 -65.416718 37,000 61 543 -64
2021-11-18 06:04:15 GMT 48.088120 -65.425301 37,000 61 543 -64
2021-11-18 06:04:06 GMT 48.076405 -65.457176 37,000 61 543 0
2021-11-18 06:03:54 GMT 48.062988 -65.493553 36,975 61 543 -64
2021-11-18 06:03:44 GMT 48.050800 -65.526756 37,000 61 544 -64
2021-11-18 06:03:35 GMT 48.038696 -65.559578 36,975 61 544 -64
2021-11-18 06:03:26 GMT 48.027573 -65.589714 37,000 61 543 -64
2021-11-18 06:03:23 GMT 48.025661 -65.595001 37,000 61 543 -64
2021-11-18 06:03:14 GMT 48.014027 -65.626411 37,000 61 542 0
2021-11-18 06:03:07 GMT 48.005272 -65.650002 37,000 61 542 -64
2021-11-18 06:03:03 GMT 48.001053 -65.661438 37,000 61 542 0
2021-11-18 06:02:53 GMT 47.988094 -65.696342 36,975 61 542 -64
2021-11-18 06:02:47 GMT 47.981186 -65.714996 37,000 61 541 -64
2021-11-18 06:02:32 GMT 47.963287 -65.763199 37,000 61 541 -64
2021-11-18 06:01:42 GMT 47.902020 -65.927193 37,000 60 539 0
2021-11-18 06:01:29 GMT 47.886749 -65.968040 37,000 60 540 -64
2021-11-18 06:01:17 GMT 47.872459 -66.006210 37,000 60 539 -64
2021-11-18 06:01:04 GMT 47.856865 -66.047554 37,000 60 539 -64
2021-11-18 06:00:27 GMT 47.811676 -66.167564 37,000 60 542 -64
2021-11-18 06:00:19 GMT 47.801048 -66.195793 37,000 60 542 -64
2021-11-18 06:00:07 GMT 47.786636 -66.233688 37,000 60 543 -64
2021-11-18 05:59:58 GMT 47.775833 -66.262253 37,000 60 544 -64
2021-11-18 05:59:48 GMT 47.762283 -66.298027 37,000 60 544 -64
2021-11-18 05:59:35 GMT 47.747681 -66.336342 36,975 60 544 0
2021-11-18 05:59:27 GMT 47.737793 -66.362366 36,975 60 544 -64
2021-11-18 05:59:18 GMT 47.725307 -66.395241 37,000 60 546 -64
2021-11-18 05:59:06 GMT 47.711994 -66.430382 36,975 60 546 -64
2021-11-18 05:58:54 GMT 47.696587 -66.470802 36,975 60 547 -64
2021-11-18 05:58:47 GMT 47.686577 -66.496864 37,000 60 548 -64
2021-11-18 05:58:36 GMT 47.673935 -66.529770 37,000 60 548 -64
2021-11-18 05:58:24 GMT 47.659809 -66.566658 37,000 60 548 -64
2021-11-18 05:58:15 GMT 47.647285 -66.599258 36,975 60 547 0
2021-11-18 05:58:04 GMT 47.635044 -66.631165 36,975 60 547 0
2021-11-18 05:57:53 GMT 47.620285 -66.669479 36,975 60 546 0
2021-11-18 05:57:45 GMT 47.609020 -66.698631 37,000 60 547 -64
2021-11-18 05:57:34 GMT 47.596542 -66.731171 37,000 60 547 -64
2021-11-18 05:57:23 GMT 47.583160 -66.765839 37,000 60 546 -64
2021-11-18 05:57:14 GMT 47.570618 -66.798248 36,975 60 546 0
2021-11-18 05:57:02 GMT 47.556694 -66.834274 36,975 60 546 -64
2021-11-18 05:56:52 GMT 47.543793 -66.867599 37,000 60 546 -64
2021-11-18 05:56:43 GMT 47.531322 -66.899628 37,000 60 546 -64
2021-11-18 05:56:32 GMT 47.518387 -66.932968 37,000 60 546 0
2021-11-18 05:56:21 GMT 47.505672 -66.965546 36,975 60 546 -64
2021-11-18 05:56:15 GMT 47.496365 -66.989418 36,975 60 545 -64
2021-11-18 05:56:12 GMT 47.492752 -66.998817 37,000 60 545 -64
2021-11-18 05:56:01 GMT 47.479557 -67.032661 36,975 60 546 -64
2021-11-18 05:55:54 GMT 47.470760 -67.055267 37,000 60 546 -64
2021-11-18 05:55:50 GMT 47.466385 -67.066521 37,000 60 545 -64
2021-11-18 05:55:41 GMT 47.453209 -67.100410 37,000 60 545 -64
2021-11-18 05:55:33 GMT 47.444691 -67.122307 37,000 60 545 -64
2021-11-18 05:55:30 GMT 47.441025 -67.131683 37,000 60 545 0
2021-11-18 05:55:23 GMT 47.431099 -67.157097 36,975 60 545 0
2021-11-18 05:55:20 GMT 47.428207 -67.164505 36,975 60 546 0
2021-11-18 05:55:10 GMT 47.414017 -67.201309 36,975 60 546 -64
2021-11-18 05:54:59 GMT 47.401794 -67.231934 36,975 58 542 -64
2021-11-18 05:54:51 GMT 47.391953 -67.254936 37,000 56 538 -64
2021-11-18 05:54:48 GMT 47.387833 -67.264137 37,000 56 538 -64
2021-11-18 05:54:39 GMT 47.373188 -67.294853 37,000 53 532 0
2021-11-18 05:54:31 GMT 47.361832 -67.317078 37,000 52 530 -64
2021-11-18 05:54:28 GMT 47.357731 -67.324715 36,975 51 528 0
2021-11-18 05:54:20 GMT 47.345856 -67.346123 36,975 49 524 -64
2021-11-18 05:54:17 GMT 47.341297 -67.354012 37,000 48 523 -64
2021-11-18 05:54:08 GMT 47.325191 -67.380348 37,000 47 519 -64
2021-11-18 05:53:57 GMT 47.307919 -67.407745 36,975 47 520 -64
2021-11-18 05:53:46 GMT 47.291382 -67.433876 37,000 47 520 -64
2021-11-18 05:53:37 GMT 47.274078 -67.461342 36,975 47 520 0
2021-11-18 05:53:28 GMT 47.261353 -67.481529 36,975 47 520 -64
2021-11-18 05:53:25 GMT 47.257095 -67.488258 36,975 47 520 -64
2021-11-18 05:53:18 GMT 47.240234 -67.514862 37,000 47 520 -64
2021-11-18 05:53:15 GMT 47.240234 -67.514862 36,975 47 520 -64
2021-11-18 05:53:05 GMT 47.223358 -67.541473 36,975 47 520 -64
2021-11-18 05:52:57 GMT 47.208939 -67.564270 36,975 47 521 -64
2021-11-18 05:52:54 GMT 47.206482 -67.568100 37,000 47 521 -64
2021-11-18 05:52:44 GMT 47.190216 -67.593727 37,000 47 522 -64
2021-11-18 05:52:34 GMT 47.173416 -67.620094 37,000 46 521 -64
2021-11-18 05:52:26 GMT 47.158951 -67.642822 37,000 46 521 0
2021-11-18 05:52:23 GMT 47.154007 -67.650513 37,000 46 521 -64
2021-11-18 05:52:13 GMT 47.138535 -67.674751 37,000 46 521 0
2021-11-18 05:52:03 GMT 47.121899 -67.700714 36,975 46 521 0
2021-11-18 05:51:53 GMT 47.104935 -67.727280 36,975 46 521 -64
2021-11-18 05:51:45 GMT 47.090939 -67.749161 36,975 46 522 -64
2021-11-18 05:51:42 GMT 47.087494 -67.754608 37,000 46 522 -64
2021-11-18 05:51:32 GMT 47.070648 -67.780907 37,000 46 522 -64
2021-11-18 05:51:22 GMT 47.053802 -67.807274 36,975 46 524 -64
2021-11-18 05:51:14 GMT 47.039291 -67.830070 37,000 46 524 -64
2021-11-18 05:51:11 GMT 47.036636 -67.834190 37,000 46 524 -64
2021-11-18 05:51:01 GMT 47.018875 -67.861916 37,000 46 525 -64
2021-11-18 05:50:50 GMT 47.001755 -67.888573 37,000 46 525 -64
2021-11-18 05:50:40 GMT 46.984570 -67.915230 37,000 46 527 -64
2021-11-18 05:50:33 GMT 46.971207 -67.935928 37,000 46 527 -64
2021-11-18 05:50:30 GMT 46.967205 -67.942200 37,000 46 528 -64
2021-11-18 05:50:20 GMT 46.950989 -67.967400 37,000 46 529 -64
2021-11-18 05:50:10 GMT 46.933273 -67.994934 36,975 46 529 0
2021-11-18 05:50:02 GMT 46.919861 -68.015739 37,000 46 529 -64
2021-11-18 05:49:59 GMT 46.915997 -68.021637 36,975 46 529 0
2021-11-18 05:49:49 GMT 46.898865 -68.048119 37,000 46 530 -64
2021-11-18 05:49:41 GMT 46.885410 -68.068893 37,000 46 530 -64
2021-11-18 05:49:38 GMT 46.881226 -68.075409 37,000 46 530 -64
2021-11-18 05:49:28 GMT 46.863373 -68.102974 37,000 46 530 -64
2021-11-18 05:49:18 GMT 46.846725 -68.128693 37,000 46 531 -64
2021-11-18 05:49:10 GMT 46.833069 -68.149734 37,000 46 531 -64
2021-11-18 05:49:07 GMT 46.828152 -68.157257 37,000 46 531 -64
2021-11-18 05:49:00 GMT 46.816048 -68.175934 37,000 46 531 0
2021-11-18 05:48:57 GMT 46.811142 -68.183495 36,975 46 531 -64
2021-11-18 05:48:46 GMT 46.793930 -68.209961 37,000 46 530 -64
2021-11-18 05:48:36 GMT 46.775070 -68.238968 37,000 46 530 -64
2021-11-18 05:48:26 GMT 46.759232 -68.263283 37,000 46 530 -64
2021-11-18 05:48:16 GMT 46.742172 -68.289368 36,975 46 530 -64
2021-11-18 05:48:06 GMT 46.723969 -68.317314 37,000 46 530 -64
2021-11-18 05:47:55 GMT 46.707321 -68.342865 37,000 46 529 -64
2021-11-18 05:47:44 GMT 46.689148 -68.370667 37,000 46 529 -64
2021-11-18 05:47:34 GMT 46.671936 -68.396927 37,000 46 528 0
2021-11-18 05:47:24 GMT 46.654606 -68.423332 37,000 46 527 0
2021-11-18 05:47:14 GMT 46.637283 -68.449783 36,975 46 527 -64
2021-11-18 05:47:07 GMT 46.624878 -68.468674 36,975 46 526 -64
2021-11-18 05:47:03 GMT 46.619476 -68.476845 36,975 46 526 -64
2021-11-18 05:46:55 GMT 46.607216 -68.495499 36,975 46 526 -64
2021-11-18 05:46:52 GMT 46.601303 -68.504448 37,000 46 526 -128
2021-11-18 05:46:45 GMT 46.589905 -68.521858 36,975 46 526 -64
2021-11-18 05:46:42 GMT 46.584183 -68.530502 37,000 46 526 -64
2021-11-18 05:46:35 GMT 46.573425 -68.546852 37,000 46 526 -64
2021-11-18 05:46:31 GMT 46.567017 -68.556496 37,000 46 526 -64
2021-11-18 05:46:25 GMT 46.556305 -68.572845 37,000 46 526 -64
2021-11-18 05:46:22 GMT 46.549072 -68.583733 37,000 46 525 -64
2021-11-18 05:46:15 GMT 46.539017 -68.599045 37,000 46 525 -64
2021-11-18 05:46:10 GMT 46.531616 -68.610237 37,000 46 525 -64
2021-11-18 05:46:04 GMT 46.521057 -68.626236 37,000 46 525 -64
2021-11-18 05:46:01 GMT 46.514374 -68.636414 37,000 46 524 -64
2021-11-18 05:45:50 GMT 46.496750 -68.662971 36,975 46 524 -64
2021-11-18 05:45:43 GMT 46.485489 -68.679955 36,975 46 524 -64
2021-11-18 05:45:40 GMT 46.480133 -68.688065 36,975 46 524 -64
2021-11-18 05:45:33 GMT 46.469189 -68.704514 37,000 46 524 -64
2021-11-18 05:45:30 GMT 46.462646 -68.714394 37,000 46 524 -64
2021-11-18 05:45:19 GMT 46.444702 -68.741455 37,000 46 524 -64
2021-11-18 05:45:11 GMT 46.432800 -68.759338 37,000 46 524 0
2021-11-18 05:45:08 GMT 46.427078 -68.767982 37,000 46 524 0
2021-11-18 05:44:58 GMT 46.410114 -68.793434 36,975 46 524 0
2021-11-18 05:44:48 GMT 46.392517 -68.819969 36,975 46 524 -64
2021-11-18 05:44:45 GMT 46.387676 -68.827354 37,000 46 524 -64
2021-11-18 05:44:38 GMT 46.375198 -68.846031 37,000 46 524 -64
2021-11-18 05:44:32 GMT 46.366821 -68.858665 36,975 46 525 -64
2021-11-18 05:44:24 GMT 46.352993 -68.879333 37,000 46 526 -64
2021-11-18 05:44:19 GMT 46.344242 -68.892517 37,000 46 526 -64
2021-11-18 05:44:15 GMT 46.335117 -68.906181 37,000 45 526 -64
2021-11-18 05:44:09 GMT 46.327881 -68.917038 37,000 45 526 -64
2021-11-18 05:44:06 GMT 46.322433 -68.925140 37,000 45 526 -64
2021-11-18 05:43:55 GMT 46.304348 -68.952187 36,975 45 527 0
2021-11-18 05:43:46 GMT 46.287231 -68.977661 36,975 45 528 0
2021-11-18 05:43:43 GMT 46.283157 -68.983757 36,975 45 528 -64
2021-11-18 05:43:33 GMT 46.267227 -69.007469 37,000 45 527 -64
2021-11-18 05:43:24 GMT 46.248596 -69.035271 37,000 45 527 -64
2021-11-18 05:43:13 GMT 46.232143 -69.059784 37,000 45 527 0
2021-11-18 05:43:03 GMT 46.215363 -69.084778 36,975 45 528 -64
2021-11-18 05:42:53 GMT 46.198013 -69.110565 36,975 45 528 -64
2021-11-18 05:42:42 GMT 46.180145 -69.137100 36,975 45 528 -64
2021-11-18 05:42:36 GMT 46.170456 -69.151566 37,000 45 530 -64
2021-11-18 05:42:32 GMT 46.162781 -69.162918 36,975 45 530 -64
2021-11-18 05:42:22 GMT 46.145744 -69.188255 37,000 45 530 -64
2021-11-18 05:42:11 GMT 46.127518 -69.215271 37,000 45 529 -64
2021-11-18 05:42:02 GMT 46.110123 -69.240997 37,000 45 528 -64
2021-11-18 05:41:51 GMT 46.092773 -69.266655 37,000 45 528 -64
2021-11-18 05:41:41 GMT 46.075058 -69.292778 37,000 45 528 0
2021-11-18 05:41:33 GMT 46.063156 -69.310333 36,975 45 528 0
2021-11-18 05:41:30 GMT 46.056656 -69.319916 36,975 45 528 0
2021-11-18 05:41:20 GMT 46.039627 -69.344963 37,000 45 528 -64
2021-11-18 05:41:14 GMT 46.029594 -69.359779 36,975 45 527 -64
2021-11-18 05:41:10 GMT 46.021450 -69.371796 37,000 45 527 -64
2021-11-18 05:41:03 GMT 46.011906 -69.385872 37,000 45 528 -64
2021-11-18 05:40:59 GMT 46.004410 -69.396858 37,000 45 528 0
2021-11-18 05:40:52 GMT 45.992821 -69.413956 36,975 45 528 0
2021-11-18 05:40:49 GMT 45.985977 -69.423981 37,000 45 528 -64
2021-11-18 05:40:41 GMT 45.972839 -69.443306 36,975 45 529 -64
2021-11-18 05:40:38 GMT 45.968399 -69.449806 37,000 45 529 -64
2021-11-18 05:40:32 GMT 45.958832 -69.463875 37,000 45 530 -64
2021-11-18 05:40:28 GMT 45.950958 -69.475395 37,000 45 530 -64
2021-11-18 05:40:22 GMT 45.941193 -69.489693 36,975 45 530 -64
2021-11-18 05:40:18 GMT 45.932419 -69.502525 37,000 45 530 -64
2021-11-18 05:40:11 GMT 45.923172 -69.516060 36,975 45 530 -64
2021-11-18 05:40:07 GMT 45.915298 -69.527580 37,000 45 530 -64
2021-11-18 05:39:57 GMT 45.897125 -69.554176 36,975 45 529 -64
2021-11-18 05:39:50 GMT 45.884399 -69.572662 37,000 45 529 -64
2021-11-18 05:39:46 GMT 45.879272 -69.580170 37,000 45 529 -64
2021-11-18 05:39:39 GMT 45.867779 -69.596878 37,000 45 528 0
2021-11-18 05:39:36 GMT 45.861961 -69.605392 36,975 45 528 0
2021-11-18 05:39:29 GMT 45.850159 -69.622574 36,975 45 528 0
2021-11-18 05:39:26 GMT 45.843853 -69.631828 37,000 45 528 -64
2021-11-18 05:39:18 GMT 45.832031 -69.649033 37,000 45 528 -64
2021-11-18 05:39:15 GMT 45.826393 -69.657234 36,975 45 528 -64
2021-11-18 05:39:09 GMT 45.815456 -69.673164 37,000 45 528 -128
2021-11-18 05:39:05 GMT 45.808456 -69.683395 37,000 45 528 -64
2021-11-18 05:38:59 GMT 45.797997 -69.698570 37,000 45 528 -64
2021-11-18 05:38:54 GMT 45.790085 -69.710037 37,000 45 528 0
2021-11-18 05:38:48 GMT 45.779797 -69.725006 36,975 45 529 64
2021-11-18 05:38:43 GMT 45.772751 -69.735184 36,975 45 529 0
2021-11-18 05:38:38 GMT 45.762295 -69.750412 36,975 45 530 0
2021-11-18 05:38:33 GMT 45.754578 -69.761574 36,975 45 530 -64
2021-11-18 05:38:27 GMT 45.744743 -69.775818 37,000 45 530 -64
2021-11-18 05:38:22 GMT 45.736130 -69.788315 37,000 45 531 -64
2021-11-18 05:38:17 GMT 45.727566 -69.800743 37,000 45 531 -64
2021-11-18 05:38:13 GMT 45.718781 -69.813492 37,000 45 531 -64
2021-11-18 05:38:07 GMT 45.710495 -69.825485 37,000 45 531 0
2021-11-18 05:38:02 GMT 45.700470 -69.839951 37,000 45 531 -64
2021-11-18 05:37:56 GMT 45.690323 -69.854645 37,000 45 531 -64
2021-11-18 05:37:51 GMT 45.682735 -69.865631 37,000 45 531 0
2021-11-18 05:37:46 GMT 45.673599 -69.878807 36,975 45 531 -64
2021-11-18 05:37:41 GMT 45.665314 -69.890800 37,000 45 531 -64
2021-11-18 05:37:36 GMT 45.655827 -69.904427 36,975 45 530 -64
2021-11-18 05:37:31 GMT 45.647167 -69.916855 37,000 45 530 -64
2021-11-18 05:37:26 GMT 45.638557 -69.929283 37,000 45 530 -64
2021-11-18 05:37:21 GMT 45.629105 -69.942986 37,000 45 530 -64
2021-11-18 05:37:15 GMT 45.620499 -69.955376 37,000 45 530 -64
2021-11-18 05:37:10 GMT 45.610996 -69.969040 37,000 45 530 0
2021-11-18 05:37:07 GMT 45.604614 -69.978218 36,975 45 530 0
2021-11-18 05:37:04 GMT 45.601360 -69.982910 36,975 45 530 0
2021-11-18 05:36:59 GMT 45.593449 -69.994377 36,975 45 530 0
2021-11-18 05:36:55 GMT 45.585163 -70.006256 36,975 45 531 -64
2021-11-18 05:36:49 GMT 45.575684 -70.019890 37,000 45 531 -64
2021-11-18 05:36:46 GMT 45.569984 -70.028023 37,000 45 531 -64
2021-11-18 05:36:42 GMT 45.560440 -70.041725 37,000 45 531 -64
2021-11-18 05:36:38 GMT 45.556812 -70.046906 37,000 45 531 -64
2021-11-18 05:36:34 GMT 45.549923 -70.056862 37,000 45 532 0
2021-11-18 05:36:29 GMT 45.539658 -70.071518 36,975 45 532 0
2021-11-18 05:36:24 GMT 45.531906 -70.082657 36,975 45 532 0
2021-11-18 05:36:20 GMT 45.524780 -70.092842 36,975 45 532 0
2021-11-18 05:36:16 GMT 45.517334 -70.103561 36,975 45 533 -64
2021-11-18 05:36:11 GMT 45.507431 -70.117752 36,975 45 533 -64
2021-11-18 05:36:07 GMT 45.503265 -70.123703 36,975 45 533 -64
2021-11-18 05:36:03 GMT 45.495781 -70.134377 36,975 45 533 -64
2021-11-18 05:35:58 GMT 45.485355 -70.149315 36,975 45 533 -64
2021-11-18 05:35:55 GMT 45.481018 -70.155487 37,000 45 533 -128
2021-11-18 05:35:52 GMT 45.477539 -70.160454 37,000 45 533 -128
2021-11-18 05:35:48 GMT 45.467617 -70.174637 37,000 45 533 -64
2021-11-18 05:35:45 GMT 45.463303 -70.180862 37,000 45 533 -64
2021-11-18 05:35:41 GMT 45.457191 -70.189575 37,000 45 533 -64
2021-11-18 05:35:37 GMT 45.448856 -70.201500 37,000 45 533 -64
2021-11-18 05:35:34 GMT 45.445541 -70.206230 37,000 45 530 -64
2021-11-18 05:35:30 GMT 45.436844 -70.218590 36,975 45 533 -64
2021-11-18 05:35:25 GMT 45.428192 -70.231018 37,000 45 532 -64
2021-11-18 05:35:19 GMT 45.418270 -70.245110 36,975 45 531 -64
2021-11-18 05:35:14 GMT 45.410637 -70.255959 36,975 45 531 -64
2021-11-18 05:35:10 GMT 45.403004 -70.266815 36,975 45 531 -64
2021-11-18 05:35:06 GMT 45.394501 -70.278885 36,975 45 531 -64
2021-11-18 05:35:02 GMT 45.390156 -70.285034 36,975 45 531 -64
2021-11-18 05:34:59 GMT 45.385117 -70.292229 36,975 45 531 -64
2021-11-18 05:34:54 GMT 45.375412 -70.305962 37,000 45 530 -64
2021-11-18 05:34:51 GMT 45.370045 -70.313576 37,000 45 530 -64
2021-11-18 05:34:48 GMT 45.362782 -70.323891 37,000 45 529 -64
2021-11-18 05:34:43 GMT 45.355194 -70.334740 37,000 45 528 -64
2021-11-18 05:34:38 GMT 45.347763 -70.345261 36,975 45 528 -64
2021-11-18 05:34:35 GMT 45.340118 -70.356056 37,000 45 528 -64
2021-11-18 05:34:32 GMT 45.337738 -70.359451 37,000 45 528 -64
2021-11-18 05:34:27 GMT 45.328892 -70.371918 36,975 45 528 0
2021-11-18 05:34:23 GMT 45.322327 -70.381233 36,975 45 528 -64
2021-11-18 05:34:18 GMT 45.311096 -70.397118 36,975 44 528 -64
2021-11-18 05:34:14 GMT 45.304550 -70.406410 36,975 44 528 -64
2021-11-18 05:34:11 GMT 45.298820 -70.414528 37,000 45 528 -64
2021-11-18 05:34:08 GMT 45.296265 -70.418175 37,000 45 528 -128
2021-11-18 05:34:05 GMT 45.291733 -70.424522 37,000 45 528 -64
2021-11-18 05:34:02 GMT 45.286560 -70.431847 37,000 45 528 -64
2021-11-18 05:33:57 GMT 45.276333 -70.446342 36,975 44 529 -64
2021-11-18 05:33:53 GMT 45.268745 -70.457062 36,975 44 529 0
2021-11-18 05:33:47 GMT 45.258865 -70.471016 36,975 44 529 64
2021-11-18 05:33:43 GMT 45.252640 -70.479843 36,975 44 529 0
2021-11-18 05:33:40 GMT 45.247284 -70.487411 37,000 44 528 -64
2021-11-18 05:33:36 GMT 45.241241 -70.495934 37,000 44 528 -64
2021-11-18 05:33:30 GMT 45.228943 -70.513268 36,975 44 529 -64
2021-11-18 05:33:26 GMT 45.222706 -70.522110 36,975 44 529 -64
2021-11-18 05:33:19 GMT 45.212326 -70.536781 37,000 45 528 -64
2021-11-18 05:33:15 GMT 45.204895 -70.547264 37,000 44 529 -64
2021-11-18 05:33:10 GMT 45.195381 -70.560699 37,000 44 528 -64
2021-11-18 05:33:07 GMT 45.188965 -70.569695 37,000 44 528 -64
2021-11-18 05:33:03 GMT 45.182693 -70.578529 37,000 44 528 0
2021-11-18 05:33:00 GMT 45.175095 -70.589249 36,975 44 528 0
2021-11-18 05:32:56 GMT 45.171295 -70.594612 37,000 44 528 0
2021-11-18 05:32:52 GMT 45.162964 -70.606255 36,975 44 528 -64
2021-11-18 05:32:49 GMT 45.159164 -70.611618 36,975 44 528 -64
2021-11-18 05:32:46 GMT 45.153763 -70.619179 37,000 44 531 -64
2021-11-18 05:32:42 GMT 45.147850 -70.627487 37,000 44 529 -64
2021-11-18 05:32:39 GMT 45.142822 -70.634567 37,000 44 529 -64
2021-11-18 05:32:36 GMT 45.135910 -70.644310 37,000 44 529 -64
2021-11-18 05:32:29 GMT 45.123734 -70.661385 36,975 44 530 64
2021-11-18 05:32:26 GMT 45.119408 -70.667480 36,975 44 530 64
2021-11-18 05:32:23 GMT 45.113121 -70.676254 36,975 44 530 64
2021-11-18 05:32:18 GMT 45.103546 -70.689629 36,975 44 530 -64
2021-11-18 05:32:15 GMT 45.090824 -70.707405 37,000 44 531 -64
2021-11-18 05:32:11 GMT 45.090824 -70.707405 37,000 44 531 -64
2021-11-18 05:32:08 GMT 45.088211 -70.711082 37,000 44 531 -64
2021-11-18 05:32:05 GMT 45.082306 -70.719322 36,975 44 531 -64
2021-11-18 05:32:01 GMT 45.075668 -70.728607 37,000 44 531 -64
2021-11-18 05:31:58 GMT 45.070621 -70.735672 37,000 44 531 -64
2021-11-18 05:31:54 GMT 45.064011 -70.744919 37,000 44 531 0
2021-11-18 05:31:51 GMT 45.058750 -70.752220 36,975 44 531 64
2021-11-18 05:31:48 GMT 45.052322 -70.761238 37,000 44 530 0
2021-11-18 05:31:44 GMT 45.043945 -70.772942 36,975 44 531 64
2021-11-18 05:31:40 GMT 45.037308 -70.782166 36,975 44 531 0
2021-11-18 05:31:37 GMT 45.033981 -70.786789 36,975 44 531 0
2021-11-18 05:31:33 GMT 45.027878 -70.795311 36,975 44 531 -64
2021-11-18 05:31:30 GMT 45.021088 -70.804810 36,975 44 531 -64
2021-11-18 05:31:26 GMT 45.016022 -70.811852 36,975 44 531 -64
2021-11-18 05:31:23 GMT 45.009590 -70.820816 37,000 44 531 -64
2021-11-18 05:31:20 GMT 45.004330 -70.828117 36,975 44 531 -64
2021-11-18 05:31:17 GMT 44.997528 -70.837624 37,000 44 531 -64
2021-11-18 05:31:12 GMT 44.991432 -70.846138 37,000 44 531 -64
2021-11-18 05:31:09 GMT 44.986038 -70.853706 37,000 44 531 -64
2021-11-18 05:31:06 GMT 44.979565 -70.862686 36,975 44 531 -64
2021-11-18 05:31:03 GMT 44.975189 -70.868752 37,000 44 531 -64
2021-11-18 05:31:00 GMT 44.961227 -70.888168 37,000 44 531 -64
2021-11-18 05:30:56 GMT 44.961227 -70.888168 37,000 44 531 -64
2021-11-18 05:30:53 GMT 44.946899 -70.908051 36,975 44 531 -64
2021-11-18 05:30:48 GMT 44.946899 -70.908051 37,000 44 531 -64
2021-11-18 05:30:45 GMT 44.943581 -70.912659 37,000 44 531 -64
2021-11-18 05:30:42 GMT 44.936096 -70.923088 37,000 44 530 -64
2021-11-18 05:30:39 GMT 44.932251 -70.928452 36,975 44 531 0
2021-11-18 05:30:35 GMT 44.925247 -70.938133 37,000 44 530 0
2021-11-18 05:30:31 GMT 44.919140 -70.946625 37,000 44 530 0
2021-11-18 05:30:28 GMT 44.911652 -70.957031 36,975 44 530 -64
2021-11-18 05:30:25 GMT 44.906754 -70.963768 36,975 44 530 -64
2021-11-18 05:30:21 GMT 44.900333 -70.972755 37,000 44 530 -64
2021-11-18 05:30:17 GMT 44.894531 -70.980705 36,975 44 530 -64
2021-11-18 05:30:14 GMT 44.889160 -70.988228 36,975 44 530 -64
2021-11-18 05:30:10 GMT 44.882504 -70.997406 37,000 44 530 -64
2021-11-18 05:30:07 GMT 44.876591 -71.005646 37,000 44 530 -64
2021-11-18 05:30:04 GMT 44.870632 -71.013817 37,000 44 530 -64
2021-11-18 05:29:59 GMT 44.860157 -71.028351 36,975 44 530 -64
2021-11-18 05:29:56 GMT 44.857365 -71.032234 37,000 44 530 -64
2021-11-18 05:29:53 GMT 44.852104 -71.039474 37,000 44 530 -64
2021-11-18 05:29:50 GMT 44.846008 -71.047928 37,000 44 531 -64
2021-11-18 05:29:46 GMT 44.839325 -71.057152 37,000 44 531 -64
2021-11-18 05:29:42 GMT 44.833900 -71.064659 37,000 44 531 -64
2021-11-18 05:29:39 GMT 44.828316 -71.072365 37,000 44 531 -64
2021-11-18 05:29:36 GMT 44.821518 -71.081802 37,000 44 531 -64
2021-11-18 05:29:33 GMT 44.816444 -71.088776 37,000 44 531 -64
2021-11-18 05:29:30 GMT 44.810814 -71.096550 37,000 44 531 -64
2021-11-18 05:29:27 GMT 44.807510 -71.101158 37,000 44 531 0
2021-11-18 05:29:24 GMT 44.801193 -71.109795 37,000 44 531 0
2021-11-18 05:29:21 GMT 44.797714 -71.114632 36,975 44 531 0
2021-11-18 05:29:18 GMT 44.783707 -71.133987 36,975 44 531 0
2021-11-18 05:29:14 GMT 44.783707 -71.133987 36,975 44 531 0
2021-11-18 05:29:10 GMT 44.777203 -71.142906 36,975 44 531 64
2021-11-18 05:29:07 GMT 44.772491 -71.149422 36,975 44 531 0
2021-11-18 05:29:03 GMT 44.764389 -71.160477 36,975 44 531 -64
2021-11-18 05:28:59 GMT 44.756699 -71.171066 36,975 44 531 -64
2021-11-18 05:28:56 GMT 44.752995 -71.176132 36,975 44 531 -64
2021-11-18 05:28:53 GMT 44.746536 -71.185066 37,000 44 531 -64
2021-11-18 05:28:48 GMT 44.738983 -71.195427 37,000 44 531 -64
2021-11-18 05:28:45 GMT 44.731998 -71.205070 36,975 44 531 -64
2021-11-18 05:28:40 GMT 44.723740 -71.216385 36,975 44 530 -64
2021-11-18 05:28:36 GMT 44.716915 -71.225769 36,975 44 530 -64
2021-11-18 05:28:33 GMT 44.712204 -71.232277 37,000 44 530 -64
2021-11-18 05:28:27 GMT 44.701508 -71.246941 36,975 44 530 -64
2021-11-18 05:28:24 GMT 44.696247 -71.254173 37,000 44 530 -64
2021-11-18 05:28:21 GMT 44.692566 -71.259224 36,975 44 530 -64
2021-11-18 05:28:17 GMT 44.685242 -71.269295 37,000 44 529 -64
2021-11-18 05:28:14 GMT 44.678741 -71.278160 37,000 44 529 -64
2021-11-18 05:28:11 GMT 44.673855 -71.284859 37,000 44 529 -64
2021-11-18 05:28:08 GMT 44.668808 -71.291855 37,000 44 529 -64
2021-11-18 05:28:05 GMT 44.662312 -71.300667 37,000 44 529 -64
2021-11-18 05:28:02 GMT 44.658119 -71.306427 37,000 44 529 -64
2021-11-18 05:27:58 GMT 44.650955 -71.316246 37,000 44 529 -64
2021-11-18 05:27:54 GMT 44.645180 -71.324181 37,000 44 529 -64
2021-11-18 05:27:51 GMT 44.639740 -71.331612 37,000 44 529 -64
2021-11-18 05:27:47 GMT 44.629257 -71.345932 37,000 44 529 -64
2021-11-18 05:27:44 GMT 44.626606 -71.349503 37,000 44 529 -64
2021-11-18 05:27:41 GMT 44.621521 -71.356461 37,000 44 529 -64
2021-11-18 05:27:37 GMT 44.614689 -71.365784 36,975 44 529 0
2021-11-18 05:27:34 GMT 44.607880 -71.375099 37,000 44 529 0
2021-11-18 05:27:31 GMT 44.604214 -71.380119 37,000 44 529 0
2021-11-18 05:27:25 GMT 44.592995 -71.395454 36,975 44 529 64
2021-11-18 05:27:22 GMT 44.588242 -71.401909 36,975 44 529 64
2021-11-18 05:27:19 GMT 44.582798 -71.409325 36,975 44 529 0
2021-11-18 05:27:14 GMT 44.574554 -71.420547 36,975 44 530 0
2021-11-18 05:27:11 GMT 44.569160 -71.428017 36,975 44 530 -64
2021-11-18 05:27:04 GMT 44.555473 -71.446640 37,000 44 529 -64
2021-11-18 05:27:01 GMT 44.550385 -71.453506 37,000 44 529 -64
2021-11-18 05:26:53 GMT 44.536331 -71.472603 37,000 44 529 -64
2021-11-18 05:26:50 GMT 44.529869 -71.481468 37,000 44 529 -64
2021-11-18 05:26:43 GMT 44.518799 -71.496475 37,000 44 529 -64
2021-11-18 05:26:39 GMT 44.512848 -71.504585 37,000 44 529 0
2021-11-18 05:26:34 GMT 44.502869 -71.518120 37,000 44 529 0
2021-11-18 05:26:30 GMT 44.494770 -71.529099 37,000 44 529 0
2021-11-18 05:26:23 GMT 44.485107 -71.542183 37,000 44 529 0
2021-11-18 05:26:20 GMT 44.479156 -71.550293 36,975 44 531 -64
2021-11-18 05:26:13 GMT 44.466698 -71.567154 36,975 44 529 0
2021-11-18 05:26:10 GMT 44.460739 -71.575256 36,975 44 531 -64
2021-11-18 05:26:03 GMT 44.448776 -71.591469 36,975 44 531 0
2021-11-18 05:26:00 GMT 44.443680 -71.598427 36,975 44 531 -64
2021-11-18 05:25:57 GMT 44.437138 -71.607208 36,975 44 531 -64
2021-11-18 05:25:52 GMT 44.428711 -71.618668 37,000 44 531 -64
2021-11-18 05:25:49 GMT 44.423950 -71.625107 37,000 44 531 -64
2021-11-18 05:25:41 GMT 44.410172 -71.643745 37,000 44 532 -64
2021-11-18 05:25:38 GMT 44.405762 -71.649681 37,000 44 533 -64
2021-11-18 05:25:34 GMT 44.393188 -71.666695 37,000 44 533 -64
2021-11-18 05:25:31 GMT 44.393188 -71.666695 37,000 44 533 -64
2021-11-18 05:25:28 GMT 44.387192 -71.674805 37,000 44 533 -64
2021-11-18 05:25:24 GMT 44.378357 -71.686775 36,975 44 533 0
2021-11-18 05:25:21 GMT 44.373734 -71.692986 36,975 44 533 0
2021-11-18 05:25:17 GMT 44.366844 -71.702339 37,000 44 533 0
2021-11-18 05:25:10 GMT 44.355331 -71.717903 37,000 44 533 -64
2021-11-18 05:25:07 GMT 44.348454 -71.727188 37,000 43 533 -64
2021-11-18 05:25:03 GMT 44.341873 -71.736015 37,000 44 533 -64
2021-11-18 05:25:00 GMT 44.337662 -71.741768 37,000 44 532 -64
2021-11-18 05:24:57 GMT 44.332672 -71.748436 37,000 43 532 -64
2021-11-18 05:24:52 GMT 44.323105 -71.761253 37,000 43 532 -64
2021-11-18 05:24:49 GMT 44.319580 -71.766029 37,000 43 533 -64
2021-11-18 05:24:46 GMT 44.314053 -71.773415 37,000 43 532 -64
2021-11-18 05:24:43 GMT 44.306076 -71.784081 37,000 43 532 0
2021-11-18 05:24:40 GMT 44.295456 -71.798332 37,000 43 532 64
2021-11-18 05:24:36 GMT 44.295456 -71.798332 37,000 43 532 64
2021-11-18 05:24:32 GMT 44.287846 -71.808586 36,975 44 532 64
2021-11-18 05:24:29 GMT 44.282684 -71.815468 36,975 44 532 64
2021-11-18 05:24:25 GMT 44.274715 -71.826134 36,975 44 532 0
2021-11-18 05:24:19 GMT 44.264969 -71.839272 37,000 43 533 -64
2021-11-18 05:24:16 GMT 44.258926 -71.847313 36,975 43 533 -64
2021-11-18 05:24:12 GMT 44.251301 -71.857552 37,000 43 533 -64
2021-11-18 05:24:09 GMT 44.246155 -71.864449 37,000 43 533 -64
2021-11-18 05:24:04 GMT 44.236774 -71.877045 37,000 43 534 -64
2021-11-18 05:24:01 GMT 44.232864 -71.882271 36,975 43 533 0
2021-11-18 05:23:58 GMT 44.229282 -71.887032 36,975 43 533 0
2021-11-18 05:23:55 GMT 44.223083 -71.895378 36,975 43 533 64
2021-11-18 05:23:52 GMT 44.217548 -71.902702 36,975 43 534 -64
2021-11-18 05:23:48 GMT 44.209900 -71.912971 36,975 43 534 -64
2021-11-18 05:23:45 GMT 44.203171 -71.921997 36,975 43 534 -64
2021-11-18 05:23:42 GMT 44.197998 -71.928963 36,975 43 534 -64
2021-11-18 05:23:38 GMT 44.193192 -71.935349 36,975 44 535 -128
2021-11-18 05:23:35 GMT 44.188568 -71.941605 36,975 44 535 -128
2021-11-18 05:23:32 GMT 44.181473 -71.951126 37,000 43 534 -128
2021-11-18 05:23:29 GMT 44.176304 -71.958031 37,000 43 534 -128
2021-11-18 05:23:26 GMT 44.169926 -71.966660 37,000 43 534 -128
2021-11-18 05:23:23 GMT 44.166550 -71.971184 37,000 43 533 -64
2021-11-18 05:23:20 GMT 44.160290 -71.979477 37,000 43 534 -128
2021-11-18 05:23:17 GMT 44.155151 -71.986382 37,000 43 533 -64
2021-11-18 05:23:14 GMT 44.148560 -71.995171 37,000 43 533 -64
2021-11-18 05:23:10 GMT 44.142136 -72.003738 37,000 43 533 -64
2021-11-18 05:23:07 GMT 44.137482 -72.009888 37,000 43 533 -64
2021-11-18 05:23:04 GMT 44.132500 -72.016556 37,000 43 533 -64
2021-11-18 05:23:01 GMT 44.125748 -72.025520 36,975 43 533 -64
2021-11-18 05:22:58 GMT 44.121643 -72.030968 36,975 43 533 0
2021-11-18 05:22:55 GMT 44.115788 -72.038795 36,975 43 533 0
2021-11-18 05:22:52 GMT 44.111179 -72.045006 36,975 43 533 0
2021-11-18 05:22:49 GMT 44.103516 -72.055176 36,975 43 533 0
2021-11-18 05:22:45 GMT 44.096741 -72.064178 36,975 43 533 0
2021-11-18 05:22:41 GMT 44.090012 -72.073189 36,975 43 533 -64
2021-11-18 05:22:38 GMT 44.084831 -72.080055 36,975 43 533 -64
2021-11-18 05:22:35 GMT 44.079666 -72.086983 37,000 43 533 -128
2021-11-18 05:22:32 GMT 44.069515 -72.100456 37,000 43 533 -128
2021-11-18 05:22:29 GMT 44.069515 -72.100456 37,000 43 533 -128
2021-11-18 05:22:26 GMT 44.063461 -72.108566 37,000 43 533 -128
2021-11-18 05:22:22 GMT 44.057781 -72.116089 37,000 43 533 -128
2021-11-18 05:22:18 GMT 44.048676 -72.128181 37,000 43 533 -64
2021-11-18 05:22:14 GMT 44.041214 -72.138084 37,000 43 533 -64
2021-11-18 05:22:11 GMT 44.037643 -72.142807 37,000 43 532 64
2021-11-18 05:22:08 GMT 44.032700 -72.149452 37,000 43 532 0
2021-11-18 05:22:05 GMT 44.027149 -72.156761 37,000 43 532 0
2021-11-18 05:22:02 GMT 44.021843 -72.163826 37,000 43 532 0
2021-11-18 05:21:59 GMT 44.015095 -72.172783 37,000 43 531 0
2021-11-18 05:21:55 GMT 44.007973 -72.182205 37,000 43 531 -64
2021-11-18 05:21:51 GMT 44.000523 -72.192078 37,000 43 531 -64
2021-11-18 05:21:48 GMT 43.996986 -72.196785 36,975 43 531 0
2021-11-18 05:21:44 GMT 43.988617 -72.207832 37,000 43 531 0
2021-11-18 05:21:40 GMT 43.983112 -72.215096 36,975 43 532 64
2021-11-18 05:21:37 GMT 43.975113 -72.225655 36,975 43 532 64
2021-11-18 05:21:34 GMT 43.971382 -72.230598 36,975 43 532 64
2021-11-18 05:21:31 GMT 43.966400 -72.237198 36,975 43 532 0
2021-11-18 05:21:27 GMT 43.959457 -72.246414 36,975 43 532 0
2021-11-18 05:21:24 GMT 43.953598 -72.254135 36,975 43 532 -64
2021-11-18 05:21:20 GMT 43.945408 -72.264992 37,000 43 532 -64
2021-11-18 05:21:17 GMT 43.941696 -72.269920 37,000 43 532 -128
2021-11-18 05:21:14 GMT 43.935120 -72.278664 37,000 43 532 -128
2021-11-18 05:21:11 GMT 43.929932 -72.285439 37,000 43 531 -64
2021-11-18 05:21:08 GMT 43.923714 -72.293701 37,000 43 532 -64
2021-11-18 05:21:05 GMT 43.914078 -72.306320 37,000 43 532 -128
2021-11-18 05:21:02 GMT 43.914078 -72.306320 37,000 43 532 -128
2021-11-18 05:20:58 GMT 43.908352 -72.313843 37,000 43 532 -64
2021-11-18 05:20:55 GMT 43.901230 -72.323257 37,000 43 532 -64
2021-11-18 05:20:52 GMT 43.896618 -72.329338 37,000 43 532 -64
2021-11-18 05:20:49 GMT 43.890015 -72.338005 37,000 43 532 -64
2021-11-18 05:20:46 GMT 43.886608 -72.342484 37,000 43 530 0
2021-11-18 05:20:43 GMT 43.879669 -72.351616 37,000 43 531 0
2021-11-18 05:20:40 GMT 43.874180 -72.358833 37,000 43 531 0
2021-11-18 05:20:37 GMT 43.860123 -72.377289 37,000 43 530 64
2021-11-18 05:20:32 GMT 43.860123 -72.377289 37,000 43 530 64
2021-11-18 05:20:28 GMT 43.854954 -72.384010 37,000 43 529 64
2021-11-18 05:20:25 GMT 43.843781 -72.398750 36,975 43 529 64
2021-11-18 05:20:22 GMT 43.843781 -72.398750 36,975 43 531 -128
2021-11-18 05:20:19 GMT 43.837543 -72.406898 36,975 43 529 64
2021-11-18 05:20:16 GMT 43.833633 -72.412003 36,975 43 529 64
2021-11-18 05:20:12 GMT 43.825653 -72.422516 36,975 43 530 0
2021-11-18 05:20:09 GMT 43.819435 -72.430641 36,975 43 530 -64
2021-11-18 05:20:05 GMT 43.812881 -72.439316 36,975 43 531 -64
2021-11-18 05:20:02 GMT 43.803795 -72.451241 37,000 43 532 0
2021-11-18 05:19:59 GMT 43.803795 -72.451241 37,000 43 531 -64
2021-11-18 05:19:56 GMT 43.795601 -72.461960 37,000 43 531 -128
2021-11-18 05:19:53 GMT 43.790619 -72.468498 37,000 43 531 -128
2021-11-18 05:19:50 GMT 43.785095 -72.475723 37,000 43 531 -64
2021-11-18 05:19:47 GMT 43.780472 -72.481789 37,000 43 532 0
2021-11-18 05:19:44 GMT 43.775116 -72.488815 37,000 43 532 -64
2021-11-18 05:19:40 GMT 43.762619 -72.505165 37,000 43 533 0
2021-11-18 05:19:37 GMT 43.762619 -72.505165 37,000 43 533 -64
2021-11-18 05:19:34 GMT 43.757584 -72.511749 36,975 43 534 0
2021-11-18 05:19:31 GMT 43.750957 -72.520424 36,975 43 534 0
2021-11-18 05:19:28 GMT 43.745602 -72.527420 36,975 43 534 0
2021-11-18 05:19:25 GMT 43.742889 -72.530975 36,975 43 534 0
2021-11-18 05:19:22 GMT 43.729820 -72.548088 36,975 43 536 -64
2021-11-18 05:19:19 GMT 43.729820 -72.548088 36,975 43 536 -64
2021-11-18 05:19:15 GMT 43.723526 -72.556328 37,000 43 536 -64
2021-11-18 05:19:12 GMT 43.719910 -72.561058 37,000 43 536 -64
2021-11-18 05:19:08 GMT 43.711479 -72.572151 37,000 43 537 -64
2021-11-18 05:19:05 GMT 43.706081 -72.579216 36,975 43 537 -64
2021-11-18 05:19:02 GMT 43.699562 -72.587715 36,975 43 537 0
2021-11-18 05:18:59 GMT 43.696678 -72.591507 36,975 43 537 0
2021-11-18 05:18:56 GMT 43.690384 -72.599701 36,975 43 538 -64
2021-11-18 05:18:53 GMT 43.684982 -72.606789 36,975 43 538 -64
2021-11-18 05:18:49 GMT 43.677544 -72.616493 36,975 43 538 0
2021-11-18 05:18:46 GMT 43.672302 -72.623268 36,975 43 538 -64
2021-11-18 05:18:42 GMT 43.663113 -72.635323 36,975 43 538 -64
2021-11-18 05:18:39 GMT 43.657883 -72.642113 36,975 43 538 -64
2021-11-18 05:18:35 GMT 43.650650 -72.651566 37,000 43 536 -128
2021-11-18 05:18:32 GMT 43.647766 -72.655334 37,000 43 536 -128
2021-11-18 05:18:29 GMT 43.640022 -72.665405 36,975 43 536 -128
2021-11-18 05:18:26 GMT 43.635323 -72.671486 37,000 43 536 -128
2021-11-18 05:18:22 GMT 43.628998 -72.679733 37,000 43 536 -128
2021-11-18 05:18:19 GMT 43.622177 -72.688614 37,000 43 535 -128
2021-11-18 05:18:15 GMT 43.614990 -72.698006 37,000 43 535 -128
2021-11-18 05:18:12 GMT 43.610836 -72.703331 37,000 43 534 -64
2021-11-18 05:18:09 GMT 43.604736 -72.711311 37,000 43 534 -64
2021-11-18 05:18:06 GMT 43.598099 -72.719910 37,000 43 534 -64
2021-11-18 05:18:03 GMT 43.594482 -72.724571 37,000 43 533 0
2021-11-18 05:18:00 GMT 43.589977 -72.730408 37,000 43 533 0
2021-11-18 05:17:57 GMT 43.582485 -72.740150 36,975 43 533 -64
2021-11-18 05:17:54 GMT 43.577637 -72.746422 37,000 43 533 0
2021-11-18 05:17:51 GMT 43.571915 -72.753891 36,975 43 532 0
2021-11-18 05:17:48 GMT 43.566330 -72.761078 36,975 43 532 -64
2021-11-18 05:17:45 GMT 43.561676 -72.767097 37,000 43 531 0
2021-11-18 05:17:41 GMT 43.555252 -72.775467 36,975 43 531 -64
2021-11-18 05:17:38 GMT 43.548615 -72.784042 37,000 43 531 -64
2021-11-18 05:17:35 GMT 43.544170 -72.789787 36,975 43 531 0
2021-11-18 05:17:32 GMT 43.537170 -72.798859 36,975 43 531 -64
2021-11-18 05:17:29 GMT 43.534653 -72.802116 37,000 43 532 -64
2021-11-18 05:17:26 GMT 43.528198 -72.810425 36,975 43 532 -64
2021-11-18 05:17:23 GMT 43.522842 -72.817383 37,000 43 533 -64
2021-11-18 05:17:20 GMT 43.518009 -72.823662 37,000 43 533 -64
2021-11-18 05:17:17 GMT 43.511909 -72.831505 37,000 43 533 -64
2021-11-18 05:17:14 GMT 43.505440 -72.839882 37,000 43 533 -64
2021-11-18 05:17:11 GMT 43.500229 -72.846634 37,000 43 533 -64
2021-11-18 05:17:07 GMT 43.493408 -72.855453 37,000 43 534 -64
2021-11-18 05:17:04 GMT 43.489838 -72.860115 37,000 43 533 0
2021-11-18 05:17:01 GMT 43.481747 -72.870552 37,000 43 533 0
2021-11-18 05:16:58 GMT 43.476719 -72.877022 37,000 43 534 0
2021-11-18 05:16:55 GMT 43.470428 -72.885155 37,000 43 533 64
2021-11-18 05:16:52 GMT 43.467731 -72.888596 36,975 43 533 128
2021-11-18 05:16:49 GMT 43.461823 -72.896271 36,975 43 533 128
2021-11-18 05:16:46 GMT 43.455166 -72.904816 36,975 43 533 128
2021-11-18 05:16:43 GMT 43.449066 -72.912727 36,975 43 532 128
2021-11-18 05:16:39 GMT 43.442047 -72.921692 36,975 43 532 0
2021-11-18 05:16:36 GMT 43.437378 -72.927696 36,975 43 533 -64
2021-11-18 05:16:33 GMT 43.433762 -72.932358 36,975 43 533 -64
2021-11-18 05:16:30 GMT 43.425652 -72.942741 36,975 43 534 -64
2021-11-18 05:16:27 GMT 43.420994 -72.948761 36,975 43 534 -128
2021-11-18 05:16:24 GMT 43.415771 -72.955475 37,000 43 534 -128
2021-11-18 05:16:20 GMT 43.407486 -72.966080 37,000 43 534 -128
2021-11-18 05:16:17 GMT 43.398468 -72.977707 37,000 43 535 -64
2021-11-18 05:16:14 GMT 43.398468 -72.977707 37,000 43 535 -64
2021-11-18 05:16:11 GMT 43.393753 -72.983711 37,000 43 535 -64
2021-11-18 05:16:08 GMT 43.387428 -72.991859 37,000 43 535 -64
2021-11-18 05:16:04 GMT 43.374985 -73.007858 37,000 43 536 0
2021-11-18 05:16:01 GMT 43.374985 -73.007858 36,975 43 536 -64
2021-11-18 05:15:57 GMT 43.366158 -73.019257 36,975 43 536 0
2021-11-18 05:15:54 GMT 43.360710 -73.026253 36,975 43 536 0
2021-11-18 05:15:50 GMT 43.353287 -73.035767 36,975 43 536 -64
2021-11-18 05:15:46 GMT 43.348045 -73.042534 36,975 43 536 -64
2021-11-18 05:15:43 GMT 43.340832 -73.051888 37,000 43 536 -128
2021-11-18 05:15:40 GMT 43.337620 -73.056076 37,000 43 536 -64
2021-11-18 05:15:36 GMT 43.328796 -73.067574 37,000 43 536 -64
2021-11-18 05:15:33 GMT 43.323395 -73.074600 37,000 43 537 -64
2021-11-18 05:15:30 GMT 43.318535 -73.080925 37,000 43 536 -64
2021-11-18 05:15:27 GMT 43.314205 -73.086479 37,000 43 536 0
2021-11-18 05:15:24 GMT 43.306778 -73.096062 36,975 43 535 64
2021-11-18 05:15:20 GMT 43.299774 -73.105118 36,975 43 535 64
2021-11-18 05:15:16 GMT 43.294876 -73.111328 36,975 42 534 -64
2021-11-18 05:15:13 GMT 43.288742 -73.119186 36,975 42 534 0
2021-11-18 05:15:10 GMT 43.283108 -73.126373 36,975 42 534 0
2021-11-18 05:15:07 GMT 43.275890 -73.135597 37,000 42 533 -64
2021-11-18 05:15:04 GMT 43.271561 -73.141090 36,975 42 533 0
2021-11-18 05:15:01 GMT 43.267235 -73.146584 37,000 43 533 -64
2021-11-18 05:14:58 GMT 43.259811 -73.155975 37,000 43 533 -64
2021-11-18 05:14:55 GMT 43.255142 -73.161980 37,000 43 533 -64
2021-11-18 05:14:52 GMT 43.250614 -73.167770 37,000 43 533 -64
2021-11-18 05:14:49 GMT 43.245213 -73.174637 37,000 43 533 -64
2021-11-18 05:14:46 GMT 43.239815 -73.181564 37,000 43 533 -64
2021-11-18 05:14:43 GMT 43.232971 -73.190331 37,000 43 533 -64
2021-11-18 05:14:40 GMT 43.227722 -73.196983 36,975 43 533 -64
2021-11-18 05:14:36 GMT 43.220356 -73.206413 37,000 43 533 -64
2021-11-18 05:14:33 GMT 43.214035 -73.214424 37,000 43 533 -64
2021-11-18 05:14:30 GMT 43.210625 -73.218842 37,000 43 533 -64
2021-11-18 05:14:27 GMT 43.204155 -73.227081 37,000 43 533 -64
2021-11-18 05:14:24 GMT 43.198383 -73.234474 36,975 43 533 0
2021-11-18 05:14:21 GMT 43.192795 -73.241631 36,975 43 533 0
2021-11-18 05:14:18 GMT 43.189178 -73.246231 36,975 43 533 0
2021-11-18 05:14:15 GMT 43.183777 -73.253128 37,000 43 533 -64
2021-11-18 05:14:12 GMT 43.177277 -73.261368 37,000 43 533 -64
2021-11-18 05:14:08 GMT 43.170456 -73.270119 36,975 43 533 -64
2021-11-18 05:14:05 GMT 43.158554 -73.285263 36,975 43 533 -64
2021-11-18 05:14:02 GMT 43.158554 -73.285263 37,000 43 533 -64
2021-11-18 05:13:59 GMT 43.154617 -73.290306 37,000 43 533 -64
2021-11-18 05:13:55 GMT 43.146851 -73.300194 36,975 42 532 0
2021-11-18 05:13:52 GMT 43.143265 -73.304771 37,000 42 532 0
2021-11-18 05:13:49 GMT 43.136581 -73.313240 36,975 42 532 -64
2021-11-18 05:13:46 GMT 43.131718 -73.319420 36,975 42 532 -64
2021-11-18 05:13:43 GMT 43.125202 -73.327660 36,975 42 532 -64
2021-11-18 05:13:39 GMT 43.116348 -73.338913 37,000 42 532 -64
2021-11-18 05:13:36 GMT 43.113285 -73.342766 37,000 42 532 -64
2021-11-18 05:13:32 GMT 43.106277 -73.351692 37,000 42 532 -64
2021-11-18 05:13:29 GMT 43.100296 -73.359245 37,000 42 533 0
2021-11-18 05:13:26 GMT 43.094376 -73.366829 37,000 42 533 0
2021-11-18 05:13:22 GMT 43.088055 -73.374809 36,975 42 533 0
2021-11-18 05:13:19 GMT 43.081535 -73.383049 37,000 42 533 0
2021-11-18 05:13:15 GMT 43.075390 -73.390892 36,975 42 533 0
2021-11-18 05:13:12 GMT 43.069427 -73.398445 36,975 42 533 0
2021-11-18 05:13:08 GMT 43.063660 -73.405724 36,975 42 533 -64
2021-11-18 05:13:05 GMT 43.057327 -73.413719 37,000 42 533 -64
2021-11-18 05:13:02 GMT 43.052124 -73.420357 36,975 42 533 -64
2021-11-18 05:12:59 GMT 43.047226 -73.426537 37,000 42 533 -64
2021-11-18 05:12:56 GMT 43.039639 -73.436150 37,000 42 533 -64
2021-11-18 05:12:52 GMT 43.032578 -73.445076 36,975 42 533 -64
2021-11-18 05:12:49 GMT 43.026978 -73.452171 37,000 42 534 -64
2021-11-18 05:12:46 GMT 43.023148 -73.456955 37,000 42 534 -64
2021-11-18 05:12:41 GMT 43.014267 -73.468124 37,000 42 534 -64
2021-11-18 05:12:38 GMT 43.008682 -73.475220 36,975 42 534 -64
2021-11-18 05:12:35 GMT 43.003422 -73.481857 36,975 42 534 -64
2021-11-18 05:12:32 GMT 42.996159 -73.490952 36,975 42 534 -64
2021-11-18 05:12:29 GMT 42.991241 -73.497131 37,000 42 534 -64
2021-11-18 05:12:26 GMT 42.975677 -73.516800 37,000 42 534 0
2021-11-18 05:12:21 GMT 42.975677 -73.516800 37,000 42 534 -64
2021-11-18 05:12:17 GMT 42.969131 -73.525040 37,000 42 534 0
2021-11-18 05:12:14 GMT 42.966412 -73.528419 37,000 42 534 0
2021-11-18 05:12:11 GMT 42.958778 -73.538033 36,975 42 534 0
2021-11-18 05:12:08 GMT 42.946766 -73.553009 36,975 42 534 0
2021-11-18 05:12:05 GMT 42.946766 -73.553009 37,000 42 533 0
2021-11-18 05:12:01 GMT 42.940796 -73.560555 36,975 42 534 0
2021-11-18 05:11:58 GMT 42.935349 -73.567329 36,975 42 534 -64
2021-11-18 05:11:55 GMT 42.930222 -73.573715 36,975 42 533 -64
2021-11-18 05:11:52 GMT 42.923908 -73.581650 36,975 42 533 -64
2021-11-18 05:11:49 GMT 42.919693 -73.586876 36,975 42 533 -64
2021-11-18 05:11:46 GMT 42.913513 -73.594604 37,000 42 532 -64
2021-11-18 05:11:42 GMT 42.906281 -73.603668 37,000 42 532 -64
2021-11-18 05:11:39 GMT 42.901520 -73.609550 37,000 42 532 -64
2021-11-18 05:11:35 GMT 42.886806 -73.627884 36,975 42 535 0
2021-11-18 05:11:32 GMT 42.886806 -73.627884 37,000 42 534 -64
2021-11-18 05:11:29 GMT 42.881687 -73.634232 36,975 42 534 0
2021-11-18 05:11:25 GMT 42.874798 -73.642860 36,975 42 534 -64
2021-11-18 05:11:21 GMT 42.869305 -73.649666 37,000 42 535 -64
2021-11-18 05:11:18 GMT 42.863857 -73.656464 36,975 42 535 -64
2021-11-18 05:11:14 GMT 42.856705 -73.665314 37,000 42 535 -64
2021-11-18 05:11:11 GMT 42.848694 -73.675278 37,000 42 535 -64
2021-11-18 05:11:07 GMT 42.844120 -73.680923 36,975 42 536 0
2021-11-18 05:11:04 GMT 42.838673 -73.687790 37,000 42 535 0
2021-11-18 05:11:00 GMT 42.830994 -73.697334 37,000 42 535 0
2021-11-18 05:10:57 GMT 42.824055 -73.705971 36,975 42 535 0
2021-11-18 05:10:54 GMT 42.818607 -73.712769 36,975 42 536 0
2021-11-18 05:10:51 GMT 42.813114 -73.719635 36,975 42 536 0
2021-11-18 05:10:46 GMT 42.803833 -73.731186 36,975 42 535 -64
2021-11-18 05:10:43 GMT 42.799614 -73.736465 37,000 42 536 -64
2021-11-18 05:10:40 GMT 42.794914 -73.742409 36,975 42 536 -64
2021-11-18 05:10:37 GMT 42.787975 -73.751091 37,000 42 536 -64
2021-11-18 05:10:33 GMT 42.774944 -73.767639 37,000 43 536 -64
2021-11-18 05:10:30 GMT 42.774944 -73.767639 37,000 43 536 -64
2021-11-18 05:10:26 GMT 42.769218 -73.775108 37,000 44 536 64
2021-11-18 05:10:23 GMT 42.761536 -73.785118 37,000 44 537 0
2021-11-18 05:10:20 GMT 42.757233 -73.790794 36,975 44 537 64
2021-11-18 05:10:17 GMT 42.751759 -73.798103 36,975 44 537 0
2021-11-18 05:10:13 GMT 42.745926 -73.805901 36,975 44 537 0
2021-11-18 05:10:10 GMT 42.739197 -73.814888 36,975 44 537 0
2021-11-18 05:10:07 GMT 42.735466 -73.819824 36,975 44 537 -64
2021-11-18 05:10:04 GMT 42.729088 -73.828377 36,975 44 538 -64
2021-11-18 05:10:01 GMT 42.724319 -73.834740 37,000 44 537 -64
2021-11-18 05:09:58 GMT 42.718845 -73.842110 37,000 44 538 -64
2021-11-18 05:09:55 GMT 42.714237 -73.848244 37,000 45 537 -64
2021-11-18 05:09:52 GMT 42.707581 -73.857315 36,975 45 537 -64
2021-11-18 05:09:47 GMT 42.700012 -73.867577 37,000 45 537 0
2021-11-18 05:09:44 GMT 42.693848 -73.875900 36,975 45 537 64
2021-11-18 05:09:41 GMT 42.689285 -73.882095 36,975 45 537 64
2021-11-18 05:09:38 GMT 42.684723 -73.888229 37,000 45 537 0
2021-11-18 05:09:35 GMT 42.679092 -73.895897 36,975 44 536 0
2021-11-18 05:09:32 GMT 42.671364 -73.906303 36,975 44 536 0
2021-11-18 05:09:28 GMT 42.666962 -73.912270 36,975 44 536 0
2021-11-18 05:09:24 GMT 42.658375 -73.923935 36,975 44 536 -64
2021-11-18 05:09:21 GMT 42.653442 -73.930580 37,000 44 536 -64
2021-11-18 05:09:18 GMT 42.649796 -73.935555 36,975 44 536 -64
2021-11-18 05:09:15 GMT 42.642593 -73.945267 36,975 44 536 -64
2021-11-18 05:09:12 GMT 42.637287 -73.952362 36,975 44 536 -64
2021-11-18 05:09:08 GMT 42.624348 -73.969925 37,000 45 535 -64
2021-11-18 05:09:05 GMT 42.624348 -73.969925 37,000 45 535 -64
2021-11-18 05:09:02 GMT 42.621552 -73.973694 37,000 44 535 -64
2021-11-18 05:08:59 GMT 42.616470 -73.980560 37,000 45 535 -64
2021-11-18 05:08:56 GMT 42.610706 -73.988388 37,000 45 534 -64
2021-11-18 05:08:53 GMT 42.605621 -73.995293 37,000 45 534 -64
2021-11-18 05:08:50 GMT 42.594273 -74.010612 37,000 45 534 -64
2021-11-18 05:08:47 GMT 42.594273 -74.010612 37,000 44 533 -64
2021-11-18 05:08:44 GMT 42.588135 -74.018890 37,000 44 533 -64
2021-11-18 05:08:41 GMT 42.576965 -74.033997 37,000 44 533 -64
2021-11-18 05:08:37 GMT 42.576965 -74.033997 37,000 45 533 -64
2021-11-18 05:08:33 GMT 42.568764 -74.045105 37,000 45 533 -64
2021-11-18 05:08:30 GMT 42.563549 -74.052193 37,000 45 533 -64
2021-11-18 05:08:27 GMT 42.557419 -74.060394 37,000 45 533 -64
2021-11-18 05:08:23 GMT 42.551678 -74.068161 37,000 44 532 -64
2021-11-18 05:08:20 GMT 42.546093 -74.075699 37,000 45 533 0
2021-11-18 05:08:17 GMT 42.542770 -74.080185 37,000 45 533 0
2021-11-18 05:08:13 GMT 42.528488 -74.099472 37,000 44 533 0
2021-11-18 05:08:10 GMT 42.528488 -74.099472 37,000 44 533 0
2021-11-18 05:08:06 GMT 42.521164 -74.109398 37,000 44 533 0
2021-11-18 05:08:02 GMT 42.515041 -74.117599 37,000 44 533 64
2021-11-18 05:07:58 GMT 42.507313 -74.127953 36,975 44 534 64
2021-11-18 05:07:55 GMT 42.502102 -74.135040 36,975 44 535 64
2021-11-18 05:07:52 GMT 42.496468 -74.142578 36,975 44 535 -64
2021-11-18 05:07:49 GMT 42.492928 -74.147240 36,975 44 534 64
2021-11-18 05:07:47 GMT 42.490135 -74.151009 36,975 44 535 64
2021-11-18 05:07:44 GMT 42.484875 -74.158096 36,975 44 535 64
2021-11-18 05:07:41 GMT 42.479050 -74.165833 36,975 44 535 -64
2021-11-18 05:07:38 GMT 42.473785 -74.172882 36,975 44 535 -64
2021-11-18 05:07:35 GMT 42.467102 -74.181870 36,975 44 536 -64
2021-11-18 05:07:30 GMT 42.460575 -74.190544 37,000 44 535 -64
2021-11-18 05:07:27 GMT 42.453175 -74.200447 37,000 44 535 -64
2021-11-18 05:07:22 GMT 42.443527 -74.213455 37,000 44 535 -64
2021-11-18 05:07:19 GMT 42.439114 -74.219353 37,000 44 535 -64
2021-11-18 05:07:15 GMT 42.434227 -74.225929 37,000 44 535 -64
2021-11-18 05:07:12 GMT 42.427002 -74.235619 37,000 44 535 -64
2021-11-18 05:07:09 GMT 42.422588 -74.241516 37,000 44 535 -64
2021-11-18 05:07:06 GMT 42.417526 -74.248352 37,000 44 535 -64
2021-11-18 05:07:03 GMT 42.411896 -74.255844 37,000 44 535 -64
2021-11-18 05:06:59 GMT 42.404160 -74.266205 37,000 44 535 -64
2021-11-18 05:06:56 GMT 42.399216 -74.272820 37,000 44 535 64
2021-11-18 05:06:53 GMT 42.393074 -74.280991 37,000 44 535 -64
2021-11-18 05:06:50 GMT 42.389374 -74.285927 37,000 44 535 64
2021-11-18 05:06:47 GMT 42.382004 -74.295853 37,000 44 535 0
2021-11-18 05:06:44 GMT 42.379341 -74.299385 36,975 44 535 64
2021-11-18 05:06:40 GMT 42.371986 -74.309227 37,000 44 535 0
2021-11-18 05:06:37 GMT 42.365982 -74.317207 36,975 44 535 64
2021-11-18 05:06:33 GMT 42.358063 -74.327751 36,975 44 535 64
2021-11-18 05:06:29 GMT 42.351551 -74.336433 36,975 44 535 0
2021-11-18 05:06:26 GMT 42.346291 -74.343521 36,975 44 535 0
2021-11-18 05:06:23 GMT 42.343323 -74.347481 36,975 44 534 -64
2021-11-18 05:06:20 GMT 42.336792 -74.356171 36,975 44 534 -64
2021-11-18 05:06:17 GMT 42.330833 -74.364159 36,975 44 534 -64
2021-11-18 05:06:14 GMT 42.326111 -74.370453 37,000 44 534 -64
2021-11-18 05:06:09 GMT 42.318008 -74.381248 37,000 44 533 -64
2021-11-18 05:06:06 GMT 42.311562 -74.389900 37,000 44 533 -128
2021-11-18 05:06:03 GMT 42.308025 -74.394623 37,000 44 533 -64
2021-11-18 05:06:00 GMT 42.302811 -74.401649 37,000 44 533 -64
2021-11-18 05:05:57 GMT 42.295780 -74.410973 37,000 44 533 -64
2021-11-18 05:05:54 GMT 42.290520 -74.417999 37,000 44 533 -64
2021-11-18 05:05:51 GMT 42.284935 -74.425476 37,000 44 533 -64
2021-11-18 05:05:47 GMT 42.272827 -74.441612 37,000 44 533 -64
2021-11-18 05:05:44 GMT 42.272827 -74.441612 37,000 44 533 0
2021-11-18 05:05:41 GMT 42.267242 -74.449104 37,000 44 533 0
2021-11-18 05:05:38 GMT 42.262867 -74.454918 36,975 44 533 0
2021-11-18 05:05:36 GMT 42.258820 -74.460274 37,000 44 533 0
2021-11-18 05:05:33 GMT 42.254070 -74.466614 36,975 44 533 0
2021-11-18 05:05:28 GMT 42.245644 -74.477783 36,975 44 533 0
2021-11-18 05:05:26 GMT 42.241287 -74.483620 36,975 44 533 0
2021-11-18 05:05:23 GMT 42.235291 -74.491547 36,975 44 533 0
2021-11-18 05:05:19 GMT 42.223709 -74.506905 37,000 44 533 -64
2021-11-18 05:05:16 GMT 42.223709 -74.506905 36,975 44 533 -64
2021-11-18 05:05:13 GMT 42.218224 -74.514130 37,000 44 533 -64
2021-11-18 05:05:10 GMT 42.212769 -74.521324 37,000 44 533 -64
2021-11-18 05:05:07 GMT 42.208401 -74.527161 37,000 44 533 -64
2021-11-18 05:05:05 GMT 42.204712 -74.532059 37,000 44 533 -64
2021-11-18 05:05:02 GMT 42.199768 -74.538551 37,000 44 533 -64
2021-11-18 05:04:58 GMT 42.192764 -74.547852 37,000 44 533 -64
2021-11-18 05:04:55 GMT 42.186447 -74.556221 37,000 44 532 0
2021-11-18 05:04:52 GMT 42.181183 -74.563210 37,000 44 532 0
2021-11-18 05:04:48 GMT 42.174179 -74.572510 37,000 44 532 64
2021-11-18 05:04:44 GMT 42.165947 -74.583435 36,975 44 531 64
2021-11-18 05:04:41 GMT 42.162781 -74.587585 37,000 44 531 -64
2021-11-18 05:04:37 GMT 42.156448 -74.595955 36,975 44 532 0
2021-11-18 05:04:34 GMT 42.149422 -74.605217 36,975 44 531 -64
2021-11-18 05:04:31 GMT 42.145229 -74.610771 36,975 44 531 -64
2021-11-18 05:04:28 GMT 42.138947 -74.619080 37,000 44 531 -64
2021-11-18 05:04:24 GMT 42.131744 -74.628632 37,000 44 531 -64
2021-11-18 05:04:21 GMT 42.127213 -74.634682 37,000 44 531 -64
2021-11-18 05:04:18 GMT 42.116879 -74.648331 37,000 44 532 -64
2021-11-18 05:04:15 GMT 42.116879 -74.648331 37,000 44 531 -64
2021-11-18 05:04:12 GMT 42.110779 -74.656471 37,000 44 531 0
2021-11-18 05:04:08 GMT 42.105515 -74.663399 37,000 44 531 0
2021-11-18 05:04:04 GMT 42.096405 -74.675446 37,000 44 531 0
2021-11-18 05:04:01 GMT 42.087086 -74.687744 36,975 44 531 0
2021-11-18 05:03:58 GMT 42.087086 -74.687744 36,975 44 531 0
2021-11-18 05:03:56 GMT 42.084293 -74.691444 37,000 44 531 0
2021-11-18 05:03:53 GMT 42.077454 -74.700417 37,000 44 532 0
2021-11-18 05:03:50 GMT 42.071503 -74.708282 37,000 44 531 0
2021-11-18 05:03:47 GMT 42.069031 -74.711525 36,975 44 531 0
2021-11-18 05:03:44 GMT 42.063580 -74.718658 36,975 44 531 0
2021-11-18 05:03:40 GMT 42.055298 -74.729568 36,975 44 532 0
2021-11-18 05:03:37 GMT 42.051773 -74.734184 36,975 44 533 -64
2021-11-18 05:03:35 GMT 42.048248 -74.738808 36,975 44 532 0
2021-11-18 05:03:32 GMT 42.042816 -74.745934 36,975 44 532 0
2021-11-18 05:03:29 GMT 42.036812 -74.753784 36,975 44 532 -64
2021-11-18 05:03:26 GMT 42.030853 -74.761642 36,975 44 533 -64
2021-11-18 05:03:23 GMT 42.025360 -74.768829 37,000 44 533 -64
2021-11-18 05:03:20 GMT 42.020462 -74.775261 37,000 44 533 -64
2021-11-18 05:03:17 GMT 42.014099 -74.783562 37,000 44 533 -64
2021-11-18 05:03:14 GMT 42.010742 -74.787956 37,000 44 533 -64
2021-11-18 05:03:10 GMT 41.997009 -74.806038 37,000 44 533 -64
2021-11-18 05:03:07 GMT 41.997009 -74.806038 37,000 44 533 0
2021-11-18 05:03:04 GMT 41.993519 -74.810638 37,000 44 533 0
2021-11-18 05:02:59 GMT 41.984020 -74.823151 36,975 44 533 0
2021-11-18 05:02:56 GMT 41.978386 -74.830498 36,975 44 533 0
2021-11-18 05:02:53 GMT 41.974850 -74.835159 36,975 44 533 0
2021-11-18 05:02:50 GMT 41.968689 -74.843239 36,975 44 533 -64
2021-11-18 05:02:47 GMT 41.961815 -74.852219 36,975 44 533 -64
2021-11-18 05:02:44 GMT 41.956879 -74.858665 36,975 44 533 -64
2021-11-18 05:02:42 GMT 41.953217 -74.863525 36,975 44 533 -64
2021-11-18 05:02:39 GMT 41.946854 -74.871826 37,000 44 533 -64
2021-11-18 05:02:36 GMT 41.942822 -74.877190 37,000 44 533 -64
2021-11-18 05:02:33 GMT 41.937698 -74.883873 37,000 44 533 -64
2021-11-18 05:02:29 GMT 41.932068 -74.891243 37,000 44 533 -64
2021-11-18 05:02:26 GMT 41.925018 -74.900475 36,975 44 533 0
2021-11-18 05:02:23 GMT 41.917969 -74.909714 37,000 44 531 0
2021-11-18 05:02:20 GMT 41.914658 -74.914047 37,000 44 532 0
2021-11-18 05:02:17 GMT 41.910419 -74.919601 36,975 44 532 0
2021-11-18 05:02:14 GMT 41.904415 -74.927460 36,975 44 533 0
2021-11-18 05:02:10 GMT 41.891708 -74.944000 37,000 44 533 0
2021-11-18 05:02:07 GMT 41.891708 -74.944000 37,000 44 532 -64
2021-11-18 05:02:04 GMT 41.887146 -74.949944 37,000 44 532 -64
2021-11-18 05:02:02 GMT 41.883774 -74.954346 37,000 44 532 -64
2021-11-18 05:01:59 GMT 41.878143 -74.961716 37,000 44 532 -64
2021-11-18 05:01:56 GMT 41.872341 -74.969299 37,000 44 532 -64
2021-11-18 05:01:53 GMT 41.866150 -74.977318 37,000 44 531 -64
2021-11-18 05:01:50 GMT 41.862846 -74.981689 36,975 44 531 0
2021-11-18 05:01:47 GMT 41.857166 -74.989098 36,975 44 531 0
2021-11-18 05:01:44 GMT 41.850677 -74.997543 36,975 44 531 0
2021-11-18 05:01:42 GMT 41.847519 -75.001724 36,975 44 531 0
2021-11-18 05:01:38 GMT 41.841339 -75.009727 37,000 44 531 -64
2021-11-18 05:01:34 GMT 41.832321 -75.021393 37,000 44 531 -64
2021-11-18 05:01:30 GMT 41.826370 -75.029190 37,000 44 531 -64
2021-11-18 05:01:27 GMT 41.820530 -75.036751 37,000 44 531 -64
2021-11-18 05:01:23 GMT 41.815269 -75.043648 37,000 44 531 -64
2021-11-18 05:01:20 GMT 41.808746 -75.052101 37,000 44 531 -64
2021-11-18 05:01:17 GMT 41.803955 -75.058273 37,000 44 531 0
2021-11-18 05:01:14 GMT 41.797806 -75.066269 36,975 44 531 0
2021-11-18 05:01:11 GMT 41.792175 -75.073639 36,975 44 531 0
2021-11-18 05:01:07 GMT 41.785290 -75.082550 36,975 44 531 0
2021-11-18 05:01:03 GMT 41.780182 -75.089180 36,975 44 531 0
2021-11-18 05:01:01 GMT 41.777710 -75.092361 37,000 44 531 -64
2021-11-18 05:00:58 GMT 41.771027 -75.101105 36,975 44 531 -64
2021-11-18 05:00:55 GMT 41.763977 -75.110214 36,975 44 531 -64
2021-11-18 05:00:52 GMT 41.760452 -75.114838 36,975 44 531 -64
2021-11-18 05:00:49 GMT 41.753586 -75.123749 37,000 44 531 -64
2021-11-18 05:00:46 GMT 41.748871 -75.129883 37,000 44 531 -64
2021-11-18 05:00:42 GMT 41.742508 -75.138123 37,000 44 531 -64
2021-11-18 05:00:39 GMT 41.736687 -75.145653 37,000 44 531 -64
2021-11-18 05:00:36 GMT 41.726494 -75.158943 37,000 44 531 -64
2021-11-18 05:00:33 GMT 41.726494 -75.158943 37,000 44 531 -64
2021-11-18 05:00:31 GMT 41.722256 -75.164368 37,000 44 531 -64
2021-11-18 05:00:28 GMT 41.716995 -75.171204 37,000 44 531 -64
2021-11-18 05:00:25 GMT 41.706619 -75.184685 37,000 44 530 0
2021-11-18 05:00:22 GMT 41.706619 -75.184685 37,000 44 530 0
2021-11-18 05:00:19 GMT 41.703461 -75.188805 37,000 44 529 0
2021-11-18 05:00:16 GMT 41.696236 -75.198158 36,975 44 529 0
2021-11-18 05:00:12 GMT 41.690975 -75.204994 36,975 44 529 0
2021-11-18 05:00:10 GMT 41.685715 -75.211830 36,975 44 528 -64
2021-11-18 05:00:07 GMT 41.681152 -75.217705 36,975 44 529 -64
2021-11-18 05:00:04 GMT 41.676727 -75.223450 37,000 44 530 -64
2021-11-18 05:00:01 GMT 41.670586 -75.231377 36,975 44 528 0
2021-11-18 04:59:58 GMT 41.665695 -75.237762 37,000 44 528 0
2021-11-18 04:59:55 GMT 41.660389 -75.244598 37,000 44 528 -64
2021-11-18 04:59:52 GMT 41.653564 -75.253410 37,000 44 528 -64
2021-11-18 04:59:49 GMT 41.651093 -75.256599 37,000 44 528 0
2021-11-18 04:59:45 GMT 41.640743 -75.270020 37,000 44 528 0
2021-11-18 04:59:42 GMT 41.637039 -75.274765 36,975 44 528 0
2021-11-18 04:59:39 GMT 41.631409 -75.282005 36,975 30 522 64
2021-11-18 04:59:36 GMT 41.625614 -75.289497 36,975 44 528 -64
2021-11-18 04:59:32 GMT 41.619331 -75.297676 36,975 44 528 64
2021-11-18 04:59:29 GMT 41.613323 -75.305405 36,975 44 528 -64
2021-11-18 04:59:24 GMT 41.605270 -75.315811 36,975 44 528 -64
2021-11-18 04:59:21 GMT 41.599457 -75.323326 36,975 44 528 -64
2021-11-18 04:59:18 GMT 41.595245 -75.328758 36,975 43 529 -64
2021-11-18 04:59:15 GMT 41.589069 -75.336700 37,000 43 529 -64
2021-11-18 04:59:12 GMT 41.585209 -75.341621 37,000 43 529 -64
2021-11-18 04:59:09 GMT 41.578178 -75.350693 37,000 44 528 -64
2021-11-18 04:59:06 GMT 41.573090 -75.357224 37,000 44 528 64
2021-11-18 04:59:02 GMT 41.567982 -75.363785 37,000 44 528 0
2021-11-18 04:58:59 GMT 41.560776 -75.373077 36,975 44 528 64
2021-11-18 04:58:56 GMT 41.555145 -75.380318 36,975 44 528 0
2021-11-18 04:58:52 GMT 41.550060 -75.386909 36,975 44 528 64
2021-11-18 04:58:50 GMT 41.544617 -75.393929 36,975 44 528 -64
2021-11-18 04:58:47 GMT 41.541309 -75.398209 36,975 44 528 -64
2021-11-18 04:58:44 GMT 41.534500 -75.407097 36,975 44 528 -64
2021-11-18 04:58:41 GMT 41.528549 -75.414841 36,975 44 528 -64
2021-11-18 04:58:38 GMT 41.525391 -75.418892 37,000 43 528 -64
2021-11-18 04:58:35 GMT 41.519440 -75.426514 36,975 43 528 -64
2021-11-18 04:58:32 GMT 41.512253 -75.435371 37,000 42 527 -128
2021-11-18 04:58:27 GMT 41.498016 -75.452103 37,000 39 526 -64
2021-11-18 04:58:24 GMT 41.498016 -75.452103 37,000 39 526 -64
2021-11-18 04:58:21 GMT 41.493359 -75.457359 37,000 39 526 -64
2021-11-18 04:58:18 GMT 41.487167 -75.464149 37,000 38 525 -64
2021-11-18 04:58:15 GMT 41.482956 -75.468582 37,000 38 526 -64
2021-11-18 04:58:12 GMT 41.476276 -75.475563 36,975 34 523 0
2021-11-18 04:58:09 GMT 41.469292 -75.482590 37,000 36 524 0
2021-11-18 04:58:06 GMT 41.463272 -75.488495 37,000 35 524 -64
2021-11-18 04:58:03 GMT 41.456543 -75.494865 37,000 35 524 0
2021-11-18 04:58:01 GMT 41.456543 -75.494865 37,000 34 523 0
2021-11-18 04:57:58 GMT 41.449768 -75.501106 37,000 33 522 -64
2021-11-18 04:57:55 GMT 41.443550 -75.506668 37,000 33 522 -64
2021-11-18 04:57:52 GMT 41.436859 -75.512405 37,000 32 522 -64
2021-11-18 04:57:50 GMT 41.432980 -75.515678 37,000 31 521 0
2021-11-18 04:57:47 GMT 41.419388 -75.526596 37,000 30 521 64
2021-11-18 04:57:44 GMT 41.419388 -75.526596 37,000 30 520 0
2021-11-18 04:57:41 GMT 41.415199 -75.529854 36,975 30 521 0
2021-11-18 04:57:38 GMT 41.408340 -75.535187 36,975 30 521 0
2021-11-18 04:57:35 GMT 41.402351 -75.539886 36,975 30 521 0
2021-11-18 04:57:31 GMT 41.392960 -75.547173 37,000 30 521 -64
2021-11-18 04:57:27 GMT 41.383804 -75.554321 37,000 30 522 64
2021-11-18 04:57:24 GMT 41.378189 -75.558723 37,000 30 522 -64
2021-11-18 04:57:21 GMT 41.366364 -75.567993 37,000 30 522 -64
2021-11-18 04:57:18 GMT 41.366364 -75.567993 37,000 30 521 0
2021-11-18 04:57:15 GMT 41.359894 -75.573013 37,000 30 521 0
2021-11-18 04:57:11 GMT 41.352398 -75.578819 37,000 30 522 0
2021-11-18 04:57:08 GMT 41.347790 -75.582382 37,000 30 522 64
2021-11-18 04:57:05 GMT 41.340088 -75.588379 37,000 30 522 64
2021-11-18 04:57:02 GMT 41.332802 -75.594055 36,975 30 522 64
2021-11-18 04:56:59 GMT 41.326145 -75.599236 36,975 30 522 64
2021-11-18 04:56:57 GMT 41.322189 -75.602295 36,975 30 522 0
2021-11-18 04:56:54 GMT 41.316975 -75.606354 36,975 30 522 0
2021-11-18 04:56:51 GMT 41.308411 -75.612976 36,975 30 522 0
2021-11-18 04:56:48 GMT 41.305069 -75.615601 36,975 30 522 0
2021-11-18 04:56:44 GMT 41.287949 -75.628906 37,000 30 523 -64
2021-11-18 04:56:40 GMT 41.287949 -75.628906 37,000 30 523 -64
2021-11-18 04:56:37 GMT 41.279617 -75.635376 36,975 30 523 -64
2021-11-18 04:56:34 GMT 41.273960 -75.639809 37,000 30 523 -64
2021-11-18 04:56:31 GMT 41.270416 -75.642517 37,000 30 523 -64
2021-11-18 04:56:29 GMT 41.266251 -75.645813 37,000 30 524 64
2021-11-18 04:56:26 GMT 41.256592 -75.653259 37,000 30 524 -64
2021-11-18 04:56:23 GMT 41.251144 -75.657471 37,000 30 524 -64
2021-11-18 04:56:20 GMT 41.244873 -75.662354 37,000 30 524 0
2021-11-18 04:56:16 GMT 41.236908 -75.668518 36,975 30 524 64
2021-11-18 04:56:13 GMT 41.231270 -75.672890 36,975 30 524 0
2021-11-18 04:56:09 GMT 41.223953 -75.678589 36,975 30 524 64
2021-11-18 04:56:06 GMT 41.215351 -75.685249 36,975 30 523 -64
2021-11-18 04:56:03 GMT 41.209904 -75.689499 36,975 30 524 0
2021-11-18 04:55:59 GMT 41.203247 -75.694679 36,975 30 524 0
2021-11-18 04:55:56 GMT 41.196960 -75.699547 37,000 30 523 -64
2021-11-18 04:55:53 GMT 41.189838 -75.705040 36,975 30 523 -64
2021-11-18 04:55:50 GMT 41.180622 -75.712158 36,975 30 523 -64
2021-11-18 04:55:47 GMT 41.175430 -75.716187 37,000 30 523 -64
2021-11-18 04:55:43 GMT 41.167259 -75.722519 37,000 30 523 -64
2021-11-18 04:55:40 GMT 41.162842 -75.725891 36,975 30 523 -64
2021-11-18 04:55:37 GMT 41.154922 -75.732056 36,975 30 523 -64
2021-11-18 04:55:34 GMT 41.144028 -75.740417 37,000 30 523 -64
2021-11-18 04:55:31 GMT 41.144028 -75.740417 37,000 30 523 -64
2021-11-18 04:55:29 GMT 41.138817 -75.744431 37,000 30 523 0
2021-11-18 04:55:26 GMT 41.134415 -75.747864 36,975 30 523 0
2021-11-18 04:55:23 GMT 41.126293 -75.754105 36,975 30 523 -64
2021-11-18 04:55:20 GMT 41.120850 -75.758347 37,000 30 522 0
2021-11-18 04:55:17 GMT 41.113308 -75.764091 36,975 30 522 0
2021-11-18 04:55:14 GMT 41.107906 -75.768333 36,975 30 522 0
2021-11-18 04:55:11 GMT 41.100174 -75.774231 37,000 30 522 -64
2021-11-18 04:55:08 GMT 41.096176 -75.777321 37,000 30 522 -64
2021-11-18 04:55:05 GMT 41.089520 -75.782440 36,975 30 522 -64
2021-11-18 04:55:03 GMT 41.083054 -75.787415 36,975 30 522 -64
2021-11-18 04:55:00 GMT 41.079712 -75.789978 36,975 30 522 0
2021-11-18 04:54:58 GMT 41.074677 -75.793884 36,975 30 522 -64
2021-11-18 04:54:55 GMT 41.060074 -75.805115 37,000 30 522 -64
2021-11-18 04:54:51 GMT 41.060074 -75.805115 37,000 30 522 -64
2021-11-18 04:54:49 GMT 41.055496 -75.808655 37,000 30 522 -64
2021-11-18 04:54:45 GMT 41.047531 -75.814758 36,975 30 523 -64
2021-11-18 04:54:42 GMT 41.039383 -75.821022 37,000 30 523 -64
2021-11-18 04:54:39 GMT 41.033340 -75.825745 36,975 30 523 -64
2021-11-18 04:54:36 GMT 41.027481 -75.830261 37,000 30 523 -64
2021-11-18 04:54:33 GMT 41.020992 -75.835251 37,000 30 523 -64
2021-11-18 04:54:30 GMT 41.016804 -75.838432 37,000 30 523 -64
2021-11-18 04:54:28 GMT 41.011822 -75.842308 37,000 30 523 -64
2021-11-18 04:54:25 GMT 41.004700 -75.847801 37,000 30 523 -64
2021-11-18 04:54:20 GMT 40.994888 -75.855408 37,000 30 523 -64
2021-11-18 04:54:17 GMT 40.990501 -75.858788 37,000 30 523 0
2021-11-18 04:54:14 GMT 40.982758 -75.864746 36,975 30 523 0
2021-11-18 04:54:10 GMT 40.974792 -75.870850 37,000 30 522 0
2021-11-18 04:54:07 GMT 40.969601 -75.874825 36,975 30 522 -64
2021-11-18 04:54:04 GMT 40.962296 -75.880493 36,975 30 522 0
2021-11-18 04:54:02 GMT 40.957077 -75.884438 37,000 30 522 -64
2021-11-18 04:53:58 GMT 40.948471 -75.891052 36,975 30 522 -64
2021-11-18 04:53:54 GMT 40.939899 -75.897614 36,975 30 522 -64
2021-11-18 04:53:49 GMT 40.930309 -75.904976 36,975 30 522 0
2021-11-18 04:53:46 GMT 40.924255 -75.909607 37,000 30 522 -64
2021-11-18 04:53:43 GMT 40.918396 -75.914062 37,000 30 523 0
2021-11-18 04:53:40 GMT 40.909409 -75.920959 37,000 30 522 -64
2021-11-18 04:53:37 GMT 40.905441 -75.924011 37,000 30 522 -64
2021-11-18 04:53:33 GMT 40.896652 -75.930725 36,975 30 523 -64
2021-11-18 04:53:29 GMT 40.887203 -75.937874 36,975 30 523 0
2021-11-18 04:53:26 GMT 40.883850 -75.940498 36,975 30 523 -64
2021-11-18 04:53:23 GMT 40.874039 -75.947998 36,975 30 523 -64
2021-11-18 04:53:19 GMT 40.866718 -75.953606 36,975 30 523 -64
2021-11-18 04:53:16 GMT 40.862530 -75.956848 36,975 30 523 -64
2021-11-18 04:53:13 GMT 40.854153 -75.963219 36,975 30 523 -64
2021-11-18 04:53:09 GMT 40.845352 -75.969963 37,000 30 523 -64
2021-11-18 04:53:06 GMT 40.840073 -75.973999 37,000 30 523 -64
2021-11-18 04:53:02 GMT 40.832977 -75.979431 37,000 30 524 -64
2021-11-18 04:52:59 GMT 40.819107 -75.989990 37,000 30 524 -64
2021-11-18 04:52:56 GMT 40.819107 -75.989990 36,975 30 524 -64
2021-11-18 04:52:52 GMT 40.808853 -75.997864 36,975 30 525 0
2021-11-18 04:52:48 GMT 40.803589 -76.001892 37,000 30 524 -64
2021-11-18 04:52:46 GMT 40.797497 -76.006538 37,000 30 525 0
2021-11-18 04:52:41 GMT 40.781109 -76.019028 37,000 30 525 0
2021-11-18 04:52:38 GMT 40.781109 -76.019028 37,000 30 524 0
2021-11-18 04:52:35 GMT 40.775436 -76.023376 37,000 30 524 -64
2021-11-18 04:52:32 GMT 40.767239 -76.029633 36,975 30 524 0
2021-11-18 04:52:27 GMT 40.757183 -76.037315 36,975 30 524 -64
2021-11-18 04:52:24 GMT 40.753830 -76.039871 37,000 30 524 -64
2021-11-18 04:52:21 GMT 40.745823 -76.045929 36,975 30 523 -64
2021-11-18 04:52:18 GMT 40.740601 -76.049927 36,975 30 524 0
2021-11-18 04:52:16 GMT 40.734512 -76.054604 36,975 30 524 -64
2021-11-18 04:52:14 GMT 40.732635 -76.056030 37,000 30 524 0
2021-11-18 04:52:11 GMT 40.724670 -76.062073 37,000 30 524 0
2021-11-18 04:52:07 GMT 40.715424 -76.069153 37,000 30 524 0
2021-11-18 04:52:04 GMT 40.709328 -76.073769 36,975 30 524 0
2021-11-18 04:52:01 GMT 40.703041 -76.078514 36,975 30 523 0
2021-11-18 04:51:58 GMT 40.696976 -76.083130 36,975 30 523 -64
2021-11-18 04:51:55 GMT 40.691116 -76.087646 36,975 30 523 0
2021-11-18 04:51:52 GMT 40.686703 -76.090996 36,975 30 523 -64
2021-11-18 04:51:49 GMT 40.678528 -76.097168 36,975 30 523 -64
2021-11-18 04:51:46 GMT 40.672039 -76.102104 37,000 30 523 -64
2021-11-18 04:51:44 GMT 40.668045 -76.105103 37,000 30 523 -128
2021-11-18 04:51:40 GMT 40.659470 -76.111656 37,000 30 523 -64
2021-11-18 04:51:37 GMT 40.653187 -76.116402 37,000 30 523 -64
2021-11-18 04:51:34 GMT 40.646667 -76.121338 37,000 30 523 -64
2021-11-18 04:51:31 GMT 40.641872 -76.125015 37,000 30 523 -64
2021-11-18 04:51:28 GMT 40.635170 -76.130135 37,000 30 523 -64
2021-11-18 04:51:24 GMT 40.627209 -76.136131 37,000 30 523 -64
2021-11-18 04:51:21 GMT 40.618408 -76.142807 36,975 30 523 -64
2021-11-18 04:51:18 GMT 40.615059 -76.145363 37,000 29 522 0
2021-11-18 04:51:14 GMT 40.604782 -76.153137 37,000 29 522 -64
2021-11-18 04:51:12 GMT 40.601852 -76.155334 37,000 29 522 0
2021-11-18 04:51:09 GMT 40.594528 -76.160912 37,000 30 521 -64
2021-11-18 04:51:06 GMT 40.589081 -76.165031 37,000 30 521 -64
2021-11-18 04:51:03 GMT 40.583637 -76.169151 37,000 30 521 -64
2021-11-18 04:51:00 GMT 40.575302 -76.175453 37,000 30 521 -64
2021-11-18 04:50:57 GMT 40.570274 -76.179260 37,000 29 521 0
2021-11-18 04:50:54 GMT 40.563152 -76.184631 37,000 29 521 -64
2021-11-18 04:50:51 GMT 40.557953 -76.188538 37,000 29 521 -64
2021-11-18 04:50:47 GMT 40.550858 -76.193909 37,000 29 520 0
2021-11-18 04:50:45 GMT 40.545650 -76.197861 37,000 29 520 0
2021-11-18 04:50:42 GMT 40.536667 -76.204590 37,000 29 520 0
2021-11-18 04:50:39 GMT 40.530807 -76.209045 36,975 29 519 0
2021-11-18 04:50:36 GMT 40.523956 -76.214218 36,975 29 520 64
2021-11-18 04:50:33 GMT 40.520416 -76.216919 36,975 29 520 0
2021-11-18 04:50:30 GMT 40.514366 -76.221458 36,975 29 520 64
2021-11-18 04:50:27 GMT 40.506683 -76.227234 36,975 29 519 0
2021-11-18 04:50:23 GMT 40.497894 -76.233826 36,975 29 519 -64
2021-11-18 04:50:20 GMT 40.492905 -76.237610 36,975 29 520 -64
2021-11-18 04:50:17 GMT 40.487694 -76.241562 36,975 29 520 -64
2021-11-18 04:50:14 GMT 40.480198 -76.247177 36,975 29 520 -128
2021-11-18 04:50:12 GMT 40.475006 -76.251099 37,000 29 520 -64
2021-11-18 04:50:09 GMT 40.469769 -76.255043 37,000 29 520 -64
2021-11-18 04:50:06 GMT 40.463112 -76.260101 37,000 30 521 -64
2021-11-18 04:50:03 GMT 40.456875 -76.264847 37,000 30 521 -64
2021-11-18 04:50:00 GMT 40.449554 -76.270325 37,000 30 521 0
2021-11-18 04:49:57 GMT 40.443932 -76.274643 36,975 30 521 0
2021-11-18 04:49:54 GMT 40.438534 -76.278763 36,975 30 521 0
2021-11-18 04:49:51 GMT 40.430573 -76.284752 36,975 29 521 0
2021-11-18 04:49:48 GMT 40.425797 -76.288330 36,975 29 521 0
2021-11-18 04:49:46 GMT 40.421585 -76.291504 36,975 29 521 0
2021-11-18 04:49:43 GMT 40.415115 -76.296364 36,975 30 521 -64
2021-11-18 04:49:40 GMT 40.409500 -76.300659 36,975 30 521 -64
2021-11-18 04:49:37 GMT 40.401947 -76.306335 37,000 30 521 -64
2021-11-18 04:49:34 GMT 40.396545 -76.310425 36,975 30 521 -64
2021-11-18 04:49:31 GMT 40.389450 -76.315796 37,000 30 521 -64
2021-11-18 04:49:28 GMT 40.375626 -76.326172 37,000 30 521 -64
2021-11-18 04:49:24 GMT 40.370007 -76.330444 37,000 29 521 -64
2021-11-18 04:49:21 GMT 40.370007 -76.330444 37,000 29 521 -64
2021-11-18 04:49:18 GMT 40.362259 -76.336243 37,000 29 521 -64
2021-11-18 04:49:14 GMT 40.352829 -76.343307 37,000 29 521 -64
2021-11-18 04:49:11 GMT 40.347610 -76.347290 37,000 29 521 -64
2021-11-18 04:49:08 GMT 40.341984 -76.351486 37,000 29 521 -64
2021-11-18 04:49:06 GMT 40.337791 -76.354668 37,000 29 521 0
2021-11-18 04:49:03 GMT 40.332348 -76.358727 36,975 29 521 0
2021-11-18 04:49:00 GMT 40.323967 -76.365028 36,975 29 521 0
2021-11-18 04:48:57 GMT 40.320007 -76.367981 36,975 29 520 0
2021-11-18 04:48:55 GMT 40.313736 -76.372681 36,975 29 520 -64
2021-11-18 04:48:52 GMT 40.307465 -76.377380 36,975 29 520 -64
2021-11-18 04:48:49 GMT 40.303066 -76.380699 37,000 29 520 -64
2021-11-18 04:48:46 GMT 40.297028 -76.385193 37,000 29 518 -64
2021-11-18 04:48:43 GMT 40.291992 -76.388977 37,000 29 520 -64
2021-11-18 04:48:40 GMT 40.282425 -76.396118 37,000 29 520 -64
2021-11-18 04:48:37 GMT 40.278439 -76.399117 37,000 29 520 -64
2021-11-18 04:48:35 GMT 40.272400 -76.403625 37,000 29 520 -64
2021-11-18 04:48:32 GMT 40.268848 -76.406296 37,000 29 520 -64
2021-11-18 04:48:30 GMT 40.263031 -76.410660 37,000 29 518 -64
2021-11-18 04:48:27 GMT 40.252186 -76.418777 37,000 29 518 -64
2021-11-18 04:48:22 GMT 40.239899 -76.427979 37,000 29 518 -64
2021-11-18 04:48:19 GMT 40.239899 -76.427979 37,000 29 518 -64
2021-11-18 04:48:16 GMT 40.234085 -76.432312 37,000 29 518 -64
2021-11-18 04:48:13 GMT 40.227448 -76.437317 37,000 29 517 0
2021-11-18 04:48:11 GMT 40.223461 -76.440247 37,000 29 517 0
2021-11-18 04:48:07 GMT 40.215363 -76.446289 37,000 29 517 0
2021-11-18 04:48:05 GMT 40.210194 -76.450172 36,975 29 517 0
2021-11-18 04:48:02 GMT 40.204796 -76.454231 36,975 29 517 0
2021-11-18 04:47:59 GMT 40.198555 -76.458855 37,000 29 517 64
2021-11-18 04:47:56 GMT 40.192566 -76.463379 36,975 29 516 0
2021-11-18 04:47:53 GMT 40.185104 -76.468933 36,975 29 516 0
2021-11-18 04:47:50 GMT 40.179050 -76.473396 36,975 29 516 0
2021-11-18 04:47:47 GMT 40.172859 -76.478081 36,975 29 516 0
2021-11-18 04:47:45 GMT 40.170593 -76.479736 36,975 29 516 0
2021-11-18 04:47:42 GMT 40.163315 -76.485191 37,000 29 514 -64
2021-11-18 04:47:39 GMT 40.157318 -76.489685 36,975 29 515 -64
2021-11-18 04:47:36 GMT 40.151726 -76.493805 36,975 29 515 -64
2021-11-18 04:47:34 GMT 40.145485 -76.498489 36,975 29 515 -64
2021-11-18 04:47:31 GMT 40.139294 -76.503113 37,000 29 515 -64
2021-11-18 04:47:28 GMT 40.132874 -76.507874 37,000 29 515 -64
2021-11-18 04:47:25 GMT 40.128914 -76.510849 37,000 29 515 -64
2021-11-18 04:47:22 GMT 40.119415 -76.517906 37,000 29 515 -64
2021-11-18 04:47:18 GMT 40.112595 -76.523010 37,000 29 515 -64
2021-11-18 04:47:15 GMT 40.106148 -76.527763 37,000 29 515 0
2021-11-18 04:47:11 GMT 40.096233 -76.535194 37,000 29 515 0
2021-11-18 04:47:08 GMT 40.093140 -76.537537 37,000 29 515 0
2021-11-18 04:47:05 GMT 40.084900 -76.543640 37,000 29 514 0
2021-11-18 04:47:02 GMT 40.079288 -76.547806 36,975 29 514 64
2021-11-18 04:46:58 GMT 40.071838 -76.553360 36,975 29 514 0
2021-11-18 04:46:55 GMT 40.065857 -76.557800 36,975 29 514 0
2021-11-18 04:46:52 GMT 40.059677 -76.562378 36,975 29 514 0
2021-11-18 04:46:50 GMT 40.055313 -76.565590 36,975 29 514 -64
2021-11-18 04:46:46 GMT 40.047867 -76.571152 36,975 29 514 -64
2021-11-18 04:46:44 GMT 40.043518 -76.574402 36,975 29 514 -64
2021-11-18 04:46:41 GMT 40.038574 -76.578064 36,975 29 514 -64
2021-11-18 04:46:39 GMT 40.033386 -76.581886 36,975 29 515 -64
2021-11-18 04:46:36 GMT 40.026779 -76.586815 37,000 29 515 -64
2021-11-18 04:46:34 GMT 40.022049 -76.590393 37,000 29 515 -64
2021-11-18 04:46:31 GMT 40.012718 -76.597305 37,000 29 515 -64
2021-11-18 04:46:29 GMT 40.012718 -76.597305 37,000 29 515 -64
2021-11-18 04:46:26 GMT 40.005478 -76.602661 37,000 29 515 -64
2021-11-18 04:46:23 GMT 39.999916 -76.606857 37,000 29 515 -64
2021-11-18 04:46:20 GMT 39.991837 -76.612854 37,000 29 515 -64
2021-11-18 04:46:17 GMT 39.985813 -76.617279 37,000 29 515 -64
2021-11-18 04:46:14 GMT 39.982727 -76.619629 37,000 29 515 0
2021-11-18 04:46:11 GMT 39.974442 -76.625793 37,000 29 515 0
2021-11-18 04:46:08 GMT 39.969086 -76.629761 37,000 29 515 -64
2021-11-18 04:46:05 GMT 39.963684 -76.633789 37,000 29 515 -64
2021-11-18 04:46:03 GMT 39.957504 -76.638367 36,975 29 515 -64
2021-11-18 04:46:00 GMT 39.952927 -76.641785 37,000 29 514 0
2021-11-18 04:45:58 GMT 39.947571 -76.645752 37,000 29 514 0
2021-11-18 04:45:54 GMT 39.939697 -76.651611 37,000 29 515 -64
2021-11-18 04:45:51 GMT 39.933674 -76.656044 36,975 29 514 0
2021-11-18 04:45:48 GMT 39.925434 -76.662163 36,975 29 515 0
2021-11-18 04:45:44 GMT 39.919197 -76.666748 37,000 29 515 -64
2021-11-18 04:45:40 GMT 39.911133 -76.672691 37,000 29 515 0
2021-11-18 04:45:38 GMT 39.906765 -76.675903 37,000 29 515 -64
2021-11-18 04:45:35 GMT 39.898106 -76.682312 36,975 29 515 0
2021-11-18 04:45:32 GMT 39.892914 -76.686127 36,975 29 515 -64
2021-11-18 04:45:29 GMT 39.889820 -76.688416 37,000 29 514 -64
2021-11-18 04:45:26 GMT 39.880508 -76.695320 37,000 29 514 -64
2021-11-18 04:45:23 GMT 39.876553 -76.698242 36,975 29 514 0
2021-11-18 04:45:20 GMT 39.869339 -76.703560 37,000 29 514 0
2021-11-18 04:45:18 GMT 39.863571 -76.707855 36,975 29 514 0
2021-11-18 04:45:15 GMT 39.857559 -76.712280 37,000 29 514 0
2021-11-18 04:45:12 GMT 39.851166 -76.716995 37,000 29 514 -64
2021-11-18 04:45:09 GMT 39.844940 -76.721588 36,975 29 513 0
2021-11-18 04:45:05 GMT 39.838348 -76.726486 36,975 29 513 0
2021-11-18 04:45:02 GMT 39.833633 -76.729980 36,975 29 513 -64
2021-11-18 04:44:59 GMT 39.826603 -76.735168 37,000 29 513 -64
2021-11-18 04:44:55 GMT 39.812962 -76.745239 37,000 29 513 -64
2021-11-18 04:44:52 GMT 39.812962 -76.745239 37,000 29 513 -64
2021-11-18 04:44:49 GMT 39.805981 -76.750366 37,000 29 513 -64
2021-11-18 04:44:47 GMT 39.799988 -76.754784 37,000 29 513 -64
2021-11-18 04:44:44 GMT 39.793179 -76.759827 36,975 29 513 -64
2021-11-18 04:44:41 GMT 39.782471 -76.767700 37,000 29 513 0
2021-11-18 04:44:38 GMT 39.782471 -76.767700 37,000 29 513 0
2021-11-18 04:44:34 GMT 39.775024 -76.773193 36,975 29 512 -64
2021-11-18 04:44:31 GMT 39.767441 -76.778793 37,000 29 513 0
2021-11-18 04:44:28 GMT 39.761429 -76.783203 36,975 29 512 0
2021-11-18 04:44:25 GMT 39.755905 -76.787331 36,975 29 512 0
2021-11-18 04:44:23